<?xml version="1.0" encoding="UTF-8" standalone="no" ?>
<gpx xmlns="http://www.topografix.com/GPX/1/1" xmlns:xsi="http://www.w3.org/2001/XMLSchema-instance" xsi:schemaLocation="http://www.topografix.com/GPX/1/1 http://www.topografix.com/GPX/1/1/gpx.xsd" version="1.1" creator="VisuGPX - https://www.visugpx.com">
  <metadata>
    <name>region</name>
    <desc><![CDATA[[i][b][url][img][/img][/url][/b][/i]happy of this activity]]></desc>
  </metadata>
  <trk>
    <name><![CDATA[region_1]]></name>
    <trkseg>
      <trkpt lat="44.80739" lon="-0.38539">
        <ele>79</ele>
        <time>2022-04-03T09:02:35Z</time>
      </trkpt>
      <trkpt lat="44.80739" lon="-0.38539">
        <ele>78.8</ele>
        <time>2022-04-03T09:02:36Z</time>
      </trkpt>
      <trkpt lat="44.80732" lon="-0.38529">
        <ele>78</ele>
        <time>2022-04-03T09:02:37Z</time>
      </trkpt>
      <trkpt lat="44.80727" lon="-0.38525">
        <ele>76.6</ele>
        <time>2022-04-03T09:02:38Z</time>
      </trkpt>
      <trkpt lat="44.80723" lon="-0.38523">
        <ele>76</ele>
        <time>2022-04-03T09:02:39Z</time>
      </trkpt>
      <trkpt lat="44.8072" lon="-0.38522">
        <ele>75.8</ele>
        <time>2022-04-03T09:02:40Z</time>
      </trkpt>
      <trkpt lat="44.80718" lon="-0.3852">
        <ele>75.6</ele>
        <time>2022-04-03T09:02:41Z</time>
      </trkpt>
      <trkpt lat="44.80715" lon="-0.38517">
        <ele>75.2</ele>
        <time>2022-04-03T09:02:42Z</time>
      </trkpt>
      <trkpt lat="44.80711" lon="-0.38515">
        <ele>74.6</ele>
        <time>2022-04-03T09:02:43Z</time>
      </trkpt>
      <trkpt lat="44.80708" lon="-0.38511">
        <ele>74.4</ele>
        <time>2022-04-03T09:02:44Z</time>
      </trkpt>
      <trkpt lat="44.80705" lon="-0.38506">
        <ele>74.6</ele>
        <time>2022-04-03T09:02:45Z</time>
      </trkpt>
      <trkpt lat="44.80703" lon="-0.385">
        <ele>74.8</ele>
        <time>2022-04-03T09:02:46Z</time>
      </trkpt>
      <trkpt lat="44.80703" lon="-0.385">
        <ele>74.8</ele>
        <time>2022-04-03T09:02:47Z</time>
      </trkpt>
      <trkpt lat="44.80696" lon="-0.38494">
        <ele>74.4</ele>
        <time>2022-04-03T09:02:48Z</time>
      </trkpt>
      <trkpt lat="44.80692" lon="-0.38492">
        <ele>74.4</ele>
        <time>2022-04-03T09:02:49Z</time>
      </trkpt>
      <trkpt lat="44.80688" lon="-0.3849">
        <ele>73.8</ele>
        <time>2022-04-03T09:02:50Z</time>
      </trkpt>
      <trkpt lat="44.80685" lon="-0.38486">
        <ele>73.4</ele>
        <time>2022-04-03T09:02:51Z</time>
      </trkpt>
      <trkpt lat="44.80682" lon="-0.38483">
        <ele>73.4</ele>
        <time>2022-04-03T09:02:52Z</time>
      </trkpt>
      <trkpt lat="44.80681" lon="-0.3848">
        <ele>73.8</ele>
        <time>2022-04-03T09:02:53Z</time>
      </trkpt>
      <trkpt lat="44.8068" lon="-0.38478">
        <ele>74.2</ele>
        <time>2022-04-03T09:02:54Z</time>
      </trkpt>
      <trkpt lat="44.80678" lon="-0.38475">
        <ele>74.6</ele>
        <time>2022-04-03T09:02:55Z</time>
      </trkpt>
      <trkpt lat="44.80678" lon="-0.38475">
        <ele>74.6</ele>
        <time>2022-04-03T09:02:56Z</time>
      </trkpt>
      <trkpt lat="44.80678" lon="-0.38475">
        <ele>74</ele>
        <time>2022-04-03T09:02:57Z</time>
      </trkpt>
      <trkpt lat="44.80667" lon="-0.38473">
        <ele>72.8</ele>
        <time>2022-04-03T09:02:58Z</time>
      </trkpt>
      <trkpt lat="44.80662" lon="-0.38472">
        <ele>71.4</ele>
        <time>2022-04-03T09:02:59Z</time>
      </trkpt>
      <trkpt lat="44.80659" lon="-0.38469">
        <ele>71.4</ele>
        <time>2022-04-03T09:03:00Z</time>
      </trkpt>
      <trkpt lat="44.80658" lon="-0.38467">
        <ele>71.8</ele>
        <time>2022-04-03T09:03:01Z</time>
      </trkpt>
      <trkpt lat="44.80655" lon="-0.38464">
        <ele>72.2</ele>
        <time>2022-04-03T09:03:02Z</time>
      </trkpt>
      <trkpt lat="44.80651" lon="-0.38461">
        <ele>71.8</ele>
        <time>2022-04-03T09:03:03Z</time>
      </trkpt>
      <trkpt lat="44.80647" lon="-0.38458">
        <ele>71.6</ele>
        <time>2022-04-03T09:03:04Z</time>
      </trkpt>
      <trkpt lat="44.80644" lon="-0.38455">
        <ele>71.4</ele>
        <time>2022-04-03T09:03:05Z</time>
      </trkpt>
      <trkpt lat="44.80641" lon="-0.38452">
        <ele>71.2</ele>
        <time>2022-04-03T09:03:06Z</time>
      </trkpt>
      <trkpt lat="44.80641" lon="-0.38452">
        <ele>70.6</ele>
        <time>2022-04-03T09:03:07Z</time>
      </trkpt>
      <trkpt lat="44.80641" lon="-0.38452">
        <ele>70.2</ele>
        <time>2022-04-03T09:03:08Z</time>
      </trkpt>
      <trkpt lat="44.80632" lon="-0.3844">
        <ele>70</ele>
        <time>2022-04-03T09:03:09Z</time>
      </trkpt>
      <trkpt lat="44.80629" lon="-0.38436">
        <ele>70</ele>
        <time>2022-04-03T09:03:10Z</time>
      </trkpt>
      <trkpt lat="44.80627" lon="-0.38432">
        <ele>70</ele>
        <time>2022-04-03T09:03:11Z</time>
      </trkpt>
      <trkpt lat="44.80625" lon="-0.3843">
        <ele>69.8</ele>
        <time>2022-04-03T09:03:12Z</time>
      </trkpt>
      <trkpt lat="44.80624" lon="-0.38428">
        <ele>70</ele>
        <time>2022-04-03T09:03:13Z</time>
      </trkpt>
      <trkpt lat="44.80622" lon="-0.38426">
        <ele>70</ele>
        <time>2022-04-03T09:03:14Z</time>
      </trkpt>
      <trkpt lat="44.80621" lon="-0.38423">
        <ele>70</ele>
        <time>2022-04-03T09:03:15Z</time>
      </trkpt>
      <trkpt lat="44.80619" lon="-0.38421">
        <ele>69.6</ele>
        <time>2022-04-03T09:03:16Z</time>
      </trkpt>
      <trkpt lat="44.80619" lon="-0.38421">
        <ele>69.2</ele>
        <time>2022-04-03T09:03:17Z</time>
      </trkpt>
      <trkpt lat="44.80619" lon="-0.38421">
        <ele>69.2</ele>
        <time>2022-04-03T09:03:18Z</time>
      </trkpt>
      <trkpt lat="44.80612" lon="-0.38412">
        <ele>68.8</ele>
        <time>2022-04-03T09:03:19Z</time>
      </trkpt>
      <trkpt lat="44.80609" lon="-0.38409">
        <ele>68.4</ele>
        <time>2022-04-03T09:03:20Z</time>
      </trkpt>
      <trkpt lat="44.80607" lon="-0.38406">
        <ele>68</ele>
        <time>2022-04-03T09:03:21Z</time>
      </trkpt>
      <trkpt lat="44.80605" lon="-0.38402">
        <ele>68.2</ele>
        <time>2022-04-03T09:03:22Z</time>
      </trkpt>
      <trkpt lat="44.80603" lon="-0.38398">
        <ele>67.8</ele>
        <time>2022-04-03T09:03:23Z</time>
      </trkpt>
      <trkpt lat="44.80601" lon="-0.38397">
        <ele>67.8</ele>
        <time>2022-04-03T09:03:24Z</time>
      </trkpt>
      <trkpt lat="44.80598" lon="-0.38397">
        <ele>67.6</ele>
        <time>2022-04-03T09:03:25Z</time>
      </trkpt>
      <trkpt lat="44.80594" lon="-0.38394">
        <ele>67.8</ele>
        <time>2022-04-03T09:03:26Z</time>
      </trkpt>
      <trkpt lat="44.80592" lon="-0.38394">
        <ele>67.4</ele>
        <time>2022-04-03T09:03:27Z</time>
      </trkpt>
      <trkpt lat="44.80592" lon="-0.38394">
        <ele>67.2</ele>
        <time>2022-04-03T09:03:28Z</time>
      </trkpt>
      <trkpt lat="44.80583" lon="-0.38392">
        <ele>66.8</ele>
        <time>2022-04-03T09:03:29Z</time>
      </trkpt>
      <trkpt lat="44.80581" lon="-0.38389">
        <ele>66.6</ele>
        <time>2022-04-03T09:03:30Z</time>
      </trkpt>
      <trkpt lat="44.80579" lon="-0.38383">
        <ele>66.6</ele>
        <time>2022-04-03T09:03:31Z</time>
      </trkpt>
      <trkpt lat="44.80579" lon="-0.38378">
        <ele>66.8</ele>
        <time>2022-04-03T09:03:32Z</time>
      </trkpt>
      <trkpt lat="44.80579" lon="-0.38375">
        <ele>67.2</ele>
        <time>2022-04-03T09:03:33Z</time>
      </trkpt>
      <trkpt lat="44.80579" lon="-0.38374">
        <ele>67.6</ele>
        <time>2022-04-03T09:03:34Z</time>
      </trkpt>
      <trkpt lat="44.80579" lon="-0.38374">
        <ele>67.6</ele>
        <time>2022-04-03T09:03:35Z</time>
      </trkpt>
      <trkpt lat="44.80579" lon="-0.38375">
        <ele>68.2</ele>
        <time>2022-04-03T09:03:36Z</time>
      </trkpt>
      <trkpt lat="44.8058" lon="-0.38377">
        <ele>68.2</ele>
        <time>2022-04-03T09:03:37Z</time>
      </trkpt>
      <trkpt lat="44.8058" lon="-0.38377">
        <ele>68.8</ele>
        <time>2022-04-03T09:03:38Z</time>
      </trkpt>
      <trkpt lat="44.80582" lon="-0.38381">
        <ele>69</ele>
        <time>2022-04-03T09:03:39Z</time>
      </trkpt>
      <trkpt lat="44.80583" lon="-0.38383">
        <ele>69.6</ele>
        <time>2022-04-03T09:03:40Z</time>
      </trkpt>
      <trkpt lat="44.80586" lon="-0.38385">
        <ele>70</ele>
        <time>2022-04-03T09:03:41Z</time>
      </trkpt>
      <trkpt lat="44.80589" lon="-0.38387">
        <ele>70.2</ele>
        <time>2022-04-03T09:03:42Z</time>
      </trkpt>
      <trkpt lat="44.80592" lon="-0.3839">
        <ele>70.6</ele>
        <time>2022-04-03T09:03:43Z</time>
      </trkpt>
      <trkpt lat="44.80595" lon="-0.38394">
        <ele>71</ele>
        <time>2022-04-03T09:03:44Z</time>
      </trkpt>
      <trkpt lat="44.80598" lon="-0.38397">
        <ele>71.2</ele>
        <time>2022-04-03T09:03:45Z</time>
      </trkpt>
      <trkpt lat="44.806" lon="-0.38401">
        <ele>71</ele>
        <time>2022-04-03T09:03:46Z</time>
      </trkpt>
      <trkpt lat="44.80603" lon="-0.38407">
        <ele>71</ele>
        <time>2022-04-03T09:03:47Z</time>
      </trkpt>
      <trkpt lat="44.80605" lon="-0.38411">
        <ele>71</ele>
        <time>2022-04-03T09:03:48Z</time>
      </trkpt>
      <trkpt lat="44.80605" lon="-0.38411">
        <ele>71.2</ele>
        <time>2022-04-03T09:03:49Z</time>
      </trkpt>
      <trkpt lat="44.80612" lon="-0.3842">
        <ele>71.6</ele>
        <time>2022-04-03T09:03:50Z</time>
      </trkpt>
      <trkpt lat="44.80615" lon="-0.38424">
        <ele>72</ele>
        <time>2022-04-03T09:03:51Z</time>
      </trkpt>
      <trkpt lat="44.80619" lon="-0.38427">
        <ele>72</ele>
        <time>2022-04-03T09:03:52Z</time>
      </trkpt>
      <trkpt lat="44.80622" lon="-0.3843">
        <ele>72.6</ele>
        <time>2022-04-03T09:03:53Z</time>
      </trkpt>
      <trkpt lat="44.80626" lon="-0.38432">
        <ele>73.2</ele>
        <time>2022-04-03T09:03:54Z</time>
      </trkpt>
      <trkpt lat="44.8063" lon="-0.38434">
        <ele>73.4</ele>
        <time>2022-04-03T09:03:55Z</time>
      </trkpt>
      <trkpt lat="44.80634" lon="-0.38437">
        <ele>73.8</ele>
        <time>2022-04-03T09:03:56Z</time>
      </trkpt>
      <trkpt lat="44.80638" lon="-0.3844">
        <ele>74</ele>
        <time>2022-04-03T09:03:57Z</time>
      </trkpt>
      <trkpt lat="44.80638" lon="-0.3844">
        <ele>74.2</ele>
        <time>2022-04-03T09:03:58Z</time>
      </trkpt>
      <trkpt lat="44.80646" lon="-0.38446">
        <ele>74.4</ele>
        <time>2022-04-03T09:03:59Z</time>
      </trkpt>
      <trkpt lat="44.80649" lon="-0.3845">
        <ele>74.6</ele>
        <time>2022-04-03T09:04:00Z</time>
      </trkpt>
      <trkpt lat="44.80653" lon="-0.38453">
        <ele>75.2</ele>
        <time>2022-04-03T09:04:01Z</time>
      </trkpt>
      <trkpt lat="44.80656" lon="-0.38456">
        <ele>75.8</ele>
        <time>2022-04-03T09:04:02Z</time>
      </trkpt>
      <trkpt lat="44.80658" lon="-0.38459">
        <ele>76.4</ele>
        <time>2022-04-03T09:04:03Z</time>
      </trkpt>
      <trkpt lat="44.80661" lon="-0.38461">
        <ele>77</ele>
        <time>2022-04-03T09:04:04Z</time>
      </trkpt>
      <trkpt lat="44.80663" lon="-0.38463">
        <ele>77</ele>
        <time>2022-04-03T09:04:05Z</time>
      </trkpt>
      <trkpt lat="44.80665" lon="-0.38465">
        <ele>77.2</ele>
        <time>2022-04-03T09:04:06Z</time>
      </trkpt>
      <trkpt lat="44.80667" lon="-0.38468">
        <ele>77.2</ele>
        <time>2022-04-03T09:04:07Z</time>
      </trkpt>
      <trkpt lat="44.80669" lon="-0.3847">
        <ele>77.6</ele>
        <time>2022-04-03T09:04:08Z</time>
      </trkpt>
      <trkpt lat="44.80669" lon="-0.3847">
        <ele>77.6</ele>
        <time>2022-04-03T09:04:09Z</time>
      </trkpt>
      <trkpt lat="44.80672" lon="-0.38475">
        <ele>77.4</ele>
        <time>2022-04-03T09:04:10Z</time>
      </trkpt>
      <trkpt lat="44.80673" lon="-0.38478">
        <ele>77.2</ele>
        <time>2022-04-03T09:04:11Z</time>
      </trkpt>
      <trkpt lat="44.80676" lon="-0.38481">
        <ele>77.2</ele>
        <time>2022-04-03T09:04:12Z</time>
      </trkpt>
      <trkpt lat="44.80678" lon="-0.38483">
        <ele>77.2</ele>
        <time>2022-04-03T09:04:13Z</time>
      </trkpt>
      <trkpt lat="44.8068" lon="-0.38483">
        <ele>77.4</ele>
        <time>2022-04-03T09:04:14Z</time>
      </trkpt>
      <trkpt lat="44.80682" lon="-0.38484">
        <ele>77.2</ele>
        <time>2022-04-03T09:04:15Z</time>
      </trkpt>
      <trkpt lat="44.80685" lon="-0.38484">
        <ele>77.2</ele>
        <time>2022-04-03T09:04:16Z</time>
      </trkpt>
      <trkpt lat="44.80687" lon="-0.38484">
        <ele>76.6</ele>
        <time>2022-04-03T09:04:17Z</time>
      </trkpt>
      <trkpt lat="44.80689" lon="-0.38485">
        <ele>76.4</ele>
        <time>2022-04-03T09:04:18Z</time>
      </trkpt>
      <trkpt lat="44.80691" lon="-0.38484">
        <ele>77</ele>
        <time>2022-04-03T09:04:20Z</time>
      </trkpt>
      <trkpt lat="44.80693" lon="-0.38483">
        <ele>77.6</ele>
        <time>2022-04-03T09:04:21Z</time>
      </trkpt>
      <trkpt lat="44.80694" lon="-0.38481">
        <ele>78.2</ele>
        <time>2022-04-03T09:04:22Z</time>
      </trkpt>
      <trkpt lat="44.80694" lon="-0.38481">
        <ele>78.6</ele>
        <time>2022-04-03T09:04:23Z</time>
      </trkpt>
      <trkpt lat="44.80695" lon="-0.38481">
        <ele>78.8</ele>
        <time>2022-04-03T09:04:24Z</time>
      </trkpt>
      <trkpt lat="44.80695" lon="-0.3848">
        <ele>79</ele>
        <time>2022-04-03T09:04:25Z</time>
      </trkpt>
      <trkpt lat="44.80695" lon="-0.3848">
        <ele>79.4</ele>
        <time>2022-04-03T09:04:26Z</time>
      </trkpt>
      <trkpt lat="44.80696" lon="-0.38479">
        <ele>79.4</ele>
        <time>2022-04-03T09:04:27Z</time>
      </trkpt>
      <trkpt lat="44.80696" lon="-0.38477">
        <ele>80</ele>
        <time>2022-04-03T09:04:28Z</time>
      </trkpt>
      <trkpt lat="44.80697" lon="-0.38474">
        <ele>80.4</ele>
        <time>2022-04-03T09:04:29Z</time>
      </trkpt>
      <trkpt lat="44.80697" lon="-0.38474">
        <ele>81.2</ele>
        <time>2022-04-03T09:04:30Z</time>
      </trkpt>
      <trkpt lat="44.80697" lon="-0.38467">
        <ele>81.4</ele>
        <time>2022-04-03T09:04:31Z</time>
      </trkpt>
      <trkpt lat="44.80697" lon="-0.38463">
        <ele>81.8</ele>
        <time>2022-04-03T09:04:32Z</time>
      </trkpt>
      <trkpt lat="44.80698" lon="-0.38459">
        <ele>82.6</ele>
        <time>2022-04-03T09:04:33Z</time>
      </trkpt>
      <trkpt lat="44.80699" lon="-0.38455">
        <ele>82.6</ele>
        <time>2022-04-03T09:04:34Z</time>
      </trkpt>
      <trkpt lat="44.80699" lon="-0.38452">
        <ele>83.4</ele>
        <time>2022-04-03T09:04:35Z</time>
      </trkpt>
      <trkpt lat="44.80701" lon="-0.38449">
        <ele>84</ele>
        <time>2022-04-03T09:04:36Z</time>
      </trkpt>
      <trkpt lat="44.80702" lon="-0.38445">
        <ele>84.4</ele>
        <time>2022-04-03T09:04:37Z</time>
      </trkpt>
      <trkpt lat="44.80702" lon="-0.38442">
        <ele>85</ele>
        <time>2022-04-03T09:04:38Z</time>
      </trkpt>
      <trkpt lat="44.80702" lon="-0.38442">
        <ele>85.6</ele>
        <time>2022-04-03T09:04:39Z</time>
      </trkpt>
      <trkpt lat="44.80702" lon="-0.38442">
        <ele>86</ele>
        <time>2022-04-03T09:04:40Z</time>
      </trkpt>
      <trkpt lat="44.80702" lon="-0.38432">
        <ele>86.4</ele>
        <time>2022-04-03T09:04:41Z</time>
      </trkpt>
      <trkpt lat="44.80702" lon="-0.38429">
        <ele>86.8</ele>
        <time>2022-04-03T09:04:42Z</time>
      </trkpt>
      <trkpt lat="44.807" lon="-0.38426">
        <ele>87.4</ele>
        <time>2022-04-03T09:04:43Z</time>
      </trkpt>
      <trkpt lat="44.80698" lon="-0.38423">
        <ele>87.6</ele>
        <time>2022-04-03T09:04:44Z</time>
      </trkpt>
      <trkpt lat="44.80696" lon="-0.38421">
        <ele>87.4</ele>
        <time>2022-04-03T09:04:45Z</time>
      </trkpt>
      <trkpt lat="44.80693" lon="-0.38419">
        <ele>87.2</ele>
        <time>2022-04-03T09:04:46Z</time>
      </trkpt>
      <trkpt lat="44.80691" lon="-0.38417">
        <ele>87</ele>
        <time>2022-04-03T09:04:47Z</time>
      </trkpt>
      <trkpt lat="44.80687" lon="-0.38416">
        <ele>87.2</ele>
        <time>2022-04-03T09:04:48Z</time>
      </trkpt>
      <trkpt lat="44.80684" lon="-0.38416">
        <ele>86.6</ele>
        <time>2022-04-03T09:04:49Z</time>
      </trkpt>
      <trkpt lat="44.80684" lon="-0.38416">
        <ele>86</ele>
        <time>2022-04-03T09:04:50Z</time>
      </trkpt>
      <trkpt lat="44.80684" lon="-0.38416">
        <ele>85</ele>
        <time>2022-04-03T09:04:51Z</time>
      </trkpt>
      <trkpt lat="44.80677" lon="-0.38423">
        <ele>84.4</ele>
        <time>2022-04-03T09:04:52Z</time>
      </trkpt>
      <trkpt lat="44.80675" lon="-0.38425">
        <ele>83.6</ele>
        <time>2022-04-03T09:04:53Z</time>
      </trkpt>
      <trkpt lat="44.80673" lon="-0.38424">
        <ele>83.4</ele>
        <time>2022-04-03T09:04:54Z</time>
      </trkpt>
      <trkpt lat="44.8067" lon="-0.3842">
        <ele>83.4</ele>
        <time>2022-04-03T09:04:55Z</time>
      </trkpt>
      <trkpt lat="44.80671" lon="-0.38417">
        <ele>83.6</ele>
        <time>2022-04-03T09:04:56Z</time>
      </trkpt>
      <trkpt lat="44.80671" lon="-0.38413">
        <ele>84</ele>
        <time>2022-04-03T09:04:57Z</time>
      </trkpt>
      <trkpt lat="44.80671" lon="-0.3841">
        <ele>84.2</ele>
        <time>2022-04-03T09:04:58Z</time>
      </trkpt>
      <trkpt lat="44.8067" lon="-0.38405">
        <ele>84.4</ele>
        <time>2022-04-03T09:04:59Z</time>
      </trkpt>
      <trkpt lat="44.8067" lon="-0.38405">
        <ele>84.6</ele>
        <time>2022-04-03T09:05:00Z</time>
      </trkpt>
      <trkpt lat="44.8067" lon="-0.38405">
        <ele>84.4</ele>
        <time>2022-04-03T09:05:01Z</time>
      </trkpt>
      <trkpt lat="44.80669" lon="-0.38393">
        <ele>84.6</ele>
        <time>2022-04-03T09:05:02Z</time>
      </trkpt>
      <trkpt lat="44.80666" lon="-0.3839">
        <ele>84.4</ele>
        <time>2022-04-03T09:05:03Z</time>
      </trkpt>
      <trkpt lat="44.80663" lon="-0.38385">
        <ele>84.6</ele>
        <time>2022-04-03T09:05:04Z</time>
      </trkpt>
      <trkpt lat="44.8066" lon="-0.38381">
        <ele>84</ele>
        <time>2022-04-03T09:05:05Z</time>
      </trkpt>
      <trkpt lat="44.80657" lon="-0.38375">
        <ele>84</ele>
        <time>2022-04-03T09:05:06Z</time>
      </trkpt>
      <trkpt lat="44.80654" lon="-0.38368">
        <ele>83.8</ele>
        <time>2022-04-03T09:05:07Z</time>
      </trkpt>
      <trkpt lat="44.80651" lon="-0.38361">
        <ele>84.2</ele>
        <time>2022-04-03T09:05:08Z</time>
      </trkpt>
      <trkpt lat="44.80648" lon="-0.38354">
        <ele>83.8</ele>
        <time>2022-04-03T09:05:09Z</time>
      </trkpt>
      <trkpt lat="44.80647" lon="-0.38346">
        <ele>83.6</ele>
        <time>2022-04-03T09:05:10Z</time>
      </trkpt>
      <trkpt lat="44.80647" lon="-0.38346">
        <ele>83.8</ele>
        <time>2022-04-03T09:05:11Z</time>
      </trkpt>
      <trkpt lat="44.80644" lon="-0.38333">
        <ele>83.8</ele>
        <time>2022-04-03T09:05:12Z</time>
      </trkpt>
      <trkpt lat="44.80641" lon="-0.38328">
        <ele>84</ele>
        <time>2022-04-03T09:05:13Z</time>
      </trkpt>
      <trkpt lat="44.80638" lon="-0.38323">
        <ele>84</ele>
        <time>2022-04-03T09:05:14Z</time>
      </trkpt>
      <trkpt lat="44.80638" lon="-0.38317">
        <ele>84</ele>
        <time>2022-04-03T09:05:15Z</time>
      </trkpt>
      <trkpt lat="44.80639" lon="-0.3831">
        <ele>84</ele>
        <time>2022-04-03T09:05:16Z</time>
      </trkpt>
      <trkpt lat="44.80641" lon="-0.38305">
        <ele>84.4</ele>
        <time>2022-04-03T09:05:17Z</time>
      </trkpt>
      <trkpt lat="44.80641" lon="-0.38299">
        <ele>84.4</ele>
        <time>2022-04-03T09:05:18Z</time>
      </trkpt>
      <trkpt lat="44.80641" lon="-0.38293">
        <ele>84.4</ele>
        <time>2022-04-03T09:05:19Z</time>
      </trkpt>
      <trkpt lat="44.80641" lon="-0.38286">
        <ele>84.2</ele>
        <time>2022-04-03T09:05:20Z</time>
      </trkpt>
      <trkpt lat="44.80641" lon="-0.38286">
        <ele>84.2</ele>
        <time>2022-04-03T09:05:21Z</time>
      </trkpt>
      <trkpt lat="44.80641" lon="-0.38273">
        <ele>84.2</ele>
        <time>2022-04-03T09:05:22Z</time>
      </trkpt>
      <trkpt lat="44.8064" lon="-0.38272">
        <ele>84.2</ele>
        <time>2022-04-03T09:05:23Z</time>
      </trkpt>
      <trkpt lat="44.80638" lon="-0.38275">
        <ele>83.6</ele>
        <time>2022-04-03T09:05:24Z</time>
      </trkpt>
      <trkpt lat="44.80636" lon="-0.3828">
        <ele>83.2</ele>
        <time>2022-04-03T09:05:25Z</time>
      </trkpt>
      <trkpt lat="44.80633" lon="-0.38282">
        <ele>82.2</ele>
        <time>2022-04-03T09:05:26Z</time>
      </trkpt>
      <trkpt lat="44.80629" lon="-0.38286">
        <ele>81</ele>
        <time>2022-04-03T09:05:27Z</time>
      </trkpt>
      <trkpt lat="44.80625" lon="-0.38291">
        <ele>80.2</ele>
        <time>2022-04-03T09:05:28Z</time>
      </trkpt>
      <trkpt lat="44.80624" lon="-0.38296">
        <ele>80</ele>
        <time>2022-04-03T09:05:29Z</time>
      </trkpt>
      <trkpt lat="44.80624" lon="-0.38299">
        <ele>80.6</ele>
        <time>2022-04-03T09:05:30Z</time>
      </trkpt>
      <trkpt lat="44.80624" lon="-0.38299">
        <ele>80.6</ele>
        <time>2022-04-03T09:05:31Z</time>
      </trkpt>
      <trkpt lat="44.80624" lon="-0.38299">
        <ele>80.2</ele>
        <time>2022-04-03T09:05:32Z</time>
      </trkpt>
      <trkpt lat="44.80625" lon="-0.38311">
        <ele>79.8</ele>
        <time>2022-04-03T09:05:33Z</time>
      </trkpt>
      <trkpt lat="44.80624" lon="-0.38315">
        <ele>79.8</ele>
        <time>2022-04-03T09:05:34Z</time>
      </trkpt>
      <trkpt lat="44.80626" lon="-0.3832">
        <ele>79.8</ele>
        <time>2022-04-03T09:05:35Z</time>
      </trkpt>
      <trkpt lat="44.80628" lon="-0.38325">
        <ele>79.8</ele>
        <time>2022-04-03T09:05:36Z</time>
      </trkpt>
      <trkpt lat="44.8063" lon="-0.38332">
        <ele>79.8</ele>
        <time>2022-04-03T09:05:37Z</time>
      </trkpt>
      <trkpt lat="44.80631" lon="-0.38339">
        <ele>79.8</ele>
        <time>2022-04-03T09:05:38Z</time>
      </trkpt>
      <trkpt lat="44.80633" lon="-0.38347">
        <ele>79.8</ele>
        <time>2022-04-03T09:05:39Z</time>
      </trkpt>
      <trkpt lat="44.80636" lon="-0.38355">
        <ele>79.8</ele>
        <time>2022-04-03T09:05:40Z</time>
      </trkpt>
      <trkpt lat="44.80636" lon="-0.38355">
        <ele>79.8</ele>
        <time>2022-04-03T09:05:41Z</time>
      </trkpt>
      <trkpt lat="44.80636" lon="-0.38355">
        <ele>80</ele>
        <time>2022-04-03T09:05:42Z</time>
      </trkpt>
      <trkpt lat="44.80641" lon="-0.3838">
        <ele>79.4</ele>
        <time>2022-04-03T09:05:43Z</time>
      </trkpt>
      <trkpt lat="44.80644" lon="-0.38388">
        <ele>79.2</ele>
        <time>2022-04-03T09:05:44Z</time>
      </trkpt>
      <trkpt lat="44.80647" lon="-0.38395">
        <ele>78.4</ele>
        <time>2022-04-03T09:05:45Z</time>
      </trkpt>
      <trkpt lat="44.8065" lon="-0.38401">
        <ele>78.6</ele>
        <time>2022-04-03T09:05:46Z</time>
      </trkpt>
      <trkpt lat="44.80654" lon="-0.38407">
        <ele>78.4</ele>
        <time>2022-04-03T09:05:47Z</time>
      </trkpt>
      <trkpt lat="44.80659" lon="-0.38412">
        <ele>79</ele>
        <time>2022-04-03T09:05:48Z</time>
      </trkpt>
      <trkpt lat="44.80663" lon="-0.38417">
        <ele>79.4</ele>
        <time>2022-04-03T09:05:49Z</time>
      </trkpt>
      <trkpt lat="44.80666" lon="-0.38421">
        <ele>80.2</ele>
        <time>2022-04-03T09:05:50Z</time>
      </trkpt>
      <trkpt lat="44.8067" lon="-0.38425">
        <ele>80.6</ele>
        <time>2022-04-03T09:05:51Z</time>
      </trkpt>
      <trkpt lat="44.8067" lon="-0.38425">
        <ele>80.8</ele>
        <time>2022-04-03T09:05:52Z</time>
      </trkpt>
      <trkpt lat="44.8067" lon="-0.38425">
        <ele>80.6</ele>
        <time>2022-04-03T09:05:53Z</time>
      </trkpt>
      <trkpt lat="44.80671" lon="-0.38433">
        <ele>80</ele>
        <time>2022-04-03T09:05:54Z</time>
      </trkpt>
      <trkpt lat="44.80667" lon="-0.38434">
        <ele>79</ele>
        <time>2022-04-03T09:05:55Z</time>
      </trkpt>
      <trkpt lat="44.80663" lon="-0.38433">
        <ele>77.8</ele>
        <time>2022-04-03T09:05:56Z</time>
      </trkpt>
      <trkpt lat="44.80658" lon="-0.38429">
        <ele>77.6</ele>
        <time>2022-04-03T09:05:57Z</time>
      </trkpt>
      <trkpt lat="44.80652" lon="-0.38422">
        <ele>77.6</ele>
        <time>2022-04-03T09:05:58Z</time>
      </trkpt>
      <trkpt lat="44.80645" lon="-0.38415">
        <ele>76.4</ele>
        <time>2022-04-03T09:05:59Z</time>
      </trkpt>
      <trkpt lat="44.8064" lon="-0.38409">
        <ele>77.2</ele>
        <time>2022-04-03T09:06:00Z</time>
      </trkpt>
      <trkpt lat="44.80634" lon="-0.38403">
        <ele>76.8</ele>
        <time>2022-04-03T09:06:01Z</time>
      </trkpt>
      <trkpt lat="44.80634" lon="-0.38403">
        <ele>77.6</ele>
        <time>2022-04-03T09:06:02Z</time>
      </trkpt>
      <trkpt lat="44.80626" lon="-0.38387">
        <ele>76.8</ele>
        <time>2022-04-03T09:06:03Z</time>
      </trkpt>
      <trkpt lat="44.80623" lon="-0.38381">
        <ele>76.8</ele>
        <time>2022-04-03T09:06:04Z</time>
      </trkpt>
      <trkpt lat="44.80619" lon="-0.38375">
        <ele>77</ele>
        <time>2022-04-03T09:06:05Z</time>
      </trkpt>
      <trkpt lat="44.80616" lon="-0.3837">
        <ele>77.2</ele>
        <time>2022-04-03T09:06:06Z</time>
      </trkpt>
      <trkpt lat="44.80611" lon="-0.38365">
        <ele>76.8</ele>
        <time>2022-04-03T09:06:07Z</time>
      </trkpt>
      <trkpt lat="44.80608" lon="-0.38358">
        <ele>76.2</ele>
        <time>2022-04-03T09:06:08Z</time>
      </trkpt>
      <trkpt lat="44.80606" lon="-0.38351">
        <ele>75.6</ele>
        <time>2022-04-03T09:06:09Z</time>
      </trkpt>
      <trkpt lat="44.80604" lon="-0.38343">
        <ele>75.8</ele>
        <time>2022-04-03T09:06:10Z</time>
      </trkpt>
      <trkpt lat="44.80603" lon="-0.38335">
        <ele>76.2</ele>
        <time>2022-04-03T09:06:11Z</time>
      </trkpt>
      <trkpt lat="44.80603" lon="-0.38335">
        <ele>77</ele>
        <time>2022-04-03T09:06:12Z</time>
      </trkpt>
      <trkpt lat="44.80603" lon="-0.38335">
        <ele>77.6</ele>
        <time>2022-04-03T09:06:13Z</time>
      </trkpt>
      <trkpt lat="44.80603" lon="-0.38313">
        <ele>77.4</ele>
        <time>2022-04-03T09:06:14Z</time>
      </trkpt>
      <trkpt lat="44.80603" lon="-0.38306">
        <ele>77</ele>
        <time>2022-04-03T09:06:15Z</time>
      </trkpt>
      <trkpt lat="44.80601" lon="-0.383">
        <ele>76.4</ele>
        <time>2022-04-03T09:06:16Z</time>
      </trkpt>
      <trkpt lat="44.80598" lon="-0.38296">
        <ele>75.4</ele>
        <time>2022-04-03T09:06:17Z</time>
      </trkpt>
      <trkpt lat="44.80595" lon="-0.38292">
        <ele>74.6</ele>
        <time>2022-04-03T09:06:18Z</time>
      </trkpt>
      <trkpt lat="44.80592" lon="-0.38292">
        <ele>74.6</ele>
        <time>2022-04-03T09:06:19Z</time>
      </trkpt>
      <trkpt lat="44.80591" lon="-0.38294">
        <ele>74.2</ele>
        <time>2022-04-03T09:06:20Z</time>
      </trkpt>
      <trkpt lat="44.80589" lon="-0.38296">
        <ele>74</ele>
        <time>2022-04-03T09:06:21Z</time>
      </trkpt>
      <trkpt lat="44.80589" lon="-0.38296">
        <ele>73.6</ele>
        <time>2022-04-03T09:06:22Z</time>
      </trkpt>
      <trkpt lat="44.80589" lon="-0.38296">
        <ele>73.2</ele>
        <time>2022-04-03T09:06:23Z</time>
      </trkpt>
      <trkpt lat="44.80583" lon="-0.38301">
        <ele>72.6</ele>
        <time>2022-04-03T09:06:24Z</time>
      </trkpt>
      <trkpt lat="44.80583" lon="-0.38306">
        <ele>72.2</ele>
        <time>2022-04-03T09:06:25Z</time>
      </trkpt>
      <trkpt lat="44.80583" lon="-0.38311">
        <ele>71.4</ele>
        <time>2022-04-03T09:06:26Z</time>
      </trkpt>
      <trkpt lat="44.80581" lon="-0.38312">
        <ele>70.8</ele>
        <time>2022-04-03T09:06:27Z</time>
      </trkpt>
      <trkpt lat="44.80578" lon="-0.38312">
        <ele>70.4</ele>
        <time>2022-04-03T09:06:28Z</time>
      </trkpt>
      <trkpt lat="44.80575" lon="-0.38308">
        <ele>70</ele>
        <time>2022-04-03T09:06:29Z</time>
      </trkpt>
      <trkpt lat="44.80573" lon="-0.38302">
        <ele>69.4</ele>
        <time>2022-04-03T09:06:30Z</time>
      </trkpt>
      <trkpt lat="44.80571" lon="-0.38295">
        <ele>69.2</ele>
        <time>2022-04-03T09:06:31Z</time>
      </trkpt>
      <trkpt lat="44.8057" lon="-0.38288">
        <ele>68.6</ele>
        <time>2022-04-03T09:06:32Z</time>
      </trkpt>
      <trkpt lat="44.8057" lon="-0.38288">
        <ele>69</ele>
        <time>2022-04-03T09:06:33Z</time>
      </trkpt>
      <trkpt lat="44.8057" lon="-0.38288">
        <ele>69.4</ele>
        <time>2022-04-03T09:06:34Z</time>
      </trkpt>
      <trkpt lat="44.80573" lon="-0.38274">
        <ele>70.4</ele>
        <time>2022-04-03T09:06:35Z</time>
      </trkpt>
      <trkpt lat="44.80574" lon="-0.38272">
        <ele>70.6</ele>
        <time>2022-04-03T09:06:36Z</time>
      </trkpt>
      <trkpt lat="44.80577" lon="-0.38274">
        <ele>70.8</ele>
        <time>2022-04-03T09:06:37Z</time>
      </trkpt>
      <trkpt lat="44.80578" lon="-0.38278">
        <ele>71.2</ele>
        <time>2022-04-03T09:06:38Z</time>
      </trkpt>
      <trkpt lat="44.80579" lon="-0.3828">
        <ele>71.6</ele>
        <time>2022-04-03T09:06:39Z</time>
      </trkpt>
      <trkpt lat="44.80581" lon="-0.3828">
        <ele>71.6</ele>
        <time>2022-04-03T09:06:40Z</time>
      </trkpt>
      <trkpt lat="44.80581" lon="-0.38277">
        <ele>72</ele>
        <time>2022-04-03T09:06:41Z</time>
      </trkpt>
      <trkpt lat="44.80582" lon="-0.38274">
        <ele>72.4</ele>
        <time>2022-04-03T09:06:42Z</time>
      </trkpt>
      <trkpt lat="44.80582" lon="-0.38274">
        <ele>72.8</ele>
        <time>2022-04-03T09:06:43Z</time>
      </trkpt>
      <trkpt lat="44.80585" lon="-0.3827">
        <ele>73</ele>
        <time>2022-04-03T09:06:44Z</time>
      </trkpt>
      <trkpt lat="44.80586" lon="-0.38269">
        <ele>73.2</ele>
        <time>2022-04-03T09:06:45Z</time>
      </trkpt>
      <trkpt lat="44.80587" lon="-0.38268">
        <ele>73.6</ele>
        <time>2022-04-03T09:06:46Z</time>
      </trkpt>
      <trkpt lat="44.80589" lon="-0.38269">
        <ele>74.2</ele>
        <time>2022-04-03T09:06:47Z</time>
      </trkpt>
      <trkpt lat="44.8059" lon="-0.3827">
        <ele>75</ele>
        <time>2022-04-03T09:06:48Z</time>
      </trkpt>
      <trkpt lat="44.80591" lon="-0.38271">
        <ele>75.4</ele>
        <time>2022-04-03T09:06:49Z</time>
      </trkpt>
      <trkpt lat="44.80591" lon="-0.38271">
        <ele>76</ele>
        <time>2022-04-03T09:06:50Z</time>
      </trkpt>
      <trkpt lat="44.80591" lon="-0.38271">
        <ele>76.2</ele>
        <time>2022-04-03T09:06:51Z</time>
      </trkpt>
      <trkpt lat="44.80591" lon="-0.38272">
        <ele>76.6</ele>
        <time>2022-04-03T09:06:52Z</time>
      </trkpt>
      <trkpt lat="44.80591" lon="-0.38273">
        <ele>76.6</ele>
        <time>2022-04-03T09:06:53Z</time>
      </trkpt>
      <trkpt lat="44.80591" lon="-0.38273">
        <ele>76.8</ele>
        <time>2022-04-03T09:06:54Z</time>
      </trkpt>
      <trkpt lat="44.80592" lon="-0.38273">
        <ele>77</ele>
        <time>2022-04-03T09:06:55Z</time>
      </trkpt>
      <trkpt lat="44.80592" lon="-0.38271">
        <ele>77.4</ele>
        <time>2022-04-03T09:06:57Z</time>
      </trkpt>
      <trkpt lat="44.80593" lon="-0.38268">
        <ele>77.6</ele>
        <time>2022-04-03T09:06:58Z</time>
      </trkpt>
      <trkpt lat="44.80594" lon="-0.38265">
        <ele>77.6</ele>
        <time>2022-04-03T09:06:59Z</time>
      </trkpt>
      <trkpt lat="44.80595" lon="-0.38262">
        <ele>77.6</ele>
        <time>2022-04-03T09:07:00Z</time>
      </trkpt>
      <trkpt lat="44.80596" lon="-0.38259">
        <ele>77.6</ele>
        <time>2022-04-03T09:07:01Z</time>
      </trkpt>
      <trkpt lat="44.80597" lon="-0.38256">
        <ele>77.6</ele>
        <time>2022-04-03T09:07:02Z</time>
      </trkpt>
      <trkpt lat="44.80597" lon="-0.38253">
        <ele>77.2</ele>
        <time>2022-04-03T09:07:03Z</time>
      </trkpt>
      <trkpt lat="44.80597" lon="-0.38253">
        <ele>77.2</ele>
        <time>2022-04-03T09:07:04Z</time>
      </trkpt>
      <trkpt lat="44.80599" lon="-0.38246">
        <ele>77.2</ele>
        <time>2022-04-03T09:07:05Z</time>
      </trkpt>
      <trkpt lat="44.806" lon="-0.38244">
        <ele>77.8</ele>
        <time>2022-04-03T09:07:06Z</time>
      </trkpt>
      <trkpt lat="44.80602" lon="-0.38244">
        <ele>78.4</ele>
        <time>2022-04-03T09:07:07Z</time>
      </trkpt>
      <trkpt lat="44.80604" lon="-0.38245">
        <ele>78.6</ele>
        <time>2022-04-03T09:07:08Z</time>
      </trkpt>
      <trkpt lat="44.80606" lon="-0.38247">
        <ele>78.8</ele>
        <time>2022-04-03T09:07:09Z</time>
      </trkpt>
      <trkpt lat="44.80608" lon="-0.38248">
        <ele>79</ele>
        <time>2022-04-03T09:07:10Z</time>
      </trkpt>
      <trkpt lat="44.80611" lon="-0.38249">
        <ele>79.4</ele>
        <time>2022-04-03T09:07:11Z</time>
      </trkpt>
      <trkpt lat="44.80613" lon="-0.38248">
        <ele>80</ele>
        <time>2022-04-03T09:07:12Z</time>
      </trkpt>
      <trkpt lat="44.80616" lon="-0.38245">
        <ele>80.8</ele>
        <time>2022-04-03T09:07:13Z</time>
      </trkpt>
      <trkpt lat="44.80616" lon="-0.38245">
        <ele>81.6</ele>
        <time>2022-04-03T09:07:14Z</time>
      </trkpt>
      <trkpt lat="44.80616" lon="-0.38245">
        <ele>82</ele>
        <time>2022-04-03T09:07:15Z</time>
      </trkpt>
      <trkpt lat="44.80623" lon="-0.38238">
        <ele>82</ele>
        <time>2022-04-03T09:07:16Z</time>
      </trkpt>
      <trkpt lat="44.80623" lon="-0.38236">
        <ele>82</ele>
        <time>2022-04-03T09:07:17Z</time>
      </trkpt>
      <trkpt lat="44.80621" lon="-0.38232">
        <ele>81.8</ele>
        <time>2022-04-03T09:07:18Z</time>
      </trkpt>
      <trkpt lat="44.80618" lon="-0.38228">
        <ele>81</ele>
        <time>2022-04-03T09:07:19Z</time>
      </trkpt>
      <trkpt lat="44.80615" lon="-0.38224">
        <ele>80.6</ele>
        <time>2022-04-03T09:07:20Z</time>
      </trkpt>
      <trkpt lat="44.80611" lon="-0.3822">
        <ele>79.4</ele>
        <time>2022-04-03T09:07:21Z</time>
      </trkpt>
      <trkpt lat="44.80606" lon="-0.38216">
        <ele>79.4</ele>
        <time>2022-04-03T09:07:22Z</time>
      </trkpt>
      <trkpt lat="44.80601" lon="-0.38211">
        <ele>78.8</ele>
        <time>2022-04-03T09:07:23Z</time>
      </trkpt>
      <trkpt lat="44.80601" lon="-0.38211">
        <ele>77.4</ele>
        <time>2022-04-03T09:07:24Z</time>
      </trkpt>
      <trkpt lat="44.80588" lon="-0.38209">
        <ele>76.4</ele>
        <time>2022-04-03T09:07:25Z</time>
      </trkpt>
      <trkpt lat="44.80582" lon="-0.38208">
        <ele>75</ele>
        <time>2022-04-03T09:07:26Z</time>
      </trkpt>
      <trkpt lat="44.80578" lon="-0.38205">
        <ele>74.2</ele>
        <time>2022-04-03T09:07:27Z</time>
      </trkpt>
      <trkpt lat="44.80575" lon="-0.38201">
        <ele>73.8</ele>
        <time>2022-04-03T09:07:28Z</time>
      </trkpt>
      <trkpt lat="44.80575" lon="-0.38197">
        <ele>73.8</ele>
        <time>2022-04-03T09:07:29Z</time>
      </trkpt>
      <trkpt lat="44.80576" lon="-0.38194">
        <ele>73.6</ele>
        <time>2022-04-03T09:07:30Z</time>
      </trkpt>
      <trkpt lat="44.80579" lon="-0.3819">
        <ele>73.4</ele>
        <time>2022-04-03T09:07:31Z</time>
      </trkpt>
      <trkpt lat="44.80581" lon="-0.38186">
        <ele>72.8</ele>
        <time>2022-04-03T09:07:32Z</time>
      </trkpt>
      <trkpt lat="44.80582" lon="-0.38182">
        <ele>71.8</ele>
        <time>2022-04-03T09:07:33Z</time>
      </trkpt>
      <trkpt lat="44.80585" lon="-0.38177">
        <ele>70.8</ele>
        <time>2022-04-03T09:07:34Z</time>
      </trkpt>
      <trkpt lat="44.80585" lon="-0.38177">
        <ele>69.6</ele>
        <time>2022-04-03T09:07:35Z</time>
      </trkpt>
      <trkpt lat="44.80585" lon="-0.38177">
        <ele>68.8</ele>
        <time>2022-04-03T09:07:36Z</time>
      </trkpt>
      <trkpt lat="44.80584" lon="-0.38159">
        <ele>67.8</ele>
        <time>2022-04-03T09:07:37Z</time>
      </trkpt>
      <trkpt lat="44.80581" lon="-0.38158">
        <ele>66.8</ele>
        <time>2022-04-03T09:07:38Z</time>
      </trkpt>
      <trkpt lat="44.80578" lon="-0.38157">
        <ele>66.8</ele>
        <time>2022-04-03T09:07:39Z</time>
      </trkpt>
      <trkpt lat="44.80575" lon="-0.38157">
        <ele>67.2</ele>
        <time>2022-04-03T09:07:40Z</time>
      </trkpt>
      <trkpt lat="44.80574" lon="-0.38159">
        <ele>68.4</ele>
        <time>2022-04-03T09:07:41Z</time>
      </trkpt>
      <trkpt lat="44.80573" lon="-0.3816">
        <ele>69</ele>
        <time>2022-04-03T09:07:42Z</time>
      </trkpt>
      <trkpt lat="44.80573" lon="-0.38159">
        <ele>69</ele>
        <time>2022-04-03T09:07:43Z</time>
      </trkpt>
      <trkpt lat="44.80572" lon="-0.38161">
        <ele>69.2</ele>
        <time>2022-04-03T09:07:44Z</time>
      </trkpt>
      <trkpt lat="44.80572" lon="-0.38161">
        <ele>69.6</ele>
        <time>2022-04-03T09:07:45Z</time>
      </trkpt>
      <trkpt lat="44.8057" lon="-0.38165">
        <ele>69.6</ele>
        <time>2022-04-03T09:07:46Z</time>
      </trkpt>
      <trkpt lat="44.80568" lon="-0.38168">
        <ele>70.4</ele>
        <time>2022-04-03T09:07:47Z</time>
      </trkpt>
      <trkpt lat="44.80568" lon="-0.38172">
        <ele>70.6</ele>
        <time>2022-04-03T09:07:48Z</time>
      </trkpt>
      <trkpt lat="44.80567" lon="-0.38175">
        <ele>71</ele>
        <time>2022-04-03T09:07:49Z</time>
      </trkpt>
      <trkpt lat="44.80566" lon="-0.38178">
        <ele>71.4</ele>
        <time>2022-04-03T09:07:50Z</time>
      </trkpt>
      <trkpt lat="44.80568" lon="-0.38182">
        <ele>71.8</ele>
        <time>2022-04-03T09:07:51Z</time>
      </trkpt>
      <trkpt lat="44.8057" lon="-0.38186">
        <ele>71.8</ele>
        <time>2022-04-03T09:07:52Z</time>
      </trkpt>
      <trkpt lat="44.80571" lon="-0.3819">
        <ele>72.2</ele>
        <time>2022-04-03T09:07:53Z</time>
      </trkpt>
      <trkpt lat="44.80572" lon="-0.38194">
        <ele>72.2</ele>
        <time>2022-04-03T09:07:54Z</time>
      </trkpt>
      <trkpt lat="44.80573" lon="-0.38198">
        <ele>72.4</ele>
        <time>2022-04-03T09:07:55Z</time>
      </trkpt>
      <trkpt lat="44.80573" lon="-0.38198">
        <ele>72.2</ele>
        <time>2022-04-03T09:07:56Z</time>
      </trkpt>
      <trkpt lat="44.80575" lon="-0.38205">
        <ele>72.4</ele>
        <time>2022-04-03T09:07:57Z</time>
      </trkpt>
      <trkpt lat="44.80577" lon="-0.38208">
        <ele>72.4</ele>
        <time>2022-04-03T09:07:58Z</time>
      </trkpt>
      <trkpt lat="44.80579" lon="-0.38211">
        <ele>72.6</ele>
        <time>2022-04-03T09:07:59Z</time>
      </trkpt>
      <trkpt lat="44.80581" lon="-0.38214">
        <ele>72.6</ele>
        <time>2022-04-03T09:08:00Z</time>
      </trkpt>
      <trkpt lat="44.80584" lon="-0.38216">
        <ele>73</ele>
        <time>2022-04-03T09:08:01Z</time>
      </trkpt>
      <trkpt lat="44.80586" lon="-0.38218">
        <ele>73.6</ele>
        <time>2022-04-03T09:08:02Z</time>
      </trkpt>
      <trkpt lat="44.80588" lon="-0.38219">
        <ele>74.2</ele>
        <time>2022-04-03T09:08:03Z</time>
      </trkpt>
      <trkpt lat="44.80589" lon="-0.3822">
        <ele>74.2</ele>
        <time>2022-04-03T09:08:04Z</time>
      </trkpt>
      <trkpt lat="44.80589" lon="-0.3822">
        <ele>74.4</ele>
        <time>2022-04-03T09:08:05Z</time>
      </trkpt>
      <trkpt lat="44.80589" lon="-0.3822">
        <ele>74.6</ele>
        <time>2022-04-03T09:08:06Z</time>
      </trkpt>
      <trkpt lat="44.80584" lon="-0.38229">
        <ele>74</ele>
        <time>2022-04-03T09:08:07Z</time>
      </trkpt>
      <trkpt lat="44.80582" lon="-0.3823">
        <ele>73.2</ele>
        <time>2022-04-03T09:08:08Z</time>
      </trkpt>
      <trkpt lat="44.80579" lon="-0.38229">
        <ele>72.4</ele>
        <time>2022-04-03T09:08:09Z</time>
      </trkpt>
      <trkpt lat="44.80579" lon="-0.38228">
        <ele>72</ele>
        <time>2022-04-03T09:08:10Z</time>
      </trkpt>
      <trkpt lat="44.80579" lon="-0.38226">
        <ele>71.6</ele>
        <time>2022-04-03T09:08:11Z</time>
      </trkpt>
      <trkpt lat="44.80579" lon="-0.38225">
        <ele>71.2</ele>
        <time>2022-04-03T09:08:12Z</time>
      </trkpt>
      <trkpt lat="44.80577" lon="-0.38224">
        <ele>70.6</ele>
        <time>2022-04-03T09:08:13Z</time>
      </trkpt>
      <trkpt lat="44.80574" lon="-0.38223">
        <ele>70</ele>
        <time>2022-04-03T09:08:14Z</time>
      </trkpt>
      <trkpt lat="44.8057" lon="-0.38224">
        <ele>69.4</ele>
        <time>2022-04-03T09:08:15Z</time>
      </trkpt>
      <trkpt lat="44.8057" lon="-0.38224">
        <ele>69</ele>
        <time>2022-04-03T09:08:16Z</time>
      </trkpt>
      <trkpt lat="44.8057" lon="-0.38224">
        <ele>69</ele>
        <time>2022-04-03T09:08:17Z</time>
      </trkpt>
      <trkpt lat="44.80561" lon="-0.38226">
        <ele>68.8</ele>
        <time>2022-04-03T09:08:18Z</time>
      </trkpt>
      <trkpt lat="44.8056" lon="-0.38223">
        <ele>69</ele>
        <time>2022-04-03T09:08:19Z</time>
      </trkpt>
      <trkpt lat="44.80559" lon="-0.3822">
        <ele>69.2</ele>
        <time>2022-04-03T09:08:20Z</time>
      </trkpt>
      <trkpt lat="44.80558" lon="-0.38216">
        <ele>69.2</ele>
        <time>2022-04-03T09:08:21Z</time>
      </trkpt>
      <trkpt lat="44.80558" lon="-0.38212">
        <ele>69.2</ele>
        <time>2022-04-03T09:08:22Z</time>
      </trkpt>
      <trkpt lat="44.80557" lon="-0.38208">
        <ele>69.4</ele>
        <time>2022-04-03T09:08:23Z</time>
      </trkpt>
      <trkpt lat="44.80557" lon="-0.38204">
        <ele>69.6</ele>
        <time>2022-04-03T09:08:24Z</time>
      </trkpt>
      <trkpt lat="44.80557" lon="-0.38201">
        <ele>69.6</ele>
        <time>2022-04-03T09:08:25Z</time>
      </trkpt>
      <trkpt lat="44.80557" lon="-0.38201">
        <ele>70</ele>
        <time>2022-04-03T09:08:26Z</time>
      </trkpt>
      <trkpt lat="44.80558" lon="-0.38196">
        <ele>70.2</ele>
        <time>2022-04-03T09:08:27Z</time>
      </trkpt>
      <trkpt lat="44.80559" lon="-0.38195">
        <ele>70.4</ele>
        <time>2022-04-03T09:08:28Z</time>
      </trkpt>
      <trkpt lat="44.8056" lon="-0.38193">
        <ele>71</ele>
        <time>2022-04-03T09:08:29Z</time>
      </trkpt>
      <trkpt lat="44.80561" lon="-0.38192">
        <ele>71.2</ele>
        <time>2022-04-03T09:08:30Z</time>
      </trkpt>
      <trkpt lat="44.80561" lon="-0.3819">
        <ele>71.2</ele>
        <time>2022-04-03T09:08:31Z</time>
      </trkpt>
      <trkpt lat="44.8056" lon="-0.38187">
        <ele>70</ele>
        <time>2022-04-03T09:08:32Z</time>
      </trkpt>
      <trkpt lat="44.80558" lon="-0.38184">
        <ele>69.6</ele>
        <time>2022-04-03T09:08:33Z</time>
      </trkpt>
      <trkpt lat="44.80555" lon="-0.38184">
        <ele>69</ele>
        <time>2022-04-03T09:08:34Z</time>
      </trkpt>
      <trkpt lat="44.80552" lon="-0.38185">
        <ele>68.8</ele>
        <time>2022-04-03T09:08:35Z</time>
      </trkpt>
      <trkpt lat="44.8055" lon="-0.38185">
        <ele>68</ele>
        <time>2022-04-03T09:08:36Z</time>
      </trkpt>
      <trkpt lat="44.8055" lon="-0.38185">
        <ele>67.6</ele>
        <time>2022-04-03T09:08:37Z</time>
      </trkpt>
      <trkpt lat="44.8055" lon="-0.38178">
        <ele>67</ele>
        <time>2022-04-03T09:08:38Z</time>
      </trkpt>
      <trkpt lat="44.80552" lon="-0.38176">
        <ele>66.8</ele>
        <time>2022-04-03T09:08:39Z</time>
      </trkpt>
      <trkpt lat="44.80554" lon="-0.38174">
        <ele>66.6</ele>
        <time>2022-04-03T09:08:40Z</time>
      </trkpt>
      <trkpt lat="44.80555" lon="-0.38171">
        <ele>66.8</ele>
        <time>2022-04-03T09:08:41Z</time>
      </trkpt>
      <trkpt lat="44.80555" lon="-0.38168">
        <ele>66.4</ele>
        <time>2022-04-03T09:08:42Z</time>
      </trkpt>
      <trkpt lat="44.80556" lon="-0.38165">
        <ele>66.6</ele>
        <time>2022-04-03T09:08:43Z</time>
      </trkpt>
      <trkpt lat="44.80558" lon="-0.38162">
        <ele>66.2</ele>
        <time>2022-04-03T09:08:44Z</time>
      </trkpt>
      <trkpt lat="44.80559" lon="-0.38159">
        <ele>66.4</ele>
        <time>2022-04-03T09:08:45Z</time>
      </trkpt>
      <trkpt lat="44.80559" lon="-0.38159">
        <ele>66.4</ele>
        <time>2022-04-03T09:08:46Z</time>
      </trkpt>
      <trkpt lat="44.80559" lon="-0.38159">
        <ele>66.4</ele>
        <time>2022-04-03T09:08:47Z</time>
      </trkpt>
      <trkpt lat="44.80564" lon="-0.38153">
        <ele>66.2</ele>
        <time>2022-04-03T09:08:48Z</time>
      </trkpt>
      <trkpt lat="44.80566" lon="-0.38152">
        <ele>65.8</ele>
        <time>2022-04-03T09:08:49Z</time>
      </trkpt>
      <trkpt lat="44.80568" lon="-0.38151">
        <ele>65.4</ele>
        <time>2022-04-03T09:08:50Z</time>
      </trkpt>
      <trkpt lat="44.80569" lon="-0.38148">
        <ele>65.8</ele>
        <time>2022-04-03T09:08:51Z</time>
      </trkpt>
      <trkpt lat="44.80571" lon="-0.38147">
        <ele>66.4</ele>
        <time>2022-04-03T09:08:52Z</time>
      </trkpt>
      <trkpt lat="44.80572" lon="-0.38147">
        <ele>67.2</ele>
        <time>2022-04-03T09:08:53Z</time>
      </trkpt>
      <trkpt lat="44.80574" lon="-0.38147">
        <ele>67.6</ele>
        <time>2022-04-03T09:08:54Z</time>
      </trkpt>
      <trkpt lat="44.80575" lon="-0.38149">
        <ele>68</ele>
        <time>2022-04-03T09:08:55Z</time>
      </trkpt>
      <trkpt lat="44.80576" lon="-0.38152">
        <ele>68</ele>
        <time>2022-04-03T09:08:56Z</time>
      </trkpt>
      <trkpt lat="44.80578" lon="-0.38153">
        <ele>68.6</ele>
        <time>2022-04-03T09:08:57Z</time>
      </trkpt>
      <trkpt lat="44.80578" lon="-0.38153">
        <ele>69</ele>
        <time>2022-04-03T09:08:58Z</time>
      </trkpt>
      <trkpt lat="44.80582" lon="-0.38152">
        <ele>70</ele>
        <time>2022-04-03T09:08:59Z</time>
      </trkpt>
      <trkpt lat="44.80583" lon="-0.3815">
        <ele>70.6</ele>
        <time>2022-04-03T09:09:00Z</time>
      </trkpt>
      <trkpt lat="44.80586" lon="-0.38149">
        <ele>71.4</ele>
        <time>2022-04-03T09:09:01Z</time>
      </trkpt>
      <trkpt lat="44.80588" lon="-0.38149">
        <ele>71.8</ele>
        <time>2022-04-03T09:09:02Z</time>
      </trkpt>
      <trkpt lat="44.8059" lon="-0.38151">
        <ele>72.2</ele>
        <time>2022-04-03T09:09:03Z</time>
      </trkpt>
      <trkpt lat="44.80593" lon="-0.38153">
        <ele>72.8</ele>
        <time>2022-04-03T09:09:04Z</time>
      </trkpt>
      <trkpt lat="44.80595" lon="-0.38155">
        <ele>73.2</ele>
        <time>2022-04-03T09:09:05Z</time>
      </trkpt>
      <trkpt lat="44.80596" lon="-0.38158">
        <ele>73.4</ele>
        <time>2022-04-03T09:09:06Z</time>
      </trkpt>
      <trkpt lat="44.80596" lon="-0.38158">
        <ele>73.4</ele>
        <time>2022-04-03T09:09:07Z</time>
      </trkpt>
      <trkpt lat="44.80597" lon="-0.38162">
        <ele>73.4</ele>
        <time>2022-04-03T09:09:08Z</time>
      </trkpt>
      <trkpt lat="44.80598" lon="-0.38165">
        <ele>72.8</ele>
        <time>2022-04-03T09:09:09Z</time>
      </trkpt>
      <trkpt lat="44.80597" lon="-0.38167">
        <ele>73</ele>
        <time>2022-04-03T09:09:10Z</time>
      </trkpt>
      <trkpt lat="44.80597" lon="-0.3817">
        <ele>73</ele>
        <time>2022-04-03T09:09:11Z</time>
      </trkpt>
      <trkpt lat="44.80596" lon="-0.38173">
        <ele>73.8</ele>
        <time>2022-04-03T09:09:12Z</time>
      </trkpt>
      <trkpt lat="44.80596" lon="-0.38176">
        <ele>74.2</ele>
        <time>2022-04-03T09:09:13Z</time>
      </trkpt>
      <trkpt lat="44.80598" lon="-0.38179">
        <ele>74.8</ele>
        <time>2022-04-03T09:09:14Z</time>
      </trkpt>
      <trkpt lat="44.806" lon="-0.38181">
        <ele>75.2</ele>
        <time>2022-04-03T09:09:15Z</time>
      </trkpt>
      <trkpt lat="44.80604" lon="-0.38183">
        <ele>75.4</ele>
        <time>2022-04-03T09:09:16Z</time>
      </trkpt>
      <trkpt lat="44.80607" lon="-0.38184">
        <ele>75.6</ele>
        <time>2022-04-03T09:09:17Z</time>
      </trkpt>
      <trkpt lat="44.80607" lon="-0.38184">
        <ele>75.8</ele>
        <time>2022-04-03T09:09:18Z</time>
      </trkpt>
      <trkpt lat="44.80613" lon="-0.38185">
        <ele>76.2</ele>
        <time>2022-04-03T09:09:19Z</time>
      </trkpt>
      <trkpt lat="44.80616" lon="-0.38185">
        <ele>76.8</ele>
        <time>2022-04-03T09:09:20Z</time>
      </trkpt>
      <trkpt lat="44.80619" lon="-0.38186">
        <ele>77.4</ele>
        <time>2022-04-03T09:09:21Z</time>
      </trkpt>
      <trkpt lat="44.80622" lon="-0.38185">
        <ele>78</ele>
        <time>2022-04-03T09:09:22Z</time>
      </trkpt>
      <trkpt lat="44.80625" lon="-0.38185">
        <ele>78.4</ele>
        <time>2022-04-03T09:09:23Z</time>
      </trkpt>
      <trkpt lat="44.80627" lon="-0.38185">
        <ele>78.6</ele>
        <time>2022-04-03T09:09:24Z</time>
      </trkpt>
      <trkpt lat="44.80628" lon="-0.38184">
        <ele>78.8</ele>
        <time>2022-04-03T09:09:25Z</time>
      </trkpt>
      <trkpt lat="44.8063" lon="-0.38184">
        <ele>79.2</ele>
        <time>2022-04-03T09:09:26Z</time>
      </trkpt>
      <trkpt lat="44.80632" lon="-0.38185">
        <ele>80</ele>
        <time>2022-04-03T09:09:27Z</time>
      </trkpt>
      <trkpt lat="44.80634" lon="-0.38187">
        <ele>80</ele>
        <time>2022-04-03T09:09:28Z</time>
      </trkpt>
      <trkpt lat="44.80636" lon="-0.3819">
        <ele>80.6</ele>
        <time>2022-04-03T09:09:29Z</time>
      </trkpt>
      <trkpt lat="44.80636" lon="-0.38192">
        <ele>81</ele>
        <time>2022-04-03T09:09:30Z</time>
      </trkpt>
      <trkpt lat="44.80637" lon="-0.38195">
        <ele>81.4</ele>
        <time>2022-04-03T09:09:31Z</time>
      </trkpt>
      <trkpt lat="44.80638" lon="-0.38198">
        <ele>81.6</ele>
        <time>2022-04-03T09:09:32Z</time>
      </trkpt>
      <trkpt lat="44.80639" lon="-0.38202">
        <ele>82</ele>
        <time>2022-04-03T09:09:33Z</time>
      </trkpt>
      <trkpt lat="44.8064" lon="-0.38205">
        <ele>82.2</ele>
        <time>2022-04-03T09:09:34Z</time>
      </trkpt>
      <trkpt lat="44.80641" lon="-0.38208">
        <ele>82.8</ele>
        <time>2022-04-03T09:09:35Z</time>
      </trkpt>
      <trkpt lat="44.80642" lon="-0.38212">
        <ele>83.2</ele>
        <time>2022-04-03T09:09:36Z</time>
      </trkpt>
      <trkpt lat="44.80644" lon="-0.38215">
        <ele>83.8</ele>
        <time>2022-04-03T09:09:37Z</time>
      </trkpt>
      <trkpt lat="44.80644" lon="-0.38215">
        <ele>84.2</ele>
        <time>2022-04-03T09:09:38Z</time>
      </trkpt>
      <trkpt lat="44.80644" lon="-0.38215">
        <ele>84.8</ele>
        <time>2022-04-03T09:09:39Z</time>
      </trkpt>
      <trkpt lat="44.80651" lon="-0.38225">
        <ele>85.4</ele>
        <time>2022-04-03T09:09:40Z</time>
      </trkpt>
      <trkpt lat="44.80652" lon="-0.38229">
        <ele>85.8</ele>
        <time>2022-04-03T09:09:41Z</time>
      </trkpt>
      <trkpt lat="44.80653" lon="-0.38233">
        <ele>86.2</ele>
        <time>2022-04-03T09:09:42Z</time>
      </trkpt>
      <trkpt lat="44.80654" lon="-0.38237">
        <ele>86.4</ele>
        <time>2022-04-03T09:09:43Z</time>
      </trkpt>
      <trkpt lat="44.80655" lon="-0.38241">
        <ele>86.8</ele>
        <time>2022-04-03T09:09:44Z</time>
      </trkpt>
      <trkpt lat="44.80656" lon="-0.38246">
        <ele>87</ele>
        <time>2022-04-03T09:09:45Z</time>
      </trkpt>
      <trkpt lat="44.80656" lon="-0.38251">
        <ele>87.2</ele>
        <time>2022-04-03T09:09:46Z</time>
      </trkpt>
      <trkpt lat="44.80655" lon="-0.38256">
        <ele>87.6</ele>
        <time>2022-04-03T09:09:47Z</time>
      </trkpt>
      <trkpt lat="44.80652" lon="-0.38265">
        <ele>87.6</ele>
        <time>2022-04-03T09:09:48Z</time>
      </trkpt>
      <trkpt lat="44.80652" lon="-0.38265">
        <ele>87.6</ele>
        <time>2022-04-03T09:09:49Z</time>
      </trkpt>
      <trkpt lat="44.80652" lon="-0.3827">
        <ele>87.8</ele>
        <time>2022-04-03T09:09:50Z</time>
      </trkpt>
      <trkpt lat="44.80653" lon="-0.38276">
        <ele>87.8</ele>
        <time>2022-04-03T09:09:51Z</time>
      </trkpt>
      <trkpt lat="44.80654" lon="-0.38281">
        <ele>87.6</ele>
        <time>2022-04-03T09:09:52Z</time>
      </trkpt>
      <trkpt lat="44.80655" lon="-0.38287">
        <ele>88</ele>
        <time>2022-04-03T09:09:53Z</time>
      </trkpt>
      <trkpt lat="44.80657" lon="-0.38291">
        <ele>88.4</ele>
        <time>2022-04-03T09:09:54Z</time>
      </trkpt>
      <trkpt lat="44.8066" lon="-0.38294">
        <ele>88.8</ele>
        <time>2022-04-03T09:09:55Z</time>
      </trkpt>
      <trkpt lat="44.80664" lon="-0.38297">
        <ele>88.6</ele>
        <time>2022-04-03T09:09:56Z</time>
      </trkpt>
      <trkpt lat="44.80666" lon="-0.383">
        <ele>89</ele>
        <time>2022-04-03T09:09:57Z</time>
      </trkpt>
      <trkpt lat="44.8067" lon="-0.38302">
        <ele>89.2</ele>
        <time>2022-04-03T09:09:58Z</time>
      </trkpt>
      <trkpt lat="44.80673" lon="-0.38304">
        <ele>89.4</ele>
        <time>2022-04-03T09:09:59Z</time>
      </trkpt>
      <trkpt lat="44.80673" lon="-0.38304">
        <ele>89</ele>
        <time>2022-04-03T09:10:00Z</time>
      </trkpt>
      <trkpt lat="44.80681" lon="-0.38307">
        <ele>88.4</ele>
        <time>2022-04-03T09:10:01Z</time>
      </trkpt>
      <trkpt lat="44.80685" lon="-0.38309">
        <ele>88.2</ele>
        <time>2022-04-03T09:10:02Z</time>
      </trkpt>
      <trkpt lat="44.8069" lon="-0.38312">
        <ele>88.2</ele>
        <time>2022-04-03T09:10:03Z</time>
      </trkpt>
      <trkpt lat="44.80693" lon="-0.38317">
        <ele>88.4</ele>
        <time>2022-04-03T09:10:04Z</time>
      </trkpt>
      <trkpt lat="44.80696" lon="-0.38323">
        <ele>88.6</ele>
        <time>2022-04-03T09:10:05Z</time>
      </trkpt>
      <trkpt lat="44.80698" lon="-0.38328">
        <ele>88.8</ele>
        <time>2022-04-03T09:10:06Z</time>
      </trkpt>
      <trkpt lat="44.80701" lon="-0.38334">
        <ele>89.4</ele>
        <time>2022-04-03T09:10:07Z</time>
      </trkpt>
      <trkpt lat="44.80704" lon="-0.38339">
        <ele>89.4</ele>
        <time>2022-04-03T09:10:08Z</time>
      </trkpt>
      <trkpt lat="44.80709" lon="-0.3835">
        <ele>89.6</ele>
        <time>2022-04-03T09:10:09Z</time>
      </trkpt>
      <trkpt lat="44.80709" lon="-0.3835">
        <ele>89.6</ele>
        <time>2022-04-03T09:10:10Z</time>
      </trkpt>
      <trkpt lat="44.80712" lon="-0.38355">
        <ele>89.6</ele>
        <time>2022-04-03T09:10:11Z</time>
      </trkpt>
      <trkpt lat="44.80715" lon="-0.38359">
        <ele>90</ele>
        <time>2022-04-03T09:10:12Z</time>
      </trkpt>
      <trkpt lat="44.80718" lon="-0.38364">
        <ele>90.2</ele>
        <time>2022-04-03T09:10:13Z</time>
      </trkpt>
      <trkpt lat="44.80721" lon="-0.38368">
        <ele>90.4</ele>
        <time>2022-04-03T09:10:14Z</time>
      </trkpt>
      <trkpt lat="44.80724" lon="-0.38372">
        <ele>90.2</ele>
        <time>2022-04-03T09:10:15Z</time>
      </trkpt>
      <trkpt lat="44.80727" lon="-0.38376">
        <ele>90</ele>
        <time>2022-04-03T09:10:16Z</time>
      </trkpt>
      <trkpt lat="44.8073" lon="-0.38379">
        <ele>90</ele>
        <time>2022-04-03T09:10:17Z</time>
      </trkpt>
      <trkpt lat="44.80733" lon="-0.38382">
        <ele>89.8</ele>
        <time>2022-04-03T09:10:18Z</time>
      </trkpt>
      <trkpt lat="44.80733" lon="-0.38382">
        <ele>89.8</ele>
        <time>2022-04-03T09:10:19Z</time>
      </trkpt>
      <trkpt lat="44.80733" lon="-0.38382">
        <ele>90</ele>
        <time>2022-04-03T09:10:20Z</time>
      </trkpt>
      <trkpt lat="44.80742" lon="-0.38378">
        <ele>90.6</ele>
        <time>2022-04-03T09:10:21Z</time>
      </trkpt>
      <trkpt lat="44.80741" lon="-0.38374">
        <ele>91</ele>
        <time>2022-04-03T09:10:22Z</time>
      </trkpt>
      <trkpt lat="44.80741" lon="-0.38371">
        <ele>91.4</ele>
        <time>2022-04-03T09:10:23Z</time>
      </trkpt>
      <trkpt lat="44.80739" lon="-0.38368">
        <ele>91.6</ele>
        <time>2022-04-03T09:10:24Z</time>
      </trkpt>
      <trkpt lat="44.80739" lon="-0.38366">
        <ele>92</ele>
        <time>2022-04-03T09:10:25Z</time>
      </trkpt>
      <trkpt lat="44.80738" lon="-0.38363">
        <ele>92.6</ele>
        <time>2022-04-03T09:10:26Z</time>
      </trkpt>
      <trkpt lat="44.80738" lon="-0.38362">
        <ele>93.2</ele>
        <time>2022-04-03T09:10:27Z</time>
      </trkpt>
      <trkpt lat="44.80739" lon="-0.38362">
        <ele>93.8</ele>
        <time>2022-04-03T09:10:28Z</time>
      </trkpt>
      <trkpt lat="44.80741" lon="-0.38363">
        <ele>94.2</ele>
        <time>2022-04-03T09:10:29Z</time>
      </trkpt>
      <trkpt lat="44.80741" lon="-0.38361">
        <ele>95</ele>
        <time>2022-04-03T09:10:30Z</time>
      </trkpt>
      <trkpt lat="44.80741" lon="-0.38361">
        <ele>95</ele>
        <time>2022-04-03T09:10:31Z</time>
      </trkpt>
      <trkpt lat="44.80741" lon="-0.38359">
        <ele>95.8</ele>
        <time>2022-04-03T09:10:32Z</time>
      </trkpt>
      <trkpt lat="44.80742" lon="-0.38357">
        <ele>96.6</ele>
        <time>2022-04-03T09:10:33Z</time>
      </trkpt>
      <trkpt lat="44.80743" lon="-0.38354">
        <ele>97</ele>
        <time>2022-04-03T09:10:34Z</time>
      </trkpt>
      <trkpt lat="44.80745" lon="-0.38352">
        <ele>97.2</ele>
        <time>2022-04-03T09:10:35Z</time>
      </trkpt>
      <trkpt lat="44.80747" lon="-0.3835">
        <ele>97</ele>
        <time>2022-04-03T09:10:36Z</time>
      </trkpt>
      <trkpt lat="44.80749" lon="-0.38347">
        <ele>97</ele>
        <time>2022-04-03T09:10:37Z</time>
      </trkpt>
      <trkpt lat="44.80751" lon="-0.38344">
        <ele>97.2</ele>
        <time>2022-04-03T09:10:38Z</time>
      </trkpt>
      <trkpt lat="44.80754" lon="-0.38344">
        <ele>96.8</ele>
        <time>2022-04-03T09:10:39Z</time>
      </trkpt>
      <trkpt lat="44.80754" lon="-0.38344">
        <ele>96.4</ele>
        <time>2022-04-03T09:10:40Z</time>
      </trkpt>
      <trkpt lat="44.80754" lon="-0.38344">
        <ele>96</ele>
        <time>2022-04-03T09:10:41Z</time>
      </trkpt>
      <trkpt lat="44.80761" lon="-0.38341">
        <ele>95.8</ele>
        <time>2022-04-03T09:10:42Z</time>
      </trkpt>
      <trkpt lat="44.80762" lon="-0.38337">
        <ele>95.8</ele>
        <time>2022-04-03T09:10:43Z</time>
      </trkpt>
      <trkpt lat="44.80764" lon="-0.38331">
        <ele>95.4</ele>
        <time>2022-04-03T09:10:44Z</time>
      </trkpt>
      <trkpt lat="44.80766" lon="-0.38325">
        <ele>94.4</ele>
        <time>2022-04-03T09:10:45Z</time>
      </trkpt>
      <trkpt lat="44.80769" lon="-0.38319">
        <ele>93.4</ele>
        <time>2022-04-03T09:10:46Z</time>
      </trkpt>
      <trkpt lat="44.80772" lon="-0.38314">
        <ele>92.2</ele>
        <time>2022-04-03T09:10:47Z</time>
      </trkpt>
      <trkpt lat="44.80775" lon="-0.38307">
        <ele>91.2</ele>
        <time>2022-04-03T09:10:48Z</time>
      </trkpt>
      <trkpt lat="44.80777" lon="-0.38302">
        <ele>90.4</ele>
        <time>2022-04-03T09:10:49Z</time>
      </trkpt>
      <trkpt lat="44.80781" lon="-0.38298">
        <ele>90.2</ele>
        <time>2022-04-03T09:10:50Z</time>
      </trkpt>
      <trkpt lat="44.80784" lon="-0.38297">
        <ele>90.2</ele>
        <time>2022-04-03T09:10:51Z</time>
      </trkpt>
      <trkpt lat="44.80784" lon="-0.38297">
        <ele>90.2</ele>
        <time>2022-04-03T09:10:52Z</time>
      </trkpt>
      <trkpt lat="44.80787" lon="-0.38295">
        <ele>89</ele>
        <time>2022-04-03T09:10:53Z</time>
      </trkpt>
      <trkpt lat="44.80789" lon="-0.38295">
        <ele>88.2</ele>
        <time>2022-04-03T09:10:54Z</time>
      </trkpt>
      <trkpt lat="44.80791" lon="-0.38297">
        <ele>87.8</ele>
        <time>2022-04-03T09:10:55Z</time>
      </trkpt>
      <trkpt lat="44.80793" lon="-0.38302">
        <ele>88.2</ele>
        <time>2022-04-03T09:10:56Z</time>
      </trkpt>
      <trkpt lat="44.80795" lon="-0.38306">
        <ele>88.2</ele>
        <time>2022-04-03T09:10:57Z</time>
      </trkpt>
      <trkpt lat="44.80797" lon="-0.38311">
        <ele>88.2</ele>
        <time>2022-04-03T09:10:58Z</time>
      </trkpt>
      <trkpt lat="44.80798" lon="-0.38316">
        <ele>88.6</ele>
        <time>2022-04-03T09:10:59Z</time>
      </trkpt>
      <trkpt lat="44.80797" lon="-0.38319">
        <ele>89</ele>
        <time>2022-04-03T09:11:00Z</time>
      </trkpt>
      <trkpt lat="44.80791" lon="-0.38318">
        <ele>89.2</ele>
        <time>2022-04-03T09:11:01Z</time>
      </trkpt>
      <trkpt lat="44.80791" lon="-0.38318">
        <ele>89.4</ele>
        <time>2022-04-03T09:11:02Z</time>
      </trkpt>
      <trkpt lat="44.80789" lon="-0.38316">
        <ele>89.6</ele>
        <time>2022-04-03T09:11:03Z</time>
      </trkpt>
      <trkpt lat="44.80787" lon="-0.38315">
        <ele>90</ele>
        <time>2022-04-03T09:11:04Z</time>
      </trkpt>
      <trkpt lat="44.80785" lon="-0.38314">
        <ele>90.6</ele>
        <time>2022-04-03T09:11:05Z</time>
      </trkpt>
      <trkpt lat="44.80785" lon="-0.38314">
        <ele>91.4</ele>
        <time>2022-04-03T09:11:06Z</time>
      </trkpt>
      <trkpt lat="44.80784" lon="-0.38315">
        <ele>91.8</ele>
        <time>2022-04-03T09:11:07Z</time>
      </trkpt>
      <trkpt lat="44.80784" lon="-0.38316">
        <ele>92.4</ele>
        <time>2022-04-03T09:11:08Z</time>
      </trkpt>
      <trkpt lat="44.80782" lon="-0.38316">
        <ele>93</ele>
        <time>2022-04-03T09:11:09Z</time>
      </trkpt>
      <trkpt lat="44.80782" lon="-0.38317">
        <ele>93.6</ele>
        <time>2022-04-03T09:11:10Z</time>
      </trkpt>
      <trkpt lat="44.80783" lon="-0.38321">
        <ele>93.6</ele>
        <time>2022-04-03T09:11:11Z</time>
      </trkpt>
      <trkpt lat="44.80784" lon="-0.38324">
        <ele>93.8</ele>
        <time>2022-04-03T09:11:12Z</time>
      </trkpt>
      <trkpt lat="44.80784" lon="-0.38324">
        <ele>93.8</ele>
        <time>2022-04-03T09:11:13Z</time>
      </trkpt>
      <trkpt lat="44.80785" lon="-0.38326">
        <ele>93.8</ele>
        <time>2022-04-03T09:11:14Z</time>
      </trkpt>
      <trkpt lat="44.80787" lon="-0.38329">
        <ele>94.2</ele>
        <time>2022-04-03T09:11:15Z</time>
      </trkpt>
      <trkpt lat="44.80787" lon="-0.38332">
        <ele>94.6</ele>
        <time>2022-04-03T09:11:16Z</time>
      </trkpt>
      <trkpt lat="44.80787" lon="-0.38333">
        <ele>95.2</ele>
        <time>2022-04-03T09:11:17Z</time>
      </trkpt>
      <trkpt lat="44.80786" lon="-0.38335">
        <ele>95.4</ele>
        <time>2022-04-03T09:11:18Z</time>
      </trkpt>
      <trkpt lat="44.80786" lon="-0.38336">
        <ele>95.6</ele>
        <time>2022-04-03T09:11:19Z</time>
      </trkpt>
      <trkpt lat="44.80785" lon="-0.38337">
        <ele>96</ele>
        <time>2022-04-03T09:11:20Z</time>
      </trkpt>
      <trkpt lat="44.80785" lon="-0.38337">
        <ele>96.2</ele>
        <time>2022-04-03T09:11:21Z</time>
      </trkpt>
      <trkpt lat="44.80784" lon="-0.3834">
        <ele>96.4</ele>
        <time>2022-04-03T09:11:22Z</time>
      </trkpt>
      <trkpt lat="44.80784" lon="-0.3834">
        <ele>96.6</ele>
        <time>2022-04-03T09:11:23Z</time>
      </trkpt>
      <trkpt lat="44.80783" lon="-0.38341">
        <ele>96.8</ele>
        <time>2022-04-03T09:11:24Z</time>
      </trkpt>
      <trkpt lat="44.80781" lon="-0.38341">
        <ele>96.8</ele>
        <time>2022-04-03T09:11:25Z</time>
      </trkpt>
      <trkpt lat="44.80779" lon="-0.38341">
        <ele>96.8</ele>
        <time>2022-04-03T09:11:26Z</time>
      </trkpt>
      <trkpt lat="44.80777" lon="-0.38341">
        <ele>96.8</ele>
        <time>2022-04-03T09:11:27Z</time>
      </trkpt>
      <trkpt lat="44.80775" lon="-0.38341">
        <ele>96.8</ele>
        <time>2022-04-03T09:11:28Z</time>
      </trkpt>
      <trkpt lat="44.80773" lon="-0.38341">
        <ele>97</ele>
        <time>2022-04-03T09:11:29Z</time>
      </trkpt>
      <trkpt lat="44.80771" lon="-0.38343">
        <ele>97</ele>
        <time>2022-04-03T09:11:30Z</time>
      </trkpt>
      <trkpt lat="44.80771" lon="-0.38343">
        <ele>97</ele>
        <time>2022-04-03T09:11:31Z</time>
      </trkpt>
      <trkpt lat="44.80765" lon="-0.38348">
        <ele>97.2</ele>
        <time>2022-04-03T09:11:32Z</time>
      </trkpt>
      <trkpt lat="44.80764" lon="-0.3835">
        <ele>97</ele>
        <time>2022-04-03T09:11:33Z</time>
      </trkpt>
      <trkpt lat="44.80764" lon="-0.3835">
        <ele>97</ele>
        <time>2022-04-03T09:11:34Z</time>
      </trkpt>
      <trkpt lat="44.80764" lon="-0.38355">
        <ele>96.4</ele>
        <time>2022-04-03T09:11:35Z</time>
      </trkpt>
      <trkpt lat="44.80765" lon="-0.38361">
        <ele>95.2</ele>
        <time>2022-04-03T09:11:36Z</time>
      </trkpt>
      <trkpt lat="44.80766" lon="-0.38366">
        <ele>94.2</ele>
        <time>2022-04-03T09:11:37Z</time>
      </trkpt>
      <trkpt lat="44.80767" lon="-0.38372">
        <ele>92</ele>
        <time>2022-04-03T09:11:38Z</time>
      </trkpt>
      <trkpt lat="44.8077" lon="-0.3838">
        <ele>90.6</ele>
        <time>2022-04-03T09:11:39Z</time>
      </trkpt>
      <trkpt lat="44.80774" lon="-0.38387">
        <ele>89.4</ele>
        <time>2022-04-03T09:11:40Z</time>
      </trkpt>
      <trkpt lat="44.8078" lon="-0.38391">
        <ele>89.6</ele>
        <time>2022-04-03T09:11:41Z</time>
      </trkpt>
      <trkpt lat="44.80789" lon="-0.3839">
        <ele>89.6</ele>
        <time>2022-04-03T09:11:42Z</time>
      </trkpt>
      <trkpt lat="44.80793" lon="-0.38384">
        <ele>90.2</ele>
        <time>2022-04-03T09:11:43Z</time>
      </trkpt>
      <trkpt lat="44.80793" lon="-0.38384">
        <ele>90.4</ele>
        <time>2022-04-03T09:11:44Z</time>
      </trkpt>
      <trkpt lat="44.80795" lon="-0.38377">
        <ele>90.6</ele>
        <time>2022-04-03T09:11:45Z</time>
      </trkpt>
      <trkpt lat="44.80797" lon="-0.3837">
        <ele>90.2</ele>
        <time>2022-04-03T09:11:46Z</time>
      </trkpt>
      <trkpt lat="44.80799" lon="-0.38363">
        <ele>90.2</ele>
        <time>2022-04-03T09:11:47Z</time>
      </trkpt>
      <trkpt lat="44.80801" lon="-0.38357">
        <ele>90.6</ele>
        <time>2022-04-03T09:11:48Z</time>
      </trkpt>
      <trkpt lat="44.80803" lon="-0.3835">
        <ele>90.6</ele>
        <time>2022-04-03T09:11:49Z</time>
      </trkpt>
      <trkpt lat="44.80806" lon="-0.38344">
        <ele>90.6</ele>
        <time>2022-04-03T09:11:50Z</time>
      </trkpt>
      <trkpt lat="44.80808" lon="-0.38337">
        <ele>89.8</ele>
        <time>2022-04-03T09:11:51Z</time>
      </trkpt>
      <trkpt lat="44.80816" lon="-0.38325">
        <ele>89.8</ele>
        <time>2022-04-03T09:11:52Z</time>
      </trkpt>
      <trkpt lat="44.8082" lon="-0.3832">
        <ele>89.2</ele>
        <time>2022-04-03T09:11:53Z</time>
      </trkpt>
      <trkpt lat="44.80825" lon="-0.38318">
        <ele>88.8</ele>
        <time>2022-04-03T09:11:54Z</time>
      </trkpt>
      <trkpt lat="44.80825" lon="-0.38318">
        <ele>88.8</ele>
        <time>2022-04-03T09:11:55Z</time>
      </trkpt>
      <trkpt lat="44.8083" lon="-0.38319">
        <ele>88</ele>
        <time>2022-04-03T09:11:56Z</time>
      </trkpt>
      <trkpt lat="44.80834" lon="-0.38325">
        <ele>88</ele>
        <time>2022-04-03T09:11:57Z</time>
      </trkpt>
      <trkpt lat="44.80835" lon="-0.38333">
        <ele>88.6</ele>
        <time>2022-04-03T09:11:58Z</time>
      </trkpt>
      <trkpt lat="44.80835" lon="-0.38341">
        <ele>89.2</ele>
        <time>2022-04-03T09:11:59Z</time>
      </trkpt>
      <trkpt lat="44.80832" lon="-0.38348">
        <ele>89.6</ele>
        <time>2022-04-03T09:12:00Z</time>
      </trkpt>
      <trkpt lat="44.8083" lon="-0.38354">
        <ele>89.2</ele>
        <time>2022-04-03T09:12:01Z</time>
      </trkpt>
      <trkpt lat="44.8083" lon="-0.38354">
        <ele>89.4</ele>
        <time>2022-04-03T09:12:02Z</time>
      </trkpt>
      <trkpt lat="44.80824" lon="-0.38373">
        <ele>89.2</ele>
        <time>2022-04-03T09:12:03Z</time>
      </trkpt>
      <trkpt lat="44.80822" lon="-0.3838">
        <ele>89.6</ele>
        <time>2022-04-03T09:12:04Z</time>
      </trkpt>
      <trkpt lat="44.80822" lon="-0.3838">
        <ele>89.8</ele>
        <time>2022-04-03T09:12:05Z</time>
      </trkpt>
      <trkpt lat="44.8082" lon="-0.38386">
        <ele>90</ele>
        <time>2022-04-03T09:12:06Z</time>
      </trkpt>
      <trkpt lat="44.80818" lon="-0.38393">
        <ele>90</ele>
        <time>2022-04-03T09:12:07Z</time>
      </trkpt>
      <trkpt lat="44.80817" lon="-0.384">
        <ele>90</ele>
        <time>2022-04-03T09:12:08Z</time>
      </trkpt>
      <trkpt lat="44.80816" lon="-0.38408">
        <ele>90</ele>
        <time>2022-04-03T09:12:09Z</time>
      </trkpt>
      <trkpt lat="44.80814" lon="-0.38415">
        <ele>90.2</ele>
        <time>2022-04-03T09:12:10Z</time>
      </trkpt>
      <trkpt lat="44.80813" lon="-0.38423">
        <ele>90</ele>
        <time>2022-04-03T09:12:11Z</time>
      </trkpt>
      <trkpt lat="44.80813" lon="-0.38423">
        <ele>90.2</ele>
        <time>2022-04-03T09:12:12Z</time>
      </trkpt>
      <trkpt lat="44.80807" lon="-0.38444">
        <ele>90</ele>
        <time>2022-04-03T09:12:13Z</time>
      </trkpt>
      <trkpt lat="44.80804" lon="-0.38449">
        <ele>90</ele>
        <time>2022-04-03T09:12:14Z</time>
      </trkpt>
      <trkpt lat="44.80798" lon="-0.38451">
        <ele>90.2</ele>
        <time>2022-04-03T09:12:15Z</time>
      </trkpt>
      <trkpt lat="44.80798" lon="-0.38451">
        <ele>90.2</ele>
        <time>2022-04-03T09:12:16Z</time>
      </trkpt>
      <trkpt lat="44.80791" lon="-0.3845">
        <ele>90</ele>
        <time>2022-04-03T09:12:17Z</time>
      </trkpt>
      <trkpt lat="44.80786" lon="-0.38446">
        <ele>90</ele>
        <time>2022-04-03T09:12:18Z</time>
      </trkpt>
      <trkpt lat="44.80781" lon="-0.38442">
        <ele>89.6</ele>
        <time>2022-04-03T09:12:19Z</time>
      </trkpt>
      <trkpt lat="44.80775" lon="-0.38437">
        <ele>90</ele>
        <time>2022-04-03T09:12:20Z</time>
      </trkpt>
      <trkpt lat="44.8077" lon="-0.38433">
        <ele>90.4</ele>
        <time>2022-04-03T09:12:21Z</time>
      </trkpt>
      <trkpt lat="44.80764" lon="-0.38429">
        <ele>90.4</ele>
        <time>2022-04-03T09:12:22Z</time>
      </trkpt>
      <trkpt lat="44.80754" lon="-0.3842">
        <ele>90.4</ele>
        <time>2022-04-03T09:12:23Z</time>
      </trkpt>
      <trkpt lat="44.80748" lon="-0.38417">
        <ele>90</ele>
        <time>2022-04-03T09:12:24Z</time>
      </trkpt>
      <trkpt lat="44.80742" lon="-0.38416">
        <ele>90.2</ele>
        <time>2022-04-03T09:12:25Z</time>
      </trkpt>
      <trkpt lat="44.80742" lon="-0.38416">
        <ele>89.6</ele>
        <time>2022-04-03T09:12:26Z</time>
      </trkpt>
      <trkpt lat="44.80736" lon="-0.38418">
        <ele>89.4</ele>
        <time>2022-04-03T09:12:27Z</time>
      </trkpt>
      <trkpt lat="44.80732" lon="-0.38424">
        <ele>88.6</ele>
        <time>2022-04-03T09:12:28Z</time>
      </trkpt>
      <trkpt lat="44.8073" lon="-0.38433">
        <ele>88</ele>
        <time>2022-04-03T09:12:29Z</time>
      </trkpt>
      <trkpt lat="44.80731" lon="-0.38443">
        <ele>87.8</ele>
        <time>2022-04-03T09:12:30Z</time>
      </trkpt>
      <trkpt lat="44.80733" lon="-0.38453">
        <ele>87.8</ele>
        <time>2022-04-03T09:12:31Z</time>
      </trkpt>
      <trkpt lat="44.80733" lon="-0.38453">
        <ele>87.8</ele>
        <time>2022-04-03T09:12:32Z</time>
      </trkpt>
      <trkpt lat="44.80745" lon="-0.38478">
        <ele>87.2</ele>
        <time>2022-04-03T09:12:33Z</time>
      </trkpt>
      <trkpt lat="44.80751" lon="-0.38482">
        <ele>87</ele>
        <time>2022-04-03T09:12:34Z</time>
      </trkpt>
      <trkpt lat="44.80757" lon="-0.38485">
        <ele>87.2</ele>
        <time>2022-04-03T09:12:35Z</time>
      </trkpt>
      <trkpt lat="44.80764" lon="-0.38486">
        <ele>87.6</ele>
        <time>2022-04-03T09:12:36Z</time>
      </trkpt>
      <trkpt lat="44.80764" lon="-0.38486">
        <ele>87.6</ele>
        <time>2022-04-03T09:12:37Z</time>
      </trkpt>
      <trkpt lat="44.80769" lon="-0.38484">
        <ele>88.2</ele>
        <time>2022-04-03T09:12:38Z</time>
      </trkpt>
      <trkpt lat="44.80775" lon="-0.3848">
        <ele>88.8</ele>
        <time>2022-04-03T09:12:39Z</time>
      </trkpt>
      <trkpt lat="44.80779" lon="-0.38477">
        <ele>89.2</ele>
        <time>2022-04-03T09:12:40Z</time>
      </trkpt>
      <trkpt lat="44.80784" lon="-0.38477">
        <ele>89</ele>
        <time>2022-04-03T09:12:41Z</time>
      </trkpt>
      <trkpt lat="44.80789" lon="-0.3848">
        <ele>88.2</ele>
        <time>2022-04-03T09:12:42Z</time>
      </trkpt>
      <trkpt lat="44.80794" lon="-0.38484">
        <ele>87.8</ele>
        <time>2022-04-03T09:12:43Z</time>
      </trkpt>
      <trkpt lat="44.80803" lon="-0.38491">
        <ele>88.4</ele>
        <time>2022-04-03T09:12:44Z</time>
      </trkpt>
      <trkpt lat="44.80807" lon="-0.38494">
        <ele>89</ele>
        <time>2022-04-03T09:12:45Z</time>
      </trkpt>
      <trkpt lat="44.80812" lon="-0.38497">
        <ele>89.6</ele>
        <time>2022-04-03T09:12:46Z</time>
      </trkpt>
      <trkpt lat="44.80812" lon="-0.38497">
        <ele>89.4</ele>
        <time>2022-04-03T09:12:47Z</time>
      </trkpt>
      <trkpt lat="44.80817" lon="-0.385">
        <ele>89.4</ele>
        <time>2022-04-03T09:12:48Z</time>
      </trkpt>
      <trkpt lat="44.80822" lon="-0.38502">
        <ele>89.2</ele>
        <time>2022-04-03T09:12:49Z</time>
      </trkpt>
      <trkpt lat="44.80826" lon="-0.38504">
        <ele>89.6</ele>
        <time>2022-04-03T09:12:50Z</time>
      </trkpt>
      <trkpt lat="44.80831" lon="-0.38506">
        <ele>90.2</ele>
        <time>2022-04-03T09:12:51Z</time>
      </trkpt>
      <trkpt lat="44.80836" lon="-0.38508">
        <ele>91</ele>
        <time>2022-04-03T09:12:52Z</time>
      </trkpt>
      <trkpt lat="44.80836" lon="-0.38508">
        <ele>91.4</ele>
        <time>2022-04-03T09:12:53Z</time>
      </trkpt>
      <trkpt lat="44.80836" lon="-0.38508">
        <ele>91.8</ele>
        <time>2022-04-03T09:12:54Z</time>
      </trkpt>
      <trkpt lat="44.80843" lon="-0.38527">
        <ele>92.2</ele>
        <time>2022-04-03T09:12:55Z</time>
      </trkpt>
      <trkpt lat="44.80843" lon="-0.38533">
        <ele>92.4</ele>
        <time>2022-04-03T09:12:56Z</time>
      </trkpt>
      <trkpt lat="44.80842" lon="-0.38539">
        <ele>92.2</ele>
        <time>2022-04-03T09:12:57Z</time>
      </trkpt>
      <trkpt lat="44.80842" lon="-0.38539">
        <ele>92.2</ele>
        <time>2022-04-03T09:12:58Z</time>
      </trkpt>
      <trkpt lat="44.80842" lon="-0.38545">
        <ele>92</ele>
        <time>2022-04-03T09:12:59Z</time>
      </trkpt>
      <trkpt lat="44.80843" lon="-0.38551">
        <ele>92.2</ele>
        <time>2022-04-03T09:13:00Z</time>
      </trkpt>
      <trkpt lat="44.80844" lon="-0.38557">
        <ele>92.6</ele>
        <time>2022-04-03T09:13:01Z</time>
      </trkpt>
      <trkpt lat="44.80847" lon="-0.38561">
        <ele>92.8</ele>
        <time>2022-04-03T09:13:02Z</time>
      </trkpt>
      <trkpt lat="44.80851" lon="-0.38565">
        <ele>92.6</ele>
        <time>2022-04-03T09:13:03Z</time>
      </trkpt>
      <trkpt lat="44.80858" lon="-0.38572">
        <ele>92.4</ele>
        <time>2022-04-03T09:13:04Z</time>
      </trkpt>
      <trkpt lat="44.80861" lon="-0.38576">
        <ele>92.4</ele>
        <time>2022-04-03T09:13:05Z</time>
      </trkpt>
      <trkpt lat="44.80864" lon="-0.38581">
        <ele>92.2</ele>
        <time>2022-04-03T09:13:06Z</time>
      </trkpt>
      <trkpt lat="44.80864" lon="-0.38587">
        <ele>92.6</ele>
        <time>2022-04-03T09:13:07Z</time>
      </trkpt>
      <trkpt lat="44.80864" lon="-0.38587">
        <ele>92.6</ele>
        <time>2022-04-03T09:13:08Z</time>
      </trkpt>
      <trkpt lat="44.80864" lon="-0.38592">
        <ele>92.8</ele>
        <time>2022-04-03T09:13:09Z</time>
      </trkpt>
      <trkpt lat="44.80862" lon="-0.38598">
        <ele>92.4</ele>
        <time>2022-04-03T09:13:10Z</time>
      </trkpt>
      <trkpt lat="44.80858" lon="-0.38602">
        <ele>92.4</ele>
        <time>2022-04-03T09:13:11Z</time>
      </trkpt>
      <trkpt lat="44.80853" lon="-0.38603">
        <ele>92</ele>
        <time>2022-04-03T09:13:12Z</time>
      </trkpt>
      <trkpt lat="44.80847" lon="-0.38601">
        <ele>91.4</ele>
        <time>2022-04-03T09:13:13Z</time>
      </trkpt>
      <trkpt lat="44.8084" lon="-0.38588">
        <ele>90.2</ele>
        <time>2022-04-03T09:13:14Z</time>
      </trkpt>
      <trkpt lat="44.80838" lon="-0.38581">
        <ele>90</ele>
        <time>2022-04-03T09:13:15Z</time>
      </trkpt>
      <trkpt lat="44.80836" lon="-0.38574">
        <ele>90.6</ele>
        <time>2022-04-03T09:13:16Z</time>
      </trkpt>
      <trkpt lat="44.80834" lon="-0.38566">
        <ele>90.6</ele>
        <time>2022-04-03T09:13:17Z</time>
      </trkpt>
      <trkpt lat="44.80833" lon="-0.3856">
        <ele>90.8</ele>
        <time>2022-04-03T09:13:18Z</time>
      </trkpt>
      <trkpt lat="44.80833" lon="-0.3856">
        <ele>90.8</ele>
        <time>2022-04-03T09:13:19Z</time>
      </trkpt>
      <trkpt lat="44.80832" lon="-0.38552">
        <ele>90.4</ele>
        <time>2022-04-03T09:13:20Z</time>
      </trkpt>
      <trkpt lat="44.80831" lon="-0.38545">
        <ele>90.8</ele>
        <time>2022-04-03T09:13:21Z</time>
      </trkpt>
      <trkpt lat="44.80829" lon="-0.38538">
        <ele>90.2</ele>
        <time>2022-04-03T09:13:22Z</time>
      </trkpt>
      <trkpt lat="44.80825" lon="-0.38533">
        <ele>90</ele>
        <time>2022-04-03T09:13:23Z</time>
      </trkpt>
      <trkpt lat="44.80819" lon="-0.38531">
        <ele>89.6</ele>
        <time>2022-04-03T09:13:24Z</time>
      </trkpt>
      <trkpt lat="44.80807" lon="-0.38536">
        <ele>89.4</ele>
        <time>2022-04-03T09:13:25Z</time>
      </trkpt>
      <trkpt lat="44.80801" lon="-0.38541">
        <ele>89.2</ele>
        <time>2022-04-03T09:13:26Z</time>
      </trkpt>
      <trkpt lat="44.80797" lon="-0.38546">
        <ele>88.8</ele>
        <time>2022-04-03T09:13:27Z</time>
      </trkpt>
      <trkpt lat="44.80794" lon="-0.38553">
        <ele>88.6</ele>
        <time>2022-04-03T09:13:28Z</time>
      </trkpt>
      <trkpt lat="44.80794" lon="-0.38553">
        <ele>88.6</ele>
        <time>2022-04-03T09:13:29Z</time>
      </trkpt>
      <trkpt lat="44.80793" lon="-0.38559">
        <ele>88.4</ele>
        <time>2022-04-03T09:13:30Z</time>
      </trkpt>
      <trkpt lat="44.80797" lon="-0.38563">
        <ele>88.4</ele>
        <time>2022-04-03T09:13:31Z</time>
      </trkpt>
      <trkpt lat="44.80803" lon="-0.38564">
        <ele>88.4</ele>
        <time>2022-04-03T09:13:32Z</time>
      </trkpt>
      <trkpt lat="44.80809" lon="-0.38564">
        <ele>88.4</ele>
        <time>2022-04-03T09:13:33Z</time>
      </trkpt>
      <trkpt lat="44.80809" lon="-0.38564">
        <ele>88.6</ele>
        <time>2022-04-03T09:13:34Z</time>
      </trkpt>
      <trkpt lat="44.80814" lon="-0.38579">
        <ele>88.4</ele>
        <time>2022-04-03T09:13:35Z</time>
      </trkpt>
      <trkpt lat="44.80811" lon="-0.38587">
        <ele>88.6</ele>
        <time>2022-04-03T09:13:36Z</time>
      </trkpt>
      <trkpt lat="44.80808" lon="-0.38594">
        <ele>87.8</ele>
        <time>2022-04-03T09:13:37Z</time>
      </trkpt>
      <trkpt lat="44.80806" lon="-0.38603">
        <ele>87.8</ele>
        <time>2022-04-03T09:13:38Z</time>
      </trkpt>
      <trkpt lat="44.80804" lon="-0.38611">
        <ele>87.6</ele>
        <time>2022-04-03T09:13:39Z</time>
      </trkpt>
      <trkpt lat="44.80804" lon="-0.38611">
        <ele>87.6</ele>
        <time>2022-04-03T09:13:40Z</time>
      </trkpt>
      <trkpt lat="44.80802" lon="-0.38617">
        <ele>88</ele>
        <time>2022-04-03T09:13:41Z</time>
      </trkpt>
      <trkpt lat="44.80801" lon="-0.38622">
        <ele>87.4</ele>
        <time>2022-04-03T09:13:42Z</time>
      </trkpt>
      <trkpt lat="44.80799" lon="-0.38622">
        <ele>85.8</ele>
        <time>2022-04-03T09:13:43Z</time>
      </trkpt>
      <trkpt lat="44.80796" lon="-0.3862">
        <ele>84.2</ele>
        <time>2022-04-03T09:13:44Z</time>
      </trkpt>
      <trkpt lat="44.80791" lon="-0.38615">
        <ele>83</ele>
        <time>2022-04-03T09:13:45Z</time>
      </trkpt>
      <trkpt lat="44.80785" lon="-0.38605">
        <ele>83.2</ele>
        <time>2022-04-03T09:13:46Z</time>
      </trkpt>
      <trkpt lat="44.80782" lon="-0.386">
        <ele>82.8</ele>
        <time>2022-04-03T09:13:47Z</time>
      </trkpt>
      <trkpt lat="44.80779" lon="-0.38595">
        <ele>82</ele>
        <time>2022-04-03T09:13:48Z</time>
      </trkpt>
      <trkpt lat="44.80776" lon="-0.38589">
        <ele>81</ele>
        <time>2022-04-03T09:13:49Z</time>
      </trkpt>
      <trkpt lat="44.80776" lon="-0.38589">
        <ele>80</ele>
        <time>2022-04-03T09:13:50Z</time>
      </trkpt>
      <trkpt lat="44.80772" lon="-0.38584">
        <ele>80.2</ele>
        <time>2022-04-03T09:13:51Z</time>
      </trkpt>
      <trkpt lat="44.8077" lon="-0.38578">
        <ele>80.6</ele>
        <time>2022-04-03T09:13:52Z</time>
      </trkpt>
      <trkpt lat="44.80769" lon="-0.38574">
        <ele>81</ele>
        <time>2022-04-03T09:13:53Z</time>
      </trkpt>
      <trkpt lat="44.80767" lon="-0.38571">
        <ele>80.6</ele>
        <time>2022-04-03T09:13:54Z</time>
      </trkpt>
      <trkpt lat="44.80767" lon="-0.38571">
        <ele>80</ele>
        <time>2022-04-03T09:13:55Z</time>
      </trkpt>
      <trkpt lat="44.8076" lon="-0.38561">
        <ele>79.8</ele>
        <time>2022-04-03T09:13:56Z</time>
      </trkpt>
      <trkpt lat="44.80757" lon="-0.38558">
        <ele>79.8</ele>
        <time>2022-04-03T09:13:57Z</time>
      </trkpt>
      <trkpt lat="44.80755" lon="-0.38554">
        <ele>80</ele>
        <time>2022-04-03T09:13:58Z</time>
      </trkpt>
      <trkpt lat="44.80754" lon="-0.3855">
        <ele>80.4</ele>
        <time>2022-04-03T09:13:59Z</time>
      </trkpt>
      <trkpt lat="44.80752" lon="-0.38547">
        <ele>80.2</ele>
        <time>2022-04-03T09:14:00Z</time>
      </trkpt>
      <trkpt lat="44.80752" lon="-0.38547">
        <ele>80.2</ele>
        <time>2022-04-03T09:14:01Z</time>
      </trkpt>
      <trkpt lat="44.80751" lon="-0.38544">
        <ele>79.8</ele>
        <time>2022-04-03T09:14:02Z</time>
      </trkpt>
      <trkpt lat="44.8075" lon="-0.38542">
        <ele>79</ele>
        <time>2022-04-03T09:14:03Z</time>
      </trkpt>
      <trkpt lat="44.80747" lon="-0.38541">
        <ele>78.6</ele>
        <time>2022-04-03T09:14:04Z</time>
      </trkpt>
      <trkpt lat="44.80744" lon="-0.38539">
        <ele>78.2</ele>
        <time>2022-04-03T09:14:05Z</time>
      </trkpt>
      <trkpt lat="44.80744" lon="-0.38539">
        <ele>77.8</ele>
        <time>2022-04-03T09:14:06Z</time>
      </trkpt>
      <trkpt lat="44.80728" lon="-0.38528">
        <ele>76.8</ele>
        <time>2022-04-03T09:14:07Z</time>
      </trkpt>
      <trkpt lat="44.80722" lon="-0.38524">
        <ele>75.8</ele>
        <time>2022-04-03T09:14:08Z</time>
      </trkpt>
      <trkpt lat="44.80717" lon="-0.38522">
        <ele>75.2</ele>
        <time>2022-04-03T09:14:09Z</time>
      </trkpt>
      <trkpt lat="44.80711" lon="-0.38523">
        <ele>75.4</ele>
        <time>2022-04-03T09:14:10Z</time>
      </trkpt>
      <trkpt lat="44.80711" lon="-0.38523">
        <ele>75.6</ele>
        <time>2022-04-03T09:14:11Z</time>
      </trkpt>
      <trkpt lat="44.80707" lon="-0.38523">
        <ele>75</ele>
        <time>2022-04-03T09:14:12Z</time>
      </trkpt>
      <trkpt lat="44.80704" lon="-0.3852">
        <ele>74.6</ele>
        <time>2022-04-03T09:14:13Z</time>
      </trkpt>
      <trkpt lat="44.80701" lon="-0.38518">
        <ele>74</ele>
        <time>2022-04-03T09:14:14Z</time>
      </trkpt>
      <trkpt lat="44.80701" lon="-0.38518">
        <ele>73.8</ele>
        <time>2022-04-03T09:14:15Z</time>
      </trkpt>
      <trkpt lat="44.80693" lon="-0.38505">
        <ele>73.8</ele>
        <time>2022-04-03T09:14:16Z</time>
      </trkpt>
      <trkpt lat="44.8069" lon="-0.38501">
        <ele>73.8</ele>
        <time>2022-04-03T09:14:17Z</time>
      </trkpt>
      <trkpt lat="44.80684" lon="-0.38498">
        <ele>74</ele>
        <time>2022-04-03T09:14:18Z</time>
      </trkpt>
      <trkpt lat="44.80678" lon="-0.38495">
        <ele>74</ele>
        <time>2022-04-03T09:14:19Z</time>
      </trkpt>
      <trkpt lat="44.80673" lon="-0.38492">
        <ele>73.8</ele>
        <time>2022-04-03T09:14:20Z</time>
      </trkpt>
      <trkpt lat="44.80669" lon="-0.38488">
        <ele>73.8</ele>
        <time>2022-04-03T09:14:21Z</time>
      </trkpt>
      <trkpt lat="44.80669" lon="-0.38488">
        <ele>73.8</ele>
        <time>2022-04-03T09:14:22Z</time>
      </trkpt>
      <trkpt lat="44.80668" lon="-0.38484">
        <ele>74.2</ele>
        <time>2022-04-03T09:14:23Z</time>
      </trkpt>
      <trkpt lat="44.80667" lon="-0.38479">
        <ele>74.8</ele>
        <time>2022-04-03T09:14:24Z</time>
      </trkpt>
      <trkpt lat="44.80665" lon="-0.38475">
        <ele>74.6</ele>
        <time>2022-04-03T09:14:25Z</time>
      </trkpt>
      <trkpt lat="44.80665" lon="-0.38475">
        <ele>73.6</ele>
        <time>2022-04-03T09:14:26Z</time>
      </trkpt>
      <trkpt lat="44.80652" lon="-0.38473">
        <ele>72.6</ele>
        <time>2022-04-03T09:14:27Z</time>
      </trkpt>
      <trkpt lat="44.80649" lon="-0.38472">
        <ele>71.4</ele>
        <time>2022-04-03T09:14:28Z</time>
      </trkpt>
      <trkpt lat="44.80647" lon="-0.3847">
        <ele>71</ele>
        <time>2022-04-03T09:14:29Z</time>
      </trkpt>
      <trkpt lat="44.80645" lon="-0.38468">
        <ele>70.8</ele>
        <time>2022-04-03T09:14:30Z</time>
      </trkpt>
      <trkpt lat="44.80642" lon="-0.38466">
        <ele>71</ele>
        <time>2022-04-03T09:14:31Z</time>
      </trkpt>
      <trkpt lat="44.80642" lon="-0.38466">
        <ele>70.8</ele>
        <time>2022-04-03T09:14:32Z</time>
      </trkpt>
      <trkpt lat="44.8064" lon="-0.38464">
        <ele>70.8</ele>
        <time>2022-04-03T09:14:33Z</time>
      </trkpt>
      <trkpt lat="44.80637" lon="-0.38461">
        <ele>70.6</ele>
        <time>2022-04-03T09:14:34Z</time>
      </trkpt>
      <trkpt lat="44.80635" lon="-0.38457">
        <ele>70.2</ele>
        <time>2022-04-03T09:14:35Z</time>
      </trkpt>
      <trkpt lat="44.80635" lon="-0.38457">
        <ele>69.8</ele>
        <time>2022-04-03T09:14:36Z</time>
      </trkpt>
      <trkpt lat="44.80629" lon="-0.38448">
        <ele>69.6</ele>
        <time>2022-04-03T09:14:37Z</time>
      </trkpt>
      <trkpt lat="44.80626" lon="-0.38444">
        <ele>70.2</ele>
        <time>2022-04-03T09:14:38Z</time>
      </trkpt>
      <trkpt lat="44.80624" lon="-0.38439">
        <ele>70.2</ele>
        <time>2022-04-03T09:14:39Z</time>
      </trkpt>
      <trkpt lat="44.80621" lon="-0.38434">
        <ele>69.8</ele>
        <time>2022-04-03T09:14:40Z</time>
      </trkpt>
      <trkpt lat="44.80618" lon="-0.38429">
        <ele>69.2</ele>
        <time>2022-04-03T09:14:41Z</time>
      </trkpt>
      <trkpt lat="44.80616" lon="-0.38424">
        <ele>69</ele>
        <time>2022-04-03T09:14:42Z</time>
      </trkpt>
      <trkpt lat="44.80616" lon="-0.38424">
        <ele>69</ele>
        <time>2022-04-03T09:14:43Z</time>
      </trkpt>
      <trkpt lat="44.80616" lon="-0.3842">
        <ele>68.8</ele>
        <time>2022-04-03T09:14:44Z</time>
      </trkpt>
      <trkpt lat="44.80614" lon="-0.38417">
        <ele>68.8</ele>
        <time>2022-04-03T09:14:45Z</time>
      </trkpt>
      <trkpt lat="44.80612" lon="-0.38414">
        <ele>68.6</ele>
        <time>2022-04-03T09:14:46Z</time>
      </trkpt>
      <trkpt lat="44.80605" lon="-0.38406">
        <ele>68.4</ele>
        <time>2022-04-03T09:14:47Z</time>
      </trkpt>
      <trkpt lat="44.80601" lon="-0.38402">
        <ele>68</ele>
        <time>2022-04-03T09:14:48Z</time>
      </trkpt>
      <trkpt lat="44.80597" lon="-0.38399">
        <ele>67.6</ele>
        <time>2022-04-03T09:14:49Z</time>
      </trkpt>
      <trkpt lat="44.80595" lon="-0.38394">
        <ele>66.6</ele>
        <time>2022-04-03T09:14:50Z</time>
      </trkpt>
      <trkpt lat="44.80593" lon="-0.3839">
        <ele>66.2</ele>
        <time>2022-04-03T09:14:51Z</time>
      </trkpt>
      <trkpt lat="44.8059" lon="-0.38387">
        <ele>66.2</ele>
        <time>2022-04-03T09:14:52Z</time>
      </trkpt>
      <trkpt lat="44.8059" lon="-0.38387">
        <ele>66.2</ele>
        <time>2022-04-03T09:14:53Z</time>
      </trkpt>
      <trkpt lat="44.80588" lon="-0.38384">
        <ele>66</ele>
        <time>2022-04-03T09:14:54Z</time>
      </trkpt>
      <trkpt lat="44.80583" lon="-0.38382">
        <ele>66</ele>
        <time>2022-04-03T09:14:56Z</time>
      </trkpt>
      <trkpt lat="44.80574" lon="-0.38372">
        <ele>66.4</ele>
        <time>2022-04-03T09:14:57Z</time>
      </trkpt>
      <trkpt lat="44.80571" lon="-0.38368">
        <ele>66.6</ele>
        <time>2022-04-03T09:14:58Z</time>
      </trkpt>
      <trkpt lat="44.8057" lon="-0.38365">
        <ele>66.8</ele>
        <time>2022-04-03T09:14:59Z</time>
      </trkpt>
      <trkpt lat="44.80571" lon="-0.38363">
        <ele>67.2</ele>
        <time>2022-04-03T09:15:00Z</time>
      </trkpt>
      <trkpt lat="44.80572" lon="-0.38365">
        <ele>68</ele>
        <time>2022-04-03T09:15:01Z</time>
      </trkpt>
      <trkpt lat="44.80574" lon="-0.3837">
        <ele>68.4</ele>
        <time>2022-04-03T09:15:02Z</time>
      </trkpt>
      <trkpt lat="44.80575" lon="-0.38374">
        <ele>68.8</ele>
        <time>2022-04-03T09:15:03Z</time>
      </trkpt>
      <trkpt lat="44.80575" lon="-0.38374">
        <ele>68.8</ele>
        <time>2022-04-03T09:15:04Z</time>
      </trkpt>
      <trkpt lat="44.80578" lon="-0.38378">
        <ele>68.8</ele>
        <time>2022-04-03T09:15:05Z</time>
      </trkpt>
      <trkpt lat="44.80579" lon="-0.38382">
        <ele>69</ele>
        <time>2022-04-03T09:15:06Z</time>
      </trkpt>
      <trkpt lat="44.80581" lon="-0.38384">
        <ele>69.4</ele>
        <time>2022-04-03T09:15:07Z</time>
      </trkpt>
      <trkpt lat="44.80585" lon="-0.38387">
        <ele>69.8</ele>
        <time>2022-04-03T09:15:08Z</time>
      </trkpt>
      <trkpt lat="44.80588" lon="-0.38389">
        <ele>70.4</ele>
        <time>2022-04-03T09:15:09Z</time>
      </trkpt>
      <trkpt lat="44.8059" lon="-0.38391">
        <ele>70.6</ele>
        <time>2022-04-03T09:15:10Z</time>
      </trkpt>
      <trkpt lat="44.80592" lon="-0.38394">
        <ele>70.8</ele>
        <time>2022-04-03T09:15:11Z</time>
      </trkpt>
      <trkpt lat="44.80593" lon="-0.38396">
        <ele>70.8</ele>
        <time>2022-04-03T09:15:12Z</time>
      </trkpt>
      <trkpt lat="44.80595" lon="-0.384">
        <ele>70.8</ele>
        <time>2022-04-03T09:15:13Z</time>
      </trkpt>
      <trkpt lat="44.80595" lon="-0.384">
        <ele>71.2</ele>
        <time>2022-04-03T09:15:14Z</time>
      </trkpt>
      <trkpt lat="44.80598" lon="-0.38404">
        <ele>71.2</ele>
        <time>2022-04-03T09:15:15Z</time>
      </trkpt>
      <trkpt lat="44.80601" lon="-0.38408">
        <ele>71.4</ele>
        <time>2022-04-03T09:15:16Z</time>
      </trkpt>
      <trkpt lat="44.80601" lon="-0.38408">
        <ele>71.6</ele>
        <time>2022-04-03T09:15:17Z</time>
      </trkpt>
      <trkpt lat="44.8061" lon="-0.38418">
        <ele>71.8</ele>
        <time>2022-04-03T09:15:18Z</time>
      </trkpt>
      <trkpt lat="44.80613" lon="-0.38421">
        <ele>71.8</ele>
        <time>2022-04-03T09:15:19Z</time>
      </trkpt>
      <trkpt lat="44.80616" lon="-0.38424">
        <ele>72.2</ele>
        <time>2022-04-03T09:15:20Z</time>
      </trkpt>
      <trkpt lat="44.8062" lon="-0.38427">
        <ele>72.6</ele>
        <time>2022-04-03T09:15:21Z</time>
      </trkpt>
      <trkpt lat="44.80623" lon="-0.3843">
        <ele>73.2</ele>
        <time>2022-04-03T09:15:22Z</time>
      </trkpt>
      <trkpt lat="44.80627" lon="-0.38432">
        <ele>73.6</ele>
        <time>2022-04-03T09:15:23Z</time>
      </trkpt>
      <trkpt lat="44.8063" lon="-0.38434">
        <ele>74</ele>
        <time>2022-04-03T09:15:24Z</time>
      </trkpt>
      <trkpt lat="44.8063" lon="-0.38434">
        <ele>74</ele>
        <time>2022-04-03T09:15:25Z</time>
      </trkpt>
      <trkpt lat="44.80634" lon="-0.38436">
        <ele>74.2</ele>
        <time>2022-04-03T09:15:26Z</time>
      </trkpt>
      <trkpt lat="44.80637" lon="-0.38439">
        <ele>74.2</ele>
        <time>2022-04-03T09:15:27Z</time>
      </trkpt>
      <trkpt lat="44.80637" lon="-0.38439">
        <ele>74.4</ele>
        <time>2022-04-03T09:15:28Z</time>
      </trkpt>
      <trkpt lat="44.80648" lon="-0.38448">
        <ele>74.6</ele>
        <time>2022-04-03T09:15:29Z</time>
      </trkpt>
      <trkpt lat="44.80652" lon="-0.3845">
        <ele>75</ele>
        <time>2022-04-03T09:15:30Z</time>
      </trkpt>
      <trkpt lat="44.80655" lon="-0.38453">
        <ele>75.2</ele>
        <time>2022-04-03T09:15:31Z</time>
      </trkpt>
      <trkpt lat="44.80657" lon="-0.38455">
        <ele>75.6</ele>
        <time>2022-04-03T09:15:32Z</time>
      </trkpt>
      <trkpt lat="44.80659" lon="-0.38456">
        <ele>75.8</ele>
        <time>2022-04-03T09:15:33Z</time>
      </trkpt>
      <trkpt lat="44.80661" lon="-0.38458">
        <ele>76</ele>
        <time>2022-04-03T09:15:34Z</time>
      </trkpt>
      <trkpt lat="44.80661" lon="-0.38458">
        <ele>76.2</ele>
        <time>2022-04-03T09:15:35Z</time>
      </trkpt>
      <trkpt lat="44.80662" lon="-0.3846">
        <ele>76.6</ele>
        <time>2022-04-03T09:15:36Z</time>
      </trkpt>
      <trkpt lat="44.80664" lon="-0.38461">
        <ele>77.2</ele>
        <time>2022-04-03T09:15:37Z</time>
      </trkpt>
      <trkpt lat="44.80667" lon="-0.38464">
        <ele>77.6</ele>
        <time>2022-04-03T09:15:38Z</time>
      </trkpt>
      <trkpt lat="44.80669" lon="-0.38466">
        <ele>77.8</ele>
        <time>2022-04-03T09:15:39Z</time>
      </trkpt>
      <trkpt lat="44.80671" lon="-0.3847">
        <ele>77.8</ele>
        <time>2022-04-03T09:15:40Z</time>
      </trkpt>
      <trkpt lat="44.80673" lon="-0.38473">
        <ele>77.6</ele>
        <time>2022-04-03T09:15:41Z</time>
      </trkpt>
      <trkpt lat="44.80675" lon="-0.38476">
        <ele>77.6</ele>
        <time>2022-04-03T09:15:42Z</time>
      </trkpt>
      <trkpt lat="44.80677" lon="-0.38479">
        <ele>77.4</ele>
        <time>2022-04-03T09:15:43Z</time>
      </trkpt>
      <trkpt lat="44.80679" lon="-0.38482">
        <ele>77.2</ele>
        <time>2022-04-03T09:15:44Z</time>
      </trkpt>
      <trkpt lat="44.80682" lon="-0.38483">
        <ele>77.4</ele>
        <time>2022-04-03T09:15:45Z</time>
      </trkpt>
      <trkpt lat="44.80682" lon="-0.38483">
        <ele>77.4</ele>
        <time>2022-04-03T09:15:46Z</time>
      </trkpt>
      <trkpt lat="44.80686" lon="-0.38482">
        <ele>77.6</ele>
        <time>2022-04-03T09:15:47Z</time>
      </trkpt>
      <trkpt lat="44.80688" lon="-0.3848">
        <ele>78.2</ele>
        <time>2022-04-03T09:15:48Z</time>
      </trkpt>
      <trkpt lat="44.80688" lon="-0.38476">
        <ele>78.6</ele>
        <time>2022-04-03T09:15:49Z</time>
      </trkpt>
      <trkpt lat="44.80686" lon="-0.38474">
        <ele>79.2</ele>
        <time>2022-04-03T09:15:50Z</time>
      </trkpt>
      <trkpt lat="44.80686" lon="-0.38472">
        <ele>79.6</ele>
        <time>2022-04-03T09:15:51Z</time>
      </trkpt>
      <trkpt lat="44.80685" lon="-0.3847">
        <ele>79.8</ele>
        <time>2022-04-03T09:15:52Z</time>
      </trkpt>
      <trkpt lat="44.80686" lon="-0.38466">
        <ele>80.2</ele>
        <time>2022-04-03T09:15:53Z</time>
      </trkpt>
      <trkpt lat="44.80686" lon="-0.38464">
        <ele>80.6</ele>
        <time>2022-04-03T09:15:54Z</time>
      </trkpt>
      <trkpt lat="44.80686" lon="-0.38462">
        <ele>81.2</ele>
        <time>2022-04-03T09:15:55Z</time>
      </trkpt>
      <trkpt lat="44.80686" lon="-0.38462">
        <ele>81.8</ele>
        <time>2022-04-03T09:15:56Z</time>
      </trkpt>
      <trkpt lat="44.80688" lon="-0.38459">
        <ele>82.4</ele>
        <time>2022-04-03T09:15:57Z</time>
      </trkpt>
      <trkpt lat="44.8069" lon="-0.38456">
        <ele>83</ele>
        <time>2022-04-03T09:15:58Z</time>
      </trkpt>
      <trkpt lat="44.80693" lon="-0.38451">
        <ele>83.8</ele>
        <time>2022-04-03T09:15:59Z</time>
      </trkpt>
      <trkpt lat="44.80694" lon="-0.38449">
        <ele>84.4</ele>
        <time>2022-04-03T09:16:00Z</time>
      </trkpt>
      <trkpt lat="44.80695" lon="-0.38445">
        <ele>84.8</ele>
        <time>2022-04-03T09:16:01Z</time>
      </trkpt>
      <trkpt lat="44.80695" lon="-0.38442">
        <ele>85.4</ele>
        <time>2022-04-03T09:16:02Z</time>
      </trkpt>
      <trkpt lat="44.80696" lon="-0.38438">
        <ele>86</ele>
        <time>2022-04-03T09:16:03Z</time>
      </trkpt>
      <trkpt lat="44.80697" lon="-0.38435">
        <ele>86.4</ele>
        <time>2022-04-03T09:16:04Z</time>
      </trkpt>
      <trkpt lat="44.80698" lon="-0.38431">
        <ele>86.8</ele>
        <time>2022-04-03T09:16:05Z</time>
      </trkpt>
      <trkpt lat="44.80699" lon="-0.38428">
        <ele>87</ele>
        <time>2022-04-03T09:16:06Z</time>
      </trkpt>
      <trkpt lat="44.80699" lon="-0.38428">
        <ele>87</ele>
        <time>2022-04-03T09:16:07Z</time>
      </trkpt>
      <trkpt lat="44.80698" lon="-0.38425">
        <ele>87</ele>
        <time>2022-04-03T09:16:08Z</time>
      </trkpt>
      <trkpt lat="44.80696" lon="-0.38422">
        <ele>87</ele>
        <time>2022-04-03T09:16:09Z</time>
      </trkpt>
      <trkpt lat="44.80691" lon="-0.38416">
        <ele>86.8</ele>
        <time>2022-04-03T09:16:10Z</time>
      </trkpt>
      <trkpt lat="44.80688" lon="-0.38413">
        <ele>87</ele>
        <time>2022-04-03T09:16:11Z</time>
      </trkpt>
      <trkpt lat="44.80685" lon="-0.38412">
        <ele>87.4</ele>
        <time>2022-04-03T09:16:12Z</time>
      </trkpt>
      <trkpt lat="44.80682" lon="-0.38412">
        <ele>87</ele>
        <time>2022-04-03T09:16:13Z</time>
      </trkpt>
      <trkpt lat="44.8068" lon="-0.38414">
        <ele>86.4</ele>
        <time>2022-04-03T09:16:14Z</time>
      </trkpt>
      <trkpt lat="44.80678" lon="-0.38419">
        <ele>85.6</ele>
        <time>2022-04-03T09:16:15Z</time>
      </trkpt>
      <trkpt lat="44.80677" lon="-0.38422">
        <ele>85</ele>
        <time>2022-04-03T09:16:16Z</time>
      </trkpt>
      <trkpt lat="44.80677" lon="-0.38422">
        <ele>84.2</ele>
        <time>2022-04-03T09:16:17Z</time>
      </trkpt>
      <trkpt lat="44.80674" lon="-0.38421">
        <ele>83.8</ele>
        <time>2022-04-03T09:16:18Z</time>
      </trkpt>
      <trkpt lat="44.80674" lon="-0.38421">
        <ele>83.8</ele>
        <time>2022-04-03T09:16:19Z</time>
      </trkpt>
      <trkpt lat="44.80673" lon="-0.38409">
        <ele>84</ele>
        <time>2022-04-03T09:16:20Z</time>
      </trkpt>
      <trkpt lat="44.80672" lon="-0.38405">
        <ele>84</ele>
        <time>2022-04-03T09:16:21Z</time>
      </trkpt>
      <trkpt lat="44.80671" lon="-0.38401">
        <ele>84.4</ele>
        <time>2022-04-03T09:16:22Z</time>
      </trkpt>
      <trkpt lat="44.80671" lon="-0.38397">
        <ele>84.8</ele>
        <time>2022-04-03T09:16:23Z</time>
      </trkpt>
      <trkpt lat="44.8067" lon="-0.38393">
        <ele>84.6</ele>
        <time>2022-04-03T09:16:24Z</time>
      </trkpt>
      <trkpt lat="44.80669" lon="-0.3839">
        <ele>84.8</ele>
        <time>2022-04-03T09:16:25Z</time>
      </trkpt>
      <trkpt lat="44.80667" lon="-0.38388">
        <ele>84.6</ele>
        <time>2022-04-03T09:16:26Z</time>
      </trkpt>
      <trkpt lat="44.80664" lon="-0.38385">
        <ele>85</ele>
        <time>2022-04-03T09:16:27Z</time>
      </trkpt>
      <trkpt lat="44.80664" lon="-0.38385">
        <ele>85</ele>
        <time>2022-04-03T09:16:28Z</time>
      </trkpt>
      <trkpt lat="44.80661" lon="-0.38382">
        <ele>84.4</ele>
        <time>2022-04-03T09:16:29Z</time>
      </trkpt>
      <trkpt lat="44.80655" lon="-0.38372">
        <ele>84.2</ele>
        <time>2022-04-03T09:16:30Z</time>
      </trkpt>
      <trkpt lat="44.80652" lon="-0.38366">
        <ele>84</ele>
        <time>2022-04-03T09:16:31Z</time>
      </trkpt>
      <trkpt lat="44.8065" lon="-0.38359">
        <ele>83.8</ele>
        <time>2022-04-03T09:16:32Z</time>
      </trkpt>
      <trkpt lat="44.80649" lon="-0.38353">
        <ele>84</ele>
        <time>2022-04-03T09:16:33Z</time>
      </trkpt>
      <trkpt lat="44.80647" lon="-0.38346">
        <ele>84</ele>
        <time>2022-04-03T09:16:34Z</time>
      </trkpt>
      <trkpt lat="44.80645" lon="-0.3834">
        <ele>84.4</ele>
        <time>2022-04-03T09:16:35Z</time>
      </trkpt>
      <trkpt lat="44.80644" lon="-0.38334">
        <ele>84.4</ele>
        <time>2022-04-03T09:16:36Z</time>
      </trkpt>
      <trkpt lat="44.80643" lon="-0.38329">
        <ele>84.6</ele>
        <time>2022-04-03T09:16:37Z</time>
      </trkpt>
      <trkpt lat="44.80643" lon="-0.38329">
        <ele>84.2</ele>
        <time>2022-04-03T09:16:38Z</time>
      </trkpt>
      <trkpt lat="44.80641" lon="-0.38325">
        <ele>83.8</ele>
        <time>2022-04-03T09:16:39Z</time>
      </trkpt>
      <trkpt lat="44.8064" lon="-0.38317">
        <ele>84</ele>
        <time>2022-04-03T09:16:40Z</time>
      </trkpt>
      <trkpt lat="44.80641" lon="-0.38312">
        <ele>84</ele>
        <time>2022-04-03T09:16:41Z</time>
      </trkpt>
      <trkpt lat="44.80642" lon="-0.38308">
        <ele>84.4</ele>
        <time>2022-04-03T09:16:42Z</time>
      </trkpt>
      <trkpt lat="44.80642" lon="-0.38302">
        <ele>84.6</ele>
        <time>2022-04-03T09:16:43Z</time>
      </trkpt>
      <trkpt lat="44.8064" lon="-0.38296">
        <ele>84.6</ele>
        <time>2022-04-03T09:16:44Z</time>
      </trkpt>
      <trkpt lat="44.80639" lon="-0.38289">
        <ele>84.2</ele>
        <time>2022-04-03T09:16:45Z</time>
      </trkpt>
      <trkpt lat="44.8064" lon="-0.38283">
        <ele>83.8</ele>
        <time>2022-04-03T09:16:46Z</time>
      </trkpt>
      <trkpt lat="44.8064" lon="-0.38279">
        <ele>83.6</ele>
        <time>2022-04-03T09:16:47Z</time>
      </trkpt>
      <trkpt lat="44.80638" lon="-0.38278">
        <ele>83.2</ele>
        <time>2022-04-03T09:16:48Z</time>
      </trkpt>
      <trkpt lat="44.80638" lon="-0.38278">
        <ele>83.2</ele>
        <time>2022-04-03T09:16:49Z</time>
      </trkpt>
      <trkpt lat="44.80638" lon="-0.38278">
        <ele>82.8</ele>
        <time>2022-04-03T09:16:50Z</time>
      </trkpt>
      <trkpt lat="44.80625" lon="-0.38288">
        <ele>81.6</ele>
        <time>2022-04-03T09:16:51Z</time>
      </trkpt>
      <trkpt lat="44.80621" lon="-0.38291">
        <ele>81</ele>
        <time>2022-04-03T09:16:52Z</time>
      </trkpt>
      <trkpt lat="44.80619" lon="-0.38297">
        <ele>79.8</ele>
        <time>2022-04-03T09:16:53Z</time>
      </trkpt>
      <trkpt lat="44.80619" lon="-0.38302">
        <ele>79.8</ele>
        <time>2022-04-03T09:16:54Z</time>
      </trkpt>
      <trkpt lat="44.80621" lon="-0.38306">
        <ele>80</ele>
        <time>2022-04-03T09:16:55Z</time>
      </trkpt>
      <trkpt lat="44.80622" lon="-0.3831">
        <ele>80.4</ele>
        <time>2022-04-03T09:16:56Z</time>
      </trkpt>
      <trkpt lat="44.80622" lon="-0.38315">
        <ele>80.4</ele>
        <time>2022-04-03T09:16:57Z</time>
      </trkpt>
      <trkpt lat="44.80621" lon="-0.38319">
        <ele>80</ele>
        <time>2022-04-03T09:16:58Z</time>
      </trkpt>
      <trkpt lat="44.80621" lon="-0.38319">
        <ele>79.6</ele>
        <time>2022-04-03T09:16:59Z</time>
      </trkpt>
      <trkpt lat="44.80622" lon="-0.38328">
        <ele>79.2</ele>
        <time>2022-04-03T09:17:00Z</time>
      </trkpt>
      <trkpt lat="44.80624" lon="-0.38333">
        <ele>79.2</ele>
        <time>2022-04-03T09:17:01Z</time>
      </trkpt>
      <trkpt lat="44.80626" lon="-0.38339">
        <ele>79.4</ele>
        <time>2022-04-03T09:17:02Z</time>
      </trkpt>
      <trkpt lat="44.80628" lon="-0.38346">
        <ele>79.4</ele>
        <time>2022-04-03T09:17:03Z</time>
      </trkpt>
      <trkpt lat="44.8063" lon="-0.38352">
        <ele>79.8</ele>
        <time>2022-04-03T09:17:04Z</time>
      </trkpt>
      <trkpt lat="44.80633" lon="-0.38359">
        <ele>79.6</ele>
        <time>2022-04-03T09:17:05Z</time>
      </trkpt>
      <trkpt lat="44.80635" lon="-0.38366">
        <ele>79.4</ele>
        <time>2022-04-03T09:17:06Z</time>
      </trkpt>
      <trkpt lat="44.80637" lon="-0.38374">
        <ele>79.2</ele>
        <time>2022-04-03T09:17:07Z</time>
      </trkpt>
      <trkpt lat="44.80638" lon="-0.38382">
        <ele>79.6</ele>
        <time>2022-04-03T09:17:08Z</time>
      </trkpt>
      <trkpt lat="44.8064" lon="-0.38389">
        <ele>79.6</ele>
        <time>2022-04-03T09:17:09Z</time>
      </trkpt>
      <trkpt lat="44.8064" lon="-0.38389">
        <ele>79.6</ele>
        <time>2022-04-03T09:17:10Z</time>
      </trkpt>
      <trkpt lat="44.80644" lon="-0.38397">
        <ele>78.4</ele>
        <time>2022-04-03T09:17:11Z</time>
      </trkpt>
      <trkpt lat="44.80651" lon="-0.38409">
        <ele>78</ele>
        <time>2022-04-03T09:17:12Z</time>
      </trkpt>
      <trkpt lat="44.80656" lon="-0.38414">
        <ele>78</ele>
        <time>2022-04-03T09:17:13Z</time>
      </trkpt>
      <trkpt lat="44.80661" lon="-0.38418">
        <ele>79.2</ele>
        <time>2022-04-03T09:17:14Z</time>
      </trkpt>
      <trkpt lat="44.80664" lon="-0.38421">
        <ele>79.6</ele>
        <time>2022-04-03T09:17:15Z</time>
      </trkpt>
      <trkpt lat="44.80667" lon="-0.38424">
        <ele>79.8</ele>
        <time>2022-04-03T09:17:16Z</time>
      </trkpt>
      <trkpt lat="44.8067" lon="-0.38426">
        <ele>80.4</ele>
        <time>2022-04-03T09:17:17Z</time>
      </trkpt>
      <trkpt lat="44.80671" lon="-0.38429">
        <ele>80.8</ele>
        <time>2022-04-03T09:17:18Z</time>
      </trkpt>
      <trkpt lat="44.80671" lon="-0.38429">
        <ele>81</ele>
        <time>2022-04-03T09:17:19Z</time>
      </trkpt>
      <trkpt lat="44.80671" lon="-0.38429">
        <ele>80.2</ele>
        <time>2022-04-03T09:17:20Z</time>
      </trkpt>
      <trkpt lat="44.80665" lon="-0.38433">
        <ele>79.4</ele>
        <time>2022-04-03T09:17:21Z</time>
      </trkpt>
      <trkpt lat="44.80661" lon="-0.38433">
        <ele>78.6</ele>
        <time>2022-04-03T09:17:22Z</time>
      </trkpt>
      <trkpt lat="44.80657" lon="-0.38429">
        <ele>78.2</ele>
        <time>2022-04-03T09:17:23Z</time>
      </trkpt>
      <trkpt lat="44.80652" lon="-0.38423">
        <ele>77.8</ele>
        <time>2022-04-03T09:17:24Z</time>
      </trkpt>
      <trkpt lat="44.80645" lon="-0.38417">
        <ele>77.2</ele>
        <time>2022-04-03T09:17:25Z</time>
      </trkpt>
      <trkpt lat="44.8064" lon="-0.3841">
        <ele>77.2</ele>
        <time>2022-04-03T09:17:26Z</time>
      </trkpt>
      <trkpt lat="44.80637" lon="-0.38403">
        <ele>77.2</ele>
        <time>2022-04-03T09:17:27Z</time>
      </trkpt>
      <trkpt lat="44.80634" lon="-0.38396">
        <ele>77.6</ele>
        <time>2022-04-03T09:17:28Z</time>
      </trkpt>
      <trkpt lat="44.80631" lon="-0.38389">
        <ele>77</ele>
        <time>2022-04-03T09:17:29Z</time>
      </trkpt>
      <trkpt lat="44.80628" lon="-0.38382">
        <ele>77</ele>
        <time>2022-04-03T09:17:30Z</time>
      </trkpt>
      <trkpt lat="44.80628" lon="-0.38382">
        <ele>77</ele>
        <time>2022-04-03T09:17:31Z</time>
      </trkpt>
      <trkpt lat="44.80622" lon="-0.38372">
        <ele>76.2</ele>
        <time>2022-04-03T09:17:32Z</time>
      </trkpt>
      <trkpt lat="44.80617" lon="-0.38366">
        <ele>76.6</ele>
        <time>2022-04-03T09:17:33Z</time>
      </trkpt>
      <trkpt lat="44.80613" lon="-0.3836">
        <ele>76.4</ele>
        <time>2022-04-03T09:17:34Z</time>
      </trkpt>
      <trkpt lat="44.80611" lon="-0.38352">
        <ele>76.2</ele>
        <time>2022-04-03T09:17:35Z</time>
      </trkpt>
      <trkpt lat="44.8061" lon="-0.38344">
        <ele>76</ele>
        <time>2022-04-03T09:17:36Z</time>
      </trkpt>
      <trkpt lat="44.80609" lon="-0.38336">
        <ele>76</ele>
        <time>2022-04-03T09:17:37Z</time>
      </trkpt>
      <trkpt lat="44.80608" lon="-0.38329">
        <ele>76.8</ele>
        <time>2022-04-03T09:17:38Z</time>
      </trkpt>
      <trkpt lat="44.80609" lon="-0.38322">
        <ele>76.8</ele>
        <time>2022-04-03T09:17:39Z</time>
      </trkpt>
      <trkpt lat="44.80609" lon="-0.38322">
        <ele>77</ele>
        <time>2022-04-03T09:17:40Z</time>
      </trkpt>
      <trkpt lat="44.80609" lon="-0.38322">
        <ele>77</ele>
        <time>2022-04-03T09:17:41Z</time>
      </trkpt>
      <trkpt lat="44.80609" lon="-0.38322">
        <ele>77.4</ele>
        <time>2022-04-03T09:17:42Z</time>
      </trkpt>
      <trkpt lat="44.80609" lon="-0.38302">
        <ele>77.2</ele>
        <time>2022-04-03T09:17:43Z</time>
      </trkpt>
      <trkpt lat="44.80605" lon="-0.38298">
        <ele>76.6</ele>
        <time>2022-04-03T09:17:44Z</time>
      </trkpt>
      <trkpt lat="44.80601" lon="-0.38295">
        <ele>75.8</ele>
        <time>2022-04-03T09:17:45Z</time>
      </trkpt>
      <trkpt lat="44.80597" lon="-0.38296">
        <ele>75.2</ele>
        <time>2022-04-03T09:17:46Z</time>
      </trkpt>
      <trkpt lat="44.80595" lon="-0.38299">
        <ele>74.2</ele>
        <time>2022-04-03T09:17:47Z</time>
      </trkpt>
      <trkpt lat="44.80591" lon="-0.383">
        <ele>73.2</ele>
        <time>2022-04-03T09:17:48Z</time>
      </trkpt>
      <trkpt lat="44.80588" lon="-0.38299">
        <ele>72.2</ele>
        <time>2022-04-03T09:17:49Z</time>
      </trkpt>
      <trkpt lat="44.80587" lon="-0.383">
        <ele>71.8</ele>
        <time>2022-04-03T09:17:50Z</time>
      </trkpt>
      <trkpt lat="44.80587" lon="-0.383">
        <ele>72</ele>
        <time>2022-04-03T09:17:51Z</time>
      </trkpt>
      <trkpt lat="44.80587" lon="-0.383">
        <ele>72</ele>
        <time>2022-04-03T09:17:52Z</time>
      </trkpt>
      <trkpt lat="44.80587" lon="-0.38309">
        <ele>71.6</ele>
        <time>2022-04-03T09:17:53Z</time>
      </trkpt>
      <trkpt lat="44.80587" lon="-0.3831">
        <ele>71.4</ele>
        <time>2022-04-03T09:17:54Z</time>
      </trkpt>
      <trkpt lat="44.80585" lon="-0.38309">
        <ele>70.6</ele>
        <time>2022-04-03T09:17:55Z</time>
      </trkpt>
      <trkpt lat="44.80582" lon="-0.38305">
        <ele>69.8</ele>
        <time>2022-04-03T09:17:56Z</time>
      </trkpt>
      <trkpt lat="44.80579" lon="-0.38299">
        <ele>69</ele>
        <time>2022-04-03T09:17:57Z</time>
      </trkpt>
      <trkpt lat="44.80578" lon="-0.38293">
        <ele>68.8</ele>
        <time>2022-04-03T09:17:58Z</time>
      </trkpt>
      <trkpt lat="44.80577" lon="-0.38288">
        <ele>69</ele>
        <time>2022-04-03T09:17:59Z</time>
      </trkpt>
      <trkpt lat="44.80578" lon="-0.38284">
        <ele>69.2</ele>
        <time>2022-04-03T09:18:00Z</time>
      </trkpt>
      <trkpt lat="44.80578" lon="-0.38284">
        <ele>69.4</ele>
        <time>2022-04-03T09:18:01Z</time>
      </trkpt>
      <trkpt lat="44.8058" lon="-0.38277">
        <ele>70</ele>
        <time>2022-04-03T09:18:02Z</time>
      </trkpt>
      <trkpt lat="44.80581" lon="-0.38275">
        <ele>70.6</ele>
        <time>2022-04-03T09:18:03Z</time>
      </trkpt>
      <trkpt lat="44.80581" lon="-0.38275">
        <ele>71</ele>
        <time>2022-04-03T09:18:04Z</time>
      </trkpt>
      <trkpt lat="44.80581" lon="-0.38276">
        <ele>71.2</ele>
        <time>2022-04-03T09:18:05Z</time>
      </trkpt>
      <trkpt lat="44.80581" lon="-0.38278">
        <ele>71.4</ele>
        <time>2022-04-03T09:18:06Z</time>
      </trkpt>
      <trkpt lat="44.80581" lon="-0.38277">
        <ele>71.8</ele>
        <time>2022-04-03T09:18:07Z</time>
      </trkpt>
      <trkpt lat="44.80581" lon="-0.38274">
        <ele>71.8</ele>
        <time>2022-04-03T09:18:08Z</time>
      </trkpt>
      <trkpt lat="44.80582" lon="-0.38271">
        <ele>72</ele>
        <time>2022-04-03T09:18:09Z</time>
      </trkpt>
      <trkpt lat="44.80583" lon="-0.3827">
        <ele>72.2</ele>
        <time>2022-04-03T09:18:10Z</time>
      </trkpt>
      <trkpt lat="44.80583" lon="-0.3827">
        <ele>72.6</ele>
        <time>2022-04-03T09:18:11Z</time>
      </trkpt>
      <trkpt lat="44.80583" lon="-0.3827">
        <ele>73.4</ele>
        <time>2022-04-03T09:18:12Z</time>
      </trkpt>
      <trkpt lat="44.80589" lon="-0.3827">
        <ele>73.4</ele>
        <time>2022-04-03T09:18:13Z</time>
      </trkpt>
      <trkpt lat="44.8059" lon="-0.3827">
        <ele>74</ele>
        <time>2022-04-03T09:18:14Z</time>
      </trkpt>
      <trkpt lat="44.80592" lon="-0.38271">
        <ele>75</ele>
        <time>2022-04-03T09:18:15Z</time>
      </trkpt>
      <trkpt lat="44.80593" lon="-0.38272">
        <ele>75.4</ele>
        <time>2022-04-03T09:18:16Z</time>
      </trkpt>
      <trkpt lat="44.80594" lon="-0.38273">
        <ele>75.8</ele>
        <time>2022-04-03T09:18:17Z</time>
      </trkpt>
      <trkpt lat="44.80595" lon="-0.38274">
        <ele>75.8</ele>
        <time>2022-04-03T09:18:18Z</time>
      </trkpt>
      <trkpt lat="44.80596" lon="-0.38275">
        <ele>76.2</ele>
        <time>2022-04-03T09:18:19Z</time>
      </trkpt>
      <trkpt lat="44.80597" lon="-0.38275">
        <ele>76.4</ele>
        <time>2022-04-03T09:18:20Z</time>
      </trkpt>
      <trkpt lat="44.80597" lon="-0.38275">
        <ele>76.8</ele>
        <time>2022-04-03T09:18:21Z</time>
      </trkpt>
      <trkpt lat="44.80597" lon="-0.38275">
        <ele>77</ele>
        <time>2022-04-03T09:18:22Z</time>
      </trkpt>
      <trkpt lat="44.80598" lon="-0.38268">
        <ele>77.4</ele>
        <time>2022-04-03T09:18:23Z</time>
      </trkpt>
      <trkpt lat="44.80599" lon="-0.38265">
        <ele>77.4</ele>
        <time>2022-04-03T09:18:24Z</time>
      </trkpt>
      <trkpt lat="44.80599" lon="-0.38262">
        <ele>77.4</ele>
        <time>2022-04-03T09:18:25Z</time>
      </trkpt>
      <trkpt lat="44.80599" lon="-0.38259">
        <ele>76.8</ele>
        <time>2022-04-03T09:18:26Z</time>
      </trkpt>
      <trkpt lat="44.80598" lon="-0.38256">
        <ele>76.6</ele>
        <time>2022-04-03T09:18:27Z</time>
      </trkpt>
      <trkpt lat="44.80597" lon="-0.38253">
        <ele>76.8</ele>
        <time>2022-04-03T09:18:28Z</time>
      </trkpt>
      <trkpt lat="44.80598" lon="-0.38249">
        <ele>77</ele>
        <time>2022-04-03T09:18:29Z</time>
      </trkpt>
      <trkpt lat="44.80599" lon="-0.38246">
        <ele>77.4</ele>
        <time>2022-04-03T09:18:30Z</time>
      </trkpt>
      <trkpt lat="44.80601" lon="-0.38245">
        <ele>77.4</ele>
        <time>2022-04-03T09:18:31Z</time>
      </trkpt>
      <trkpt lat="44.80601" lon="-0.38245">
        <ele>78</ele>
        <time>2022-04-03T09:18:32Z</time>
      </trkpt>
      <trkpt lat="44.80601" lon="-0.38245">
        <ele>78.6</ele>
        <time>2022-04-03T09:18:33Z</time>
      </trkpt>
      <trkpt lat="44.80603" lon="-0.38247">
        <ele>78.6</ele>
        <time>2022-04-03T09:18:34Z</time>
      </trkpt>
      <trkpt lat="44.80604" lon="-0.38249">
        <ele>79</ele>
        <time>2022-04-03T09:18:35Z</time>
      </trkpt>
      <trkpt lat="44.80606" lon="-0.38251">
        <ele>79.4</ele>
        <time>2022-04-03T09:18:36Z</time>
      </trkpt>
      <trkpt lat="44.80608" lon="-0.38252">
        <ele>79.8</ele>
        <time>2022-04-03T09:18:37Z</time>
      </trkpt>
      <trkpt lat="44.80611" lon="-0.3825">
        <ele>80.2</ele>
        <time>2022-04-03T09:18:38Z</time>
      </trkpt>
      <trkpt lat="44.80613" lon="-0.38247">
        <ele>80.8</ele>
        <time>2022-04-03T09:18:39Z</time>
      </trkpt>
      <trkpt lat="44.80615" lon="-0.38245">
        <ele>81</ele>
        <time>2022-04-03T09:18:40Z</time>
      </trkpt>
      <trkpt lat="44.80617" lon="-0.38243">
        <ele>81.2</ele>
        <time>2022-04-03T09:18:41Z</time>
      </trkpt>
      <trkpt lat="44.80617" lon="-0.38243">
        <ele>81.2</ele>
        <time>2022-04-03T09:18:42Z</time>
      </trkpt>
      <trkpt lat="44.80619" lon="-0.38239">
        <ele>81.2</ele>
        <time>2022-04-03T09:18:43Z</time>
      </trkpt>
      <trkpt lat="44.80618" lon="-0.38234">
        <ele>81</ele>
        <time>2022-04-03T09:18:44Z</time>
      </trkpt>
      <trkpt lat="44.80615" lon="-0.38231">
        <ele>80.4</ele>
        <time>2022-04-03T09:18:45Z</time>
      </trkpt>
      <trkpt lat="44.80612" lon="-0.38227">
        <ele>79.2</ele>
        <time>2022-04-03T09:18:46Z</time>
      </trkpt>
      <trkpt lat="44.80607" lon="-0.38222">
        <ele>78.6</ele>
        <time>2022-04-03T09:18:47Z</time>
      </trkpt>
      <trkpt lat="44.80601" lon="-0.38217">
        <ele>77.6</ele>
        <time>2022-04-03T09:18:48Z</time>
      </trkpt>
      <trkpt lat="44.80595" lon="-0.38213">
        <ele>77.4</ele>
        <time>2022-04-03T09:18:49Z</time>
      </trkpt>
      <trkpt lat="44.80589" lon="-0.38211">
        <ele>75.6</ele>
        <time>2022-04-03T09:18:50Z</time>
      </trkpt>
      <trkpt lat="44.80582" lon="-0.38209">
        <ele>74.8</ele>
        <time>2022-04-03T09:18:51Z</time>
      </trkpt>
      <trkpt lat="44.80578" lon="-0.38206">
        <ele>73.8</ele>
        <time>2022-04-03T09:18:52Z</time>
      </trkpt>
      <trkpt lat="44.80578" lon="-0.38206">
        <ele>73.6</ele>
        <time>2022-04-03T09:18:53Z</time>
      </trkpt>
      <trkpt lat="44.80578" lon="-0.38196">
        <ele>73.4</ele>
        <time>2022-04-03T09:18:54Z</time>
      </trkpt>
      <trkpt lat="44.8058" lon="-0.38191">
        <ele>73.4</ele>
        <time>2022-04-03T09:18:55Z</time>
      </trkpt>
      <trkpt lat="44.80581" lon="-0.38186">
        <ele>73.4</ele>
        <time>2022-04-03T09:18:56Z</time>
      </trkpt>
      <trkpt lat="44.80582" lon="-0.38182">
        <ele>73</ele>
        <time>2022-04-03T09:18:57Z</time>
      </trkpt>
      <trkpt lat="44.80582" lon="-0.38179">
        <ele>72.4</ele>
        <time>2022-04-03T09:18:58Z</time>
      </trkpt>
      <trkpt lat="44.80583" lon="-0.38175">
        <ele>71.4</ele>
        <time>2022-04-03T09:18:59Z</time>
      </trkpt>
      <trkpt lat="44.80582" lon="-0.38167">
        <ele>70.8</ele>
        <time>2022-04-03T09:19:00Z</time>
      </trkpt>
      <trkpt lat="44.80581" lon="-0.38161">
        <ele>69.4</ele>
        <time>2022-04-03T09:19:01Z</time>
      </trkpt>
      <trkpt lat="44.80581" lon="-0.38161">
        <ele>68.4</ele>
        <time>2022-04-03T09:19:02Z</time>
      </trkpt>
      <trkpt lat="44.80581" lon="-0.38161">
        <ele>67.6</ele>
        <time>2022-04-03T09:19:03Z</time>
      </trkpt>
      <trkpt lat="44.80573" lon="-0.38156">
        <ele>67.4</ele>
        <time>2022-04-03T09:19:04Z</time>
      </trkpt>
      <trkpt lat="44.80572" lon="-0.38157">
        <ele>67.8</ele>
        <time>2022-04-03T09:19:05Z</time>
      </trkpt>
      <trkpt lat="44.80571" lon="-0.38158">
        <ele>68.2</ele>
        <time>2022-04-03T09:19:06Z</time>
      </trkpt>
      <trkpt lat="44.8057" lon="-0.3816">
        <ele>68.8</ele>
        <time>2022-04-03T09:19:07Z</time>
      </trkpt>
      <trkpt lat="44.8057" lon="-0.38162">
        <ele>69.2</ele>
        <time>2022-04-03T09:19:08Z</time>
      </trkpt>
      <trkpt lat="44.8057" lon="-0.38164">
        <ele>69.8</ele>
        <time>2022-04-03T09:19:09Z</time>
      </trkpt>
      <trkpt lat="44.80568" lon="-0.38166">
        <ele>70.2</ele>
        <time>2022-04-03T09:19:10Z</time>
      </trkpt>
      <trkpt lat="44.80568" lon="-0.38169">
        <ele>70.6</ele>
        <time>2022-04-03T09:19:11Z</time>
      </trkpt>
      <trkpt lat="44.80568" lon="-0.38173">
        <ele>70.8</ele>
        <time>2022-04-03T09:19:12Z</time>
      </trkpt>
      <trkpt lat="44.80568" lon="-0.38173">
        <ele>71.4</ele>
        <time>2022-04-03T09:19:13Z</time>
      </trkpt>
      <trkpt lat="44.80568" lon="-0.38173">
        <ele>71.6</ele>
        <time>2022-04-03T09:19:14Z</time>
      </trkpt>
      <trkpt lat="44.8057" lon="-0.38182">
        <ele>72</ele>
        <time>2022-04-03T09:19:15Z</time>
      </trkpt>
      <trkpt lat="44.80572" lon="-0.38185">
        <ele>72</ele>
        <time>2022-04-03T09:19:16Z</time>
      </trkpt>
      <trkpt lat="44.80573" lon="-0.3819">
        <ele>72</ele>
        <time>2022-04-03T09:19:17Z</time>
      </trkpt>
      <trkpt lat="44.80575" lon="-0.38194">
        <ele>72.4</ele>
        <time>2022-04-03T09:19:18Z</time>
      </trkpt>
      <trkpt lat="44.80576" lon="-0.38198">
        <ele>72.4</ele>
        <time>2022-04-03T09:19:19Z</time>
      </trkpt>
      <trkpt lat="44.80578" lon="-0.38203">
        <ele>72.4</ele>
        <time>2022-04-03T09:19:20Z</time>
      </trkpt>
      <trkpt lat="44.80581" lon="-0.38207">
        <ele>72.8</ele>
        <time>2022-04-03T09:19:21Z</time>
      </trkpt>
      <trkpt lat="44.80583" lon="-0.3821">
        <ele>72.8</ele>
        <time>2022-04-03T09:19:22Z</time>
      </trkpt>
      <trkpt lat="44.80583" lon="-0.3821">
        <ele>73.2</ele>
        <time>2022-04-03T09:19:23Z</time>
      </trkpt>
      <trkpt lat="44.80583" lon="-0.3821">
        <ele>73.2</ele>
        <time>2022-04-03T09:19:24Z</time>
      </trkpt>
      <trkpt lat="44.80591" lon="-0.38214">
        <ele>73.8</ele>
        <time>2022-04-03T09:19:25Z</time>
      </trkpt>
      <trkpt lat="44.80592" lon="-0.38213">
        <ele>74.2</ele>
        <time>2022-04-03T09:19:26Z</time>
      </trkpt>
      <trkpt lat="44.80592" lon="-0.38216">
        <ele>74.4</ele>
        <time>2022-04-03T09:19:27Z</time>
      </trkpt>
      <trkpt lat="44.8059" lon="-0.38219">
        <ele>74.4</ele>
        <time>2022-04-03T09:19:28Z</time>
      </trkpt>
      <trkpt lat="44.80587" lon="-0.38222">
        <ele>73.2</ele>
        <time>2022-04-03T09:19:29Z</time>
      </trkpt>
      <trkpt lat="44.80583" lon="-0.38226">
        <ele>72.4</ele>
        <time>2022-04-03T09:19:30Z</time>
      </trkpt>
      <trkpt lat="44.8058" lon="-0.38228">
        <ele>71.8</ele>
        <time>2022-04-03T09:19:31Z</time>
      </trkpt>
      <trkpt lat="44.80577" lon="-0.38227">
        <ele>72.2</ele>
        <time>2022-04-03T09:19:32Z</time>
      </trkpt>
      <trkpt lat="44.80576" lon="-0.38223">
        <ele>72</ele>
        <time>2022-04-03T09:19:33Z</time>
      </trkpt>
      <trkpt lat="44.80576" lon="-0.38223">
        <ele>71.8</ele>
        <time>2022-04-03T09:19:34Z</time>
      </trkpt>
      <trkpt lat="44.80576" lon="-0.38223">
        <ele>71.4</ele>
        <time>2022-04-03T09:19:35Z</time>
      </trkpt>
      <trkpt lat="44.80571" lon="-0.3822">
        <ele>71.2</ele>
        <time>2022-04-03T09:19:36Z</time>
      </trkpt>
      <trkpt lat="44.80568" lon="-0.38221">
        <ele>71.2</ele>
        <time>2022-04-03T09:19:37Z</time>
      </trkpt>
      <trkpt lat="44.80563" lon="-0.38223">
        <ele>70.2</ele>
        <time>2022-04-03T09:19:38Z</time>
      </trkpt>
      <trkpt lat="44.80559" lon="-0.38224">
        <ele>69.8</ele>
        <time>2022-04-03T09:19:39Z</time>
      </trkpt>
      <trkpt lat="44.80555" lon="-0.38224">
        <ele>69.2</ele>
        <time>2022-04-03T09:19:40Z</time>
      </trkpt>
      <trkpt lat="44.80554" lon="-0.38222">
        <ele>69.2</ele>
        <time>2022-04-03T09:19:41Z</time>
      </trkpt>
      <trkpt lat="44.80553" lon="-0.38218">
        <ele>69</ele>
        <time>2022-04-03T09:19:42Z</time>
      </trkpt>
      <trkpt lat="44.80553" lon="-0.38213">
        <ele>69</ele>
        <time>2022-04-03T09:19:43Z</time>
      </trkpt>
      <trkpt lat="44.80553" lon="-0.38213">
        <ele>69.2</ele>
        <time>2022-04-03T09:19:44Z</time>
      </trkpt>
      <trkpt lat="44.80552" lon="-0.38205">
        <ele>69.2</ele>
        <time>2022-04-03T09:19:45Z</time>
      </trkpt>
      <trkpt lat="44.80553" lon="-0.38203">
        <ele>69.6</ele>
        <time>2022-04-03T09:19:46Z</time>
      </trkpt>
      <trkpt lat="44.80555" lon="-0.38201">
        <ele>70</ele>
        <time>2022-04-03T09:19:47Z</time>
      </trkpt>
      <trkpt lat="44.80556" lon="-0.382">
        <ele>70.6</ele>
        <time>2022-04-03T09:19:48Z</time>
      </trkpt>
      <trkpt lat="44.80559" lon="-0.38198">
        <ele>71</ele>
        <time>2022-04-03T09:19:49Z</time>
      </trkpt>
      <trkpt lat="44.80561" lon="-0.38195">
        <ele>70.8</ele>
        <time>2022-04-03T09:19:50Z</time>
      </trkpt>
      <trkpt lat="44.80562" lon="-0.38192">
        <ele>71</ele>
        <time>2022-04-03T09:19:51Z</time>
      </trkpt>
      <trkpt lat="44.80561" lon="-0.38188">
        <ele>70.4</ele>
        <time>2022-04-03T09:19:52Z</time>
      </trkpt>
      <trkpt lat="44.80561" lon="-0.38185">
        <ele>70.2</ele>
        <time>2022-04-03T09:19:53Z</time>
      </trkpt>
      <trkpt lat="44.80559" lon="-0.38183">
        <ele>69.4</ele>
        <time>2022-04-03T09:19:54Z</time>
      </trkpt>
      <trkpt lat="44.80559" lon="-0.38183">
        <ele>68.6</ele>
        <time>2022-04-03T09:19:55Z</time>
      </trkpt>
      <trkpt lat="44.80553" lon="-0.38182">
        <ele>68</ele>
        <time>2022-04-03T09:19:56Z</time>
      </trkpt>
      <trkpt lat="44.8055" lon="-0.38182">
        <ele>67.4</ele>
        <time>2022-04-03T09:19:57Z</time>
      </trkpt>
      <trkpt lat="44.8055" lon="-0.38178">
        <ele>67.4</ele>
        <time>2022-04-03T09:19:58Z</time>
      </trkpt>
      <trkpt lat="44.8055" lon="-0.38175">
        <ele>67.2</ele>
        <time>2022-04-03T09:19:59Z</time>
      </trkpt>
      <trkpt lat="44.80552" lon="-0.38171">
        <ele>66.8</ele>
        <time>2022-04-03T09:20:00Z</time>
      </trkpt>
      <trkpt lat="44.80553" lon="-0.38169">
        <ele>66.2</ele>
        <time>2022-04-03T09:20:01Z</time>
      </trkpt>
      <trkpt lat="44.80555" lon="-0.38166">
        <ele>66.2</ele>
        <time>2022-04-03T09:20:02Z</time>
      </trkpt>
      <trkpt lat="44.80556" lon="-0.38163">
        <ele>66.4</ele>
        <time>2022-04-03T09:20:03Z</time>
      </trkpt>
      <trkpt lat="44.80556" lon="-0.38163">
        <ele>66.6</ele>
        <time>2022-04-03T09:20:04Z</time>
      </trkpt>
      <trkpt lat="44.80556" lon="-0.38163">
        <ele>66</ele>
        <time>2022-04-03T09:20:05Z</time>
      </trkpt>
      <trkpt lat="44.80556" lon="-0.38163">
        <ele>65.6</ele>
        <time>2022-04-03T09:20:06Z</time>
      </trkpt>
      <trkpt lat="44.80563" lon="-0.38153">
        <ele>65.4</ele>
        <time>2022-04-03T09:20:07Z</time>
      </trkpt>
      <trkpt lat="44.80564" lon="-0.38151">
        <ele>65.6</ele>
        <time>2022-04-03T09:20:08Z</time>
      </trkpt>
      <trkpt lat="44.80566" lon="-0.38148">
        <ele>65.8</ele>
        <time>2022-04-03T09:20:09Z</time>
      </trkpt>
      <trkpt lat="44.80568" lon="-0.38145">
        <ele>66</ele>
        <time>2022-04-03T09:20:10Z</time>
      </trkpt>
      <trkpt lat="44.8057" lon="-0.38141">
        <ele>66.4</ele>
        <time>2022-04-03T09:20:11Z</time>
      </trkpt>
      <trkpt lat="44.80572" lon="-0.38139">
        <ele>66.8</ele>
        <time>2022-04-03T09:20:12Z</time>
      </trkpt>
      <trkpt lat="44.80574" lon="-0.3814">
        <ele>67.4</ele>
        <time>2022-04-03T09:20:13Z</time>
      </trkpt>
      <trkpt lat="44.80575" lon="-0.38142">
        <ele>68</ele>
        <time>2022-04-03T09:20:14Z</time>
      </trkpt>
      <trkpt lat="44.80575" lon="-0.38142">
        <ele>68</ele>
        <time>2022-04-03T09:20:15Z</time>
      </trkpt>
      <trkpt lat="44.80575" lon="-0.38142">
        <ele>68</ele>
        <time>2022-04-03T09:20:16Z</time>
      </trkpt>
      <trkpt lat="44.80578" lon="-0.38146">
        <ele>68.4</ele>
        <time>2022-04-03T09:20:17Z</time>
      </trkpt>
      <trkpt lat="44.80579" lon="-0.38147">
        <ele>69</ele>
        <time>2022-04-03T09:20:18Z</time>
      </trkpt>
      <trkpt lat="44.80581" lon="-0.38147">
        <ele>69</ele>
        <time>2022-04-03T09:20:19Z</time>
      </trkpt>
      <trkpt lat="44.80583" lon="-0.38146">
        <ele>69.6</ele>
        <time>2022-04-03T09:20:20Z</time>
      </trkpt>
      <trkpt lat="44.80584" lon="-0.38145">
        <ele>69.8</ele>
        <time>2022-04-03T09:20:21Z</time>
      </trkpt>
      <trkpt lat="44.80587" lon="-0.38145">
        <ele>70.4</ele>
        <time>2022-04-03T09:20:22Z</time>
      </trkpt>
      <trkpt lat="44.80589" lon="-0.38147">
        <ele>71.2</ele>
        <time>2022-04-03T09:20:23Z</time>
      </trkpt>
      <trkpt lat="44.8059" lon="-0.38149">
        <ele>72</ele>
        <time>2022-04-03T09:20:24Z</time>
      </trkpt>
      <trkpt lat="44.8059" lon="-0.38149">
        <ele>72.2</ele>
        <time>2022-04-03T09:20:25Z</time>
      </trkpt>
      <trkpt lat="44.80593" lon="-0.38154">
        <ele>72.6</ele>
        <time>2022-04-03T09:20:26Z</time>
      </trkpt>
      <trkpt lat="44.80593" lon="-0.38158">
        <ele>73</ele>
        <time>2022-04-03T09:20:27Z</time>
      </trkpt>
      <trkpt lat="44.80594" lon="-0.38161">
        <ele>73.2</ele>
        <time>2022-04-03T09:20:28Z</time>
      </trkpt>
      <trkpt lat="44.80595" lon="-0.38163">
        <ele>73.4</ele>
        <time>2022-04-03T09:20:29Z</time>
      </trkpt>
      <trkpt lat="44.80596" lon="-0.38165">
        <ele>73.6</ele>
        <time>2022-04-03T09:20:30Z</time>
      </trkpt>
      <trkpt lat="44.80595" lon="-0.38168">
        <ele>73.6</ele>
        <time>2022-04-03T09:20:31Z</time>
      </trkpt>
      <trkpt lat="44.80595" lon="-0.3817">
        <ele>74</ele>
        <time>2022-04-03T09:20:32Z</time>
      </trkpt>
      <trkpt lat="44.80595" lon="-0.38174">
        <ele>74.4</ele>
        <time>2022-04-03T09:20:33Z</time>
      </trkpt>
      <trkpt lat="44.80596" lon="-0.38177">
        <ele>75</ele>
        <time>2022-04-03T09:20:34Z</time>
      </trkpt>
      <trkpt lat="44.80598" lon="-0.38179">
        <ele>75.4</ele>
        <time>2022-04-03T09:20:35Z</time>
      </trkpt>
      <trkpt lat="44.80598" lon="-0.38179">
        <ele>75.4</ele>
        <time>2022-04-03T09:20:36Z</time>
      </trkpt>
      <trkpt lat="44.80602" lon="-0.38181">
        <ele>76</ele>
        <time>2022-04-03T09:20:37Z</time>
      </trkpt>
      <trkpt lat="44.80605" lon="-0.38181">
        <ele>76.2</ele>
        <time>2022-04-03T09:20:38Z</time>
      </trkpt>
      <trkpt lat="44.80608" lon="-0.38181">
        <ele>76.6</ele>
        <time>2022-04-03T09:20:39Z</time>
      </trkpt>
      <trkpt lat="44.80611" lon="-0.38182">
        <ele>76.6</ele>
        <time>2022-04-03T09:20:40Z</time>
      </trkpt>
      <trkpt lat="44.80613" lon="-0.38183">
        <ele>76.6</ele>
        <time>2022-04-03T09:20:41Z</time>
      </trkpt>
      <trkpt lat="44.80615" lon="-0.38183">
        <ele>77</ele>
        <time>2022-04-03T09:20:42Z</time>
      </trkpt>
      <trkpt lat="44.80618" lon="-0.38184">
        <ele>77</ele>
        <time>2022-04-03T09:20:43Z</time>
      </trkpt>
      <trkpt lat="44.8062" lon="-0.38184">
        <ele>77.4</ele>
        <time>2022-04-03T09:20:44Z</time>
      </trkpt>
      <trkpt lat="44.8062" lon="-0.38184">
        <ele>77.8</ele>
        <time>2022-04-03T09:20:45Z</time>
      </trkpt>
      <trkpt lat="44.8062" lon="-0.38184">
        <ele>78</ele>
        <time>2022-04-03T09:20:46Z</time>
      </trkpt>
      <trkpt lat="44.80624" lon="-0.38183">
        <ele>78.2</ele>
        <time>2022-04-03T09:20:47Z</time>
      </trkpt>
      <trkpt lat="44.80626" lon="-0.38183">
        <ele>78.4</ele>
        <time>2022-04-03T09:20:48Z</time>
      </trkpt>
      <trkpt lat="44.80628" lon="-0.38184">
        <ele>78.8</ele>
        <time>2022-04-03T09:20:49Z</time>
      </trkpt>
      <trkpt lat="44.8063" lon="-0.38184">
        <ele>79.2</ele>
        <time>2022-04-03T09:20:50Z</time>
      </trkpt>
      <trkpt lat="44.80632" lon="-0.38186">
        <ele>79.6</ele>
        <time>2022-04-03T09:20:51Z</time>
      </trkpt>
      <trkpt lat="44.80633" lon="-0.38189">
        <ele>80</ele>
        <time>2022-04-03T09:20:52Z</time>
      </trkpt>
      <trkpt lat="44.80634" lon="-0.38191">
        <ele>80.4</ele>
        <time>2022-04-03T09:20:53Z</time>
      </trkpt>
      <trkpt lat="44.80634" lon="-0.38193">
        <ele>80.8</ele>
        <time>2022-04-03T09:20:54Z</time>
      </trkpt>
      <trkpt lat="44.80635" lon="-0.38194">
        <ele>81</ele>
        <time>2022-04-03T09:20:55Z</time>
      </trkpt>
      <trkpt lat="44.80635" lon="-0.38194">
        <ele>81.4</ele>
        <time>2022-04-03T09:20:56Z</time>
      </trkpt>
      <trkpt lat="44.80635" lon="-0.38194">
        <ele>81.8</ele>
        <time>2022-04-03T09:20:57Z</time>
      </trkpt>
      <trkpt lat="44.80638" lon="-0.38201">
        <ele>82</ele>
        <time>2022-04-03T09:20:58Z</time>
      </trkpt>
      <trkpt lat="44.80639" lon="-0.38204">
        <ele>82.4</ele>
        <time>2022-04-03T09:20:59Z</time>
      </trkpt>
      <trkpt lat="44.8064" lon="-0.38207">
        <ele>82.6</ele>
        <time>2022-04-03T09:21:00Z</time>
      </trkpt>
      <trkpt lat="44.80641" lon="-0.38209">
        <ele>82.6</ele>
        <time>2022-04-03T09:21:01Z</time>
      </trkpt>
      <trkpt lat="44.80642" lon="-0.38212">
        <ele>83.2</ele>
        <time>2022-04-03T09:21:02Z</time>
      </trkpt>
      <trkpt lat="44.80644" lon="-0.38214">
        <ele>83.4</ele>
        <time>2022-04-03T09:21:03Z</time>
      </trkpt>
      <trkpt lat="44.80644" lon="-0.38216">
        <ele>83.8</ele>
        <time>2022-04-03T09:21:04Z</time>
      </trkpt>
      <trkpt lat="44.80645" lon="-0.38218">
        <ele>84.2</ele>
        <time>2022-04-03T09:21:05Z</time>
      </trkpt>
      <trkpt lat="44.80645" lon="-0.38218">
        <ele>84.6</ele>
        <time>2022-04-03T09:21:06Z</time>
      </trkpt>
      <trkpt lat="44.80645" lon="-0.38218">
        <ele>85.2</ele>
        <time>2022-04-03T09:21:07Z</time>
      </trkpt>
      <trkpt lat="44.80649" lon="-0.38225">
        <ele>85.4</ele>
        <time>2022-04-03T09:21:08Z</time>
      </trkpt>
      <trkpt lat="44.8065" lon="-0.38228">
        <ele>85.6</ele>
        <time>2022-04-03T09:21:09Z</time>
      </trkpt>
      <trkpt lat="44.80651" lon="-0.38231">
        <ele>85.6</ele>
        <time>2022-04-03T09:21:10Z</time>
      </trkpt>
      <trkpt lat="44.80652" lon="-0.38234">
        <ele>85.8</ele>
        <time>2022-04-03T09:21:11Z</time>
      </trkpt>
      <trkpt lat="44.80653" lon="-0.38237">
        <ele>86.2</ele>
        <time>2022-04-03T09:21:12Z</time>
      </trkpt>
      <trkpt lat="44.80654" lon="-0.38241">
        <ele>86.2</ele>
        <time>2022-04-03T09:21:13Z</time>
      </trkpt>
      <trkpt lat="44.80655" lon="-0.38245">
        <ele>86.4</ele>
        <time>2022-04-03T09:21:14Z</time>
      </trkpt>
      <trkpt lat="44.80656" lon="-0.38249">
        <ele>86.6</ele>
        <time>2022-04-03T09:21:15Z</time>
      </trkpt>
      <trkpt lat="44.80656" lon="-0.38254">
        <ele>86.8</ele>
        <time>2022-04-03T09:21:16Z</time>
      </trkpt>
      <trkpt lat="44.80656" lon="-0.38254">
        <ele>87.2</ele>
        <time>2022-04-03T09:21:17Z</time>
      </trkpt>
      <trkpt lat="44.80654" lon="-0.38262">
        <ele>87.4</ele>
        <time>2022-04-03T09:21:18Z</time>
      </trkpt>
      <trkpt lat="44.80653" lon="-0.38266">
        <ele>87.6</ele>
        <time>2022-04-03T09:21:19Z</time>
      </trkpt>
      <trkpt lat="44.80653" lon="-0.38271">
        <ele>88</ele>
        <time>2022-04-03T09:21:20Z</time>
      </trkpt>
      <trkpt lat="44.80653" lon="-0.38276">
        <ele>87.8</ele>
        <time>2022-04-03T09:21:21Z</time>
      </trkpt>
      <trkpt lat="44.80654" lon="-0.38282">
        <ele>87.8</ele>
        <time>2022-04-03T09:21:22Z</time>
      </trkpt>
      <trkpt lat="44.80655" lon="-0.38287">
        <ele>87.6</ele>
        <time>2022-04-03T09:21:23Z</time>
      </trkpt>
      <trkpt lat="44.80657" lon="-0.38292">
        <ele>87.6</ele>
        <time>2022-04-03T09:21:24Z</time>
      </trkpt>
      <trkpt lat="44.80659" lon="-0.38295">
        <ele>88</ele>
        <time>2022-04-03T09:21:25Z</time>
      </trkpt>
      <trkpt lat="44.80663" lon="-0.38298">
        <ele>88.6</ele>
        <time>2022-04-03T09:21:26Z</time>
      </trkpt>
      <trkpt lat="44.80663" lon="-0.38298">
        <ele>89.2</ele>
        <time>2022-04-03T09:21:27Z</time>
      </trkpt>
      <trkpt lat="44.80669" lon="-0.38301">
        <ele>89.4</ele>
        <time>2022-04-03T09:21:28Z</time>
      </trkpt>
      <trkpt lat="44.80672" lon="-0.38303">
        <ele>89.4</ele>
        <time>2022-04-03T09:21:29Z</time>
      </trkpt>
      <trkpt lat="44.80675" lon="-0.38305">
        <ele>89.4</ele>
        <time>2022-04-03T09:21:30Z</time>
      </trkpt>
      <trkpt lat="44.80678" lon="-0.38306">
        <ele>89</ele>
        <time>2022-04-03T09:21:31Z</time>
      </trkpt>
      <trkpt lat="44.80682" lon="-0.38308">
        <ele>88.8</ele>
        <time>2022-04-03T09:21:32Z</time>
      </trkpt>
      <trkpt lat="44.80687" lon="-0.3831">
        <ele>88.4</ele>
        <time>2022-04-03T09:21:33Z</time>
      </trkpt>
      <trkpt lat="44.80691" lon="-0.38314">
        <ele>88.6</ele>
        <time>2022-04-03T09:21:34Z</time>
      </trkpt>
      <trkpt lat="44.80694" lon="-0.38319">
        <ele>89</ele>
        <time>2022-04-03T09:21:35Z</time>
      </trkpt>
      <trkpt lat="44.80696" lon="-0.38325">
        <ele>89.6</ele>
        <time>2022-04-03T09:21:36Z</time>
      </trkpt>
      <trkpt lat="44.80696" lon="-0.38325">
        <ele>89.8</ele>
        <time>2022-04-03T09:21:37Z</time>
      </trkpt>
      <trkpt lat="44.80696" lon="-0.38325">
        <ele>89.6</ele>
        <time>2022-04-03T09:21:38Z</time>
      </trkpt>
      <trkpt lat="44.80704" lon="-0.38341">
        <ele>89.4</ele>
        <time>2022-04-03T09:21:39Z</time>
      </trkpt>
      <trkpt lat="44.80707" lon="-0.38346">
        <ele>89.4</ele>
        <time>2022-04-03T09:21:40Z</time>
      </trkpt>
      <trkpt lat="44.8071" lon="-0.38351">
        <ele>89.6</ele>
        <time>2022-04-03T09:21:41Z</time>
      </trkpt>
      <trkpt lat="44.80713" lon="-0.38356">
        <ele>89.6</ele>
        <time>2022-04-03T09:21:42Z</time>
      </trkpt>
      <trkpt lat="44.80715" lon="-0.38361">
        <ele>89.6</ele>
        <time>2022-04-03T09:21:43Z</time>
      </trkpt>
      <trkpt lat="44.80719" lon="-0.38365">
        <ele>89.6</ele>
        <time>2022-04-03T09:21:44Z</time>
      </trkpt>
      <trkpt lat="44.80722" lon="-0.38369">
        <ele>89.8</ele>
        <time>2022-04-03T09:21:45Z</time>
      </trkpt>
      <trkpt lat="44.80725" lon="-0.38373">
        <ele>89.8</ele>
        <time>2022-04-03T09:21:46Z</time>
      </trkpt>
      <trkpt lat="44.80725" lon="-0.38373">
        <ele>89.8</ele>
        <time>2022-04-03T09:21:47Z</time>
      </trkpt>
      <trkpt lat="44.80725" lon="-0.38373">
        <ele>89.6</ele>
        <time>2022-04-03T09:21:48Z</time>
      </trkpt>
      <trkpt lat="44.80735" lon="-0.38383">
        <ele>89.4</ele>
        <time>2022-04-03T09:21:49Z</time>
      </trkpt>
      <trkpt lat="44.80738" lon="-0.38384">
        <ele>89.2</ele>
        <time>2022-04-03T09:21:50Z</time>
      </trkpt>
      <trkpt lat="44.8074" lon="-0.38381">
        <ele>89.4</ele>
        <time>2022-04-03T09:21:51Z</time>
      </trkpt>
      <trkpt lat="44.80741" lon="-0.38377">
        <ele>90.2</ele>
        <time>2022-04-03T09:21:52Z</time>
      </trkpt>
      <trkpt lat="44.80741" lon="-0.38374">
        <ele>91</ele>
        <time>2022-04-03T09:21:53Z</time>
      </trkpt>
      <trkpt lat="44.8074" lon="-0.38372">
        <ele>91.4</ele>
        <time>2022-04-03T09:21:54Z</time>
      </trkpt>
      <trkpt lat="44.80739" lon="-0.3837">
        <ele>92</ele>
        <time>2022-04-03T09:21:55Z</time>
      </trkpt>
      <trkpt lat="44.80737" lon="-0.38367">
        <ele>92.4</ele>
        <time>2022-04-03T09:21:56Z</time>
      </trkpt>
      <trkpt lat="44.80736" lon="-0.38365">
        <ele>92.8</ele>
        <time>2022-04-03T09:21:57Z</time>
      </trkpt>
      <trkpt lat="44.80736" lon="-0.38365">
        <ele>93.4</ele>
        <time>2022-04-03T09:21:58Z</time>
      </trkpt>
      <trkpt lat="44.80737" lon="-0.38363">
        <ele>94</ele>
        <time>2022-04-03T09:21:59Z</time>
      </trkpt>
      <trkpt lat="44.80739" lon="-0.38364">
        <ele>94.6</ele>
        <time>2022-04-03T09:22:00Z</time>
      </trkpt>
      <trkpt lat="44.8074" lon="-0.38364">
        <ele>95.2</ele>
        <time>2022-04-03T09:22:01Z</time>
      </trkpt>
      <trkpt lat="44.80741" lon="-0.38363">
        <ele>95.8</ele>
        <time>2022-04-03T09:22:02Z</time>
      </trkpt>
      <trkpt lat="44.8074" lon="-0.38361">
        <ele>96.2</ele>
        <time>2022-04-03T09:22:03Z</time>
      </trkpt>
      <trkpt lat="44.8074" lon="-0.3836">
        <ele>96.2</ele>
        <time>2022-04-03T09:22:04Z</time>
      </trkpt>
      <trkpt lat="44.8074" lon="-0.38358">
        <ele>96.6</ele>
        <time>2022-04-03T09:22:05Z</time>
      </trkpt>
      <trkpt lat="44.8074" lon="-0.38357">
        <ele>97</ele>
        <time>2022-04-03T09:22:06Z</time>
      </trkpt>
      <trkpt lat="44.80741" lon="-0.38356">
        <ele>97.2</ele>
        <time>2022-04-03T09:22:07Z</time>
      </trkpt>
      <trkpt lat="44.80741" lon="-0.38356">
        <ele>97.6</ele>
        <time>2022-04-03T09:22:08Z</time>
      </trkpt>
      <trkpt lat="44.80743" lon="-0.38352">
        <ele>97.6</ele>
        <time>2022-04-03T09:22:09Z</time>
      </trkpt>
      <trkpt lat="44.80744" lon="-0.3835">
        <ele>97.4</ele>
        <time>2022-04-03T09:22:10Z</time>
      </trkpt>
      <trkpt lat="44.80747" lon="-0.38348">
        <ele>97.2</ele>
        <time>2022-04-03T09:22:11Z</time>
      </trkpt>
      <trkpt lat="44.80749" lon="-0.38347">
        <ele>96.4</ele>
        <time>2022-04-03T09:22:12Z</time>
      </trkpt>
      <trkpt lat="44.80752" lon="-0.38346">
        <ele>96.6</ele>
        <time>2022-04-03T09:22:13Z</time>
      </trkpt>
      <trkpt lat="44.80755" lon="-0.38344">
        <ele>96.2</ele>
        <time>2022-04-03T09:22:14Z</time>
      </trkpt>
      <trkpt lat="44.80758" lon="-0.38341">
        <ele>96.4</ele>
        <time>2022-04-03T09:22:15Z</time>
      </trkpt>
      <trkpt lat="44.80761" lon="-0.38337">
        <ele>95.4</ele>
        <time>2022-04-03T09:22:16Z</time>
      </trkpt>
      <trkpt lat="44.80763" lon="-0.38332">
        <ele>95</ele>
        <time>2022-04-03T09:22:17Z</time>
      </trkpt>
      <trkpt lat="44.80763" lon="-0.38332">
        <ele>94.2</ele>
        <time>2022-04-03T09:22:18Z</time>
      </trkpt>
      <trkpt lat="44.80763" lon="-0.38332">
        <ele>92.4</ele>
        <time>2022-04-03T09:22:19Z</time>
      </trkpt>
      <trkpt lat="44.80772" lon="-0.38315">
        <ele>91.2</ele>
        <time>2022-04-03T09:22:20Z</time>
      </trkpt>
      <trkpt lat="44.80775" lon="-0.38311">
        <ele>90</ele>
        <time>2022-04-03T09:22:21Z</time>
      </trkpt>
      <trkpt lat="44.80778" lon="-0.38308">
        <ele>90</ele>
        <time>2022-04-03T09:22:22Z</time>
      </trkpt>
      <trkpt lat="44.8078" lon="-0.38307">
        <ele>89.4</ele>
        <time>2022-04-03T09:22:23Z</time>
      </trkpt>
      <trkpt lat="44.80783" lon="-0.38307">
        <ele>89</ele>
        <time>2022-04-03T09:22:24Z</time>
      </trkpt>
      <trkpt lat="44.80785" lon="-0.38308">
        <ele>89</ele>
        <time>2022-04-03T09:22:25Z</time>
      </trkpt>
      <trkpt lat="44.80787" lon="-0.38308">
        <ele>88.6</ele>
        <time>2022-04-03T09:22:26Z</time>
      </trkpt>
      <trkpt lat="44.80789" lon="-0.38307">
        <ele>88</ele>
        <time>2022-04-03T09:22:27Z</time>
      </trkpt>
      <trkpt lat="44.80789" lon="-0.38307">
        <ele>87.8</ele>
        <time>2022-04-03T09:22:28Z</time>
      </trkpt>
      <trkpt lat="44.80789" lon="-0.38307">
        <ele>87.8</ele>
        <time>2022-04-03T09:22:29Z</time>
      </trkpt>
      <trkpt lat="44.80795" lon="-0.38308">
        <ele>87.8</ele>
        <time>2022-04-03T09:22:30Z</time>
      </trkpt>
      <trkpt lat="44.80797" lon="-0.38311">
        <ele>87.8</ele>
        <time>2022-04-03T09:22:31Z</time>
      </trkpt>
      <trkpt lat="44.80799" lon="-0.38314">
        <ele>88.2</ele>
        <time>2022-04-03T09:22:32Z</time>
      </trkpt>
      <trkpt lat="44.80801" lon="-0.38319">
        <ele>88.6</ele>
        <time>2022-04-03T09:22:33Z</time>
      </trkpt>
      <trkpt lat="44.808" lon="-0.38322">
        <ele>88.4</ele>
        <time>2022-04-03T09:22:34Z</time>
      </trkpt>
      <trkpt lat="44.80797" lon="-0.38323">
        <ele>88.6</ele>
        <time>2022-04-03T09:22:35Z</time>
      </trkpt>
      <trkpt lat="44.80794" lon="-0.38322">
        <ele>89</ele>
        <time>2022-04-03T09:22:36Z</time>
      </trkpt>
      <trkpt lat="44.8079" lon="-0.3832">
        <ele>89.4</ele>
        <time>2022-04-03T09:22:37Z</time>
      </trkpt>
      <trkpt lat="44.80788" lon="-0.38318">
        <ele>89.8</ele>
        <time>2022-04-03T09:22:38Z</time>
      </trkpt>
      <trkpt lat="44.80788" lon="-0.38318">
        <ele>90.6</ele>
        <time>2022-04-03T09:22:39Z</time>
      </trkpt>
      <trkpt lat="44.80788" lon="-0.38318">
        <ele>91.6</ele>
        <time>2022-04-03T09:22:40Z</time>
      </trkpt>
      <trkpt lat="44.80784" lon="-0.38315">
        <ele>92</ele>
        <time>2022-04-03T09:22:41Z</time>
      </trkpt>
      <trkpt lat="44.80783" lon="-0.38314">
        <ele>92.2</ele>
        <time>2022-04-03T09:22:42Z</time>
      </trkpt>
      <trkpt lat="44.80781" lon="-0.38313">
        <ele>92.6</ele>
        <time>2022-04-03T09:22:43Z</time>
      </trkpt>
      <trkpt lat="44.8078" lon="-0.38312">
        <ele>93</ele>
        <time>2022-04-03T09:22:44Z</time>
      </trkpt>
      <trkpt lat="44.80778" lon="-0.38313">
        <ele>93.4</ele>
        <time>2022-04-03T09:22:45Z</time>
      </trkpt>
      <trkpt lat="44.80778" lon="-0.38315">
        <ele>93.4</ele>
        <time>2022-04-03T09:22:46Z</time>
      </trkpt>
      <trkpt lat="44.80778" lon="-0.38318">
        <ele>93.6</ele>
        <time>2022-04-03T09:22:47Z</time>
      </trkpt>
      <trkpt lat="44.80779" lon="-0.38322">
        <ele>93.6</ele>
        <time>2022-04-03T09:22:48Z</time>
      </trkpt>
      <trkpt lat="44.80779" lon="-0.38322">
        <ele>94.2</ele>
        <time>2022-04-03T09:22:49Z</time>
      </trkpt>
      <trkpt lat="44.8078" lon="-0.38328">
        <ele>94.6</ele>
        <time>2022-04-03T09:22:50Z</time>
      </trkpt>
      <trkpt lat="44.80779" lon="-0.3833">
        <ele>95.2</ele>
        <time>2022-04-03T09:22:51Z</time>
      </trkpt>
      <trkpt lat="44.80778" lon="-0.38332">
        <ele>95.4</ele>
        <time>2022-04-03T09:22:52Z</time>
      </trkpt>
      <trkpt lat="44.80778" lon="-0.38334">
        <ele>95.6</ele>
        <time>2022-04-03T09:22:53Z</time>
      </trkpt>
      <trkpt lat="44.80778" lon="-0.38334">
        <ele>96</ele>
        <time>2022-04-03T09:22:54Z</time>
      </trkpt>
      <trkpt lat="44.80777" lon="-0.38336">
        <ele>96.8</ele>
        <time>2022-04-03T09:22:57Z</time>
      </trkpt>
      <trkpt lat="44.80776" lon="-0.38336">
        <ele>97.4</ele>
        <time>2022-04-03T09:22:58Z</time>
      </trkpt>
      <trkpt lat="44.80774" lon="-0.38336">
        <ele>97.4</ele>
        <time>2022-04-03T09:22:59Z</time>
      </trkpt>
      <trkpt lat="44.80774" lon="-0.38336">
        <ele>97.6</ele>
        <time>2022-04-03T09:23:00Z</time>
      </trkpt>
      <trkpt lat="44.80769" lon="-0.38336">
        <ele>97.6</ele>
        <time>2022-04-03T09:23:01Z</time>
      </trkpt>
      <trkpt lat="44.80768" lon="-0.38337">
        <ele>97.6</ele>
        <time>2022-04-03T09:23:02Z</time>
      </trkpt>
      <trkpt lat="44.80766" lon="-0.38338">
        <ele>97.6</ele>
        <time>2022-04-03T09:23:03Z</time>
      </trkpt>
      <trkpt lat="44.80764" lon="-0.38339">
        <ele>97.8</ele>
        <time>2022-04-03T09:23:04Z</time>
      </trkpt>
      <trkpt lat="44.80763" lon="-0.38341">
        <ele>97.6</ele>
        <time>2022-04-03T09:23:05Z</time>
      </trkpt>
      <trkpt lat="44.80761" lon="-0.38345">
        <ele>97</ele>
        <time>2022-04-03T09:23:06Z</time>
      </trkpt>
      <trkpt lat="44.80761" lon="-0.3835">
        <ele>97</ele>
        <time>2022-04-03T09:23:07Z</time>
      </trkpt>
      <trkpt lat="44.80762" lon="-0.38356">
        <ele>96</ele>
        <time>2022-04-03T09:23:08Z</time>
      </trkpt>
      <trkpt lat="44.80762" lon="-0.38356">
        <ele>94</ele>
        <time>2022-04-03T09:23:09Z</time>
      </trkpt>
      <trkpt lat="44.80762" lon="-0.38356">
        <ele>92</ele>
        <time>2022-04-03T09:23:10Z</time>
      </trkpt>
      <trkpt lat="44.80772" lon="-0.38377">
        <ele>90.6</ele>
        <time>2022-04-03T09:23:11Z</time>
      </trkpt>
      <trkpt lat="44.80777" lon="-0.38384">
        <ele>90.6</ele>
        <time>2022-04-03T09:23:12Z</time>
      </trkpt>
      <trkpt lat="44.80782" lon="-0.38387">
        <ele>90.8</ele>
        <time>2022-04-03T09:23:13Z</time>
      </trkpt>
      <trkpt lat="44.80787" lon="-0.38387">
        <ele>90.8</ele>
        <time>2022-04-03T09:23:14Z</time>
      </trkpt>
      <trkpt lat="44.8079" lon="-0.38384">
        <ele>90.8</ele>
        <time>2022-04-03T09:23:15Z</time>
      </trkpt>
      <trkpt lat="44.80793" lon="-0.38379">
        <ele>91</ele>
        <time>2022-04-03T09:23:16Z</time>
      </trkpt>
      <trkpt lat="44.80795" lon="-0.38375">
        <ele>91.2</ele>
        <time>2022-04-03T09:23:17Z</time>
      </trkpt>
      <trkpt lat="44.80797" lon="-0.38369">
        <ele>91</ele>
        <time>2022-04-03T09:23:18Z</time>
      </trkpt>
      <trkpt lat="44.80799" lon="-0.38364">
        <ele>90.8</ele>
        <time>2022-04-03T09:23:19Z</time>
      </trkpt>
      <trkpt lat="44.80799" lon="-0.38364">
        <ele>90.4</ele>
        <time>2022-04-03T09:23:20Z</time>
      </trkpt>
      <trkpt lat="44.80799" lon="-0.38364">
        <ele>90.2</ele>
        <time>2022-04-03T09:23:21Z</time>
      </trkpt>
      <trkpt lat="44.80806" lon="-0.38346">
        <ele>90</ele>
        <time>2022-04-03T09:23:22Z</time>
      </trkpt>
      <trkpt lat="44.80809" lon="-0.38339">
        <ele>90.4</ele>
        <time>2022-04-03T09:23:23Z</time>
      </trkpt>
      <trkpt lat="44.80812" lon="-0.38333">
        <ele>90.2</ele>
        <time>2022-04-03T09:23:24Z</time>
      </trkpt>
      <trkpt lat="44.80815" lon="-0.38327">
        <ele>90</ele>
        <time>2022-04-03T09:23:25Z</time>
      </trkpt>
      <trkpt lat="44.80819" lon="-0.38322">
        <ele>89.4</ele>
        <time>2022-04-03T09:23:26Z</time>
      </trkpt>
      <trkpt lat="44.80824" lon="-0.38319">
        <ele>89.4</ele>
        <time>2022-04-03T09:23:27Z</time>
      </trkpt>
      <trkpt lat="44.8083" lon="-0.38319">
        <ele>89.4</ele>
        <time>2022-04-03T09:23:28Z</time>
      </trkpt>
      <trkpt lat="44.80834" lon="-0.38324">
        <ele>89</ele>
        <time>2022-04-03T09:23:29Z</time>
      </trkpt>
      <trkpt lat="44.80834" lon="-0.38324">
        <ele>88.8</ele>
        <time>2022-04-03T09:23:30Z</time>
      </trkpt>
      <trkpt lat="44.80836" lon="-0.38338">
        <ele>88.8</ele>
        <time>2022-04-03T09:23:31Z</time>
      </trkpt>
      <trkpt lat="44.80834" lon="-0.38344">
        <ele>88.8</ele>
        <time>2022-04-03T09:23:32Z</time>
      </trkpt>
      <trkpt lat="44.80832" lon="-0.3835">
        <ele>89.2</ele>
        <time>2022-04-03T09:23:33Z</time>
      </trkpt>
      <trkpt lat="44.8083" lon="-0.38357">
        <ele>89.6</ele>
        <time>2022-04-03T09:23:34Z</time>
      </trkpt>
      <trkpt lat="44.80828" lon="-0.38363">
        <ele>89.6</ele>
        <time>2022-04-03T09:23:35Z</time>
      </trkpt>
      <trkpt lat="44.80826" lon="-0.38369">
        <ele>89.4</ele>
        <time>2022-04-03T09:23:36Z</time>
      </trkpt>
      <trkpt lat="44.80824" lon="-0.38376">
        <ele>89.4</ele>
        <time>2022-04-03T09:23:37Z</time>
      </trkpt>
      <trkpt lat="44.80822" lon="-0.38383">
        <ele>89.6</ele>
        <time>2022-04-03T09:23:38Z</time>
      </trkpt>
      <trkpt lat="44.8082" lon="-0.3839">
        <ele>89.8</ele>
        <time>2022-04-03T09:23:39Z</time>
      </trkpt>
      <trkpt lat="44.80818" lon="-0.38396">
        <ele>89.6</ele>
        <time>2022-04-03T09:23:40Z</time>
      </trkpt>
      <trkpt lat="44.80818" lon="-0.38396">
        <ele>89.8</ele>
        <time>2022-04-03T09:23:41Z</time>
      </trkpt>
      <trkpt lat="44.80816" lon="-0.3841">
        <ele>89.8</ele>
        <time>2022-04-03T09:23:42Z</time>
      </trkpt>
      <trkpt lat="44.80814" lon="-0.38417">
        <ele>90.2</ele>
        <time>2022-04-03T09:23:43Z</time>
      </trkpt>
      <trkpt lat="44.80813" lon="-0.38424">
        <ele>90.4</ele>
        <time>2022-04-03T09:23:44Z</time>
      </trkpt>
      <trkpt lat="44.80812" lon="-0.38431">
        <ele>90.8</ele>
        <time>2022-04-03T09:23:45Z</time>
      </trkpt>
      <trkpt lat="44.8081" lon="-0.38438">
        <ele>90.6</ele>
        <time>2022-04-03T09:23:46Z</time>
      </trkpt>
      <trkpt lat="44.80807" lon="-0.38444">
        <ele>90.8</ele>
        <time>2022-04-03T09:23:47Z</time>
      </trkpt>
      <trkpt lat="44.80804" lon="-0.38449">
        <ele>90.4</ele>
        <time>2022-04-03T09:23:48Z</time>
      </trkpt>
      <trkpt lat="44.80799" lon="-0.38451">
        <ele>90.4</ele>
        <time>2022-04-03T09:23:49Z</time>
      </trkpt>
      <trkpt lat="44.80799" lon="-0.38451">
        <ele>90.2</ele>
        <time>2022-04-03T09:23:50Z</time>
      </trkpt>
      <trkpt lat="44.80799" lon="-0.38451">
        <ele>90</ele>
        <time>2022-04-03T09:23:51Z</time>
      </trkpt>
      <trkpt lat="44.80783" lon="-0.38445">
        <ele>90</ele>
        <time>2022-04-03T09:23:52Z</time>
      </trkpt>
      <trkpt lat="44.80778" lon="-0.38441">
        <ele>90.2</ele>
        <time>2022-04-03T09:23:53Z</time>
      </trkpt>
      <trkpt lat="44.80773" lon="-0.38437">
        <ele>90.2</ele>
        <time>2022-04-03T09:23:54Z</time>
      </trkpt>
      <trkpt lat="44.80768" lon="-0.38433">
        <ele>90.2</ele>
        <time>2022-04-03T09:23:55Z</time>
      </trkpt>
      <trkpt lat="44.80763" lon="-0.38429">
        <ele>89.4</ele>
        <time>2022-04-03T09:23:56Z</time>
      </trkpt>
      <trkpt lat="44.80758" lon="-0.38425">
        <ele>89.4</ele>
        <time>2022-04-03T09:23:57Z</time>
      </trkpt>
      <trkpt lat="44.80753" lon="-0.38421">
        <ele>89.4</ele>
        <time>2022-04-03T09:23:58Z</time>
      </trkpt>
      <trkpt lat="44.80748" lon="-0.38418">
        <ele>89.6</ele>
        <time>2022-04-03T09:23:59Z</time>
      </trkpt>
      <trkpt lat="44.80743" lon="-0.38416">
        <ele>89.6</ele>
        <time>2022-04-03T09:24:00Z</time>
      </trkpt>
      <trkpt lat="44.80743" lon="-0.38416">
        <ele>89.6</ele>
        <time>2022-04-03T09:24:01Z</time>
      </trkpt>
      <trkpt lat="44.80732" lon="-0.38421">
        <ele>89.4</ele>
        <time>2022-04-03T09:24:02Z</time>
      </trkpt>
      <trkpt lat="44.8073" lon="-0.38429">
        <ele>88.4</ele>
        <time>2022-04-03T09:24:03Z</time>
      </trkpt>
      <trkpt lat="44.8073" lon="-0.38437">
        <ele>87.4</ele>
        <time>2022-04-03T09:24:04Z</time>
      </trkpt>
      <trkpt lat="44.80731" lon="-0.38447">
        <ele>87.2</ele>
        <time>2022-04-03T09:24:05Z</time>
      </trkpt>
      <trkpt lat="44.80733" lon="-0.38456">
        <ele>87.4</ele>
        <time>2022-04-03T09:24:06Z</time>
      </trkpt>
      <trkpt lat="44.80736" lon="-0.38464">
        <ele>87.8</ele>
        <time>2022-04-03T09:24:07Z</time>
      </trkpt>
      <trkpt lat="44.8074" lon="-0.38472">
        <ele>87.2</ele>
        <time>2022-04-03T09:24:08Z</time>
      </trkpt>
      <trkpt lat="44.80746" lon="-0.38478">
        <ele>87</ele>
        <time>2022-04-03T09:24:09Z</time>
      </trkpt>
      <trkpt lat="44.80751" lon="-0.38482">
        <ele>87</ele>
        <time>2022-04-03T09:24:10Z</time>
      </trkpt>
      <trkpt lat="44.80751" lon="-0.38482">
        <ele>87.2</ele>
        <time>2022-04-03T09:24:11Z</time>
      </trkpt>
      <trkpt lat="44.80762" lon="-0.38486">
        <ele>87.8</ele>
        <time>2022-04-03T09:24:12Z</time>
      </trkpt>
      <trkpt lat="44.80767" lon="-0.38485">
        <ele>88.2</ele>
        <time>2022-04-03T09:24:13Z</time>
      </trkpt>
      <trkpt lat="44.80772" lon="-0.38482">
        <ele>88.4</ele>
        <time>2022-04-03T09:24:14Z</time>
      </trkpt>
      <trkpt lat="44.80777" lon="-0.38478">
        <ele>89</ele>
        <time>2022-04-03T09:24:15Z</time>
      </trkpt>
      <trkpt lat="44.80782" lon="-0.38478">
        <ele>89</ele>
        <time>2022-04-03T09:24:16Z</time>
      </trkpt>
      <trkpt lat="44.80786" lon="-0.3848">
        <ele>89.4</ele>
        <time>2022-04-03T09:24:17Z</time>
      </trkpt>
      <trkpt lat="44.8079" lon="-0.38484">
        <ele>89.6</ele>
        <time>2022-04-03T09:24:18Z</time>
      </trkpt>
      <trkpt lat="44.80794" lon="-0.38489">
        <ele>90</ele>
        <time>2022-04-03T09:24:19Z</time>
      </trkpt>
      <trkpt lat="44.80798" lon="-0.38492">
        <ele>89.4</ele>
        <time>2022-04-03T09:24:20Z</time>
      </trkpt>
      <trkpt lat="44.80803" lon="-0.38495">
        <ele>89</ele>
        <time>2022-04-03T09:24:21Z</time>
      </trkpt>
      <trkpt lat="44.80807" lon="-0.38497">
        <ele>88.8</ele>
        <time>2022-04-03T09:24:22Z</time>
      </trkpt>
      <trkpt lat="44.80813" lon="-0.38499">
        <ele>89.2</ele>
        <time>2022-04-03T09:24:23Z</time>
      </trkpt>
      <trkpt lat="44.80817" lon="-0.38501">
        <ele>89.4</ele>
        <time>2022-04-03T09:24:24Z</time>
      </trkpt>
      <trkpt lat="44.80822" lon="-0.38503">
        <ele>89.8</ele>
        <time>2022-04-03T09:24:25Z</time>
      </trkpt>
      <trkpt lat="44.80827" lon="-0.38504">
        <ele>90.2</ele>
        <time>2022-04-03T09:24:26Z</time>
      </trkpt>
      <trkpt lat="44.80831" lon="-0.38507">
        <ele>90.8</ele>
        <time>2022-04-03T09:24:27Z</time>
      </trkpt>
      <trkpt lat="44.80835" lon="-0.38508">
        <ele>91.2</ele>
        <time>2022-04-03T09:24:28Z</time>
      </trkpt>
      <trkpt lat="44.80838" lon="-0.3851">
        <ele>91.4</ele>
        <time>2022-04-03T09:24:29Z</time>
      </trkpt>
      <trkpt lat="44.8084" lon="-0.38511">
        <ele>91.6</ele>
        <time>2022-04-03T09:24:30Z</time>
      </trkpt>
      <trkpt lat="44.8084" lon="-0.38511">
        <ele>91.6</ele>
        <time>2022-04-03T09:24:31Z</time>
      </trkpt>
      <trkpt lat="44.8084" lon="-0.38511">
        <ele>92.2</ele>
        <time>2022-04-03T09:24:32Z</time>
      </trkpt>
      <trkpt lat="44.80844" lon="-0.38523">
        <ele>92.6</ele>
        <time>2022-04-03T09:24:33Z</time>
      </trkpt>
      <trkpt lat="44.80844" lon="-0.38528">
        <ele>92.6</ele>
        <time>2022-04-03T09:24:34Z</time>
      </trkpt>
      <trkpt lat="44.80844" lon="-0.38535">
        <ele>92.4</ele>
        <time>2022-04-03T09:24:35Z</time>
      </trkpt>
      <trkpt lat="44.80844" lon="-0.38541">
        <ele>92.2</ele>
        <time>2022-04-03T09:24:36Z</time>
      </trkpt>
      <trkpt lat="44.80844" lon="-0.38548">
        <ele>92.2</ele>
        <time>2022-04-03T09:24:37Z</time>
      </trkpt>
      <trkpt lat="44.80845" lon="-0.38554">
        <ele>92.6</ele>
        <time>2022-04-03T09:24:38Z</time>
      </trkpt>
      <trkpt lat="44.80847" lon="-0.38559">
        <ele>93</ele>
        <time>2022-04-03T09:24:39Z</time>
      </trkpt>
      <trkpt lat="44.80851" lon="-0.38563">
        <ele>93.4</ele>
        <time>2022-04-03T09:24:40Z</time>
      </trkpt>
      <trkpt lat="44.80854" lon="-0.38568">
        <ele>93.2</ele>
        <time>2022-04-03T09:24:41Z</time>
      </trkpt>
      <trkpt lat="44.80854" lon="-0.38568">
        <ele>92.8</ele>
        <time>2022-04-03T09:24:42Z</time>
      </trkpt>
      <trkpt lat="44.80854" lon="-0.38568">
        <ele>93.2</ele>
        <time>2022-04-03T09:24:43Z</time>
      </trkpt>
      <trkpt lat="44.80865" lon="-0.38581">
        <ele>93.6</ele>
        <time>2022-04-03T09:24:44Z</time>
      </trkpt>
      <trkpt lat="44.80866" lon="-0.38587">
        <ele>94</ele>
        <time>2022-04-03T09:24:45Z</time>
      </trkpt>
      <trkpt lat="44.80866" lon="-0.38593">
        <ele>93.2</ele>
        <time>2022-04-03T09:24:46Z</time>
      </trkpt>
      <trkpt lat="44.80863" lon="-0.38599">
        <ele>92.6</ele>
        <time>2022-04-03T09:24:47Z</time>
      </trkpt>
      <trkpt lat="44.80859" lon="-0.38603">
        <ele>92.2</ele>
        <time>2022-04-03T09:24:48Z</time>
      </trkpt>
      <trkpt lat="44.80853" lon="-0.38603">
        <ele>91.6</ele>
        <time>2022-04-03T09:24:49Z</time>
      </trkpt>
      <trkpt lat="44.80846" lon="-0.386">
        <ele>91</ele>
        <time>2022-04-03T09:24:50Z</time>
      </trkpt>
      <trkpt lat="44.80842" lon="-0.38594">
        <ele>90.2</ele>
        <time>2022-04-03T09:24:51Z</time>
      </trkpt>
      <trkpt lat="44.80842" lon="-0.38594">
        <ele>90.2</ele>
        <time>2022-04-03T09:24:52Z</time>
      </trkpt>
      <trkpt lat="44.80837" lon="-0.38578">
        <ele>90.6</ele>
        <time>2022-04-03T09:24:53Z</time>
      </trkpt>
      <trkpt lat="44.80835" lon="-0.38571">
        <ele>91</ele>
        <time>2022-04-03T09:24:54Z</time>
      </trkpt>
      <trkpt lat="44.80834" lon="-0.38564">
        <ele>91.6</ele>
        <time>2022-04-03T09:24:55Z</time>
      </trkpt>
      <trkpt lat="44.80833" lon="-0.38557">
        <ele>91.8</ele>
        <time>2022-04-03T09:24:56Z</time>
      </trkpt>
      <trkpt lat="44.80832" lon="-0.3855">
        <ele>91.8</ele>
        <time>2022-04-03T09:24:57Z</time>
      </trkpt>
      <trkpt lat="44.80831" lon="-0.38543">
        <ele>91.4</ele>
        <time>2022-04-03T09:24:58Z</time>
      </trkpt>
      <trkpt lat="44.80828" lon="-0.38536">
        <ele>91.2</ele>
        <time>2022-04-03T09:24:59Z</time>
      </trkpt>
      <trkpt lat="44.80823" lon="-0.38533">
        <ele>90.4</ele>
        <time>2022-04-03T09:25:00Z</time>
      </trkpt>
      <trkpt lat="44.80817" lon="-0.38532">
        <ele>89.8</ele>
        <time>2022-04-03T09:25:01Z</time>
      </trkpt>
      <trkpt lat="44.80817" lon="-0.38532">
        <ele>89.6</ele>
        <time>2022-04-03T09:25:02Z</time>
      </trkpt>
      <trkpt lat="44.80817" lon="-0.38532">
        <ele>89.4</ele>
        <time>2022-04-03T09:25:03Z</time>
      </trkpt>
      <trkpt lat="44.80799" lon="-0.38541">
        <ele>89.2</ele>
        <time>2022-04-03T09:25:04Z</time>
      </trkpt>
      <trkpt lat="44.80796" lon="-0.38546">
        <ele>88.8</ele>
        <time>2022-04-03T09:25:05Z</time>
      </trkpt>
      <trkpt lat="44.80795" lon="-0.38554">
        <ele>88.8</ele>
        <time>2022-04-03T09:25:06Z</time>
      </trkpt>
      <trkpt lat="44.80797" lon="-0.38561">
        <ele>88.6</ele>
        <time>2022-04-03T09:25:07Z</time>
      </trkpt>
      <trkpt lat="44.80801" lon="-0.38564">
        <ele>88.6</ele>
        <time>2022-04-03T09:25:08Z</time>
      </trkpt>
      <trkpt lat="44.80806" lon="-0.38565">
        <ele>88.4</ele>
        <time>2022-04-03T09:25:09Z</time>
      </trkpt>
      <trkpt lat="44.80811" lon="-0.38565">
        <ele>88.6</ele>
        <time>2022-04-03T09:25:10Z</time>
      </trkpt>
      <trkpt lat="44.80816" lon="-0.38568">
        <ele>89</ele>
        <time>2022-04-03T09:25:11Z</time>
      </trkpt>
      <trkpt lat="44.80816" lon="-0.38574">
        <ele>89.2</ele>
        <time>2022-04-03T09:25:12Z</time>
      </trkpt>
      <trkpt lat="44.80816" lon="-0.38574">
        <ele>89.2</ele>
        <time>2022-04-03T09:25:13Z</time>
      </trkpt>
      <trkpt lat="44.80811" lon="-0.38587">
        <ele>89.2</ele>
        <time>2022-04-03T09:25:14Z</time>
      </trkpt>
      <trkpt lat="44.80809" lon="-0.38594">
        <ele>89</ele>
        <time>2022-04-03T09:25:15Z</time>
      </trkpt>
      <trkpt lat="44.80807" lon="-0.38601">
        <ele>89.2</ele>
        <time>2022-04-03T09:25:16Z</time>
      </trkpt>
      <trkpt lat="44.80805" lon="-0.38608">
        <ele>88.8</ele>
        <time>2022-04-03T09:25:17Z</time>
      </trkpt>
      <trkpt lat="44.80804" lon="-0.38616">
        <ele>88.2</ele>
        <time>2022-04-03T09:25:18Z</time>
      </trkpt>
      <trkpt lat="44.80803" lon="-0.38623">
        <ele>87.2</ele>
        <time>2022-04-03T09:25:19Z</time>
      </trkpt>
      <trkpt lat="44.80801" lon="-0.38626">
        <ele>86.4</ele>
        <time>2022-04-03T09:25:20Z</time>
      </trkpt>
      <trkpt lat="44.80798" lon="-0.38626">
        <ele>85.4</ele>
        <time>2022-04-03T09:25:21Z</time>
      </trkpt>
      <trkpt lat="44.80794" lon="-0.38624">
        <ele>84.6</ele>
        <time>2022-04-03T09:25:22Z</time>
      </trkpt>
      <trkpt lat="44.80789" lon="-0.38618">
        <ele>84.8</ele>
        <time>2022-04-03T09:25:23Z</time>
      </trkpt>
      <trkpt lat="44.80789" lon="-0.38618">
        <ele>83.8</ele>
        <time>2022-04-03T09:25:24Z</time>
      </trkpt>
      <trkpt lat="44.80781" lon="-0.38608">
        <ele>83.2</ele>
        <time>2022-04-03T09:25:25Z</time>
      </trkpt>
      <trkpt lat="44.80778" lon="-0.38603">
        <ele>82</ele>
        <time>2022-04-03T09:25:26Z</time>
      </trkpt>
      <trkpt lat="44.80774" lon="-0.38597">
        <ele>81.4</ele>
        <time>2022-04-03T09:25:27Z</time>
      </trkpt>
      <trkpt lat="44.8077" lon="-0.38591">
        <ele>80.8</ele>
        <time>2022-04-03T09:25:28Z</time>
      </trkpt>
      <trkpt lat="44.80766" lon="-0.38585">
        <ele>80.8</ele>
        <time>2022-04-03T09:25:29Z</time>
      </trkpt>
      <trkpt lat="44.80764" lon="-0.38581">
        <ele>81.2</ele>
        <time>2022-04-03T09:25:30Z</time>
      </trkpt>
      <trkpt lat="44.80762" lon="-0.38577">
        <ele>81</ele>
        <time>2022-04-03T09:25:31Z</time>
      </trkpt>
      <trkpt lat="44.8076" lon="-0.38573">
        <ele>80.8</ele>
        <time>2022-04-03T09:25:32Z</time>
      </trkpt>
      <trkpt lat="44.8076" lon="-0.38573">
        <ele>80.4</ele>
        <time>2022-04-03T09:25:33Z</time>
      </trkpt>
      <trkpt lat="44.8076" lon="-0.38573">
        <ele>80.4</ele>
        <time>2022-04-03T09:25:34Z</time>
      </trkpt>
      <trkpt lat="44.80754" lon="-0.38564">
        <ele>80</ele>
        <time>2022-04-03T09:25:35Z</time>
      </trkpt>
      <trkpt lat="44.80752" lon="-0.38561">
        <ele>80</ele>
        <time>2022-04-03T09:25:36Z</time>
      </trkpt>
      <trkpt lat="44.8075" lon="-0.38557">
        <ele>80.4</ele>
        <time>2022-04-03T09:25:37Z</time>
      </trkpt>
      <trkpt lat="44.80749" lon="-0.38554">
        <ele>80.4</ele>
        <time>2022-04-03T09:25:38Z</time>
      </trkpt>
      <trkpt lat="44.80746" lon="-0.38551">
        <ele>80</ele>
        <time>2022-04-03T09:25:39Z</time>
      </trkpt>
      <trkpt lat="44.80743" lon="-0.38548">
        <ele>79.4</ele>
        <time>2022-04-03T09:25:40Z</time>
      </trkpt>
      <trkpt lat="44.80741" lon="-0.38545">
        <ele>78.8</ele>
        <time>2022-04-03T09:25:41Z</time>
      </trkpt>
      <trkpt lat="44.80738" lon="-0.38542">
        <ele>78.2</ele>
        <time>2022-04-03T09:25:42Z</time>
      </trkpt>
      <trkpt lat="44.80732" lon="-0.38538">
        <ele>77.6</ele>
        <time>2022-04-03T09:25:43Z</time>
      </trkpt>
      <trkpt lat="44.80732" lon="-0.38538">
        <ele>77.2</ele>
        <time>2022-04-03T09:25:44Z</time>
      </trkpt>
      <trkpt lat="44.80732" lon="-0.38538">
        <ele>76</ele>
        <time>2022-04-03T09:25:45Z</time>
      </trkpt>
      <trkpt lat="44.80718" lon="-0.38525">
        <ele>76</ele>
        <time>2022-04-03T09:25:46Z</time>
      </trkpt>
      <trkpt lat="44.80714" lon="-0.38521">
        <ele>75.8</ele>
        <time>2022-04-03T09:25:47Z</time>
      </trkpt>
      <trkpt lat="44.80709" lon="-0.38518">
        <ele>76.2</ele>
        <time>2022-04-03T09:25:48Z</time>
      </trkpt>
      <trkpt lat="44.80704" lon="-0.38518">
        <ele>75.2</ele>
        <time>2022-04-03T09:25:49Z</time>
      </trkpt>
      <trkpt lat="44.80701" lon="-0.38517">
        <ele>75</ele>
        <time>2022-04-03T09:25:50Z</time>
      </trkpt>
      <trkpt lat="44.80698" lon="-0.38517">
        <ele>74.8</ele>
        <time>2022-04-03T09:25:51Z</time>
      </trkpt>
      <trkpt lat="44.80695" lon="-0.38517">
        <ele>74.4</ele>
        <time>2022-04-03T09:25:52Z</time>
      </trkpt>
      <trkpt lat="44.80693" lon="-0.38515">
        <ele>74.4</ele>
        <time>2022-04-03T09:25:53Z</time>
      </trkpt>
      <trkpt lat="44.80691" lon="-0.38508">
        <ele>74.2</ele>
        <time>2022-04-03T09:25:54Z</time>
      </trkpt>
      <trkpt lat="44.80691" lon="-0.38508">
        <ele>74.2</ele>
        <time>2022-04-03T09:25:55Z</time>
      </trkpt>
      <trkpt lat="44.80688" lon="-0.38506">
        <ele>74.2</ele>
        <time>2022-04-03T09:25:56Z</time>
      </trkpt>
      <trkpt lat="44.80685" lon="-0.38504">
        <ele>74</ele>
        <time>2022-04-03T09:25:57Z</time>
      </trkpt>
      <trkpt lat="44.80682" lon="-0.38502">
        <ele>73.6</ele>
        <time>2022-04-03T09:25:58Z</time>
      </trkpt>
      <trkpt lat="44.8068" lon="-0.38498">
        <ele>73.8</ele>
        <time>2022-04-03T09:25:59Z</time>
      </trkpt>
      <trkpt lat="44.80679" lon="-0.38495">
        <ele>73.8</ele>
        <time>2022-04-03T09:26:00Z</time>
      </trkpt>
      <trkpt lat="44.80679" lon="-0.38492">
        <ele>74</ele>
        <time>2022-04-03T09:26:01Z</time>
      </trkpt>
      <trkpt lat="44.80678" lon="-0.38488">
        <ele>74.2</ele>
        <time>2022-04-03T09:26:02Z</time>
      </trkpt>
      <trkpt lat="44.80676" lon="-0.38485">
        <ele>74.4</ele>
        <time>2022-04-03T09:26:03Z</time>
      </trkpt>
      <trkpt lat="44.80674" lon="-0.38483">
        <ele>73.4</ele>
        <time>2022-04-03T09:26:04Z</time>
      </trkpt>
      <trkpt lat="44.80674" lon="-0.38483">
        <ele>72.4</ele>
        <time>2022-04-03T09:26:05Z</time>
      </trkpt>
      <trkpt lat="44.8067" lon="-0.38481">
        <ele>71.6</ele>
        <time>2022-04-03T09:26:06Z</time>
      </trkpt>
      <trkpt lat="44.80667" lon="-0.3848">
        <ele>71.6</ele>
        <time>2022-04-03T09:26:07Z</time>
      </trkpt>
      <trkpt lat="44.80664" lon="-0.38477">
        <ele>71.4</ele>
        <time>2022-04-03T09:26:08Z</time>
      </trkpt>
      <trkpt lat="44.8066" lon="-0.38474">
        <ele>71.6</ele>
        <time>2022-04-03T09:26:09Z</time>
      </trkpt>
      <trkpt lat="44.80657" lon="-0.3847">
        <ele>71.8</ele>
        <time>2022-04-03T09:26:10Z</time>
      </trkpt>
      <trkpt lat="44.80655" lon="-0.38467">
        <ele>71.8</ele>
        <time>2022-04-03T09:26:11Z</time>
      </trkpt>
      <trkpt lat="44.80651" lon="-0.38463">
        <ele>71.4</ele>
        <time>2022-04-03T09:26:12Z</time>
      </trkpt>
      <trkpt lat="44.80648" lon="-0.38461">
        <ele>71</ele>
        <time>2022-04-03T09:26:13Z</time>
      </trkpt>
      <trkpt lat="44.80644" lon="-0.38458">
        <ele>70.8</ele>
        <time>2022-04-03T09:26:14Z</time>
      </trkpt>
      <trkpt lat="44.8064" lon="-0.38451">
        <ele>70.8</ele>
        <time>2022-04-03T09:26:15Z</time>
      </trkpt>
      <trkpt lat="44.8064" lon="-0.38451">
        <ele>70.8</ele>
        <time>2022-04-03T09:26:16Z</time>
      </trkpt>
      <trkpt lat="44.80639" lon="-0.38449">
        <ele>70.6</ele>
        <time>2022-04-03T09:26:17Z</time>
      </trkpt>
      <trkpt lat="44.80638" lon="-0.38447">
        <ele>70.2</ele>
        <time>2022-04-03T09:26:18Z</time>
      </trkpt>
      <trkpt lat="44.80636" lon="-0.38444">
        <ele>70</ele>
        <time>2022-04-03T09:26:19Z</time>
      </trkpt>
      <trkpt lat="44.80634" lon="-0.38441">
        <ele>70.2</ele>
        <time>2022-04-03T09:26:20Z</time>
      </trkpt>
      <trkpt lat="44.80633" lon="-0.38439">
        <ele>70</ele>
        <time>2022-04-03T09:26:21Z</time>
      </trkpt>
      <trkpt lat="44.8063" lon="-0.38436">
        <ele>69.6</ele>
        <time>2022-04-03T09:26:22Z</time>
      </trkpt>
      <trkpt lat="44.80629" lon="-0.38433">
        <ele>69.4</ele>
        <time>2022-04-03T09:26:23Z</time>
      </trkpt>
      <trkpt lat="44.80628" lon="-0.38429">
        <ele>69.8</ele>
        <time>2022-04-03T09:26:24Z</time>
      </trkpt>
      <trkpt lat="44.80628" lon="-0.38429">
        <ele>70.2</ele>
        <time>2022-04-03T09:26:25Z</time>
      </trkpt>
      <trkpt lat="44.80628" lon="-0.38429">
        <ele>70.2</ele>
        <time>2022-04-03T09:26:26Z</time>
      </trkpt>
      <trkpt lat="44.80622" lon="-0.38424">
        <ele>69.6</ele>
        <time>2022-04-03T09:26:27Z</time>
      </trkpt>
      <trkpt lat="44.80619" lon="-0.38422">
        <ele>69.2</ele>
        <time>2022-04-03T09:26:28Z</time>
      </trkpt>
      <trkpt lat="44.80617" lon="-0.38419">
        <ele>68.4</ele>
        <time>2022-04-03T09:26:29Z</time>
      </trkpt>
      <trkpt lat="44.80615" lon="-0.38415">
        <ele>68.2</ele>
        <time>2022-04-03T09:26:30Z</time>
      </trkpt>
      <trkpt lat="44.80612" lon="-0.38412">
        <ele>67.8</ele>
        <time>2022-04-03T09:26:31Z</time>
      </trkpt>
      <trkpt lat="44.8061" lon="-0.38408">
        <ele>67.8</ele>
        <time>2022-04-03T09:26:32Z</time>
      </trkpt>
      <trkpt lat="44.80607" lon="-0.38405">
        <ele>67.4</ele>
        <time>2022-04-03T09:26:33Z</time>
      </trkpt>
      <trkpt lat="44.80605" lon="-0.38403">
        <ele>67.4</ele>
        <time>2022-04-03T09:26:34Z</time>
      </trkpt>
      <trkpt lat="44.806" lon="-0.384">
        <ele>67.6</ele>
        <time>2022-04-03T09:26:35Z</time>
      </trkpt>
      <trkpt lat="44.80599" lon="-0.384">
        <ele>67.4</ele>
        <time>2022-04-03T09:26:36Z</time>
      </trkpt>
      <trkpt lat="44.80599" lon="-0.384">
        <ele>67.4</ele>
        <time>2022-04-03T09:26:37Z</time>
      </trkpt>
      <trkpt lat="44.80596" lon="-0.38399">
        <ele>67.2</ele>
        <time>2022-04-03T09:26:38Z</time>
      </trkpt>
      <trkpt lat="44.80593" lon="-0.38396">
        <ele>66.8</ele>
        <time>2022-04-03T09:26:39Z</time>
      </trkpt>
      <trkpt lat="44.8059" lon="-0.38391">
        <ele>66.6</ele>
        <time>2022-04-03T09:26:40Z</time>
      </trkpt>
      <trkpt lat="44.80588" lon="-0.38387">
        <ele>66.4</ele>
        <time>2022-04-03T09:26:41Z</time>
      </trkpt>
      <trkpt lat="44.80588" lon="-0.38384">
        <ele>66.4</ele>
        <time>2022-04-03T09:26:42Z</time>
      </trkpt>
      <trkpt lat="44.80588" lon="-0.38383">
        <ele>66.6</ele>
        <time>2022-04-03T09:26:43Z</time>
      </trkpt>
      <trkpt lat="44.80588" lon="-0.38382">
        <ele>67.2</ele>
        <time>2022-04-03T09:26:44Z</time>
      </trkpt>
      <trkpt lat="44.80589" lon="-0.38382">
        <ele>67.8</ele>
        <time>2022-04-03T09:26:45Z</time>
      </trkpt>
      <trkpt lat="44.80589" lon="-0.38382">
        <ele>68.2</ele>
        <time>2022-04-03T09:26:46Z</time>
      </trkpt>
      <trkpt lat="44.80589" lon="-0.38382">
        <ele>68.4</ele>
        <time>2022-04-03T09:26:47Z</time>
      </trkpt>
      <trkpt lat="44.80589" lon="-0.38387">
        <ele>68.8</ele>
        <time>2022-04-03T09:26:48Z</time>
      </trkpt>
      <trkpt lat="44.80589" lon="-0.38389">
        <ele>69.4</ele>
        <time>2022-04-03T09:26:49Z</time>
      </trkpt>
      <trkpt lat="44.8059" lon="-0.3839">
        <ele>69.8</ele>
        <time>2022-04-03T09:26:50Z</time>
      </trkpt>
      <trkpt lat="44.80592" lon="-0.38391">
        <ele>70.4</ele>
        <time>2022-04-03T09:26:51Z</time>
      </trkpt>
      <trkpt lat="44.80593" lon="-0.38392">
        <ele>70.8</ele>
        <time>2022-04-03T09:26:52Z</time>
      </trkpt>
      <trkpt lat="44.80595" lon="-0.38394">
        <ele>71.2</ele>
        <time>2022-04-03T09:26:53Z</time>
      </trkpt>
      <trkpt lat="44.80596" lon="-0.38397">
        <ele>71.2</ele>
        <time>2022-04-03T09:26:54Z</time>
      </trkpt>
      <trkpt lat="44.80596" lon="-0.38397">
        <ele>71.2</ele>
        <time>2022-04-03T09:26:55Z</time>
      </trkpt>
      <trkpt lat="44.806" lon="-0.38407">
        <ele>71.2</ele>
        <time>2022-04-03T09:26:56Z</time>
      </trkpt>
      <trkpt lat="44.80604" lon="-0.38411">
        <ele>71.2</ele>
        <time>2022-04-03T09:26:57Z</time>
      </trkpt>
      <trkpt lat="44.80604" lon="-0.38411">
        <ele>71.2</ele>
        <time>2022-04-03T09:26:58Z</time>
      </trkpt>
      <trkpt lat="44.80608" lon="-0.38415">
        <ele>71.2</ele>
        <time>2022-04-03T09:26:59Z</time>
      </trkpt>
      <trkpt lat="44.80612" lon="-0.38419">
        <ele>71.6</ele>
        <time>2022-04-03T09:27:00Z</time>
      </trkpt>
      <trkpt lat="44.80616" lon="-0.38422">
        <ele>72</ele>
        <time>2022-04-03T09:27:01Z</time>
      </trkpt>
      <trkpt lat="44.80619" lon="-0.38425">
        <ele>72.6</ele>
        <time>2022-04-03T09:27:02Z</time>
      </trkpt>
      <trkpt lat="44.80621" lon="-0.38428">
        <ele>73</ele>
        <time>2022-04-03T09:27:03Z</time>
      </trkpt>
      <trkpt lat="44.80624" lon="-0.38431">
        <ele>73.4</ele>
        <time>2022-04-03T09:27:04Z</time>
      </trkpt>
      <trkpt lat="44.80627" lon="-0.38434">
        <ele>73.8</ele>
        <time>2022-04-03T09:27:05Z</time>
      </trkpt>
      <trkpt lat="44.80627" lon="-0.38434">
        <ele>74.2</ele>
        <time>2022-04-03T09:27:06Z</time>
      </trkpt>
      <trkpt lat="44.80637" lon="-0.38441">
        <ele>74.4</ele>
        <time>2022-04-03T09:27:07Z</time>
      </trkpt>
      <trkpt lat="44.80637" lon="-0.38441">
        <ele>74.4</ele>
        <time>2022-04-03T09:27:08Z</time>
      </trkpt>
      <trkpt lat="44.80641" lon="-0.38444">
        <ele>74.6</ele>
        <time>2022-04-03T09:27:09Z</time>
      </trkpt>
      <trkpt lat="44.80644" lon="-0.38447">
        <ele>74.6</ele>
        <time>2022-04-03T09:27:10Z</time>
      </trkpt>
      <trkpt lat="44.80648" lon="-0.3845">
        <ele>75</ele>
        <time>2022-04-03T09:27:11Z</time>
      </trkpt>
      <trkpt lat="44.80651" lon="-0.38453">
        <ele>75.6</ele>
        <time>2022-04-03T09:27:12Z</time>
      </trkpt>
      <trkpt lat="44.80654" lon="-0.38456">
        <ele>76</ele>
        <time>2022-04-03T09:27:13Z</time>
      </trkpt>
      <trkpt lat="44.80658" lon="-0.38458">
        <ele>76.2</ele>
        <time>2022-04-03T09:27:14Z</time>
      </trkpt>
      <trkpt lat="44.80661" lon="-0.3846">
        <ele>76.6</ele>
        <time>2022-04-03T09:27:15Z</time>
      </trkpt>
      <trkpt lat="44.80661" lon="-0.3846">
        <ele>77</ele>
        <time>2022-04-03T09:27:16Z</time>
      </trkpt>
      <trkpt lat="44.8067" lon="-0.38467">
        <ele>77.4</ele>
        <time>2022-04-03T09:27:17Z</time>
      </trkpt>
      <trkpt lat="44.80672" lon="-0.3847">
        <ele>77.6</ele>
        <time>2022-04-03T09:27:18Z</time>
      </trkpt>
      <trkpt lat="44.80672" lon="-0.3847">
        <ele>77.6</ele>
        <time>2022-04-03T09:27:19Z</time>
      </trkpt>
      <trkpt lat="44.80674" lon="-0.38474">
        <ele>77.8</ele>
        <time>2022-04-03T09:27:20Z</time>
      </trkpt>
      <trkpt lat="44.80677" lon="-0.38478">
        <ele>77.8</ele>
        <time>2022-04-03T09:27:21Z</time>
      </trkpt>
      <trkpt lat="44.80679" lon="-0.38481">
        <ele>77.6</ele>
        <time>2022-04-03T09:27:22Z</time>
      </trkpt>
      <trkpt lat="44.80682" lon="-0.38485">
        <ele>77.6</ele>
        <time>2022-04-03T09:27:23Z</time>
      </trkpt>
      <trkpt lat="44.80684" lon="-0.38488">
        <ele>77.6</ele>
        <time>2022-04-03T09:27:24Z</time>
      </trkpt>
      <trkpt lat="44.80686" lon="-0.3849">
        <ele>77.8</ele>
        <time>2022-04-03T09:27:25Z</time>
      </trkpt>
      <trkpt lat="44.80688" lon="-0.38491">
        <ele>77.8</ele>
        <time>2022-04-03T09:27:26Z</time>
      </trkpt>
      <trkpt lat="44.8069" lon="-0.38489">
        <ele>77.8</ele>
        <time>2022-04-03T09:27:27Z</time>
      </trkpt>
      <trkpt lat="44.80691" lon="-0.38488">
        <ele>78.2</ele>
        <time>2022-04-03T09:27:28Z</time>
      </trkpt>
      <trkpt lat="44.80691" lon="-0.38488">
        <ele>78.6</ele>
        <time>2022-04-03T09:27:29Z</time>
      </trkpt>
      <trkpt lat="44.8069" lon="-0.38487">
        <ele>79</ele>
        <time>2022-04-03T09:27:30Z</time>
      </trkpt>
      <trkpt lat="44.8069" lon="-0.38485">
        <ele>79.2</ele>
        <time>2022-04-03T09:27:31Z</time>
      </trkpt>
      <trkpt lat="44.80689" lon="-0.38482">
        <ele>79.8</ele>
        <time>2022-04-03T09:27:32Z</time>
      </trkpt>
      <trkpt lat="44.80688" lon="-0.38478">
        <ele>80.2</ele>
        <time>2022-04-03T09:27:33Z</time>
      </trkpt>
      <trkpt lat="44.80688" lon="-0.38476">
        <ele>80.6</ele>
        <time>2022-04-03T09:27:34Z</time>
      </trkpt>
      <trkpt lat="44.80688" lon="-0.38473">
        <ele>81.2</ele>
        <time>2022-04-03T09:27:35Z</time>
      </trkpt>
      <trkpt lat="44.80688" lon="-0.38473">
        <ele>81.8</ele>
        <time>2022-04-03T09:27:36Z</time>
      </trkpt>
      <trkpt lat="44.80691" lon="-0.38462">
        <ele>82.6</ele>
        <time>2022-04-03T09:27:37Z</time>
      </trkpt>
      <trkpt lat="44.80692" lon="-0.38459">
        <ele>83.4</ele>
        <time>2022-04-03T09:27:38Z</time>
      </trkpt>
      <trkpt lat="44.80693" lon="-0.38456">
        <ele>84</ele>
        <time>2022-04-03T09:27:39Z</time>
      </trkpt>
      <trkpt lat="44.80693" lon="-0.38456">
        <ele>84</ele>
        <time>2022-04-03T09:27:40Z</time>
      </trkpt>
      <trkpt lat="44.80694" lon="-0.38453">
        <ele>84.6</ele>
        <time>2022-04-03T09:27:41Z</time>
      </trkpt>
      <trkpt lat="44.80695" lon="-0.38449">
        <ele>85.2</ele>
        <time>2022-04-03T09:27:42Z</time>
      </trkpt>
      <trkpt lat="44.80696" lon="-0.38446">
        <ele>85.6</ele>
        <time>2022-04-03T09:27:43Z</time>
      </trkpt>
      <trkpt lat="44.80697" lon="-0.38442">
        <ele>86</ele>
        <time>2022-04-03T09:27:44Z</time>
      </trkpt>
      <trkpt lat="44.80697" lon="-0.38438">
        <ele>86.4</ele>
        <time>2022-04-03T09:27:45Z</time>
      </trkpt>
      <trkpt lat="44.80697" lon="-0.38434">
        <ele>87.4</ele>
        <time>2022-04-03T09:27:46Z</time>
      </trkpt>
      <trkpt lat="44.80697" lon="-0.38434">
        <ele>87.4</ele>
        <time>2022-04-03T09:27:47Z</time>
      </trkpt>
      <trkpt lat="44.80691" lon="-0.38423">
        <ele>87.8</ele>
        <time>2022-04-03T09:27:48Z</time>
      </trkpt>
      <trkpt lat="44.80688" lon="-0.3842">
        <ele>87.6</ele>
        <time>2022-04-03T09:27:49Z</time>
      </trkpt>
      <trkpt lat="44.80688" lon="-0.3842">
        <ele>87.8</ele>
        <time>2022-04-03T09:27:50Z</time>
      </trkpt>
      <trkpt lat="44.80685" lon="-0.38418">
        <ele>88</ele>
        <time>2022-04-03T09:27:51Z</time>
      </trkpt>
      <trkpt lat="44.80681" lon="-0.38417">
        <ele>88</ele>
        <time>2022-04-03T09:27:52Z</time>
      </trkpt>
      <trkpt lat="44.80677" lon="-0.38417">
        <ele>87.4</ele>
        <time>2022-04-03T09:27:53Z</time>
      </trkpt>
      <trkpt lat="44.80675" lon="-0.3842">
        <ele>86.6</ele>
        <time>2022-04-03T09:27:54Z</time>
      </trkpt>
      <trkpt lat="44.80674" lon="-0.38424">
        <ele>85.4</ele>
        <time>2022-04-03T09:27:55Z</time>
      </trkpt>
      <trkpt lat="44.80674" lon="-0.38428">
        <ele>84.6</ele>
        <time>2022-04-03T09:27:56Z</time>
      </trkpt>
      <trkpt lat="44.80674" lon="-0.38428">
        <ele>83.8</ele>
        <time>2022-04-03T09:27:57Z</time>
      </trkpt>
      <trkpt lat="44.8067" lon="-0.3842">
        <ele>83.8</ele>
        <time>2022-04-03T09:27:58Z</time>
      </trkpt>
      <trkpt lat="44.80671" lon="-0.38416">
        <ele>84</ele>
        <time>2022-04-03T09:27:59Z</time>
      </trkpt>
      <trkpt lat="44.80671" lon="-0.38412">
        <ele>84.2</ele>
        <time>2022-04-03T09:28:00Z</time>
      </trkpt>
      <trkpt lat="44.80671" lon="-0.38412">
        <ele>84.2</ele>
        <time>2022-04-03T09:28:01Z</time>
      </trkpt>
      <trkpt lat="44.8067" lon="-0.38408">
        <ele>84.6</ele>
        <time>2022-04-03T09:28:02Z</time>
      </trkpt>
      <trkpt lat="44.8067" lon="-0.38403">
        <ele>85</ele>
        <time>2022-04-03T09:28:03Z</time>
      </trkpt>
      <trkpt lat="44.80669" lon="-0.38399">
        <ele>84.2</ele>
        <time>2022-04-03T09:28:04Z</time>
      </trkpt>
      <trkpt lat="44.80667" lon="-0.38396">
        <ele>84.2</ele>
        <time>2022-04-03T09:28:05Z</time>
      </trkpt>
      <trkpt lat="44.80665" lon="-0.38393">
        <ele>84</ele>
        <time>2022-04-03T09:28:06Z</time>
      </trkpt>
      <trkpt lat="44.80662" lon="-0.3839">
        <ele>84.8</ele>
        <time>2022-04-03T09:28:07Z</time>
      </trkpt>
      <trkpt lat="44.80662" lon="-0.3839">
        <ele>84.6</ele>
        <time>2022-04-03T09:28:08Z</time>
      </trkpt>
      <trkpt lat="44.80653" lon="-0.38375">
        <ele>84.8</ele>
        <time>2022-04-03T09:28:09Z</time>
      </trkpt>
      <trkpt lat="44.8065" lon="-0.38369">
        <ele>84.4</ele>
        <time>2022-04-03T09:28:10Z</time>
      </trkpt>
      <trkpt lat="44.8065" lon="-0.38369">
        <ele>83.8</ele>
        <time>2022-04-03T09:28:11Z</time>
      </trkpt>
      <trkpt lat="44.80647" lon="-0.38362">
        <ele>83.2</ele>
        <time>2022-04-03T09:28:12Z</time>
      </trkpt>
      <trkpt lat="44.80645" lon="-0.38355">
        <ele>83.4</ele>
        <time>2022-04-03T09:28:13Z</time>
      </trkpt>
      <trkpt lat="44.80642" lon="-0.38348">
        <ele>84</ele>
        <time>2022-04-03T09:28:14Z</time>
      </trkpt>
      <trkpt lat="44.8064" lon="-0.38341">
        <ele>84.4</ele>
        <time>2022-04-03T09:28:15Z</time>
      </trkpt>
      <trkpt lat="44.80638" lon="-0.38335">
        <ele>84.4</ele>
        <time>2022-04-03T09:28:16Z</time>
      </trkpt>
      <trkpt lat="44.80637" lon="-0.38329">
        <ele>84.4</ele>
        <time>2022-04-03T09:28:17Z</time>
      </trkpt>
      <trkpt lat="44.80633" lon="-0.38317">
        <ele>84.6</ele>
        <time>2022-04-03T09:28:18Z</time>
      </trkpt>
      <trkpt lat="44.80632" lon="-0.38311">
        <ele>84.6</ele>
        <time>2022-04-03T09:28:19Z</time>
      </trkpt>
      <trkpt lat="44.80634" lon="-0.38306">
        <ele>84.8</ele>
        <time>2022-04-03T09:28:20Z</time>
      </trkpt>
      <trkpt lat="44.80635" lon="-0.38302">
        <ele>84.8</ele>
        <time>2022-04-03T09:28:21Z</time>
      </trkpt>
      <trkpt lat="44.80635" lon="-0.38302">
        <ele>84.8</ele>
        <time>2022-04-03T09:28:22Z</time>
      </trkpt>
      <trkpt lat="44.80636" lon="-0.38298">
        <ele>84.8</ele>
        <time>2022-04-03T09:28:23Z</time>
      </trkpt>
      <trkpt lat="44.80635" lon="-0.38293">
        <ele>84.4</ele>
        <time>2022-04-03T09:28:24Z</time>
      </trkpt>
      <trkpt lat="44.80636" lon="-0.38288">
        <ele>84.4</ele>
        <time>2022-04-03T09:28:25Z</time>
      </trkpt>
      <trkpt lat="44.80636" lon="-0.38282">
        <ele>84.2</ele>
        <time>2022-04-03T09:28:26Z</time>
      </trkpt>
      <trkpt lat="44.80637" lon="-0.38276">
        <ele>84.4</ele>
        <time>2022-04-03T09:28:27Z</time>
      </trkpt>
      <trkpt lat="44.80636" lon="-0.38275">
        <ele>84</ele>
        <time>2022-04-03T09:28:28Z</time>
      </trkpt>
      <trkpt lat="44.80631" lon="-0.3828">
        <ele>83.4</ele>
        <time>2022-04-03T09:28:29Z</time>
      </trkpt>
      <trkpt lat="44.80628" lon="-0.38282">
        <ele>82.6</ele>
        <time>2022-04-03T09:28:30Z</time>
      </trkpt>
      <trkpt lat="44.80626" lon="-0.38286">
        <ele>82</ele>
        <time>2022-04-03T09:28:31Z</time>
      </trkpt>
      <trkpt lat="44.80626" lon="-0.38286">
        <ele>81.4</ele>
        <time>2022-04-03T09:28:32Z</time>
      </trkpt>
      <trkpt lat="44.80623" lon="-0.38291">
        <ele>81</ele>
        <time>2022-04-03T09:28:33Z</time>
      </trkpt>
      <trkpt lat="44.80623" lon="-0.38296">
        <ele>80.6</ele>
        <time>2022-04-03T09:28:34Z</time>
      </trkpt>
      <trkpt lat="44.80624" lon="-0.38302">
        <ele>80.6</ele>
        <time>2022-04-03T09:28:35Z</time>
      </trkpt>
      <trkpt lat="44.80625" lon="-0.38305">
        <ele>81</ele>
        <time>2022-04-03T09:28:36Z</time>
      </trkpt>
      <trkpt lat="44.80625" lon="-0.38308">
        <ele>80.8</ele>
        <time>2022-04-03T09:28:37Z</time>
      </trkpt>
      <trkpt lat="44.80625" lon="-0.38308">
        <ele>80.6</ele>
        <time>2022-04-03T09:28:38Z</time>
      </trkpt>
      <trkpt lat="44.80627" lon="-0.38321">
        <ele>80.2</ele>
        <time>2022-04-03T09:28:39Z</time>
      </trkpt>
      <trkpt lat="44.80629" lon="-0.38325">
        <ele>80</ele>
        <time>2022-04-03T09:28:40Z</time>
      </trkpt>
      <trkpt lat="44.8063" lon="-0.38331">
        <ele>80.2</ele>
        <time>2022-04-03T09:28:41Z</time>
      </trkpt>
      <trkpt lat="44.80632" lon="-0.38337">
        <ele>80.4</ele>
        <time>2022-04-03T09:28:42Z</time>
      </trkpt>
      <trkpt lat="44.80632" lon="-0.38337">
        <ele>80.4</ele>
        <time>2022-04-03T09:28:43Z</time>
      </trkpt>
      <trkpt lat="44.80634" lon="-0.38344">
        <ele>80.4</ele>
        <time>2022-04-03T09:28:44Z</time>
      </trkpt>
      <trkpt lat="44.80636" lon="-0.38351">
        <ele>80.6</ele>
        <time>2022-04-03T09:28:45Z</time>
      </trkpt>
      <trkpt lat="44.80637" lon="-0.38359">
        <ele>80.2</ele>
        <time>2022-04-03T09:28:46Z</time>
      </trkpt>
      <trkpt lat="44.80638" lon="-0.38367">
        <ele>80</ele>
        <time>2022-04-03T09:28:47Z</time>
      </trkpt>
      <trkpt lat="44.8064" lon="-0.38375">
        <ele>79.8</ele>
        <time>2022-04-03T09:28:48Z</time>
      </trkpt>
      <trkpt lat="44.8064" lon="-0.38375">
        <ele>79.8</ele>
        <time>2022-04-03T09:28:49Z</time>
      </trkpt>
      <trkpt lat="44.80648" lon="-0.38397">
        <ele>79.6</ele>
        <time>2022-04-03T09:28:50Z</time>
      </trkpt>
      <trkpt lat="44.80652" lon="-0.38404">
        <ele>79.4</ele>
        <time>2022-04-03T09:28:51Z</time>
      </trkpt>
      <trkpt lat="44.80656" lon="-0.3841">
        <ele>79.4</ele>
        <time>2022-04-03T09:28:52Z</time>
      </trkpt>
      <trkpt lat="44.80656" lon="-0.3841">
        <ele>79.6</ele>
        <time>2022-04-03T09:28:53Z</time>
      </trkpt>
      <trkpt lat="44.80659" lon="-0.38414">
        <ele>80</ele>
        <time>2022-04-03T09:28:54Z</time>
      </trkpt>
      <trkpt lat="44.80663" lon="-0.38418">
        <ele>80.4</ele>
        <time>2022-04-03T09:28:55Z</time>
      </trkpt>
      <trkpt lat="44.80666" lon="-0.38421">
        <ele>80.8</ele>
        <time>2022-04-03T09:28:56Z</time>
      </trkpt>
      <trkpt lat="44.80667" lon="-0.38423">
        <ele>81.2</ele>
        <time>2022-04-03T09:28:57Z</time>
      </trkpt>
      <trkpt lat="44.8067" lon="-0.38424">
        <ele>81.6</ele>
        <time>2022-04-03T09:28:58Z</time>
      </trkpt>
      <trkpt lat="44.8067" lon="-0.38424">
        <ele>81.4</ele>
        <time>2022-04-03T09:28:59Z</time>
      </trkpt>
      <trkpt lat="44.8067" lon="-0.38429">
        <ele>80.6</ele>
        <time>2022-04-03T09:29:00Z</time>
      </trkpt>
      <trkpt lat="44.80666" lon="-0.38429">
        <ele>79.6</ele>
        <time>2022-04-03T09:29:01Z</time>
      </trkpt>
      <trkpt lat="44.80663" lon="-0.38428">
        <ele>79</ele>
        <time>2022-04-03T09:29:02Z</time>
      </trkpt>
      <trkpt lat="44.80659" lon="-0.38425">
        <ele>78</ele>
        <time>2022-04-03T09:29:03Z</time>
      </trkpt>
      <trkpt lat="44.80659" lon="-0.38425">
        <ele>78</ele>
        <time>2022-04-03T09:29:04Z</time>
      </trkpt>
      <trkpt lat="44.80651" lon="-0.38418">
        <ele>77.8</ele>
        <time>2022-04-03T09:29:05Z</time>
      </trkpt>
      <trkpt lat="44.80645" lon="-0.38411">
        <ele>77.4</ele>
        <time>2022-04-03T09:29:06Z</time>
      </trkpt>
      <trkpt lat="44.80639" lon="-0.38404">
        <ele>78</ele>
        <time>2022-04-03T09:29:07Z</time>
      </trkpt>
      <trkpt lat="44.80634" lon="-0.38396">
        <ele>77.8</ele>
        <time>2022-04-03T09:29:08Z</time>
      </trkpt>
      <trkpt lat="44.8063" lon="-0.38388">
        <ele>77.6</ele>
        <time>2022-04-03T09:29:09Z</time>
      </trkpt>
      <trkpt lat="44.80626" lon="-0.38381">
        <ele>76.8</ele>
        <time>2022-04-03T09:29:10Z</time>
      </trkpt>
      <trkpt lat="44.80618" lon="-0.3837">
        <ele>76.8</ele>
        <time>2022-04-03T09:29:11Z</time>
      </trkpt>
      <trkpt lat="44.80615" lon="-0.38364">
        <ele>77</ele>
        <time>2022-04-03T09:29:12Z</time>
      </trkpt>
      <trkpt lat="44.8061" lon="-0.38357">
        <ele>77</ele>
        <time>2022-04-03T09:29:13Z</time>
      </trkpt>
      <trkpt lat="44.8061" lon="-0.38357">
        <ele>76.8</ele>
        <time>2022-04-03T09:29:14Z</time>
      </trkpt>
      <trkpt lat="44.80608" lon="-0.3835">
        <ele>77</ele>
        <time>2022-04-03T09:29:15Z</time>
      </trkpt>
      <trkpt lat="44.80607" lon="-0.38342">
        <ele>77.4</ele>
        <time>2022-04-03T09:29:16Z</time>
      </trkpt>
      <trkpt lat="44.80606" lon="-0.38334">
        <ele>77.6</ele>
        <time>2022-04-03T09:29:17Z</time>
      </trkpt>
      <trkpt lat="44.80606" lon="-0.38327">
        <ele>77.4</ele>
        <time>2022-04-03T09:29:18Z</time>
      </trkpt>
      <trkpt lat="44.80607" lon="-0.3832">
        <ele>77.2</ele>
        <time>2022-04-03T09:29:19Z</time>
      </trkpt>
      <trkpt lat="44.80606" lon="-0.38309">
        <ele>77.4</ele>
        <time>2022-04-03T09:29:20Z</time>
      </trkpt>
      <trkpt lat="44.80604" lon="-0.38303">
        <ele>77.6</ele>
        <time>2022-04-03T09:29:21Z</time>
      </trkpt>
      <trkpt lat="44.80601" lon="-0.38299">
        <ele>77.4</ele>
        <time>2022-04-03T09:29:22Z</time>
      </trkpt>
      <trkpt lat="44.80599" lon="-0.38296">
        <ele>76.2</ele>
        <time>2022-04-03T09:29:23Z</time>
      </trkpt>
      <trkpt lat="44.80596" lon="-0.38294">
        <ele>74.8</ele>
        <time>2022-04-03T09:29:24Z</time>
      </trkpt>
      <trkpt lat="44.80596" lon="-0.38294">
        <ele>74.8</ele>
        <time>2022-04-03T09:29:25Z</time>
      </trkpt>
      <trkpt lat="44.80594" lon="-0.38295">
        <ele>74</ele>
        <time>2022-04-03T09:29:26Z</time>
      </trkpt>
      <trkpt lat="44.80592" lon="-0.38298">
        <ele>73.4</ele>
        <time>2022-04-03T09:29:27Z</time>
      </trkpt>
      <trkpt lat="44.80589" lon="-0.383">
        <ele>73</ele>
        <time>2022-04-03T09:29:28Z</time>
      </trkpt>
      <trkpt lat="44.80588" lon="-0.38302">
        <ele>72.6</ele>
        <time>2022-04-03T09:29:29Z</time>
      </trkpt>
      <trkpt lat="44.80588" lon="-0.38302">
        <ele>72.4</ele>
        <time>2022-04-03T09:29:30Z</time>
      </trkpt>
      <trkpt lat="44.80585" lon="-0.38312">
        <ele>72.2</ele>
        <time>2022-04-03T09:29:31Z</time>
      </trkpt>
      <trkpt lat="44.80584" lon="-0.38314">
        <ele>71.8</ele>
        <time>2022-04-03T09:29:32Z</time>
      </trkpt>
      <trkpt lat="44.80582" lon="-0.38314">
        <ele>71.4</ele>
        <time>2022-04-03T09:29:33Z</time>
      </trkpt>
      <trkpt lat="44.8058" lon="-0.38312">
        <ele>70.8</ele>
        <time>2022-04-03T09:29:34Z</time>
      </trkpt>
      <trkpt lat="44.8058" lon="-0.38312">
        <ele>70</ele>
        <time>2022-04-03T09:29:35Z</time>
      </trkpt>
      <trkpt lat="44.80578" lon="-0.38305">
        <ele>69.6</ele>
        <time>2022-04-03T09:29:36Z</time>
      </trkpt>
      <trkpt lat="44.80575" lon="-0.38297">
        <ele>69.4</ele>
        <time>2022-04-03T09:29:37Z</time>
      </trkpt>
      <trkpt lat="44.80574" lon="-0.38289">
        <ele>69.8</ele>
        <time>2022-04-03T09:29:38Z</time>
      </trkpt>
      <trkpt lat="44.80574" lon="-0.38283">
        <ele>70</ele>
        <time>2022-04-03T09:29:39Z</time>
      </trkpt>
      <trkpt lat="44.80574" lon="-0.38283">
        <ele>70.2</ele>
        <time>2022-04-03T09:29:40Z</time>
      </trkpt>
      <trkpt lat="44.80578" lon="-0.38272">
        <ele>70.6</ele>
        <time>2022-04-03T09:29:41Z</time>
      </trkpt>
      <trkpt lat="44.80579" lon="-0.38273">
        <ele>70.8</ele>
        <time>2022-04-03T09:29:42Z</time>
      </trkpt>
      <trkpt lat="44.80581" lon="-0.38277">
        <ele>71</ele>
        <time>2022-04-03T09:29:43Z</time>
      </trkpt>
      <trkpt lat="44.80582" lon="-0.3828">
        <ele>71.4</ele>
        <time>2022-04-03T09:29:44Z</time>
      </trkpt>
      <trkpt lat="44.80582" lon="-0.3828">
        <ele>71.8</ele>
        <time>2022-04-03T09:29:45Z</time>
      </trkpt>
      <trkpt lat="44.80582" lon="-0.3828">
        <ele>71.8</ele>
        <time>2022-04-03T09:29:46Z</time>
      </trkpt>
      <trkpt lat="44.80583" lon="-0.38277">
        <ele>72.2</ele>
        <time>2022-04-03T09:29:47Z</time>
      </trkpt>
      <trkpt lat="44.80584" lon="-0.38274">
        <ele>72.4</ele>
        <time>2022-04-03T09:29:48Z</time>
      </trkpt>
      <trkpt lat="44.80585" lon="-0.38271">
        <ele>72.8</ele>
        <time>2022-04-03T09:29:49Z</time>
      </trkpt>
      <trkpt lat="44.80587" lon="-0.3827">
        <ele>73.2</ele>
        <time>2022-04-03T09:29:50Z</time>
      </trkpt>
      <trkpt lat="44.80587" lon="-0.3827">
        <ele>73.6</ele>
        <time>2022-04-03T09:29:51Z</time>
      </trkpt>
      <trkpt lat="44.80592" lon="-0.38269">
        <ele>74.4</ele>
        <time>2022-04-03T09:29:52Z</time>
      </trkpt>
      <trkpt lat="44.80593" lon="-0.38269">
        <ele>75</ele>
        <time>2022-04-03T09:29:53Z</time>
      </trkpt>
      <trkpt lat="44.80594" lon="-0.3827">
        <ele>75.6</ele>
        <time>2022-04-03T09:29:54Z</time>
      </trkpt>
      <trkpt lat="44.80595" lon="-0.3827">
        <ele>76</ele>
        <time>2022-04-03T09:29:55Z</time>
      </trkpt>
      <trkpt lat="44.80595" lon="-0.3827">
        <ele>76.4</ele>
        <time>2022-04-03T09:29:56Z</time>
      </trkpt>
      <trkpt lat="44.80595" lon="-0.38271">
        <ele>77</ele>
        <time>2022-04-03T09:29:57Z</time>
      </trkpt>
      <trkpt lat="44.80596" lon="-0.38272">
        <ele>77.2</ele>
        <time>2022-04-03T09:29:58Z</time>
      </trkpt>
      <trkpt lat="44.80596" lon="-0.38272">
        <ele>77.8</ele>
        <time>2022-04-03T09:29:59Z</time>
      </trkpt>
      <trkpt lat="44.80596" lon="-0.38271">
        <ele>77.8</ele>
        <time>2022-04-03T09:30:00Z</time>
      </trkpt>
      <trkpt lat="44.80596" lon="-0.38267">
        <ele>78</ele>
        <time>2022-04-03T09:30:01Z</time>
      </trkpt>
      <trkpt lat="44.80595" lon="-0.38263">
        <ele>78.2</ele>
        <time>2022-04-03T09:30:02Z</time>
      </trkpt>
      <trkpt lat="44.80594" lon="-0.3826">
        <ele>78.2</ele>
        <time>2022-04-03T09:30:03Z</time>
      </trkpt>
      <trkpt lat="44.80593" lon="-0.38254">
        <ele>78.2</ele>
        <time>2022-04-03T09:30:04Z</time>
      </trkpt>
      <trkpt lat="44.80592" lon="-0.38248">
        <ele>78</ele>
        <time>2022-04-03T09:30:05Z</time>
      </trkpt>
      <trkpt lat="44.80591" lon="-0.38243">
        <ele>78.2</ele>
        <time>2022-04-03T09:30:06Z</time>
      </trkpt>
      <trkpt lat="44.80591" lon="-0.38243">
        <ele>78.2</ele>
        <time>2022-04-03T09:30:07Z</time>
      </trkpt>
      <trkpt lat="44.80592" lon="-0.38239">
        <ele>78.2</ele>
        <time>2022-04-03T09:30:08Z</time>
      </trkpt>
      <trkpt lat="44.80593" lon="-0.38235">
        <ele>78.4</ele>
        <time>2022-04-03T09:30:09Z</time>
      </trkpt>
      <trkpt lat="44.80595" lon="-0.38234">
        <ele>78.2</ele>
        <time>2022-04-03T09:30:10Z</time>
      </trkpt>
      <trkpt lat="44.80598" lon="-0.38236">
        <ele>78.6</ele>
        <time>2022-04-03T09:30:11Z</time>
      </trkpt>
      <trkpt lat="44.80601" lon="-0.3824">
        <ele>79</ele>
        <time>2022-04-03T09:30:12Z</time>
      </trkpt>
      <trkpt lat="44.80604" lon="-0.38243">
        <ele>79.2</ele>
        <time>2022-04-03T09:30:13Z</time>
      </trkpt>
      <trkpt lat="44.80607" lon="-0.38245">
        <ele>79.4</ele>
        <time>2022-04-03T09:30:14Z</time>
      </trkpt>
      <trkpt lat="44.8061" lon="-0.38244">
        <ele>80</ele>
        <time>2022-04-03T09:30:15Z</time>
      </trkpt>
      <trkpt lat="44.80613" lon="-0.38242">
        <ele>80.8</ele>
        <time>2022-04-03T09:30:16Z</time>
      </trkpt>
      <trkpt lat="44.80613" lon="-0.38242">
        <ele>81.4</ele>
        <time>2022-04-03T09:30:17Z</time>
      </trkpt>
      <trkpt lat="44.80616" lon="-0.38241">
        <ele>81.8</ele>
        <time>2022-04-03T09:30:18Z</time>
      </trkpt>
      <trkpt lat="44.80619" lon="-0.3824">
        <ele>82</ele>
        <time>2022-04-03T09:30:19Z</time>
      </trkpt>
      <trkpt lat="44.80622" lon="-0.38238">
        <ele>81.6</ele>
        <time>2022-04-03T09:30:20Z</time>
      </trkpt>
      <trkpt lat="44.80622" lon="-0.38238">
        <ele>81.2</ele>
        <time>2022-04-03T09:30:21Z</time>
      </trkpt>
      <trkpt lat="44.8062" lon="-0.38227">
        <ele>81.6</ele>
        <time>2022-04-03T09:30:22Z</time>
      </trkpt>
      <trkpt lat="44.80616" lon="-0.38224">
        <ele>80.8</ele>
        <time>2022-04-03T09:30:23Z</time>
      </trkpt>
      <trkpt lat="44.80611" lon="-0.3822">
        <ele>80.2</ele>
        <time>2022-04-03T09:30:24Z</time>
      </trkpt>
      <trkpt lat="44.80606" lon="-0.38215">
        <ele>78.4</ele>
        <time>2022-04-03T09:30:25Z</time>
      </trkpt>
      <trkpt lat="44.806" lon="-0.3821">
        <ele>77.8</ele>
        <time>2022-04-03T09:30:26Z</time>
      </trkpt>
      <trkpt lat="44.80593" lon="-0.38208">
        <ele>76.2</ele>
        <time>2022-04-03T09:30:27Z</time>
      </trkpt>
      <trkpt lat="44.80593" lon="-0.38208">
        <ele>76.2</ele>
        <time>2022-04-03T09:30:28Z</time>
      </trkpt>
      <trkpt lat="44.80586" lon="-0.38207">
        <ele>75.4</ele>
        <time>2022-04-03T09:30:29Z</time>
      </trkpt>
      <trkpt lat="44.8058" lon="-0.38204">
        <ele>74.8</ele>
        <time>2022-04-03T09:30:30Z</time>
      </trkpt>
      <trkpt lat="44.80575" lon="-0.38199">
        <ele>74.4</ele>
        <time>2022-04-03T09:30:31Z</time>
      </trkpt>
      <trkpt lat="44.80575" lon="-0.38199">
        <ele>74</ele>
        <time>2022-04-03T09:30:32Z</time>
      </trkpt>
      <trkpt lat="44.8058" lon="-0.38185">
        <ele>73.6</ele>
        <time>2022-04-03T09:30:33Z</time>
      </trkpt>
      <trkpt lat="44.80582" lon="-0.38179">
        <ele>73</ele>
        <time>2022-04-03T09:30:34Z</time>
      </trkpt>
      <trkpt lat="44.80583" lon="-0.38175">
        <ele>72.2</ele>
        <time>2022-04-03T09:30:35Z</time>
      </trkpt>
      <trkpt lat="44.80585" lon="-0.3817">
        <ele>71.4</ele>
        <time>2022-04-03T09:30:36Z</time>
      </trkpt>
      <trkpt lat="44.80586" lon="-0.38164">
        <ele>71.2</ele>
        <time>2022-04-03T09:30:37Z</time>
      </trkpt>
      <trkpt lat="44.80586" lon="-0.38164">
        <ele>70.2</ele>
        <time>2022-04-03T09:30:38Z</time>
      </trkpt>
      <trkpt lat="44.80587" lon="-0.38158">
        <ele>69.8</ele>
        <time>2022-04-03T09:30:39Z</time>
      </trkpt>
      <trkpt lat="44.80587" lon="-0.38153">
        <ele>69</ele>
        <time>2022-04-03T09:30:40Z</time>
      </trkpt>
      <trkpt lat="44.80584" lon="-0.3815">
        <ele>68.6</ele>
        <time>2022-04-03T09:30:41Z</time>
      </trkpt>
      <trkpt lat="44.80578" lon="-0.38151">
        <ele>68</ele>
        <time>2022-04-03T09:30:42Z</time>
      </trkpt>
      <trkpt lat="44.80575" lon="-0.38156">
        <ele>68.6</ele>
        <time>2022-04-03T09:30:43Z</time>
      </trkpt>
      <trkpt lat="44.80574" lon="-0.38159">
        <ele>69.2</ele>
        <time>2022-04-03T09:30:44Z</time>
      </trkpt>
      <trkpt lat="44.80572" lon="-0.38161">
        <ele>70.4</ele>
        <time>2022-04-03T09:30:45Z</time>
      </trkpt>
      <trkpt lat="44.80571" lon="-0.38162">
        <ele>70.6</ele>
        <time>2022-04-03T09:30:46Z</time>
      </trkpt>
      <trkpt lat="44.80571" lon="-0.38164">
        <ele>70.8</ele>
        <time>2022-04-03T09:30:47Z</time>
      </trkpt>
      <trkpt lat="44.8057" lon="-0.38166">
        <ele>70.6</ele>
        <time>2022-04-03T09:30:48Z</time>
      </trkpt>
      <trkpt lat="44.8057" lon="-0.38166">
        <ele>70.6</ele>
        <time>2022-04-03T09:30:49Z</time>
      </trkpt>
      <trkpt lat="44.8057" lon="-0.3817">
        <ele>71</ele>
        <time>2022-04-03T09:30:50Z</time>
      </trkpt>
      <trkpt lat="44.8057" lon="-0.38174">
        <ele>71.4</ele>
        <time>2022-04-03T09:30:51Z</time>
      </trkpt>
      <trkpt lat="44.8057" lon="-0.38177">
        <ele>71.8</ele>
        <time>2022-04-03T09:30:52Z</time>
      </trkpt>
      <trkpt lat="44.80571" lon="-0.38184">
        <ele>72</ele>
        <time>2022-04-03T09:30:53Z</time>
      </trkpt>
      <trkpt lat="44.80572" lon="-0.38187">
        <ele>72.2</ele>
        <time>2022-04-03T09:30:54Z</time>
      </trkpt>
      <trkpt lat="44.80574" lon="-0.3819">
        <ele>72.4</ele>
        <time>2022-04-03T09:30:55Z</time>
      </trkpt>
      <trkpt lat="44.80575" lon="-0.38194">
        <ele>72.6</ele>
        <time>2022-04-03T09:30:56Z</time>
      </trkpt>
      <trkpt lat="44.80576" lon="-0.38198">
        <ele>72.8</ele>
        <time>2022-04-03T09:30:57Z</time>
      </trkpt>
      <trkpt lat="44.80577" lon="-0.38201">
        <ele>72.8</ele>
        <time>2022-04-03T09:30:58Z</time>
      </trkpt>
      <trkpt lat="44.80577" lon="-0.38201">
        <ele>72.6</ele>
        <time>2022-04-03T09:30:59Z</time>
      </trkpt>
      <trkpt lat="44.80578" lon="-0.38204">
        <ele>72.8</ele>
        <time>2022-04-03T09:31:00Z</time>
      </trkpt>
      <trkpt lat="44.8058" lon="-0.38207">
        <ele>73</ele>
        <time>2022-04-03T09:31:01Z</time>
      </trkpt>
      <trkpt lat="44.8058" lon="-0.38207">
        <ele>73.4</ele>
        <time>2022-04-03T09:31:02Z</time>
      </trkpt>
      <trkpt lat="44.80586" lon="-0.38212">
        <ele>74</ele>
        <time>2022-04-03T09:31:03Z</time>
      </trkpt>
      <trkpt lat="44.80588" lon="-0.38213">
        <ele>74.4</ele>
        <time>2022-04-03T09:31:04Z</time>
      </trkpt>
      <trkpt lat="44.80589" lon="-0.38216">
        <ele>74.4</ele>
        <time>2022-04-03T09:31:05Z</time>
      </trkpt>
      <trkpt lat="44.80588" lon="-0.38219">
        <ele>74.4</ele>
        <time>2022-04-03T09:31:06Z</time>
      </trkpt>
      <trkpt lat="44.80586" lon="-0.38222">
        <ele>73.8</ele>
        <time>2022-04-03T09:31:07Z</time>
      </trkpt>
      <trkpt lat="44.80584" lon="-0.38226">
        <ele>73.8</ele>
        <time>2022-04-03T09:31:08Z</time>
      </trkpt>
      <trkpt lat="44.80581" lon="-0.38228">
        <ele>73</ele>
        <time>2022-04-03T09:31:09Z</time>
      </trkpt>
      <trkpt lat="44.80581" lon="-0.38228">
        <ele>73</ele>
        <time>2022-04-03T09:31:10Z</time>
      </trkpt>
      <trkpt lat="44.80579" lon="-0.38229">
        <ele>72.8</ele>
        <time>2022-04-03T09:31:11Z</time>
      </trkpt>
      <trkpt lat="44.80578" lon="-0.38229">
        <ele>72.2</ele>
        <time>2022-04-03T09:31:12Z</time>
      </trkpt>
      <trkpt lat="44.80578" lon="-0.38229">
        <ele>72</ele>
        <time>2022-04-03T09:31:13Z</time>
      </trkpt>
      <trkpt lat="44.80571" lon="-0.38231">
        <ele>71</ele>
        <time>2022-04-03T09:31:14Z</time>
      </trkpt>
      <trkpt lat="44.80568" lon="-0.38232">
        <ele>70.6</ele>
        <time>2022-04-03T09:31:15Z</time>
      </trkpt>
      <trkpt lat="44.80564" lon="-0.38233">
        <ele>70.4</ele>
        <time>2022-04-03T09:31:16Z</time>
      </trkpt>
      <trkpt lat="44.80559" lon="-0.38235">
        <ele>70.4</ele>
        <time>2022-04-03T09:31:17Z</time>
      </trkpt>
      <trkpt lat="44.80555" lon="-0.38236">
        <ele>70.2</ele>
        <time>2022-04-03T09:31:18Z</time>
      </trkpt>
      <trkpt lat="44.80551" lon="-0.38234">
        <ele>69.4</ele>
        <time>2022-04-03T09:31:19Z</time>
      </trkpt>
      <trkpt lat="44.80551" lon="-0.38234">
        <ele>69.2</ele>
        <time>2022-04-03T09:31:20Z</time>
      </trkpt>
      <trkpt lat="44.8055" lon="-0.3823">
        <ele>68.8</ele>
        <time>2022-04-03T09:31:21Z</time>
      </trkpt>
      <trkpt lat="44.8055" lon="-0.38227">
        <ele>68.8</ele>
        <time>2022-04-03T09:31:22Z</time>
      </trkpt>
      <trkpt lat="44.8055" lon="-0.38219">
        <ele>69.4</ele>
        <time>2022-04-03T09:31:23Z</time>
      </trkpt>
      <trkpt lat="44.80549" lon="-0.38215">
        <ele>70</ele>
        <time>2022-04-03T09:31:24Z</time>
      </trkpt>
      <trkpt lat="44.80549" lon="-0.38211">
        <ele>70.4</ele>
        <time>2022-04-03T09:31:25Z</time>
      </trkpt>
      <trkpt lat="44.80549" lon="-0.38207">
        <ele>70.6</ele>
        <time>2022-04-03T09:31:26Z</time>
      </trkpt>
      <trkpt lat="44.8055" lon="-0.38204">
        <ele>70.8</ele>
        <time>2022-04-03T09:31:27Z</time>
      </trkpt>
      <trkpt lat="44.80551" lon="-0.38202">
        <ele>70.8</ele>
        <time>2022-04-03T09:31:28Z</time>
      </trkpt>
      <trkpt lat="44.80552" lon="-0.382">
        <ele>71.2</ele>
        <time>2022-04-03T09:31:29Z</time>
      </trkpt>
      <trkpt lat="44.80552" lon="-0.38198">
        <ele>71.4</ele>
        <time>2022-04-03T09:31:30Z</time>
      </trkpt>
      <trkpt lat="44.80552" lon="-0.38198">
        <ele>71.4</ele>
        <time>2022-04-03T09:31:31Z</time>
      </trkpt>
      <trkpt lat="44.80553" lon="-0.38196">
        <ele>71.8</ele>
        <time>2022-04-03T09:31:32Z</time>
      </trkpt>
      <trkpt lat="44.80553" lon="-0.38193">
        <ele>71.2</ele>
        <time>2022-04-03T09:31:33Z</time>
      </trkpt>
      <trkpt lat="44.80552" lon="-0.38187">
        <ele>70.6</ele>
        <time>2022-04-03T09:31:34Z</time>
      </trkpt>
      <trkpt lat="44.8055" lon="-0.38186">
        <ele>69.8</ele>
        <time>2022-04-03T09:31:35Z</time>
      </trkpt>
      <trkpt lat="44.80548" lon="-0.38184">
        <ele>69.2</ele>
        <time>2022-04-03T09:31:36Z</time>
      </trkpt>
      <trkpt lat="44.80545" lon="-0.38183">
        <ele>68.8</ele>
        <time>2022-04-03T09:31:37Z</time>
      </trkpt>
      <trkpt lat="44.80543" lon="-0.3818">
        <ele>68.2</ele>
        <time>2022-04-03T09:31:38Z</time>
      </trkpt>
      <trkpt lat="44.80544" lon="-0.38176">
        <ele>68</ele>
        <time>2022-04-03T09:31:39Z</time>
      </trkpt>
      <trkpt lat="44.80546" lon="-0.38173">
        <ele>67.4</ele>
        <time>2022-04-03T09:31:40Z</time>
      </trkpt>
      <trkpt lat="44.80546" lon="-0.38173">
        <ele>67.2</ele>
        <time>2022-04-03T09:31:41Z</time>
      </trkpt>
      <trkpt lat="44.80548" lon="-0.38169">
        <ele>66.8</ele>
        <time>2022-04-03T09:31:42Z</time>
      </trkpt>
      <trkpt lat="44.80551" lon="-0.38166">
        <ele>66.8</ele>
        <time>2022-04-03T09:31:43Z</time>
      </trkpt>
      <trkpt lat="44.80554" lon="-0.3816">
        <ele>66.6</ele>
        <time>2022-04-03T09:31:44Z</time>
      </trkpt>
      <trkpt lat="44.80555" lon="-0.38159">
        <ele>66.6</ele>
        <time>2022-04-03T09:31:45Z</time>
      </trkpt>
      <trkpt lat="44.80555" lon="-0.38158">
        <ele>66</ele>
        <time>2022-04-03T09:31:46Z</time>
      </trkpt>
      <trkpt lat="44.80556" lon="-0.38157">
        <ele>65.8</ele>
        <time>2022-04-03T09:31:47Z</time>
      </trkpt>
      <trkpt lat="44.80558" lon="-0.38155">
        <ele>65.4</ele>
        <time>2022-04-03T09:31:48Z</time>
      </trkpt>
      <trkpt lat="44.80559" lon="-0.38155">
        <ele>65.8</ele>
        <time>2022-04-03T09:31:49Z</time>
      </trkpt>
      <trkpt lat="44.80561" lon="-0.38154">
        <ele>65.8</ele>
        <time>2022-04-03T09:31:50Z</time>
      </trkpt>
      <trkpt lat="44.80563" lon="-0.38153">
        <ele>66</ele>
        <time>2022-04-03T09:31:51Z</time>
      </trkpt>
      <trkpt lat="44.80563" lon="-0.38153">
        <ele>66</ele>
        <time>2022-04-03T09:31:52Z</time>
      </trkpt>
      <trkpt lat="44.80564" lon="-0.38152">
        <ele>66.2</ele>
        <time>2022-04-03T09:31:53Z</time>
      </trkpt>
      <trkpt lat="44.80564" lon="-0.38152">
        <ele>66.4</ele>
        <time>2022-04-03T09:31:54Z</time>
      </trkpt>
      <trkpt lat="44.80571" lon="-0.38142">
        <ele>66.8</ele>
        <time>2022-04-03T09:31:55Z</time>
      </trkpt>
      <trkpt lat="44.80572" lon="-0.38143">
        <ele>67</ele>
        <time>2022-04-03T09:31:56Z</time>
      </trkpt>
      <trkpt lat="44.80574" lon="-0.38145">
        <ele>67.2</ele>
        <time>2022-04-03T09:31:57Z</time>
      </trkpt>
      <trkpt lat="44.80575" lon="-0.38147">
        <ele>67.8</ele>
        <time>2022-04-03T09:31:58Z</time>
      </trkpt>
      <trkpt lat="44.80576" lon="-0.38148">
        <ele>68.2</ele>
        <time>2022-04-03T09:31:59Z</time>
      </trkpt>
      <trkpt lat="44.80578" lon="-0.38148">
        <ele>68.8</ele>
        <time>2022-04-03T09:32:00Z</time>
      </trkpt>
      <trkpt lat="44.8058" lon="-0.38148">
        <ele>69.2</ele>
        <time>2022-04-03T09:32:01Z</time>
      </trkpt>
      <trkpt lat="44.8058" lon="-0.38148">
        <ele>70.2</ele>
        <time>2022-04-03T09:32:02Z</time>
      </trkpt>
      <trkpt lat="44.80582" lon="-0.38146">
        <ele>71</ele>
        <time>2022-04-03T09:32:03Z</time>
      </trkpt>
      <trkpt lat="44.80588" lon="-0.38148">
        <ele>72</ele>
        <time>2022-04-03T09:32:04Z</time>
      </trkpt>
      <trkpt lat="44.8059" lon="-0.3815">
        <ele>72.6</ele>
        <time>2022-04-03T09:32:05Z</time>
      </trkpt>
      <trkpt lat="44.80593" lon="-0.38152">
        <ele>73</ele>
        <time>2022-04-03T09:32:06Z</time>
      </trkpt>
      <trkpt lat="44.80596" lon="-0.38154">
        <ele>73.2</ele>
        <time>2022-04-03T09:32:07Z</time>
      </trkpt>
      <trkpt lat="44.80597" lon="-0.38156">
        <ele>73.6</ele>
        <time>2022-04-03T09:32:08Z</time>
      </trkpt>
      <trkpt lat="44.80597" lon="-0.38158">
        <ele>73.4</ele>
        <time>2022-04-03T09:32:09Z</time>
      </trkpt>
      <trkpt lat="44.80597" lon="-0.38161">
        <ele>73.6</ele>
        <time>2022-04-03T09:32:10Z</time>
      </trkpt>
      <trkpt lat="44.80597" lon="-0.38164">
        <ele>74</ele>
        <time>2022-04-03T09:32:11Z</time>
      </trkpt>
      <trkpt lat="44.80595" lon="-0.38166">
        <ele>74.6</ele>
        <time>2022-04-03T09:32:12Z</time>
      </trkpt>
      <trkpt lat="44.80595" lon="-0.38166">
        <ele>74.6</ele>
        <time>2022-04-03T09:32:13Z</time>
      </trkpt>
      <trkpt lat="44.80595" lon="-0.3817">
        <ele>75</ele>
        <time>2022-04-03T09:32:14Z</time>
      </trkpt>
      <trkpt lat="44.80599" lon="-0.38177">
        <ele>75.2</ele>
        <time>2022-04-03T09:32:15Z</time>
      </trkpt>
      <trkpt lat="44.80601" lon="-0.38179">
        <ele>75.6</ele>
        <time>2022-04-03T09:32:16Z</time>
      </trkpt>
      <trkpt lat="44.80604" lon="-0.38181">
        <ele>76</ele>
        <time>2022-04-03T09:32:17Z</time>
      </trkpt>
      <trkpt lat="44.80607" lon="-0.38182">
        <ele>76.4</ele>
        <time>2022-04-03T09:32:18Z</time>
      </trkpt>
      <trkpt lat="44.80611" lon="-0.38182">
        <ele>76.6</ele>
        <time>2022-04-03T09:32:19Z</time>
      </trkpt>
      <trkpt lat="44.80613" lon="-0.38182">
        <ele>76.8</ele>
        <time>2022-04-03T09:32:20Z</time>
      </trkpt>
      <trkpt lat="44.80616" lon="-0.38183">
        <ele>77</ele>
        <time>2022-04-03T09:32:21Z</time>
      </trkpt>
      <trkpt lat="44.80619" lon="-0.38183">
        <ele>77.4</ele>
        <time>2022-04-03T09:32:22Z</time>
      </trkpt>
      <trkpt lat="44.80619" lon="-0.38183">
        <ele>77.8</ele>
        <time>2022-04-03T09:32:23Z</time>
      </trkpt>
      <trkpt lat="44.80621" lon="-0.38183">
        <ele>78</ele>
        <time>2022-04-03T09:32:24Z</time>
      </trkpt>
      <trkpt lat="44.80625" lon="-0.38184">
        <ele>78.4</ele>
        <time>2022-04-03T09:32:25Z</time>
      </trkpt>
      <trkpt lat="44.80627" lon="-0.38184">
        <ele>78.4</ele>
        <time>2022-04-03T09:32:26Z</time>
      </trkpt>
      <trkpt lat="44.8063" lon="-0.38184">
        <ele>79</ele>
        <time>2022-04-03T09:32:27Z</time>
      </trkpt>
      <trkpt lat="44.80632" lon="-0.38186">
        <ele>79.4</ele>
        <time>2022-04-03T09:32:28Z</time>
      </trkpt>
      <trkpt lat="44.80634" lon="-0.38189">
        <ele>80</ele>
        <time>2022-04-03T09:32:29Z</time>
      </trkpt>
      <trkpt lat="44.80635" lon="-0.38191">
        <ele>80.4</ele>
        <time>2022-04-03T09:32:30Z</time>
      </trkpt>
      <trkpt lat="44.80636" lon="-0.38194">
        <ele>80.8</ele>
        <time>2022-04-03T09:32:31Z</time>
      </trkpt>
      <trkpt lat="44.80637" lon="-0.38197">
        <ele>81</ele>
        <time>2022-04-03T09:32:32Z</time>
      </trkpt>
      <trkpt lat="44.80638" lon="-0.382">
        <ele>81.2</ele>
        <time>2022-04-03T09:32:33Z</time>
      </trkpt>
      <trkpt lat="44.80638" lon="-0.382">
        <ele>81.2</ele>
        <time>2022-04-03T09:32:34Z</time>
      </trkpt>
      <trkpt lat="44.80638" lon="-0.382">
        <ele>81.4</ele>
        <time>2022-04-03T09:32:35Z</time>
      </trkpt>
      <trkpt lat="44.8064" lon="-0.38209">
        <ele>82</ele>
        <time>2022-04-03T09:32:36Z</time>
      </trkpt>
      <trkpt lat="44.80641" lon="-0.38213">
        <ele>82.6</ele>
        <time>2022-04-03T09:32:37Z</time>
      </trkpt>
      <trkpt lat="44.80641" lon="-0.38217">
        <ele>83</ele>
        <time>2022-04-03T09:32:38Z</time>
      </trkpt>
      <trkpt lat="44.80642" lon="-0.3822">
        <ele>83.4</ele>
        <time>2022-04-03T09:32:39Z</time>
      </trkpt>
      <trkpt lat="44.80644" lon="-0.38221">
        <ele>83.8</ele>
        <time>2022-04-03T09:32:40Z</time>
      </trkpt>
      <trkpt lat="44.80645" lon="-0.38223">
        <ele>84.2</ele>
        <time>2022-04-03T09:32:41Z</time>
      </trkpt>
      <trkpt lat="44.80647" lon="-0.38227">
        <ele>84.8</ele>
        <time>2022-04-03T09:32:42Z</time>
      </trkpt>
      <trkpt lat="44.80648" lon="-0.3823">
        <ele>85.4</ele>
        <time>2022-04-03T09:32:43Z</time>
      </trkpt>
      <trkpt lat="44.80648" lon="-0.3823">
        <ele>85.6</ele>
        <time>2022-04-03T09:32:44Z</time>
      </trkpt>
      <trkpt lat="44.80648" lon="-0.3823">
        <ele>86.2</ele>
        <time>2022-04-03T09:32:45Z</time>
      </trkpt>
      <trkpt lat="44.80653" lon="-0.38242">
        <ele>86.4</ele>
        <time>2022-04-03T09:32:46Z</time>
      </trkpt>
      <trkpt lat="44.80655" lon="-0.38246">
        <ele>86.6</ele>
        <time>2022-04-03T09:32:47Z</time>
      </trkpt>
      <trkpt lat="44.80656" lon="-0.3825">
        <ele>86.6</ele>
        <time>2022-04-03T09:32:48Z</time>
      </trkpt>
      <trkpt lat="44.80657" lon="-0.38254">
        <ele>86.8</ele>
        <time>2022-04-03T09:32:49Z</time>
      </trkpt>
      <trkpt lat="44.80657" lon="-0.38259">
        <ele>87</ele>
        <time>2022-04-03T09:32:50Z</time>
      </trkpt>
      <trkpt lat="44.80656" lon="-0.38263">
        <ele>87.4</ele>
        <time>2022-04-03T09:32:51Z</time>
      </trkpt>
      <trkpt lat="44.80655" lon="-0.38267">
        <ele>88</ele>
        <time>2022-04-03T09:32:52Z</time>
      </trkpt>
      <trkpt lat="44.80654" lon="-0.38271">
        <ele>88</ele>
        <time>2022-04-03T09:32:53Z</time>
      </trkpt>
      <trkpt lat="44.80654" lon="-0.38276">
        <ele>88.4</ele>
        <time>2022-04-03T09:32:54Z</time>
      </trkpt>
      <trkpt lat="44.80654" lon="-0.38276">
        <ele>88.4</ele>
        <time>2022-04-03T09:32:55Z</time>
      </trkpt>
      <trkpt lat="44.80654" lon="-0.38276">
        <ele>88.6</ele>
        <time>2022-04-03T09:32:56Z</time>
      </trkpt>
      <trkpt lat="44.80656" lon="-0.38291">
        <ele>89</ele>
        <time>2022-04-03T09:32:57Z</time>
      </trkpt>
      <trkpt lat="44.80658" lon="-0.38295">
        <ele>89.2</ele>
        <time>2022-04-03T09:32:58Z</time>
      </trkpt>
      <trkpt lat="44.80661" lon="-0.38298">
        <ele>89.2</ele>
        <time>2022-04-03T09:32:59Z</time>
      </trkpt>
      <trkpt lat="44.80663" lon="-0.383">
        <ele>89.2</ele>
        <time>2022-04-03T09:33:00Z</time>
      </trkpt>
      <trkpt lat="44.80666" lon="-0.38302">
        <ele>89.6</ele>
        <time>2022-04-03T09:33:01Z</time>
      </trkpt>
      <trkpt lat="44.80669" lon="-0.38304">
        <ele>89.8</ele>
        <time>2022-04-03T09:33:02Z</time>
      </trkpt>
      <trkpt lat="44.80672" lon="-0.38306">
        <ele>89.8</ele>
        <time>2022-04-03T09:33:03Z</time>
      </trkpt>
      <trkpt lat="44.80675" lon="-0.38307">
        <ele>89.6</ele>
        <time>2022-04-03T09:33:04Z</time>
      </trkpt>
      <trkpt lat="44.80675" lon="-0.38307">
        <ele>89.2</ele>
        <time>2022-04-03T09:33:05Z</time>
      </trkpt>
      <trkpt lat="44.80675" lon="-0.38307">
        <ele>89</ele>
        <time>2022-04-03T09:33:06Z</time>
      </trkpt>
      <trkpt lat="44.80685" lon="-0.38312">
        <ele>88.6</ele>
        <time>2022-04-03T09:33:07Z</time>
      </trkpt>
      <trkpt lat="44.8069" lon="-0.38316">
        <ele>88.8</ele>
        <time>2022-04-03T09:33:08Z</time>
      </trkpt>
      <trkpt lat="44.80693" lon="-0.38321">
        <ele>88.8</ele>
        <time>2022-04-03T09:33:09Z</time>
      </trkpt>
      <trkpt lat="44.80696" lon="-0.38327">
        <ele>89.2</ele>
        <time>2022-04-03T09:33:10Z</time>
      </trkpt>
      <trkpt lat="44.80699" lon="-0.38333">
        <ele>89.4</ele>
        <time>2022-04-03T09:33:11Z</time>
      </trkpt>
      <trkpt lat="44.80702" lon="-0.38338">
        <ele>89.8</ele>
        <time>2022-04-03T09:33:12Z</time>
      </trkpt>
      <trkpt lat="44.80705" lon="-0.38344">
        <ele>89.8</ele>
        <time>2022-04-03T09:33:13Z</time>
      </trkpt>
      <trkpt lat="44.80708" lon="-0.38349">
        <ele>89.8</ele>
        <time>2022-04-03T09:33:14Z</time>
      </trkpt>
      <trkpt lat="44.80708" lon="-0.38349">
        <ele>89.6</ele>
        <time>2022-04-03T09:33:15Z</time>
      </trkpt>
      <trkpt lat="44.80708" lon="-0.38349">
        <ele>89.6</ele>
        <time>2022-04-03T09:33:16Z</time>
      </trkpt>
      <trkpt lat="44.80718" lon="-0.38363">
        <ele>89.6</ele>
        <time>2022-04-03T09:33:17Z</time>
      </trkpt>
      <trkpt lat="44.80721" lon="-0.38368">
        <ele>89.8</ele>
        <time>2022-04-03T09:33:18Z</time>
      </trkpt>
      <trkpt lat="44.80723" lon="-0.38372">
        <ele>89.8</ele>
        <time>2022-04-03T09:33:19Z</time>
      </trkpt>
      <trkpt lat="44.80727" lon="-0.38376">
        <ele>90</ele>
        <time>2022-04-03T09:33:20Z</time>
      </trkpt>
      <trkpt lat="44.8073" lon="-0.3838">
        <ele>89.4</ele>
        <time>2022-04-03T09:33:21Z</time>
      </trkpt>
      <trkpt lat="44.80734" lon="-0.38383">
        <ele>89.4</ele>
        <time>2022-04-03T09:33:22Z</time>
      </trkpt>
      <trkpt lat="44.80738" lon="-0.38385">
        <ele>89.4</ele>
        <time>2022-04-03T09:33:23Z</time>
      </trkpt>
      <trkpt lat="44.80741" lon="-0.38385">
        <ele>89.8</ele>
        <time>2022-04-03T09:33:24Z</time>
      </trkpt>
      <trkpt lat="44.80741" lon="-0.38385">
        <ele>90</ele>
        <time>2022-04-03T09:33:25Z</time>
      </trkpt>
      <trkpt lat="44.80741" lon="-0.38385">
        <ele>90</ele>
        <time>2022-04-03T09:33:26Z</time>
      </trkpt>
      <trkpt lat="44.80742" lon="-0.38377">
        <ele>90.6</ele>
        <time>2022-04-03T09:33:27Z</time>
      </trkpt>
      <trkpt lat="44.8074" lon="-0.38375">
        <ele>91</ele>
        <time>2022-04-03T09:33:28Z</time>
      </trkpt>
      <trkpt lat="44.80739" lon="-0.38374">
        <ele>91.6</ele>
        <time>2022-04-03T09:33:29Z</time>
      </trkpt>
      <trkpt lat="44.80738" lon="-0.38373">
        <ele>91.6</ele>
        <time>2022-04-03T09:33:30Z</time>
      </trkpt>
      <trkpt lat="44.80737" lon="-0.38371">
        <ele>92</ele>
        <time>2022-04-03T09:33:31Z</time>
      </trkpt>
      <trkpt lat="44.80737" lon="-0.38369">
        <ele>92.4</ele>
        <time>2022-04-03T09:33:32Z</time>
      </trkpt>
      <trkpt lat="44.80736" lon="-0.38368">
        <ele>92.8</ele>
        <time>2022-04-03T09:33:33Z</time>
      </trkpt>
      <trkpt lat="44.80735" lon="-0.38367">
        <ele>93.2</ele>
        <time>2022-04-03T09:33:34Z</time>
      </trkpt>
      <trkpt lat="44.80736" lon="-0.38366">
        <ele>93.4</ele>
        <time>2022-04-03T09:33:35Z</time>
      </trkpt>
      <trkpt lat="44.80736" lon="-0.38366">
        <ele>93.8</ele>
        <time>2022-04-03T09:33:36Z</time>
      </trkpt>
      <trkpt lat="44.80736" lon="-0.38366">
        <ele>93.8</ele>
        <time>2022-04-03T09:33:37Z</time>
      </trkpt>
      <trkpt lat="44.8074" lon="-0.38367">
        <ele>94.2</ele>
        <time>2022-04-03T09:33:38Z</time>
      </trkpt>
      <trkpt lat="44.8074" lon="-0.38367">
        <ele>94.6</ele>
        <time>2022-04-03T09:33:39Z</time>
      </trkpt>
      <trkpt lat="44.8074" lon="-0.38366">
        <ele>95.2</ele>
        <time>2022-04-03T09:33:40Z</time>
      </trkpt>
      <trkpt lat="44.80739" lon="-0.38366">
        <ele>95.4</ele>
        <time>2022-04-03T09:33:41Z</time>
      </trkpt>
      <trkpt lat="44.80739" lon="-0.38365">
        <ele>95.4</ele>
        <time>2022-04-03T09:33:42Z</time>
      </trkpt>
      <trkpt lat="44.80739" lon="-0.38365">
        <ele>95.6</ele>
        <time>2022-04-03T09:33:43Z</time>
      </trkpt>
      <trkpt lat="44.8074" lon="-0.38364">
        <ele>95.8</ele>
        <time>2022-04-03T09:33:44Z</time>
      </trkpt>
      <trkpt lat="44.80741" lon="-0.38361">
        <ele>96.8</ele>
        <time>2022-04-03T09:33:45Z</time>
      </trkpt>
      <trkpt lat="44.80741" lon="-0.38361">
        <ele>97.2</ele>
        <time>2022-04-03T09:33:46Z</time>
      </trkpt>
      <trkpt lat="44.80743" lon="-0.38357">
        <ele>97.6</ele>
        <time>2022-04-03T09:33:47Z</time>
      </trkpt>
      <trkpt lat="44.80744" lon="-0.38355">
        <ele>97.4</ele>
        <time>2022-04-03T09:33:48Z</time>
      </trkpt>
      <trkpt lat="44.80744" lon="-0.38354">
        <ele>97.4</ele>
        <time>2022-04-03T09:33:49Z</time>
      </trkpt>
      <trkpt lat="44.80745" lon="-0.38352">
        <ele>97.6</ele>
        <time>2022-04-03T09:33:50Z</time>
      </trkpt>
      <trkpt lat="44.80745" lon="-0.3835">
        <ele>97.4</ele>
        <time>2022-04-03T09:33:51Z</time>
      </trkpt>
      <trkpt lat="44.80746" lon="-0.38348">
        <ele>97.4</ele>
        <time>2022-04-03T09:33:52Z</time>
      </trkpt>
      <trkpt lat="44.80747" lon="-0.38346">
        <ele>97</ele>
        <time>2022-04-03T09:33:53Z</time>
      </trkpt>
      <trkpt lat="44.80749" lon="-0.38345">
        <ele>97</ele>
        <time>2022-04-03T09:33:54Z</time>
      </trkpt>
      <trkpt lat="44.80751" lon="-0.38345">
        <ele>96.4</ele>
        <time>2022-04-03T09:33:55Z</time>
      </trkpt>
      <trkpt lat="44.80752" lon="-0.38344">
        <ele>96.2</ele>
        <time>2022-04-03T09:33:56Z</time>
      </trkpt>
      <trkpt lat="44.80752" lon="-0.38344">
        <ele>96</ele>
        <time>2022-04-03T09:33:57Z</time>
      </trkpt>
      <trkpt lat="44.80758" lon="-0.38338">
        <ele>96</ele>
        <time>2022-04-03T09:33:58Z</time>
      </trkpt>
      <trkpt lat="44.8076" lon="-0.38334">
        <ele>95.8</ele>
        <time>2022-04-03T09:33:59Z</time>
      </trkpt>
      <trkpt lat="44.80762" lon="-0.3833">
        <ele>95.6</ele>
        <time>2022-04-03T09:34:00Z</time>
      </trkpt>
      <trkpt lat="44.80765" lon="-0.38325">
        <ele>94.6</ele>
        <time>2022-04-03T09:34:01Z</time>
      </trkpt>
      <trkpt lat="44.80768" lon="-0.38319">
        <ele>93.4</ele>
        <time>2022-04-03T09:34:02Z</time>
      </trkpt>
      <trkpt lat="44.80772" lon="-0.38314">
        <ele>92.2</ele>
        <time>2022-04-03T09:34:03Z</time>
      </trkpt>
      <trkpt lat="44.80775" lon="-0.38309">
        <ele>91.2</ele>
        <time>2022-04-03T09:34:04Z</time>
      </trkpt>
      <trkpt lat="44.80777" lon="-0.38306">
        <ele>90.2</ele>
        <time>2022-04-03T09:34:05Z</time>
      </trkpt>
      <trkpt lat="44.80777" lon="-0.38306">
        <ele>88.6</ele>
        <time>2022-04-03T09:34:06Z</time>
      </trkpt>
      <trkpt lat="44.80777" lon="-0.38306">
        <ele>88.2</ele>
        <time>2022-04-03T09:34:07Z</time>
      </trkpt>
      <trkpt lat="44.80787" lon="-0.38302">
        <ele>88.2</ele>
        <time>2022-04-03T09:34:08Z</time>
      </trkpt>
      <trkpt lat="44.80791" lon="-0.38302">
        <ele>88.4</ele>
        <time>2022-04-03T09:34:09Z</time>
      </trkpt>
      <trkpt lat="44.80796" lon="-0.38303">
        <ele>88.2</ele>
        <time>2022-04-03T09:34:10Z</time>
      </trkpt>
      <trkpt lat="44.80799" lon="-0.38305">
        <ele>88.6</ele>
        <time>2022-04-03T09:34:11Z</time>
      </trkpt>
      <trkpt lat="44.80803" lon="-0.38308">
        <ele>88.8</ele>
        <time>2022-04-03T09:34:12Z</time>
      </trkpt>
      <trkpt lat="44.80806" lon="-0.38312">
        <ele>88.4</ele>
        <time>2022-04-03T09:34:13Z</time>
      </trkpt>
      <trkpt lat="44.80807" lon="-0.38316">
        <ele>88.6</ele>
        <time>2022-04-03T09:34:14Z</time>
      </trkpt>
      <trkpt lat="44.80806" lon="-0.38319">
        <ele>88.4</ele>
        <time>2022-04-03T09:34:15Z</time>
      </trkpt>
      <trkpt lat="44.80803" lon="-0.3832">
        <ele>89</ele>
        <time>2022-04-03T09:34:16Z</time>
      </trkpt>
      <trkpt lat="44.80803" lon="-0.3832">
        <ele>89</ele>
        <time>2022-04-03T09:34:17Z</time>
      </trkpt>
      <trkpt lat="44.80803" lon="-0.3832">
        <ele>89.6</ele>
        <time>2022-04-03T09:34:18Z</time>
      </trkpt>
      <trkpt lat="44.80794" lon="-0.38315">
        <ele>89.6</ele>
        <time>2022-04-03T09:34:19Z</time>
      </trkpt>
      <trkpt lat="44.80791" lon="-0.38315">
        <ele>90.2</ele>
        <time>2022-04-03T09:34:20Z</time>
      </trkpt>
      <trkpt lat="44.80789" lon="-0.38315">
        <ele>91</ele>
        <time>2022-04-03T09:34:21Z</time>
      </trkpt>
      <trkpt lat="44.80788" lon="-0.38315">
        <ele>91.6</ele>
        <time>2022-04-03T09:34:22Z</time>
      </trkpt>
      <trkpt lat="44.80786" lon="-0.38315">
        <ele>92</ele>
        <time>2022-04-03T09:34:23Z</time>
      </trkpt>
      <trkpt lat="44.80784" lon="-0.38315">
        <ele>92.4</ele>
        <time>2022-04-03T09:34:24Z</time>
      </trkpt>
      <trkpt lat="44.80782" lon="-0.38316">
        <ele>92.6</ele>
        <time>2022-04-03T09:34:25Z</time>
      </trkpt>
      <trkpt lat="44.80781" lon="-0.38317">
        <ele>93.4</ele>
        <time>2022-04-03T09:34:26Z</time>
      </trkpt>
      <trkpt lat="44.80781" lon="-0.38317">
        <ele>93.6</ele>
        <time>2022-04-03T09:34:27Z</time>
      </trkpt>
      <trkpt lat="44.80781" lon="-0.38323">
        <ele>93.6</ele>
        <time>2022-04-03T09:34:28Z</time>
      </trkpt>
      <trkpt lat="44.80781" lon="-0.38326">
        <ele>93.8</ele>
        <time>2022-04-03T09:34:29Z</time>
      </trkpt>
      <trkpt lat="44.8078" lon="-0.3833">
        <ele>94.4</ele>
        <time>2022-04-03T09:34:30Z</time>
      </trkpt>
      <trkpt lat="44.8078" lon="-0.38333">
        <ele>95</ele>
        <time>2022-04-03T09:34:31Z</time>
      </trkpt>
      <trkpt lat="44.8078" lon="-0.38335">
        <ele>95.2</ele>
        <time>2022-04-03T09:34:32Z</time>
      </trkpt>
      <trkpt lat="44.80779" lon="-0.38337">
        <ele>95.6</ele>
        <time>2022-04-03T09:34:33Z</time>
      </trkpt>
      <trkpt lat="44.80779" lon="-0.3834">
        <ele>96</ele>
        <time>2022-04-03T09:34:34Z</time>
      </trkpt>
      <trkpt lat="44.80778" lon="-0.38342">
        <ele>96.4</ele>
        <time>2022-04-03T09:34:35Z</time>
      </trkpt>
      <trkpt lat="44.80777" lon="-0.38343">
        <ele>96.6</ele>
        <time>2022-04-03T09:34:36Z</time>
      </trkpt>
      <trkpt lat="44.80775" lon="-0.38343">
        <ele>97</ele>
        <time>2022-04-03T09:34:37Z</time>
      </trkpt>
      <trkpt lat="44.80775" lon="-0.38343">
        <ele>97</ele>
        <time>2022-04-03T09:34:38Z</time>
      </trkpt>
      <trkpt lat="44.80775" lon="-0.38343">
        <ele>97.4</ele>
        <time>2022-04-03T09:34:39Z</time>
      </trkpt>
      <trkpt lat="44.80767" lon="-0.38342">
        <ele>97.4</ele>
        <time>2022-04-03T09:34:40Z</time>
      </trkpt>
      <trkpt lat="44.80764" lon="-0.38342">
        <ele>97.4</ele>
        <time>2022-04-03T09:34:41Z</time>
      </trkpt>
      <trkpt lat="44.80761" lon="-0.38343">
        <ele>97.8</ele>
        <time>2022-04-03T09:34:42Z</time>
      </trkpt>
      <trkpt lat="44.80759" lon="-0.38344">
        <ele>97.8</ele>
        <time>2022-04-03T09:34:43Z</time>
      </trkpt>
      <trkpt lat="44.80757" lon="-0.38344">
        <ele>97.8</ele>
        <time>2022-04-03T09:34:44Z</time>
      </trkpt>
      <trkpt lat="44.80755" lon="-0.38344">
        <ele>97.4</ele>
        <time>2022-04-03T09:34:45Z</time>
      </trkpt>
      <trkpt lat="44.80753" lon="-0.38348">
        <ele>96.8</ele>
        <time>2022-04-03T09:34:46Z</time>
      </trkpt>
      <trkpt lat="44.80753" lon="-0.38352">
        <ele>96</ele>
        <time>2022-04-03T09:34:47Z</time>
      </trkpt>
      <trkpt lat="44.80753" lon="-0.38352">
        <ele>95</ele>
        <time>2022-04-03T09:34:48Z</time>
      </trkpt>
      <trkpt lat="44.80756" lon="-0.38364">
        <ele>93.8</ele>
        <time>2022-04-03T09:34:49Z</time>
      </trkpt>
      <trkpt lat="44.80758" lon="-0.3837">
        <ele>91.8</ele>
        <time>2022-04-03T09:34:50Z</time>
      </trkpt>
      <trkpt lat="44.80764" lon="-0.38378">
        <ele>90.4</ele>
        <time>2022-04-03T09:34:51Z</time>
      </trkpt>
      <trkpt lat="44.80771" lon="-0.38384">
        <ele>89.4</ele>
        <time>2022-04-03T09:34:52Z</time>
      </trkpt>
      <trkpt lat="44.80779" lon="-0.38386">
        <ele>89.8</ele>
        <time>2022-04-03T09:34:53Z</time>
      </trkpt>
      <trkpt lat="44.80785" lon="-0.38383">
        <ele>90.2</ele>
        <time>2022-04-03T09:34:54Z</time>
      </trkpt>
      <trkpt lat="44.80789" lon="-0.38378">
        <ele>90.6</ele>
        <time>2022-04-03T09:34:55Z</time>
      </trkpt>
      <trkpt lat="44.80793" lon="-0.38373">
        <ele>90.4</ele>
        <time>2022-04-03T09:34:56Z</time>
      </trkpt>
      <trkpt lat="44.80796" lon="-0.38367">
        <ele>90.4</ele>
        <time>2022-04-03T09:34:57Z</time>
      </trkpt>
      <trkpt lat="44.80796" lon="-0.38367">
        <ele>90.6</ele>
        <time>2022-04-03T09:34:58Z</time>
      </trkpt>
      <trkpt lat="44.80796" lon="-0.38367">
        <ele>90.4</ele>
        <time>2022-04-03T09:34:59Z</time>
      </trkpt>
      <trkpt lat="44.80804" lon="-0.38348">
        <ele>90.2</ele>
        <time>2022-04-03T09:35:00Z</time>
      </trkpt>
      <trkpt lat="44.80804" lon="-0.38348">
        <ele>90.2</ele>
        <time>2022-04-03T09:35:01Z</time>
      </trkpt>
      <trkpt lat="44.80809" lon="-0.38335">
        <ele>90</ele>
        <time>2022-04-03T09:35:02Z</time>
      </trkpt>
      <trkpt lat="44.80813" lon="-0.38329">
        <ele>90.2</ele>
        <time>2022-04-03T09:35:03Z</time>
      </trkpt>
      <trkpt lat="44.80817" lon="-0.38324">
        <ele>89.8</ele>
        <time>2022-04-03T09:35:04Z</time>
      </trkpt>
      <trkpt lat="44.80821" lon="-0.38319">
        <ele>89.4</ele>
        <time>2022-04-03T09:35:05Z</time>
      </trkpt>
      <trkpt lat="44.80826" lon="-0.38318">
        <ele>89.2</ele>
        <time>2022-04-03T09:35:06Z</time>
      </trkpt>
      <trkpt lat="44.80832" lon="-0.3832">
        <ele>88.8</ele>
        <time>2022-04-03T09:35:07Z</time>
      </trkpt>
      <trkpt lat="44.80832" lon="-0.3832">
        <ele>89.2</ele>
        <time>2022-04-03T09:35:08Z</time>
      </trkpt>
      <trkpt lat="44.80832" lon="-0.3832">
        <ele>89.4</ele>
        <time>2022-04-03T09:35:09Z</time>
      </trkpt>
      <trkpt lat="44.80835" lon="-0.38341">
        <ele>89.8</ele>
        <time>2022-04-03T09:35:10Z</time>
      </trkpt>
      <trkpt lat="44.80833" lon="-0.38348">
        <ele>89.4</ele>
        <time>2022-04-03T09:35:11Z</time>
      </trkpt>
      <trkpt lat="44.80831" lon="-0.38355">
        <ele>89.2</ele>
        <time>2022-04-03T09:35:12Z</time>
      </trkpt>
      <trkpt lat="44.80828" lon="-0.38362">
        <ele>89.2</ele>
        <time>2022-04-03T09:35:13Z</time>
      </trkpt>
      <trkpt lat="44.80826" lon="-0.38369">
        <ele>89.4</ele>
        <time>2022-04-03T09:35:14Z</time>
      </trkpt>
      <trkpt lat="44.80824" lon="-0.38376">
        <ele>89.8</ele>
        <time>2022-04-03T09:35:15Z</time>
      </trkpt>
      <trkpt lat="44.80821" lon="-0.38383">
        <ele>90</ele>
        <time>2022-04-03T09:35:16Z</time>
      </trkpt>
      <trkpt lat="44.80819" lon="-0.3839">
        <ele>90.4</ele>
        <time>2022-04-03T09:35:17Z</time>
      </trkpt>
      <trkpt lat="44.80817" lon="-0.38398">
        <ele>90.4</ele>
        <time>2022-04-03T09:35:18Z</time>
      </trkpt>
      <trkpt lat="44.80817" lon="-0.38398">
        <ele>90.4</ele>
        <time>2022-04-03T09:35:19Z</time>
      </trkpt>
      <trkpt lat="44.80817" lon="-0.38398">
        <ele>90.2</ele>
        <time>2022-04-03T09:35:20Z</time>
      </trkpt>
      <trkpt lat="44.80813" lon="-0.38421">
        <ele>90.2</ele>
        <time>2022-04-03T09:35:21Z</time>
      </trkpt>
      <trkpt lat="44.80812" lon="-0.38428">
        <ele>90.2</ele>
        <time>2022-04-03T09:35:22Z</time>
      </trkpt>
      <trkpt lat="44.8081" lon="-0.38435">
        <ele>90.4</ele>
        <time>2022-04-03T09:35:23Z</time>
      </trkpt>
      <trkpt lat="44.80808" lon="-0.38442">
        <ele>90.6</ele>
        <time>2022-04-03T09:35:24Z</time>
      </trkpt>
      <trkpt lat="44.80805" lon="-0.38447">
        <ele>90.4</ele>
        <time>2022-04-03T09:35:25Z</time>
      </trkpt>
      <trkpt lat="44.808" lon="-0.38449">
        <ele>90.4</ele>
        <time>2022-04-03T09:35:26Z</time>
      </trkpt>
      <trkpt lat="44.80795" lon="-0.38448">
        <ele>90.4</ele>
        <time>2022-04-03T09:35:27Z</time>
      </trkpt>
      <trkpt lat="44.80789" lon="-0.38445">
        <ele>90.4</ele>
        <time>2022-04-03T09:35:28Z</time>
      </trkpt>
      <trkpt lat="44.80789" lon="-0.38445">
        <ele>90.4</ele>
        <time>2022-04-03T09:35:29Z</time>
      </trkpt>
      <trkpt lat="44.80778" lon="-0.38438">
        <ele>90</ele>
        <time>2022-04-03T09:35:30Z</time>
      </trkpt>
      <trkpt lat="44.80773" lon="-0.38434">
        <ele>89.8</ele>
        <time>2022-04-03T09:35:31Z</time>
      </trkpt>
      <trkpt lat="44.80768" lon="-0.3843">
        <ele>89.8</ele>
        <time>2022-04-03T09:35:32Z</time>
      </trkpt>
      <trkpt lat="44.80762" lon="-0.38427">
        <ele>90</ele>
        <time>2022-04-03T09:35:33Z</time>
      </trkpt>
      <trkpt lat="44.80757" lon="-0.38423">
        <ele>90</ele>
        <time>2022-04-03T09:35:34Z</time>
      </trkpt>
      <trkpt lat="44.80752" lon="-0.3842">
        <ele>90</ele>
        <time>2022-04-03T09:35:35Z</time>
      </trkpt>
      <trkpt lat="44.80747" lon="-0.38417">
        <ele>90</ele>
        <time>2022-04-03T09:35:36Z</time>
      </trkpt>
      <trkpt lat="44.80741" lon="-0.38417">
        <ele>90</ele>
        <time>2022-04-03T09:35:37Z</time>
      </trkpt>
      <trkpt lat="44.80735" lon="-0.38418">
        <ele>89.8</ele>
        <time>2022-04-03T09:35:38Z</time>
      </trkpt>
      <trkpt lat="44.80735" lon="-0.38418">
        <ele>89.6</ele>
        <time>2022-04-03T09:35:39Z</time>
      </trkpt>
      <trkpt lat="44.80735" lon="-0.38418">
        <ele>89</ele>
        <time>2022-04-03T09:35:40Z</time>
      </trkpt>
      <trkpt lat="44.8073" lon="-0.3844">
        <ele>88.2</ele>
        <time>2022-04-03T09:35:41Z</time>
      </trkpt>
      <trkpt lat="44.80731" lon="-0.38449">
        <ele>87.8</ele>
        <time>2022-04-03T09:35:42Z</time>
      </trkpt>
      <trkpt lat="44.80733" lon="-0.38458">
        <ele>87.8</ele>
        <time>2022-04-03T09:35:43Z</time>
      </trkpt>
      <trkpt lat="44.80736" lon="-0.38466">
        <ele>87.4</ele>
        <time>2022-04-03T09:35:44Z</time>
      </trkpt>
      <trkpt lat="44.8074" lon="-0.38472">
        <ele>87.4</ele>
        <time>2022-04-03T09:35:45Z</time>
      </trkpt>
      <trkpt lat="44.80745" lon="-0.38478">
        <ele>87.4</ele>
        <time>2022-04-03T09:35:46Z</time>
      </trkpt>
      <trkpt lat="44.80751" lon="-0.38482">
        <ele>87.4</ele>
        <time>2022-04-03T09:35:47Z</time>
      </trkpt>
      <trkpt lat="44.80756" lon="-0.38485">
        <ele>87.4</ele>
        <time>2022-04-03T09:35:48Z</time>
      </trkpt>
      <trkpt lat="44.80756" lon="-0.38485">
        <ele>86.6</ele>
        <time>2022-04-03T09:35:49Z</time>
      </trkpt>
      <trkpt lat="44.80756" lon="-0.38485">
        <ele>86.8</ele>
        <time>2022-04-03T09:35:50Z</time>
      </trkpt>
      <trkpt lat="44.80772" lon="-0.38483">
        <ele>87.4</ele>
        <time>2022-04-03T09:35:51Z</time>
      </trkpt>
      <trkpt lat="44.80776" lon="-0.3848">
        <ele>88.2</ele>
        <time>2022-04-03T09:35:52Z</time>
      </trkpt>
      <trkpt lat="44.8078" lon="-0.38477">
        <ele>88</ele>
        <time>2022-04-03T09:35:53Z</time>
      </trkpt>
      <trkpt lat="44.80785" lon="-0.38478">
        <ele>88</ele>
        <time>2022-04-03T09:35:54Z</time>
      </trkpt>
      <trkpt lat="44.80789" lon="-0.38482">
        <ele>88.2</ele>
        <time>2022-04-03T09:35:55Z</time>
      </trkpt>
      <trkpt lat="44.80794" lon="-0.38486">
        <ele>88.8</ele>
        <time>2022-04-03T09:35:56Z</time>
      </trkpt>
      <trkpt lat="44.80798" lon="-0.3849">
        <ele>89.2</ele>
        <time>2022-04-03T09:35:57Z</time>
      </trkpt>
      <trkpt lat="44.80802" lon="-0.38494">
        <ele>89.2</ele>
        <time>2022-04-03T09:35:58Z</time>
      </trkpt>
      <trkpt lat="44.80807" lon="-0.38497">
        <ele>89.4</ele>
        <time>2022-04-03T09:35:59Z</time>
      </trkpt>
      <trkpt lat="44.80807" lon="-0.38497">
        <ele>89.2</ele>
        <time>2022-04-03T09:36:00Z</time>
      </trkpt>
      <trkpt lat="44.80807" lon="-0.38497">
        <ele>89</ele>
        <time>2022-04-03T09:36:01Z</time>
      </trkpt>
      <trkpt lat="44.80821" lon="-0.38502">
        <ele>89.2</ele>
        <time>2022-04-03T09:36:02Z</time>
      </trkpt>
      <trkpt lat="44.80826" lon="-0.38504">
        <ele>90</ele>
        <time>2022-04-03T09:36:03Z</time>
      </trkpt>
      <trkpt lat="44.80831" lon="-0.38506">
        <ele>90</ele>
        <time>2022-04-03T09:36:04Z</time>
      </trkpt>
      <trkpt lat="44.80835" lon="-0.38507">
        <ele>90.4</ele>
        <time>2022-04-03T09:36:05Z</time>
      </trkpt>
      <trkpt lat="44.80839" lon="-0.38509">
        <ele>91.4</ele>
        <time>2022-04-03T09:36:06Z</time>
      </trkpt>
      <trkpt lat="44.80842" lon="-0.38513">
        <ele>91.8</ele>
        <time>2022-04-03T09:36:07Z</time>
      </trkpt>
      <trkpt lat="44.80844" lon="-0.38518">
        <ele>92.4</ele>
        <time>2022-04-03T09:36:08Z</time>
      </trkpt>
      <trkpt lat="44.80844" lon="-0.38525">
        <ele>92.6</ele>
        <time>2022-04-03T09:36:09Z</time>
      </trkpt>
      <trkpt lat="44.80844" lon="-0.38525">
        <ele>92.4</ele>
        <time>2022-04-03T09:36:10Z</time>
      </trkpt>
      <trkpt lat="44.80844" lon="-0.38538">
        <ele>92</ele>
        <time>2022-04-03T09:36:11Z</time>
      </trkpt>
      <trkpt lat="44.80844" lon="-0.38545">
        <ele>92</ele>
        <time>2022-04-03T09:36:12Z</time>
      </trkpt>
      <trkpt lat="44.80844" lon="-0.38551">
        <ele>92.6</ele>
        <time>2022-04-03T09:36:13Z</time>
      </trkpt>
      <trkpt lat="44.80846" lon="-0.38557">
        <ele>93.6</ele>
        <time>2022-04-03T09:36:14Z</time>
      </trkpt>
      <trkpt lat="44.80849" lon="-0.38561">
        <ele>93.4</ele>
        <time>2022-04-03T09:36:15Z</time>
      </trkpt>
      <trkpt lat="44.80853" lon="-0.38566">
        <ele>93.4</ele>
        <time>2022-04-03T09:36:16Z</time>
      </trkpt>
      <trkpt lat="44.80857" lon="-0.3857">
        <ele>92.8</ele>
        <time>2022-04-03T09:36:17Z</time>
      </trkpt>
      <trkpt lat="44.80861" lon="-0.38574">
        <ele>93.2</ele>
        <time>2022-04-03T09:36:18Z</time>
      </trkpt>
      <trkpt lat="44.80865" lon="-0.38579">
        <ele>93</ele>
        <time>2022-04-03T09:36:19Z</time>
      </trkpt>
      <trkpt lat="44.80867" lon="-0.38586">
        <ele>92.8</ele>
        <time>2022-04-03T09:36:20Z</time>
      </trkpt>
      <trkpt lat="44.80866" lon="-0.38593">
        <ele>92.6</ele>
        <time>2022-04-03T09:36:21Z</time>
      </trkpt>
      <trkpt lat="44.80866" lon="-0.38593">
        <ele>92.4</ele>
        <time>2022-04-03T09:36:22Z</time>
      </trkpt>
      <trkpt lat="44.80859" lon="-0.38604">
        <ele>92.4</ele>
        <time>2022-04-03T09:36:23Z</time>
      </trkpt>
      <trkpt lat="44.80853" lon="-0.38604">
        <ele>92.6</ele>
        <time>2022-04-03T09:36:24Z</time>
      </trkpt>
      <trkpt lat="44.80847" lon="-0.386">
        <ele>92.6</ele>
        <time>2022-04-03T09:36:25Z</time>
      </trkpt>
      <trkpt lat="44.80843" lon="-0.38594">
        <ele>92.4</ele>
        <time>2022-04-03T09:36:26Z</time>
      </trkpt>
      <trkpt lat="44.80841" lon="-0.38587">
        <ele>91.6</ele>
        <time>2022-04-03T09:36:27Z</time>
      </trkpt>
      <trkpt lat="44.80839" lon="-0.3858">
        <ele>90.4</ele>
        <time>2022-04-03T09:36:28Z</time>
      </trkpt>
      <trkpt lat="44.80838" lon="-0.38573">
        <ele>90.4</ele>
        <time>2022-04-03T09:36:29Z</time>
      </trkpt>
      <trkpt lat="44.80837" lon="-0.38566">
        <ele>90.6</ele>
        <time>2022-04-03T09:36:30Z</time>
      </trkpt>
      <trkpt lat="44.80837" lon="-0.38566">
        <ele>91.2</ele>
        <time>2022-04-03T09:36:31Z</time>
      </trkpt>
      <trkpt lat="44.80835" lon="-0.38554">
        <ele>91</ele>
        <time>2022-04-03T09:36:32Z</time>
      </trkpt>
      <trkpt lat="44.80833" lon="-0.38547">
        <ele>90.8</ele>
        <time>2022-04-03T09:36:33Z</time>
      </trkpt>
      <trkpt lat="44.80832" lon="-0.38541">
        <ele>90.8</ele>
        <time>2022-04-03T09:36:34Z</time>
      </trkpt>
      <trkpt lat="44.80829" lon="-0.38535">
        <ele>91</ele>
        <time>2022-04-03T09:36:35Z</time>
      </trkpt>
      <trkpt lat="44.80824" lon="-0.38532">
        <ele>90.8</ele>
        <time>2022-04-03T09:36:36Z</time>
      </trkpt>
      <trkpt lat="44.80818" lon="-0.38532">
        <ele>90.2</ele>
        <time>2022-04-03T09:36:37Z</time>
      </trkpt>
      <trkpt lat="44.80813" lon="-0.38535">
        <ele>89.6</ele>
        <time>2022-04-03T09:36:38Z</time>
      </trkpt>
      <trkpt lat="44.80807" lon="-0.38538">
        <ele>89.4</ele>
        <time>2022-04-03T09:36:39Z</time>
      </trkpt>
      <trkpt lat="44.80802" lon="-0.38541">
        <ele>89.2</ele>
        <time>2022-04-03T09:36:40Z</time>
      </trkpt>
      <trkpt lat="44.80797" lon="-0.38546">
        <ele>89</ele>
        <time>2022-04-03T09:36:41Z</time>
      </trkpt>
      <trkpt lat="44.80797" lon="-0.38546">
        <ele>88.6</ele>
        <time>2022-04-03T09:36:42Z</time>
      </trkpt>
      <trkpt lat="44.80796" lon="-0.3856">
        <ele>88.4</ele>
        <time>2022-04-03T09:36:43Z</time>
      </trkpt>
      <trkpt lat="44.808" lon="-0.38564">
        <ele>88.4</ele>
        <time>2022-04-03T09:36:44Z</time>
      </trkpt>
      <trkpt lat="44.80805" lon="-0.38565">
        <ele>88.4</ele>
        <time>2022-04-03T09:36:45Z</time>
      </trkpt>
      <trkpt lat="44.8081" lon="-0.38566">
        <ele>88.4</ele>
        <time>2022-04-03T09:36:46Z</time>
      </trkpt>
      <trkpt lat="44.80814" lon="-0.38568">
        <ele>88.6</ele>
        <time>2022-04-03T09:36:47Z</time>
      </trkpt>
      <trkpt lat="44.80817" lon="-0.38572">
        <ele>88.8</ele>
        <time>2022-04-03T09:36:48Z</time>
      </trkpt>
      <trkpt lat="44.80816" lon="-0.38578">
        <ele>89</ele>
        <time>2022-04-03T09:36:49Z</time>
      </trkpt>
      <trkpt lat="44.80814" lon="-0.38584">
        <ele>88.6</ele>
        <time>2022-04-03T09:36:50Z</time>
      </trkpt>
      <trkpt lat="44.80814" lon="-0.38584">
        <ele>87.8</ele>
        <time>2022-04-03T09:36:51Z</time>
      </trkpt>
      <trkpt lat="44.80814" lon="-0.38584">
        <ele>87.4</ele>
        <time>2022-04-03T09:36:52Z</time>
      </trkpt>
      <trkpt lat="44.80814" lon="-0.38584">
        <ele>87.4</ele>
        <time>2022-04-03T09:36:53Z</time>
      </trkpt>
      <trkpt lat="44.80807" lon="-0.38612">
        <ele>87.4</ele>
        <time>2022-04-03T09:36:54Z</time>
      </trkpt>
      <trkpt lat="44.80806" lon="-0.38619">
        <ele>87.4</ele>
        <time>2022-04-03T09:36:55Z</time>
      </trkpt>
      <trkpt lat="44.80805" lon="-0.38624">
        <ele>87.4</ele>
        <time>2022-04-03T09:36:56Z</time>
      </trkpt>
      <trkpt lat="44.80804" lon="-0.38627">
        <ele>86.4</ele>
        <time>2022-04-03T09:36:57Z</time>
      </trkpt>
      <trkpt lat="44.80802" lon="-0.38628">
        <ele>85.2</ele>
        <time>2022-04-03T09:36:58Z</time>
      </trkpt>
      <trkpt lat="44.80799" lon="-0.38627">
        <ele>84.2</ele>
        <time>2022-04-03T09:36:59Z</time>
      </trkpt>
      <trkpt lat="44.80797" lon="-0.38623">
        <ele>84.2</ele>
        <time>2022-04-03T09:37:00Z</time>
      </trkpt>
      <trkpt lat="44.80794" lon="-0.38618">
        <ele>84</ele>
        <time>2022-04-03T09:37:01Z</time>
      </trkpt>
      <trkpt lat="44.80792" lon="-0.38612">
        <ele>83.8</ele>
        <time>2022-04-03T09:37:02Z</time>
      </trkpt>
      <trkpt lat="44.80792" lon="-0.38612">
        <ele>83</ele>
        <time>2022-04-03T09:37:03Z</time>
      </trkpt>
      <trkpt lat="44.80787" lon="-0.38601">
        <ele>82</ele>
        <time>2022-04-03T09:37:04Z</time>
      </trkpt>
      <trkpt lat="44.80784" lon="-0.38596">
        <ele>81.2</ele>
        <time>2022-04-03T09:37:05Z</time>
      </trkpt>
      <trkpt lat="44.80781" lon="-0.38589">
        <ele>80.8</ele>
        <time>2022-04-03T09:37:06Z</time>
      </trkpt>
      <trkpt lat="44.80779" lon="-0.38583">
        <ele>80.8</ele>
        <time>2022-04-03T09:37:07Z</time>
      </trkpt>
      <trkpt lat="44.80777" lon="-0.38579">
        <ele>81.2</ele>
        <time>2022-04-03T09:37:08Z</time>
      </trkpt>
      <trkpt lat="44.80774" lon="-0.38576">
        <ele>80.6</ele>
        <time>2022-04-03T09:37:09Z</time>
      </trkpt>
      <trkpt lat="44.8077" lon="-0.38573">
        <ele>80.2</ele>
        <time>2022-04-03T09:37:10Z</time>
      </trkpt>
      <trkpt lat="44.80766" lon="-0.38569">
        <ele>80</ele>
        <time>2022-04-03T09:37:11Z</time>
      </trkpt>
      <trkpt lat="44.80766" lon="-0.38569">
        <ele>80</ele>
        <time>2022-04-03T09:37:12Z</time>
      </trkpt>
      <trkpt lat="44.80758" lon="-0.38561">
        <ele>80.2</ele>
        <time>2022-04-03T09:37:13Z</time>
      </trkpt>
      <trkpt lat="44.80754" lon="-0.38555">
        <ele>80.2</ele>
        <time>2022-04-03T09:37:14Z</time>
      </trkpt>
      <trkpt lat="44.80752" lon="-0.38552">
        <ele>80.4</ele>
        <time>2022-04-03T09:37:15Z</time>
      </trkpt>
      <trkpt lat="44.80749" lon="-0.38549">
        <ele>80.2</ele>
        <time>2022-04-03T09:37:16Z</time>
      </trkpt>
      <trkpt lat="44.80746" lon="-0.38546">
        <ele>79.8</ele>
        <time>2022-04-03T09:37:17Z</time>
      </trkpt>
      <trkpt lat="44.80743" lon="-0.38543">
        <ele>79.2</ele>
        <time>2022-04-03T09:37:18Z</time>
      </trkpt>
      <trkpt lat="44.80741" lon="-0.38541">
        <ele>78.8</ele>
        <time>2022-04-03T09:37:19Z</time>
      </trkpt>
      <trkpt lat="44.80738" lon="-0.38538">
        <ele>78.4</ele>
        <time>2022-04-03T09:37:20Z</time>
      </trkpt>
      <trkpt lat="44.80734" lon="-0.38536">
        <ele>78</ele>
        <time>2022-04-03T09:37:21Z</time>
      </trkpt>
      <trkpt lat="44.80731" lon="-0.38533">
        <ele>77.6</ele>
        <time>2022-04-03T09:37:22Z</time>
      </trkpt>
      <trkpt lat="44.80731" lon="-0.38533">
        <ele>76.4</ele>
        <time>2022-04-03T09:37:23Z</time>
      </trkpt>
      <trkpt lat="44.80725" lon="-0.38526">
        <ele>76</ele>
        <time>2022-04-03T09:37:24Z</time>
      </trkpt>
      <trkpt lat="44.80721" lon="-0.38523">
        <ele>75.6</ele>
        <time>2022-04-03T09:37:25Z</time>
      </trkpt>
      <trkpt lat="44.80716" lon="-0.38521">
        <ele>76.2</ele>
        <time>2022-04-03T09:37:26Z</time>
      </trkpt>
      <trkpt lat="44.80713" lon="-0.3852">
        <ele>75.8</ele>
        <time>2022-04-03T09:37:27Z</time>
      </trkpt>
      <trkpt lat="44.8071" lon="-0.38519">
        <ele>75.8</ele>
        <time>2022-04-03T09:37:28Z</time>
      </trkpt>
      <trkpt lat="44.80707" lon="-0.38516">
        <ele>75.2</ele>
        <time>2022-04-03T09:37:29Z</time>
      </trkpt>
      <trkpt lat="44.80703" lon="-0.38514">
        <ele>74.8</ele>
        <time>2022-04-03T09:37:30Z</time>
      </trkpt>
      <trkpt lat="44.807" lon="-0.38511">
        <ele>74.8</ele>
        <time>2022-04-03T09:37:31Z</time>
      </trkpt>
      <trkpt lat="44.807" lon="-0.38511">
        <ele>74.8</ele>
        <time>2022-04-03T09:37:32Z</time>
      </trkpt>
      <trkpt lat="44.807" lon="-0.38511">
        <ele>74.6</ele>
        <time>2022-04-03T09:37:33Z</time>
      </trkpt>
      <trkpt lat="44.80692" lon="-0.38496">
        <ele>73.6</ele>
        <time>2022-04-03T09:37:34Z</time>
      </trkpt>
      <trkpt lat="44.80688" lon="-0.38493">
        <ele>73.8</ele>
        <time>2022-04-03T09:37:35Z</time>
      </trkpt>
      <trkpt lat="44.80685" lon="-0.3849">
        <ele>73.6</ele>
        <time>2022-04-03T09:37:36Z</time>
      </trkpt>
      <trkpt lat="44.80682" lon="-0.38487">
        <ele>74.2</ele>
        <time>2022-04-03T09:37:37Z</time>
      </trkpt>
      <trkpt lat="44.80679" lon="-0.38483">
        <ele>73.6</ele>
        <time>2022-04-03T09:37:38Z</time>
      </trkpt>
      <trkpt lat="44.80677" lon="-0.38479">
        <ele>74</ele>
        <time>2022-04-03T09:37:39Z</time>
      </trkpt>
      <trkpt lat="44.80674" lon="-0.38475">
        <ele>74.6</ele>
        <time>2022-04-03T09:37:40Z</time>
      </trkpt>
      <trkpt lat="44.8067" lon="-0.38472">
        <ele>74.8</ele>
        <time>2022-04-03T09:37:41Z</time>
      </trkpt>
      <trkpt lat="44.80667" lon="-0.38471">
        <ele>73.8</ele>
        <time>2022-04-03T09:37:42Z</time>
      </trkpt>
      <trkpt lat="44.80667" lon="-0.38471">
        <ele>73</ele>
        <time>2022-04-03T09:37:43Z</time>
      </trkpt>
      <trkpt lat="44.80667" lon="-0.38471">
        <ele>72.2</ele>
        <time>2022-04-03T09:37:44Z</time>
      </trkpt>
      <trkpt lat="44.80653" lon="-0.38465">
        <ele>71.8</ele>
        <time>2022-04-03T09:37:45Z</time>
      </trkpt>
      <trkpt lat="44.8065" lon="-0.38463">
        <ele>71.8</ele>
        <time>2022-04-03T09:37:46Z</time>
      </trkpt>
      <trkpt lat="44.80647" lon="-0.3846">
        <ele>71.6</ele>
        <time>2022-04-03T09:37:47Z</time>
      </trkpt>
      <trkpt lat="44.80643" lon="-0.38456">
        <ele>72</ele>
        <time>2022-04-03T09:37:48Z</time>
      </trkpt>
      <trkpt lat="44.80638" lon="-0.38452">
        <ele>72</ele>
        <time>2022-04-03T09:37:49Z</time>
      </trkpt>
      <trkpt lat="44.80634" lon="-0.38449">
        <ele>72</ele>
        <time>2022-04-03T09:37:50Z</time>
      </trkpt>
      <trkpt lat="44.8063" lon="-0.38447">
        <ele>71.6</ele>
        <time>2022-04-03T09:37:51Z</time>
      </trkpt>
      <trkpt lat="44.80627" lon="-0.38442">
        <ele>71.6</ele>
        <time>2022-04-03T09:37:52Z</time>
      </trkpt>
      <trkpt lat="44.80627" lon="-0.38442">
        <ele>71</ele>
        <time>2022-04-03T09:37:53Z</time>
      </trkpt>
      <trkpt lat="44.80621" lon="-0.38436">
        <ele>71</ele>
        <time>2022-04-03T09:37:54Z</time>
      </trkpt>
      <trkpt lat="44.80619" lon="-0.38434">
        <ele>70.4</ele>
        <time>2022-04-03T09:37:55Z</time>
      </trkpt>
      <trkpt lat="44.80618" lon="-0.38431">
        <ele>70.4</ele>
        <time>2022-04-03T09:37:56Z</time>
      </trkpt>
      <trkpt lat="44.80617" lon="-0.38428">
        <ele>70</ele>
        <time>2022-04-03T09:37:57Z</time>
      </trkpt>
      <trkpt lat="44.80615" lon="-0.38425">
        <ele>70</ele>
        <time>2022-04-03T09:37:58Z</time>
      </trkpt>
      <trkpt lat="44.80612" lon="-0.38421">
        <ele>69.8</ele>
        <time>2022-04-03T09:37:59Z</time>
      </trkpt>
      <trkpt lat="44.80611" lon="-0.38416">
        <ele>69.8</ele>
        <time>2022-04-03T09:38:00Z</time>
      </trkpt>
      <trkpt lat="44.80608" lon="-0.38413">
        <ele>69.8</ele>
        <time>2022-04-03T09:38:01Z</time>
      </trkpt>
      <trkpt lat="44.80606" lon="-0.3841">
        <ele>69.4</ele>
        <time>2022-04-03T09:38:02Z</time>
      </trkpt>
      <trkpt lat="44.80604" lon="-0.38408">
        <ele>69.4</ele>
        <time>2022-04-03T09:38:03Z</time>
      </trkpt>
      <trkpt lat="44.80604" lon="-0.38408">
        <ele>68.6</ele>
        <time>2022-04-03T09:38:04Z</time>
      </trkpt>
      <trkpt lat="44.80599" lon="-0.38403">
        <ele>68.6</ele>
        <time>2022-04-03T09:38:05Z</time>
      </trkpt>
      <trkpt lat="44.80596" lon="-0.38399">
        <ele>68</ele>
        <time>2022-04-03T09:38:06Z</time>
      </trkpt>
      <trkpt lat="44.80593" lon="-0.38394">
        <ele>67.8</ele>
        <time>2022-04-03T09:38:07Z</time>
      </trkpt>
      <trkpt lat="44.8059" lon="-0.38391">
        <ele>67</ele>
        <time>2022-04-03T09:38:08Z</time>
      </trkpt>
      <trkpt lat="44.80587" lon="-0.3839">
        <ele>66.6</ele>
        <time>2022-04-03T09:38:09Z</time>
      </trkpt>
      <trkpt lat="44.80585" lon="-0.38388">
        <ele>66.6</ele>
        <time>2022-04-03T09:38:10Z</time>
      </trkpt>
      <trkpt lat="44.80583" lon="-0.38387">
        <ele>66.4</ele>
        <time>2022-04-03T09:38:11Z</time>
      </trkpt>
      <trkpt lat="44.80581" lon="-0.38387">
        <ele>66.4</ele>
        <time>2022-04-03T09:38:12Z</time>
      </trkpt>
      <trkpt lat="44.80581" lon="-0.38387">
        <ele>66.2</ele>
        <time>2022-04-03T09:38:13Z</time>
      </trkpt>
      <trkpt lat="44.80581" lon="-0.38387">
        <ele>66.2</ele>
        <time>2022-04-03T09:38:14Z</time>
      </trkpt>
      <trkpt lat="44.80574" lon="-0.38379">
        <ele>66</ele>
        <time>2022-04-03T09:38:15Z</time>
      </trkpt>
      <trkpt lat="44.80574" lon="-0.38375">
        <ele>65.8</ele>
        <time>2022-04-03T09:38:16Z</time>
      </trkpt>
      <trkpt lat="44.80575" lon="-0.38373">
        <ele>65.6</ele>
        <time>2022-04-03T09:38:17Z</time>
      </trkpt>
      <trkpt lat="44.80577" lon="-0.38374">
        <ele>66.4</ele>
        <time>2022-04-03T09:38:18Z</time>
      </trkpt>
      <trkpt lat="44.80578" lon="-0.38374">
        <ele>66.8</ele>
        <time>2022-04-03T09:38:19Z</time>
      </trkpt>
      <trkpt lat="44.8058" lon="-0.38375">
        <ele>67</ele>
        <time>2022-04-03T09:38:20Z</time>
      </trkpt>
      <trkpt lat="44.80582" lon="-0.38378">
        <ele>67.2</ele>
        <time>2022-04-03T09:38:21Z</time>
      </trkpt>
      <trkpt lat="44.80582" lon="-0.38381">
        <ele>67.8</ele>
        <time>2022-04-03T09:38:22Z</time>
      </trkpt>
      <trkpt lat="44.80583" lon="-0.38383">
        <ele>68.8</ele>
        <time>2022-04-03T09:38:23Z</time>
      </trkpt>
      <trkpt lat="44.80583" lon="-0.38383">
        <ele>69.4</ele>
        <time>2022-04-03T09:38:24Z</time>
      </trkpt>
      <trkpt lat="44.80583" lon="-0.38383">
        <ele>70</ele>
        <time>2022-04-03T09:38:25Z</time>
      </trkpt>
      <trkpt lat="44.80588" lon="-0.38386">
        <ele>70.6</ele>
        <time>2022-04-03T09:38:26Z</time>
      </trkpt>
      <trkpt lat="44.80591" lon="-0.38387">
        <ele>71.2</ele>
        <time>2022-04-03T09:38:27Z</time>
      </trkpt>
      <trkpt lat="44.80593" lon="-0.38389">
        <ele>71.4</ele>
        <time>2022-04-03T09:38:28Z</time>
      </trkpt>
      <trkpt lat="44.80596" lon="-0.38391">
        <ele>71.6</ele>
        <time>2022-04-03T09:38:29Z</time>
      </trkpt>
      <trkpt lat="44.80598" lon="-0.38394">
        <ele>71.8</ele>
        <time>2022-04-03T09:38:30Z</time>
      </trkpt>
      <trkpt lat="44.806" lon="-0.38396">
        <ele>71.8</ele>
        <time>2022-04-03T09:38:31Z</time>
      </trkpt>
      <trkpt lat="44.80601" lon="-0.384">
        <ele>72</ele>
        <time>2022-04-03T09:38:32Z</time>
      </trkpt>
      <trkpt lat="44.80603" lon="-0.38405">
        <ele>72</ele>
        <time>2022-04-03T09:38:33Z</time>
      </trkpt>
      <trkpt lat="44.80603" lon="-0.38405">
        <ele>72</ele>
        <time>2022-04-03T09:38:34Z</time>
      </trkpt>
      <trkpt lat="44.80609" lon="-0.38414">
        <ele>72.2</ele>
        <time>2022-04-03T09:38:35Z</time>
      </trkpt>
      <trkpt lat="44.80612" lon="-0.38418">
        <ele>72.4</ele>
        <time>2022-04-03T09:38:36Z</time>
      </trkpt>
      <trkpt lat="44.80615" lon="-0.38421">
        <ele>72.6</ele>
        <time>2022-04-03T09:38:37Z</time>
      </trkpt>
      <trkpt lat="44.80618" lon="-0.38424">
        <ele>73</ele>
        <time>2022-04-03T09:38:38Z</time>
      </trkpt>
      <trkpt lat="44.8062" lon="-0.38427">
        <ele>73.4</ele>
        <time>2022-04-03T09:38:39Z</time>
      </trkpt>
      <trkpt lat="44.80623" lon="-0.3843">
        <ele>73.6</ele>
        <time>2022-04-03T09:38:40Z</time>
      </trkpt>
      <trkpt lat="44.80626" lon="-0.38433">
        <ele>74</ele>
        <time>2022-04-03T09:38:41Z</time>
      </trkpt>
      <trkpt lat="44.80629" lon="-0.38436">
        <ele>74.2</ele>
        <time>2022-04-03T09:38:42Z</time>
      </trkpt>
      <trkpt lat="44.80633" lon="-0.38438">
        <ele>74.6</ele>
        <time>2022-04-03T09:38:43Z</time>
      </trkpt>
      <trkpt lat="44.80636" lon="-0.38441">
        <ele>74.6</ele>
        <time>2022-04-03T09:38:44Z</time>
      </trkpt>
      <trkpt lat="44.80636" lon="-0.38441">
        <ele>74.8</ele>
        <time>2022-04-03T09:38:45Z</time>
      </trkpt>
      <trkpt lat="44.80643" lon="-0.38446">
        <ele>74.8</ele>
        <time>2022-04-03T09:38:46Z</time>
      </trkpt>
      <trkpt lat="44.80645" lon="-0.38449">
        <ele>75</ele>
        <time>2022-04-03T09:38:47Z</time>
      </trkpt>
      <trkpt lat="44.80648" lon="-0.38451">
        <ele>75.2</ele>
        <time>2022-04-03T09:38:48Z</time>
      </trkpt>
      <trkpt lat="44.8065" lon="-0.38453">
        <ele>75.8</ele>
        <time>2022-04-03T09:38:49Z</time>
      </trkpt>
      <trkpt lat="44.80653" lon="-0.38456">
        <ele>76</ele>
        <time>2022-04-03T09:38:50Z</time>
      </trkpt>
      <trkpt lat="44.80656" lon="-0.38458">
        <ele>76.4</ele>
        <time>2022-04-03T09:38:51Z</time>
      </trkpt>
      <trkpt lat="44.80658" lon="-0.38461">
        <ele>76.4</ele>
        <time>2022-04-03T09:38:52Z</time>
      </trkpt>
      <trkpt lat="44.8066" lon="-0.38463">
        <ele>76.8</ele>
        <time>2022-04-03T09:38:53Z</time>
      </trkpt>
      <trkpt lat="44.80663" lon="-0.38464">
        <ele>77.4</ele>
        <time>2022-04-03T09:38:54Z</time>
      </trkpt>
      <trkpt lat="44.80663" lon="-0.38464">
        <ele>77.8</ele>
        <time>2022-04-03T09:38:55Z</time>
      </trkpt>
      <trkpt lat="44.80667" lon="-0.38469">
        <ele>78</ele>
        <time>2022-04-03T09:38:56Z</time>
      </trkpt>
      <trkpt lat="44.8067" lon="-0.38471">
        <ele>78.2</ele>
        <time>2022-04-03T09:38:57Z</time>
      </trkpt>
      <trkpt lat="44.80673" lon="-0.38475">
        <ele>78.2</ele>
        <time>2022-04-03T09:38:58Z</time>
      </trkpt>
      <trkpt lat="44.80675" lon="-0.38479">
        <ele>78.4</ele>
        <time>2022-04-03T09:38:59Z</time>
      </trkpt>
      <trkpt lat="44.80677" lon="-0.38483">
        <ele>78.2</ele>
        <time>2022-04-03T09:39:00Z</time>
      </trkpt>
      <trkpt lat="44.8068" lon="-0.38486">
        <ele>78.2</ele>
        <time>2022-04-03T09:39:01Z</time>
      </trkpt>
      <trkpt lat="44.80682" lon="-0.38489">
        <ele>78.2</ele>
        <time>2022-04-03T09:39:02Z</time>
      </trkpt>
      <trkpt lat="44.80685" lon="-0.38491">
        <ele>78</ele>
        <time>2022-04-03T09:39:03Z</time>
      </trkpt>
      <trkpt lat="44.80688" lon="-0.38491">
        <ele>78.2</ele>
        <time>2022-04-03T09:39:04Z</time>
      </trkpt>
      <trkpt lat="44.80688" lon="-0.38491">
        <ele>78.2</ele>
        <time>2022-04-03T09:39:05Z</time>
      </trkpt>
      <trkpt lat="44.80688" lon="-0.38491">
        <ele>78.8</ele>
        <time>2022-04-03T09:39:06Z</time>
      </trkpt>
      <trkpt lat="44.80688" lon="-0.38484">
        <ele>79.4</ele>
        <time>2022-04-03T09:39:07Z</time>
      </trkpt>
      <trkpt lat="44.80687" lon="-0.38481">
        <ele>79.8</ele>
        <time>2022-04-03T09:39:08Z</time>
      </trkpt>
      <trkpt lat="44.80686" lon="-0.38477">
        <ele>80.2</ele>
        <time>2022-04-03T09:39:09Z</time>
      </trkpt>
      <trkpt lat="44.80685" lon="-0.38473">
        <ele>80.6</ele>
        <time>2022-04-03T09:39:10Z</time>
      </trkpt>
      <trkpt lat="44.80685" lon="-0.3847">
        <ele>81</ele>
        <time>2022-04-03T09:39:11Z</time>
      </trkpt>
      <trkpt lat="44.80685" lon="-0.38468">
        <ele>81.6</ele>
        <time>2022-04-03T09:39:12Z</time>
      </trkpt>
      <trkpt lat="44.80686" lon="-0.38465">
        <ele>81.6</ele>
        <time>2022-04-03T09:39:13Z</time>
      </trkpt>
      <trkpt lat="44.80686" lon="-0.38462">
        <ele>82.4</ele>
        <time>2022-04-03T09:39:14Z</time>
      </trkpt>
      <trkpt lat="44.80686" lon="-0.38462">
        <ele>83</ele>
        <time>2022-04-03T09:39:15Z</time>
      </trkpt>
      <trkpt lat="44.80686" lon="-0.38462">
        <ele>83.4</ele>
        <time>2022-04-03T09:39:16Z</time>
      </trkpt>
      <trkpt lat="44.80691" lon="-0.38453">
        <ele>83.8</ele>
        <time>2022-04-03T09:39:17Z</time>
      </trkpt>
      <trkpt lat="44.80692" lon="-0.38451">
        <ele>84.2</ele>
        <time>2022-04-03T09:39:18Z</time>
      </trkpt>
      <trkpt lat="44.80693" lon="-0.38449">
        <ele>84.8</ele>
        <time>2022-04-03T09:39:19Z</time>
      </trkpt>
      <trkpt lat="44.80695" lon="-0.38446">
        <ele>85.2</ele>
        <time>2022-04-03T09:39:20Z</time>
      </trkpt>
      <trkpt lat="44.80696" lon="-0.38443">
        <ele>85.8</ele>
        <time>2022-04-03T09:39:21Z</time>
      </trkpt>
      <trkpt lat="44.80697" lon="-0.38439">
        <ele>86.4</ele>
        <time>2022-04-03T09:39:22Z</time>
      </trkpt>
      <trkpt lat="44.80698" lon="-0.38436">
        <ele>86.8</ele>
        <time>2022-04-03T09:39:23Z</time>
      </trkpt>
      <trkpt lat="44.807" lon="-0.38433">
        <ele>87.2</ele>
        <time>2022-04-03T09:39:24Z</time>
      </trkpt>
      <trkpt lat="44.807" lon="-0.38429">
        <ele>87.4</ele>
        <time>2022-04-03T09:39:25Z</time>
      </trkpt>
      <trkpt lat="44.807" lon="-0.38429">
        <ele>87.8</ele>
        <time>2022-04-03T09:39:26Z</time>
      </trkpt>
      <trkpt lat="44.807" lon="-0.38429">
        <ele>87.8</ele>
        <time>2022-04-03T09:39:27Z</time>
      </trkpt>
      <trkpt lat="44.80693" lon="-0.3842">
        <ele>87.6</ele>
        <time>2022-04-03T09:39:28Z</time>
      </trkpt>
      <trkpt lat="44.80691" lon="-0.38417">
        <ele>87.6</ele>
        <time>2022-04-03T09:39:29Z</time>
      </trkpt>
      <trkpt lat="44.80688" lon="-0.38414">
        <ele>87.6</ele>
        <time>2022-04-03T09:39:30Z</time>
      </trkpt>
      <trkpt lat="44.80685" lon="-0.38413">
        <ele>87.4</ele>
        <time>2022-04-03T09:39:31Z</time>
      </trkpt>
      <trkpt lat="44.80682" lon="-0.38414">
        <ele>86.6</ele>
        <time>2022-04-03T09:39:32Z</time>
      </trkpt>
      <trkpt lat="44.8068" lon="-0.38414">
        <ele>86</ele>
        <time>2022-04-03T09:39:33Z</time>
      </trkpt>
      <trkpt lat="44.80678" lon="-0.38417">
        <ele>86</ele>
        <time>2022-04-03T09:39:34Z</time>
      </trkpt>
      <trkpt lat="44.80676" lon="-0.38418">
        <ele>85.2</ele>
        <time>2022-04-03T09:39:35Z</time>
      </trkpt>
      <trkpt lat="44.80676" lon="-0.38418">
        <ele>84.4</ele>
        <time>2022-04-03T09:39:36Z</time>
      </trkpt>
      <trkpt lat="44.80671" lon="-0.38416">
        <ele>83.6</ele>
        <time>2022-04-03T09:39:37Z</time>
      </trkpt>
      <trkpt lat="44.80672" lon="-0.38415">
        <ele>83.6</ele>
        <time>2022-04-03T09:39:38Z</time>
      </trkpt>
      <trkpt lat="44.80671" lon="-0.38414">
        <ele>83.8</ele>
        <time>2022-04-03T09:39:39Z</time>
      </trkpt>
      <trkpt lat="44.80671" lon="-0.38413">
        <ele>83.8</ele>
        <time>2022-04-03T09:39:40Z</time>
      </trkpt>
      <trkpt lat="44.80672" lon="-0.38412">
        <ele>84</ele>
        <time>2022-04-03T09:39:41Z</time>
      </trkpt>
      <trkpt lat="44.80672" lon="-0.3841">
        <ele>84</ele>
        <time>2022-04-03T09:39:42Z</time>
      </trkpt>
      <trkpt lat="44.80672" lon="-0.38409">
        <ele>84.2</ele>
        <time>2022-04-03T09:39:43Z</time>
      </trkpt>
      <trkpt lat="44.80671" lon="-0.38407">
        <ele>84</ele>
        <time>2022-04-03T09:39:44Z</time>
      </trkpt>
      <trkpt lat="44.8067" lon="-0.38404">
        <ele>84.2</ele>
        <time>2022-04-03T09:39:45Z</time>
      </trkpt>
      <trkpt lat="44.80669" lon="-0.38401">
        <ele>84.4</ele>
        <time>2022-04-03T09:39:46Z</time>
      </trkpt>
      <trkpt lat="44.80669" lon="-0.38401">
        <ele>84.8</ele>
        <time>2022-04-03T09:39:47Z</time>
      </trkpt>
      <trkpt lat="44.8067" lon="-0.38394">
        <ele>85.2</ele>
        <time>2022-04-03T09:39:48Z</time>
      </trkpt>
      <trkpt lat="44.8067" lon="-0.38391">
        <ele>85.4</ele>
        <time>2022-04-03T09:39:49Z</time>
      </trkpt>
      <trkpt lat="44.80669" lon="-0.38389">
        <ele>85</ele>
        <time>2022-04-03T09:39:50Z</time>
      </trkpt>
      <trkpt lat="44.80667" lon="-0.38388">
        <ele>84.6</ele>
        <time>2022-04-03T09:39:51Z</time>
      </trkpt>
      <trkpt lat="44.80664" lon="-0.38385">
        <ele>84.4</ele>
        <time>2022-04-03T09:39:52Z</time>
      </trkpt>
      <trkpt lat="44.8066" lon="-0.38381">
        <ele>84.6</ele>
        <time>2022-04-03T09:39:53Z</time>
      </trkpt>
      <trkpt lat="44.80656" lon="-0.38376">
        <ele>84.6</ele>
        <time>2022-04-03T09:39:54Z</time>
      </trkpt>
      <trkpt lat="44.80653" lon="-0.3837">
        <ele>84.6</ele>
        <time>2022-04-03T09:39:55Z</time>
      </trkpt>
      <trkpt lat="44.80653" lon="-0.3837">
        <ele>84.8</ele>
        <time>2022-04-03T09:39:56Z</time>
      </trkpt>
      <trkpt lat="44.80653" lon="-0.3837">
        <ele>84.4</ele>
        <time>2022-04-03T09:39:57Z</time>
      </trkpt>
      <trkpt lat="44.80644" lon="-0.38349">
        <ele>84.4</ele>
        <time>2022-04-03T09:39:58Z</time>
      </trkpt>
      <trkpt lat="44.80642" lon="-0.38342">
        <ele>84.2</ele>
        <time>2022-04-03T09:39:59Z</time>
      </trkpt>
      <trkpt lat="44.8064" lon="-0.38335">
        <ele>84.4</ele>
        <time>2022-04-03T09:40:00Z</time>
      </trkpt>
      <trkpt lat="44.80638" lon="-0.38329">
        <ele>85</ele>
        <time>2022-04-03T09:40:01Z</time>
      </trkpt>
      <trkpt lat="44.80636" lon="-0.38324">
        <ele>85.2</ele>
        <time>2022-04-03T09:40:02Z</time>
      </trkpt>
      <trkpt lat="44.80634" lon="-0.38319">
        <ele>85.2</ele>
        <time>2022-04-03T09:40:03Z</time>
      </trkpt>
      <trkpt lat="44.80634" lon="-0.38313">
        <ele>84.8</ele>
        <time>2022-04-03T09:40:04Z</time>
      </trkpt>
      <trkpt lat="44.80634" lon="-0.38308">
        <ele>84.6</ele>
        <time>2022-04-03T09:40:05Z</time>
      </trkpt>
      <trkpt lat="44.80636" lon="-0.38305">
        <ele>84.6</ele>
        <time>2022-04-03T09:40:06Z</time>
      </trkpt>
      <trkpt lat="44.80636" lon="-0.38305">
        <ele>84.8</ele>
        <time>2022-04-03T09:40:07Z</time>
      </trkpt>
      <trkpt lat="44.80636" lon="-0.38305">
        <ele>84.6</ele>
        <time>2022-04-03T09:40:08Z</time>
      </trkpt>
      <trkpt lat="44.80637" lon="-0.38293">
        <ele>84.6</ele>
        <time>2022-04-03T09:40:09Z</time>
      </trkpt>
      <trkpt lat="44.80637" lon="-0.3829">
        <ele>84.4</ele>
        <time>2022-04-03T09:40:10Z</time>
      </trkpt>
      <trkpt lat="44.80638" lon="-0.38287">
        <ele>84.4</ele>
        <time>2022-04-03T09:40:11Z</time>
      </trkpt>
      <trkpt lat="44.8064" lon="-0.38283">
        <ele>84</ele>
        <time>2022-04-03T09:40:12Z</time>
      </trkpt>
      <trkpt lat="44.80639" lon="-0.38282">
        <ele>83.8</ele>
        <time>2022-04-03T09:40:13Z</time>
      </trkpt>
      <trkpt lat="44.80637" lon="-0.38284">
        <ele>83.2</ele>
        <time>2022-04-03T09:40:14Z</time>
      </trkpt>
      <trkpt lat="44.80633" lon="-0.38288">
        <ele>82.6</ele>
        <time>2022-04-03T09:40:15Z</time>
      </trkpt>
      <trkpt lat="44.80628" lon="-0.38291">
        <ele>82.6</ele>
        <time>2022-04-03T09:40:16Z</time>
      </trkpt>
      <trkpt lat="44.80628" lon="-0.38291">
        <ele>81.4</ele>
        <time>2022-04-03T09:40:17Z</time>
      </trkpt>
      <trkpt lat="44.80621" lon="-0.38301">
        <ele>80.6</ele>
        <time>2022-04-03T09:40:18Z</time>
      </trkpt>
      <trkpt lat="44.80619" lon="-0.38307">
        <ele>80.4</ele>
        <time>2022-04-03T09:40:19Z</time>
      </trkpt>
      <trkpt lat="44.80619" lon="-0.3831">
        <ele>80.6</ele>
        <time>2022-04-03T09:40:20Z</time>
      </trkpt>
      <trkpt lat="44.80617" lon="-0.38314">
        <ele>80.8</ele>
        <time>2022-04-03T09:40:21Z</time>
      </trkpt>
      <trkpt lat="44.80616" lon="-0.38317">
        <ele>80.4</ele>
        <time>2022-04-03T09:40:22Z</time>
      </trkpt>
      <trkpt lat="44.80615" lon="-0.38322">
        <ele>80.4</ele>
        <time>2022-04-03T09:40:23Z</time>
      </trkpt>
      <trkpt lat="44.80615" lon="-0.38327">
        <ele>80</ele>
        <time>2022-04-03T09:40:24Z</time>
      </trkpt>
      <trkpt lat="44.80617" lon="-0.38331">
        <ele>80.2</ele>
        <time>2022-04-03T09:40:25Z</time>
      </trkpt>
      <trkpt lat="44.80619" lon="-0.38337">
        <ele>80</ele>
        <time>2022-04-03T09:40:26Z</time>
      </trkpt>
      <trkpt lat="44.80621" lon="-0.38343">
        <ele>80.2</ele>
        <time>2022-04-03T09:40:27Z</time>
      </trkpt>
      <trkpt lat="44.80621" lon="-0.38343">
        <ele>80.4</ele>
        <time>2022-04-03T09:40:28Z</time>
      </trkpt>
      <trkpt lat="44.80626" lon="-0.38357">
        <ele>80.4</ele>
        <time>2022-04-03T09:40:29Z</time>
      </trkpt>
      <trkpt lat="44.80628" lon="-0.38364">
        <ele>80.2</ele>
        <time>2022-04-03T09:40:30Z</time>
      </trkpt>
      <trkpt lat="44.8063" lon="-0.38372">
        <ele>80.6</ele>
        <time>2022-04-03T09:40:31Z</time>
      </trkpt>
      <trkpt lat="44.80632" lon="-0.3838">
        <ele>81</ele>
        <time>2022-04-03T09:40:32Z</time>
      </trkpt>
      <trkpt lat="44.80634" lon="-0.38387">
        <ele>81</ele>
        <time>2022-04-03T09:40:33Z</time>
      </trkpt>
      <trkpt lat="44.80637" lon="-0.38392">
        <ele>80.2</ele>
        <time>2022-04-03T09:40:34Z</time>
      </trkpt>
      <trkpt lat="44.80639" lon="-0.38398">
        <ele>80</ele>
        <time>2022-04-03T09:40:35Z</time>
      </trkpt>
      <trkpt lat="44.80643" lon="-0.38405">
        <ele>79.4</ele>
        <time>2022-04-03T09:40:36Z</time>
      </trkpt>
      <trkpt lat="44.80643" lon="-0.38405">
        <ele>79.4</ele>
        <time>2022-04-03T09:40:37Z</time>
      </trkpt>
      <trkpt lat="44.80643" lon="-0.38405">
        <ele>80</ele>
        <time>2022-04-03T09:40:38Z</time>
      </trkpt>
      <trkpt lat="44.80656" lon="-0.3842">
        <ele>79.6</ele>
        <time>2022-04-03T09:40:39Z</time>
      </trkpt>
      <trkpt lat="44.80659" lon="-0.38423">
        <ele>80.4</ele>
        <time>2022-04-03T09:40:40Z</time>
      </trkpt>
      <trkpt lat="44.80663" lon="-0.38426">
        <ele>80.6</ele>
        <time>2022-04-03T09:40:41Z</time>
      </trkpt>
      <trkpt lat="44.80665" lon="-0.38427">
        <ele>81.4</ele>
        <time>2022-04-03T09:40:42Z</time>
      </trkpt>
      <trkpt lat="44.80667" lon="-0.38429">
        <ele>80.8</ele>
        <time>2022-04-03T09:40:43Z</time>
      </trkpt>
      <trkpt lat="44.80667" lon="-0.38432">
        <ele>80</ele>
        <time>2022-04-03T09:40:44Z</time>
      </trkpt>
      <trkpt lat="44.80666" lon="-0.38435">
        <ele>79.4</ele>
        <time>2022-04-03T09:40:45Z</time>
      </trkpt>
      <trkpt lat="44.80661" lon="-0.38435">
        <ele>79</ele>
        <time>2022-04-03T09:40:46Z</time>
      </trkpt>
      <trkpt lat="44.80656" lon="-0.38432">
        <ele>78.6</ele>
        <time>2022-04-03T09:40:47Z</time>
      </trkpt>
      <trkpt lat="44.80656" lon="-0.38432">
        <ele>78.2</ele>
        <time>2022-04-03T09:40:48Z</time>
      </trkpt>
      <trkpt lat="44.80656" lon="-0.38432">
        <ele>77.8</ele>
        <time>2022-04-03T09:40:49Z</time>
      </trkpt>
      <trkpt lat="44.80639" lon="-0.38414">
        <ele>77.8</ele>
        <time>2022-04-03T09:40:50Z</time>
      </trkpt>
      <trkpt lat="44.80634" lon="-0.38407">
        <ele>77.4</ele>
        <time>2022-04-03T09:40:51Z</time>
      </trkpt>
      <trkpt lat="44.8063" lon="-0.38401">
        <ele>78</ele>
        <time>2022-04-03T09:40:52Z</time>
      </trkpt>
      <trkpt lat="44.80627" lon="-0.38394">
        <ele>78.2</ele>
        <time>2022-04-03T09:40:53Z</time>
      </trkpt>
      <trkpt lat="44.80625" lon="-0.38387">
        <ele>78</ele>
        <time>2022-04-03T09:40:54Z</time>
      </trkpt>
      <trkpt lat="44.80624" lon="-0.3838">
        <ele>77.2</ele>
        <time>2022-04-03T09:40:55Z</time>
      </trkpt>
      <trkpt lat="44.80621" lon="-0.38375">
        <ele>76.6</ele>
        <time>2022-04-03T09:40:56Z</time>
      </trkpt>
      <trkpt lat="44.80616" lon="-0.38371">
        <ele>76.6</ele>
        <time>2022-04-03T09:40:57Z</time>
      </trkpt>
      <trkpt lat="44.80616" lon="-0.38371">
        <ele>76.6</ele>
        <time>2022-04-03T09:40:58Z</time>
      </trkpt>
      <trkpt lat="44.80616" lon="-0.38371">
        <ele>76.6</ele>
        <time>2022-04-03T09:40:59Z</time>
      </trkpt>
      <trkpt lat="44.80604" lon="-0.38351">
        <ele>76.8</ele>
        <time>2022-04-03T09:41:00Z</time>
      </trkpt>
      <trkpt lat="44.80601" lon="-0.38344">
        <ele>76.8</ele>
        <time>2022-04-03T09:41:01Z</time>
      </trkpt>
      <trkpt lat="44.80602" lon="-0.38336">
        <ele>77</ele>
        <time>2022-04-03T09:41:02Z</time>
      </trkpt>
      <trkpt lat="44.80603" lon="-0.38329">
        <ele>77.6</ele>
        <time>2022-04-03T09:41:03Z</time>
      </trkpt>
      <trkpt lat="44.80604" lon="-0.38321">
        <ele>78</ele>
        <time>2022-04-03T09:41:04Z</time>
      </trkpt>
      <trkpt lat="44.80605" lon="-0.38313">
        <ele>77.6</ele>
        <time>2022-04-03T09:41:05Z</time>
      </trkpt>
      <trkpt lat="44.80605" lon="-0.38307">
        <ele>77.4</ele>
        <time>2022-04-03T09:41:06Z</time>
      </trkpt>
      <trkpt lat="44.80603" lon="-0.38301">
        <ele>77.2</ele>
        <time>2022-04-03T09:41:07Z</time>
      </trkpt>
      <trkpt lat="44.806" lon="-0.38296">
        <ele>76.8</ele>
        <time>2022-04-03T09:41:08Z</time>
      </trkpt>
      <trkpt lat="44.806" lon="-0.38296">
        <ele>75.8</ele>
        <time>2022-04-03T09:41:09Z</time>
      </trkpt>
      <trkpt lat="44.80594" lon="-0.38291">
        <ele>75</ele>
        <time>2022-04-03T09:41:10Z</time>
      </trkpt>
      <trkpt lat="44.80592" lon="-0.38293">
        <ele>74.4</ele>
        <time>2022-04-03T09:41:11Z</time>
      </trkpt>
      <trkpt lat="44.80589" lon="-0.38294">
        <ele>73.4</ele>
        <time>2022-04-03T09:41:12Z</time>
      </trkpt>
      <trkpt lat="44.80584" lon="-0.38295">
        <ele>72.4</ele>
        <time>2022-04-03T09:41:13Z</time>
      </trkpt>
      <trkpt lat="44.80582" lon="-0.38297">
        <ele>72.2</ele>
        <time>2022-04-03T09:41:14Z</time>
      </trkpt>
      <trkpt lat="44.80581" lon="-0.38302">
        <ele>72.2</ele>
        <time>2022-04-03T09:41:15Z</time>
      </trkpt>
      <trkpt lat="44.80579" lon="-0.38306">
        <ele>71.8</ele>
        <time>2022-04-03T09:41:16Z</time>
      </trkpt>
      <trkpt lat="44.80578" lon="-0.38311">
        <ele>71.6</ele>
        <time>2022-04-03T09:41:17Z</time>
      </trkpt>
      <trkpt lat="44.80578" lon="-0.38311">
        <ele>70.8</ele>
        <time>2022-04-03T09:41:18Z</time>
      </trkpt>
      <trkpt lat="44.80578" lon="-0.38311">
        <ele>70.8</ele>
        <time>2022-04-03T09:41:19Z</time>
      </trkpt>
      <trkpt lat="44.80571" lon="-0.38308">
        <ele>69.4</ele>
        <time>2022-04-03T09:41:20Z</time>
      </trkpt>
      <trkpt lat="44.80568" lon="-0.38303">
        <ele>68.6</ele>
        <time>2022-04-03T09:41:21Z</time>
      </trkpt>
      <trkpt lat="44.80567" lon="-0.38297">
        <ele>68.6</ele>
        <time>2022-04-03T09:41:22Z</time>
      </trkpt>
      <trkpt lat="44.80568" lon="-0.38291">
        <ele>69.4</ele>
        <time>2022-04-03T09:41:23Z</time>
      </trkpt>
      <trkpt lat="44.8057" lon="-0.38286">
        <ele>69.8</ele>
        <time>2022-04-03T09:41:24Z</time>
      </trkpt>
      <trkpt lat="44.80571" lon="-0.38281">
        <ele>69.8</ele>
        <time>2022-04-03T09:41:25Z</time>
      </trkpt>
      <trkpt lat="44.80573" lon="-0.38277">
        <ele>70</ele>
        <time>2022-04-03T09:41:26Z</time>
      </trkpt>
      <trkpt lat="44.80575" lon="-0.38274">
        <ele>70.4</ele>
        <time>2022-04-03T09:41:27Z</time>
      </trkpt>
      <trkpt lat="44.80577" lon="-0.38275">
        <ele>70.8</ele>
        <time>2022-04-03T09:41:28Z</time>
      </trkpt>
      <trkpt lat="44.80578" lon="-0.38278">
        <ele>71.2</ele>
        <time>2022-04-03T09:41:29Z</time>
      </trkpt>
      <trkpt lat="44.80578" lon="-0.38278">
        <ele>71.2</ele>
        <time>2022-04-03T09:41:30Z</time>
      </trkpt>
      <trkpt lat="44.80581" lon="-0.3828">
        <ele>71.6</ele>
        <time>2022-04-03T09:41:31Z</time>
      </trkpt>
      <trkpt lat="44.80582" lon="-0.38279">
        <ele>71.8</ele>
        <time>2022-04-03T09:41:32Z</time>
      </trkpt>
      <trkpt lat="44.80582" lon="-0.38275">
        <ele>72.2</ele>
        <time>2022-04-03T09:41:33Z</time>
      </trkpt>
      <trkpt lat="44.80582" lon="-0.38272">
        <ele>72.6</ele>
        <time>2022-04-03T09:41:34Z</time>
      </trkpt>
      <trkpt lat="44.80583" lon="-0.38271">
        <ele>73</ele>
        <time>2022-04-03T09:41:35Z</time>
      </trkpt>
      <trkpt lat="44.80586" lon="-0.3827">
        <ele>73.6</ele>
        <time>2022-04-03T09:41:36Z</time>
      </trkpt>
      <trkpt lat="44.80589" lon="-0.3827">
        <ele>74</ele>
        <time>2022-04-03T09:41:37Z</time>
      </trkpt>
      <trkpt lat="44.80591" lon="-0.3827">
        <ele>74.8</ele>
        <time>2022-04-03T09:41:38Z</time>
      </trkpt>
      <trkpt lat="44.80591" lon="-0.3827">
        <ele>75.6</ele>
        <time>2022-04-03T09:41:39Z</time>
      </trkpt>
      <trkpt lat="44.80591" lon="-0.3827">
        <ele>75.6</ele>
        <time>2022-04-03T09:41:40Z</time>
      </trkpt>
      <trkpt lat="44.80595" lon="-0.38274">
        <ele>76.2</ele>
        <time>2022-04-03T09:41:41Z</time>
      </trkpt>
      <trkpt lat="44.80596" lon="-0.38275">
        <ele>76.6</ele>
        <time>2022-04-03T09:41:42Z</time>
      </trkpt>
      <trkpt lat="44.80596" lon="-0.38276">
        <ele>77</ele>
        <time>2022-04-03T09:41:43Z</time>
      </trkpt>
      <trkpt lat="44.80597" lon="-0.38276">
        <ele>77.2</ele>
        <time>2022-04-03T09:41:44Z</time>
      </trkpt>
      <trkpt lat="44.80598" lon="-0.38273">
        <ele>77.4</ele>
        <time>2022-04-03T09:41:45Z</time>
      </trkpt>
      <trkpt lat="44.80599" lon="-0.3827">
        <ele>77.6</ele>
        <time>2022-04-03T09:41:46Z</time>
      </trkpt>
      <trkpt lat="44.80599" lon="-0.38268">
        <ele>77.8</ele>
        <time>2022-04-03T09:41:47Z</time>
      </trkpt>
      <trkpt lat="44.80598" lon="-0.38265">
        <ele>78</ele>
        <time>2022-04-03T09:41:48Z</time>
      </trkpt>
      <trkpt lat="44.80597" lon="-0.38262">
        <ele>77.8</ele>
        <time>2022-04-03T09:41:49Z</time>
      </trkpt>
      <trkpt lat="44.80597" lon="-0.38262">
        <ele>77.6</ele>
        <time>2022-04-03T09:41:50Z</time>
      </trkpt>
      <trkpt lat="44.80597" lon="-0.38262">
        <ele>77</ele>
        <time>2022-04-03T09:41:51Z</time>
      </trkpt>
      <trkpt lat="44.80594" lon="-0.38247">
        <ele>77.2</ele>
        <time>2022-04-03T09:41:52Z</time>
      </trkpt>
      <trkpt lat="44.80595" lon="-0.38243">
        <ele>77.2</ele>
        <time>2022-04-03T09:41:53Z</time>
      </trkpt>
      <trkpt lat="44.80597" lon="-0.38241">
        <ele>77.8</ele>
        <time>2022-04-03T09:41:54Z</time>
      </trkpt>
      <trkpt lat="44.80599" lon="-0.38241">
        <ele>78.4</ele>
        <time>2022-04-03T09:41:55Z</time>
      </trkpt>
      <trkpt lat="44.80601" lon="-0.38242">
        <ele>78.6</ele>
        <time>2022-04-03T09:41:56Z</time>
      </trkpt>
      <trkpt lat="44.80603" lon="-0.38244">
        <ele>79</ele>
        <time>2022-04-03T09:41:57Z</time>
      </trkpt>
      <trkpt lat="44.80604" lon="-0.38246">
        <ele>79.2</ele>
        <time>2022-04-03T09:41:58Z</time>
      </trkpt>
      <trkpt lat="44.80605" lon="-0.38248">
        <ele>79.6</ele>
        <time>2022-04-03T09:41:59Z</time>
      </trkpt>
      <trkpt lat="44.8061" lon="-0.38249">
        <ele>80</ele>
        <time>2022-04-03T09:42:00Z</time>
      </trkpt>
      <trkpt lat="44.8061" lon="-0.38249">
        <ele>80</ele>
        <time>2022-04-03T09:42:01Z</time>
      </trkpt>
      <trkpt lat="44.80612" lon="-0.38246">
        <ele>80.4</ele>
        <time>2022-04-03T09:42:02Z</time>
      </trkpt>
      <trkpt lat="44.80615" lon="-0.38244">
        <ele>81</ele>
        <time>2022-04-03T09:42:03Z</time>
      </trkpt>
      <trkpt lat="44.80616" lon="-0.38243">
        <ele>81.6</ele>
        <time>2022-04-03T09:42:04Z</time>
      </trkpt>
      <trkpt lat="44.80618" lon="-0.38243">
        <ele>82</ele>
        <time>2022-04-03T09:42:05Z</time>
      </trkpt>
      <trkpt lat="44.80619" lon="-0.38241">
        <ele>81.8</ele>
        <time>2022-04-03T09:42:06Z</time>
      </trkpt>
      <trkpt lat="44.80618" lon="-0.38238">
        <ele>82.2</ele>
        <time>2022-04-03T09:42:07Z</time>
      </trkpt>
      <trkpt lat="44.80618" lon="-0.38235">
        <ele>82.2</ele>
        <time>2022-04-03T09:42:08Z</time>
      </trkpt>
      <trkpt lat="44.80617" lon="-0.38231">
        <ele>82.2</ele>
        <time>2022-04-03T09:42:09Z</time>
      </trkpt>
      <trkpt lat="44.80615" lon="-0.3823">
        <ele>81.2</ele>
        <time>2022-04-03T09:42:10Z</time>
      </trkpt>
      <trkpt lat="44.80615" lon="-0.3823">
        <ele>80.8</ele>
        <time>2022-04-03T09:42:11Z</time>
      </trkpt>
      <trkpt lat="44.80605" lon="-0.38223">
        <ele>79.6</ele>
        <time>2022-04-03T09:42:12Z</time>
      </trkpt>
      <trkpt lat="44.80599" lon="-0.38219">
        <ele>78.6</ele>
        <time>2022-04-03T09:42:13Z</time>
      </trkpt>
      <trkpt lat="44.80592" lon="-0.38216">
        <ele>76.4</ele>
        <time>2022-04-03T09:42:14Z</time>
      </trkpt>
      <trkpt lat="44.80585" lon="-0.38216">
        <ele>75.2</ele>
        <time>2022-04-03T09:42:15Z</time>
      </trkpt>
      <trkpt lat="44.80579" lon="-0.38213">
        <ele>74.4</ele>
        <time>2022-04-03T09:42:16Z</time>
      </trkpt>
      <trkpt lat="44.80573" lon="-0.38209">
        <ele>74.2</ele>
        <time>2022-04-03T09:42:17Z</time>
      </trkpt>
      <trkpt lat="44.80571" lon="-0.38204">
        <ele>73.8</ele>
        <time>2022-04-03T09:42:18Z</time>
      </trkpt>
      <trkpt lat="44.80571" lon="-0.38197">
        <ele>73.4</ele>
        <time>2022-04-03T09:42:19Z</time>
      </trkpt>
      <trkpt lat="44.80571" lon="-0.38197">
        <ele>73.2</ele>
        <time>2022-04-03T09:42:20Z</time>
      </trkpt>
      <trkpt lat="44.80576" lon="-0.38184">
        <ele>72</ele>
        <time>2022-04-03T09:42:21Z</time>
      </trkpt>
      <trkpt lat="44.80576" lon="-0.38184">
        <ele>72</ele>
        <time>2022-04-03T09:42:22Z</time>
      </trkpt>
      <trkpt lat="44.80578" lon="-0.3818">
        <ele>71.2</ele>
        <time>2022-04-03T09:42:23Z</time>
      </trkpt>
      <trkpt lat="44.80578" lon="-0.38177">
        <ele>70.2</ele>
        <time>2022-04-03T09:42:24Z</time>
      </trkpt>
      <trkpt lat="44.80578" lon="-0.38176">
        <ele>69.6</ele>
        <time>2022-04-03T09:42:25Z</time>
      </trkpt>
      <trkpt lat="44.80578" lon="-0.3817">
        <ele>69</ele>
        <time>2022-04-03T09:42:26Z</time>
      </trkpt>
      <trkpt lat="44.80576" lon="-0.38165">
        <ele>68.4</ele>
        <time>2022-04-03T09:42:27Z</time>
      </trkpt>
      <trkpt lat="44.80575" lon="-0.3816">
        <ele>68.6</ele>
        <time>2022-04-03T09:42:28Z</time>
      </trkpt>
      <trkpt lat="44.80573" lon="-0.38157">
        <ele>68.4</ele>
        <time>2022-04-03T09:42:29Z</time>
      </trkpt>
      <trkpt lat="44.80572" lon="-0.38157">
        <ele>68.8</ele>
        <time>2022-04-03T09:42:30Z</time>
      </trkpt>
      <trkpt lat="44.80572" lon="-0.38157">
        <ele>69.2</ele>
        <time>2022-04-03T09:42:31Z</time>
      </trkpt>
      <trkpt lat="44.80572" lon="-0.38157">
        <ele>69.4</ele>
        <time>2022-04-03T09:42:32Z</time>
      </trkpt>
      <trkpt lat="44.80569" lon="-0.38158">
        <ele>69.8</ele>
        <time>2022-04-03T09:42:33Z</time>
      </trkpt>
      <trkpt lat="44.80569" lon="-0.38159">
        <ele>69.8</ele>
        <time>2022-04-03T09:42:34Z</time>
      </trkpt>
      <trkpt lat="44.80568" lon="-0.3816">
        <ele>70.6</ele>
        <time>2022-04-03T09:42:35Z</time>
      </trkpt>
      <trkpt lat="44.80568" lon="-0.38162">
        <ele>71.2</ele>
        <time>2022-04-03T09:42:36Z</time>
      </trkpt>
      <trkpt lat="44.80569" lon="-0.38164">
        <ele>71.6</ele>
        <time>2022-04-03T09:42:37Z</time>
      </trkpt>
      <trkpt lat="44.8057" lon="-0.38167">
        <ele>71.8</ele>
        <time>2022-04-03T09:42:38Z</time>
      </trkpt>
      <trkpt lat="44.8057" lon="-0.3817">
        <ele>72</ele>
        <time>2022-04-03T09:42:39Z</time>
      </trkpt>
      <trkpt lat="44.8057" lon="-0.38173">
        <ele>72</ele>
        <time>2022-04-03T09:42:40Z</time>
      </trkpt>
      <trkpt lat="44.80571" lon="-0.38181">
        <ele>72.2</ele>
        <time>2022-04-03T09:42:41Z</time>
      </trkpt>
      <trkpt lat="44.80572" lon="-0.38185">
        <ele>72.4</ele>
        <time>2022-04-03T09:42:42Z</time>
      </trkpt>
      <trkpt lat="44.80572" lon="-0.38185">
        <ele>72.4</ele>
        <time>2022-04-03T09:42:43Z</time>
      </trkpt>
      <trkpt lat="44.80574" lon="-0.38189">
        <ele>72.8</ele>
        <time>2022-04-03T09:42:44Z</time>
      </trkpt>
      <trkpt lat="44.80574" lon="-0.38191">
        <ele>72.8</ele>
        <time>2022-04-03T09:42:45Z</time>
      </trkpt>
      <trkpt lat="44.80574" lon="-0.38194">
        <ele>72.8</ele>
        <time>2022-04-03T09:42:46Z</time>
      </trkpt>
      <trkpt lat="44.80574" lon="-0.38197">
        <ele>73</ele>
        <time>2022-04-03T09:42:47Z</time>
      </trkpt>
      <trkpt lat="44.80573" lon="-0.38199">
        <ele>72.8</ele>
        <time>2022-04-03T09:42:48Z</time>
      </trkpt>
      <trkpt lat="44.80574" lon="-0.38201">
        <ele>73</ele>
        <time>2022-04-03T09:42:49Z</time>
      </trkpt>
      <trkpt lat="44.80576" lon="-0.38203">
        <ele>73</ele>
        <time>2022-04-03T09:42:50Z</time>
      </trkpt>
      <trkpt lat="44.80578" lon="-0.38205">
        <ele>73.8</ele>
        <time>2022-04-03T09:42:51Z</time>
      </trkpt>
      <trkpt lat="44.80579" lon="-0.3821">
        <ele>74.4</ele>
        <time>2022-04-03T09:42:52Z</time>
      </trkpt>
      <trkpt lat="44.80579" lon="-0.3821">
        <ele>74.8</ele>
        <time>2022-04-03T09:42:53Z</time>
      </trkpt>
      <trkpt lat="44.80579" lon="-0.38213">
        <ele>74.8</ele>
        <time>2022-04-03T09:42:54Z</time>
      </trkpt>
      <trkpt lat="44.80579" lon="-0.38214">
        <ele>74.2</ele>
        <time>2022-04-03T09:42:55Z</time>
      </trkpt>
      <trkpt lat="44.80579" lon="-0.38216">
        <ele>74</ele>
        <time>2022-04-03T09:42:56Z</time>
      </trkpt>
      <trkpt lat="44.80578" lon="-0.3822">
        <ele>73.2</ele>
        <time>2022-04-03T09:42:57Z</time>
      </trkpt>
      <trkpt lat="44.80577" lon="-0.38223">
        <ele>72.8</ele>
        <time>2022-04-03T09:42:58Z</time>
      </trkpt>
      <trkpt lat="44.80575" lon="-0.38223">
        <ele>72.4</ele>
        <time>2022-04-03T09:42:59Z</time>
      </trkpt>
      <trkpt lat="44.80575" lon="-0.38221">
        <ele>72.4</ele>
        <time>2022-04-03T09:43:00Z</time>
      </trkpt>
      <trkpt lat="44.80575" lon="-0.3822">
        <ele>72.4</ele>
        <time>2022-04-03T09:43:01Z</time>
      </trkpt>
      <trkpt lat="44.80574" lon="-0.3822">
        <ele>71.4</ele>
        <time>2022-04-03T09:43:02Z</time>
      </trkpt>
      <trkpt lat="44.80572" lon="-0.38221">
        <ele>71</ele>
        <time>2022-04-03T09:43:03Z</time>
      </trkpt>
      <trkpt lat="44.80572" lon="-0.38221">
        <ele>71</ele>
        <time>2022-04-03T09:43:04Z</time>
      </trkpt>
      <trkpt lat="44.80569" lon="-0.38223">
        <ele>69.6</ele>
        <time>2022-04-03T09:43:05Z</time>
      </trkpt>
      <trkpt lat="44.80564" lon="-0.38225">
        <ele>69.8</ele>
        <time>2022-04-03T09:43:06Z</time>
      </trkpt>
      <trkpt lat="44.8056" lon="-0.38225">
        <ele>69.2</ele>
        <time>2022-04-03T09:43:07Z</time>
      </trkpt>
      <trkpt lat="44.80557" lon="-0.38223">
        <ele>69.6</ele>
        <time>2022-04-03T09:43:08Z</time>
      </trkpt>
      <trkpt lat="44.80556" lon="-0.38222">
        <ele>69.4</ele>
        <time>2022-04-03T09:43:09Z</time>
      </trkpt>
      <trkpt lat="44.80553" lon="-0.38219">
        <ele>69.6</ele>
        <time>2022-04-03T09:43:10Z</time>
      </trkpt>
      <trkpt lat="44.8055" lon="-0.38216">
        <ele>69.8</ele>
        <time>2022-04-03T09:43:11Z</time>
      </trkpt>
      <trkpt lat="44.8055" lon="-0.38216">
        <ele>70</ele>
        <time>2022-04-03T09:43:12Z</time>
      </trkpt>
      <trkpt lat="44.80547" lon="-0.38206">
        <ele>70</ele>
        <time>2022-04-03T09:43:13Z</time>
      </trkpt>
      <trkpt lat="44.80547" lon="-0.38206">
        <ele>70.6</ele>
        <time>2022-04-03T09:43:14Z</time>
      </trkpt>
      <trkpt lat="44.80549" lon="-0.38203">
        <ele>71</ele>
        <time>2022-04-03T09:43:15Z</time>
      </trkpt>
      <trkpt lat="44.8055" lon="-0.382">
        <ele>71.6</ele>
        <time>2022-04-03T09:43:16Z</time>
      </trkpt>
      <trkpt lat="44.80553" lon="-0.38196">
        <ele>71.6</ele>
        <time>2022-04-03T09:43:17Z</time>
      </trkpt>
      <trkpt lat="44.80555" lon="-0.38193">
        <ele>71.4</ele>
        <time>2022-04-03T09:43:18Z</time>
      </trkpt>
      <trkpt lat="44.80556" lon="-0.3819">
        <ele>71</ele>
        <time>2022-04-03T09:43:19Z</time>
      </trkpt>
      <trkpt lat="44.80557" lon="-0.38187">
        <ele>70.4</ele>
        <time>2022-04-03T09:43:20Z</time>
      </trkpt>
      <trkpt lat="44.80557" lon="-0.38184">
        <ele>70.2</ele>
        <time>2022-04-03T09:43:21Z</time>
      </trkpt>
      <trkpt lat="44.80557" lon="-0.38184">
        <ele>69.4</ele>
        <time>2022-04-03T09:43:22Z</time>
      </trkpt>
      <trkpt lat="44.80549" lon="-0.38182">
        <ele>69</ele>
        <time>2022-04-03T09:43:23Z</time>
      </trkpt>
      <trkpt lat="44.80549" lon="-0.3818">
        <ele>67.8</ele>
        <time>2022-04-03T09:43:24Z</time>
      </trkpt>
      <trkpt lat="44.80549" lon="-0.3818">
        <ele>67.8</ele>
        <time>2022-04-03T09:43:25Z</time>
      </trkpt>
      <trkpt lat="44.80549" lon="-0.38178">
        <ele>67.4</ele>
        <time>2022-04-03T09:43:26Z</time>
      </trkpt>
      <trkpt lat="44.80551" lon="-0.38176">
        <ele>67.2</ele>
        <time>2022-04-03T09:43:27Z</time>
      </trkpt>
      <trkpt lat="44.80553" lon="-0.38172">
        <ele>67.6</ele>
        <time>2022-04-03T09:43:28Z</time>
      </trkpt>
      <trkpt lat="44.80554" lon="-0.38168">
        <ele>67.6</ele>
        <time>2022-04-03T09:43:29Z</time>
      </trkpt>
      <trkpt lat="44.80555" lon="-0.38164">
        <ele>67.8</ele>
        <time>2022-04-03T09:43:30Z</time>
      </trkpt>
      <trkpt lat="44.80556" lon="-0.38161">
        <ele>68</ele>
        <time>2022-04-03T09:43:31Z</time>
      </trkpt>
      <trkpt lat="44.80558" lon="-0.38158">
        <ele>68</ele>
        <time>2022-04-03T09:43:32Z</time>
      </trkpt>
      <trkpt lat="44.8056" lon="-0.38155">
        <ele>67.4</ele>
        <time>2022-04-03T09:43:33Z</time>
      </trkpt>
      <trkpt lat="44.80565" lon="-0.3815">
        <ele>66.8</ele>
        <time>2022-04-03T09:43:34Z</time>
      </trkpt>
      <trkpt lat="44.80565" lon="-0.3815">
        <ele>66</ele>
        <time>2022-04-03T09:43:35Z</time>
      </trkpt>
      <trkpt lat="44.80567" lon="-0.38148">
        <ele>66</ele>
        <time>2022-04-03T09:43:36Z</time>
      </trkpt>
      <trkpt lat="44.80568" lon="-0.38146">
        <ele>66.2</ele>
        <time>2022-04-03T09:43:37Z</time>
      </trkpt>
      <trkpt lat="44.80569" lon="-0.38144">
        <ele>66.6</ele>
        <time>2022-04-03T09:43:38Z</time>
      </trkpt>
      <trkpt lat="44.8057" lon="-0.38142">
        <ele>67</ele>
        <time>2022-04-03T09:43:39Z</time>
      </trkpt>
      <trkpt lat="44.80572" lon="-0.38142">
        <ele>67.2</ele>
        <time>2022-04-03T09:43:40Z</time>
      </trkpt>
      <trkpt lat="44.80573" lon="-0.38144">
        <ele>67.8</ele>
        <time>2022-04-03T09:43:41Z</time>
      </trkpt>
      <trkpt lat="44.80574" lon="-0.38145">
        <ele>68</ele>
        <time>2022-04-03T09:43:42Z</time>
      </trkpt>
      <trkpt lat="44.80577" lon="-0.38147">
        <ele>68.6</ele>
        <time>2022-04-03T09:43:43Z</time>
      </trkpt>
      <trkpt lat="44.80578" lon="-0.38147">
        <ele>69</ele>
        <time>2022-04-03T09:43:44Z</time>
      </trkpt>
      <trkpt lat="44.80577" lon="-0.38146">
        <ele>69.6</ele>
        <time>2022-04-03T09:43:45Z</time>
      </trkpt>
      <trkpt lat="44.80577" lon="-0.38146">
        <ele>69.6</ele>
        <time>2022-04-03T09:43:46Z</time>
      </trkpt>
      <trkpt lat="44.80578" lon="-0.38146">
        <ele>70</ele>
        <time>2022-04-03T09:43:47Z</time>
      </trkpt>
      <trkpt lat="44.8058" lon="-0.38146">
        <ele>70.2</ele>
        <time>2022-04-03T09:43:48Z</time>
      </trkpt>
      <trkpt lat="44.80582" lon="-0.38147">
        <ele>71</ele>
        <time>2022-04-03T09:43:49Z</time>
      </trkpt>
      <trkpt lat="44.80583" lon="-0.38148">
        <ele>71.6</ele>
        <time>2022-04-03T09:43:50Z</time>
      </trkpt>
      <trkpt lat="44.80585" lon="-0.38149">
        <ele>72.4</ele>
        <time>2022-04-03T09:43:51Z</time>
      </trkpt>
      <trkpt lat="44.80588" lon="-0.38151">
        <ele>72.6</ele>
        <time>2022-04-03T09:43:52Z</time>
      </trkpt>
      <trkpt lat="44.80588" lon="-0.38151">
        <ele>73</ele>
        <time>2022-04-03T09:43:53Z</time>
      </trkpt>
      <trkpt lat="44.80592" lon="-0.38159">
        <ele>73.2</ele>
        <time>2022-04-03T09:43:54Z</time>
      </trkpt>
      <trkpt lat="44.80592" lon="-0.38161">
        <ele>73.6</ele>
        <time>2022-04-03T09:43:55Z</time>
      </trkpt>
      <trkpt lat="44.80592" lon="-0.38161">
        <ele>73.6</ele>
        <time>2022-04-03T09:43:56Z</time>
      </trkpt>
      <trkpt lat="44.80592" lon="-0.38163">
        <ele>73.8</ele>
        <time>2022-04-03T09:43:57Z</time>
      </trkpt>
      <trkpt lat="44.80593" lon="-0.38166">
        <ele>73.8</ele>
        <time>2022-04-03T09:43:58Z</time>
      </trkpt>
      <trkpt lat="44.80594" lon="-0.38168">
        <ele>74</ele>
        <time>2022-04-03T09:43:59Z</time>
      </trkpt>
      <trkpt lat="44.80595" lon="-0.38171">
        <ele>74.2</ele>
        <time>2022-04-03T09:44:00Z</time>
      </trkpt>
      <trkpt lat="44.80596" lon="-0.38174">
        <ele>74.6</ele>
        <time>2022-04-03T09:44:01Z</time>
      </trkpt>
      <trkpt lat="44.80596" lon="-0.38177">
        <ele>74.8</ele>
        <time>2022-04-03T09:44:02Z</time>
      </trkpt>
      <trkpt lat="44.80599" lon="-0.38182">
        <ele>75.2</ele>
        <time>2022-04-03T09:44:03Z</time>
      </trkpt>
      <trkpt lat="44.80601" lon="-0.38184">
        <ele>75.6</ele>
        <time>2022-04-03T09:44:04Z</time>
      </trkpt>
      <trkpt lat="44.80604" lon="-0.38185">
        <ele>76</ele>
        <time>2022-04-03T09:44:05Z</time>
      </trkpt>
      <trkpt lat="44.80607" lon="-0.38186">
        <ele>76.6</ele>
        <time>2022-04-03T09:44:06Z</time>
      </trkpt>
      <trkpt lat="44.80607" lon="-0.38186">
        <ele>76.6</ele>
        <time>2022-04-03T09:44:07Z</time>
      </trkpt>
      <trkpt lat="44.8061" lon="-0.38187">
        <ele>76.8</ele>
        <time>2022-04-03T09:44:08Z</time>
      </trkpt>
      <trkpt lat="44.80612" lon="-0.38187">
        <ele>77</ele>
        <time>2022-04-03T09:44:09Z</time>
      </trkpt>
      <trkpt lat="44.80613" lon="-0.38187">
        <ele>77.2</ele>
        <time>2022-04-03T09:44:10Z</time>
      </trkpt>
      <trkpt lat="44.80614" lon="-0.38187">
        <ele>77.4</ele>
        <time>2022-04-03T09:44:11Z</time>
      </trkpt>
      <trkpt lat="44.80616" lon="-0.38187">
        <ele>77.8</ele>
        <time>2022-04-03T09:44:12Z</time>
      </trkpt>
      <trkpt lat="44.80618" lon="-0.38187">
        <ele>78.2</ele>
        <time>2022-04-03T09:44:13Z</time>
      </trkpt>
      <trkpt lat="44.80621" lon="-0.38185">
        <ele>78.6</ele>
        <time>2022-04-03T09:44:14Z</time>
      </trkpt>
      <trkpt lat="44.80622" lon="-0.38185">
        <ele>78.8</ele>
        <time>2022-04-03T09:44:15Z</time>
      </trkpt>
      <trkpt lat="44.80625" lon="-0.38185">
        <ele>79</ele>
        <time>2022-04-03T09:44:16Z</time>
      </trkpt>
      <trkpt lat="44.80625" lon="-0.38185">
        <ele>79.2</ele>
        <time>2022-04-03T09:44:17Z</time>
      </trkpt>
      <trkpt lat="44.80627" lon="-0.38186">
        <ele>79.6</ele>
        <time>2022-04-03T09:44:18Z</time>
      </trkpt>
      <trkpt lat="44.80629" lon="-0.38187">
        <ele>79.8</ele>
        <time>2022-04-03T09:44:19Z</time>
      </trkpt>
      <trkpt lat="44.80631" lon="-0.38188">
        <ele>80.2</ele>
        <time>2022-04-03T09:44:20Z</time>
      </trkpt>
      <trkpt lat="44.80633" lon="-0.3819">
        <ele>80.6</ele>
        <time>2022-04-03T09:44:21Z</time>
      </trkpt>
      <trkpt lat="44.80635" lon="-0.38194">
        <ele>81</ele>
        <time>2022-04-03T09:44:22Z</time>
      </trkpt>
      <trkpt lat="44.80636" lon="-0.38197">
        <ele>81.6</ele>
        <time>2022-04-03T09:44:23Z</time>
      </trkpt>
      <trkpt lat="44.80638" lon="-0.382">
        <ele>81.8</ele>
        <time>2022-04-03T09:44:24Z</time>
      </trkpt>
      <trkpt lat="44.80638" lon="-0.38202">
        <ele>82.2</ele>
        <time>2022-04-03T09:44:25Z</time>
      </trkpt>
      <trkpt lat="44.80639" lon="-0.38204">
        <ele>82.4</ele>
        <time>2022-04-03T09:44:26Z</time>
      </trkpt>
      <trkpt lat="44.8064" lon="-0.38208">
        <ele>82.8</ele>
        <time>2022-04-03T09:44:27Z</time>
      </trkpt>
      <trkpt lat="44.8064" lon="-0.38208">
        <ele>82.8</ele>
        <time>2022-04-03T09:44:28Z</time>
      </trkpt>
      <trkpt lat="44.8064" lon="-0.38211">
        <ele>83</ele>
        <time>2022-04-03T09:44:29Z</time>
      </trkpt>
      <trkpt lat="44.80641" lon="-0.38213">
        <ele>83.4</ele>
        <time>2022-04-03T09:44:30Z</time>
      </trkpt>
      <trkpt lat="44.80643" lon="-0.38216">
        <ele>83.8</ele>
        <time>2022-04-03T09:44:31Z</time>
      </trkpt>
      <trkpt lat="44.80644" lon="-0.38219">
        <ele>84.4</ele>
        <time>2022-04-03T09:44:32Z</time>
      </trkpt>
      <trkpt lat="44.80645" lon="-0.38221">
        <ele>84.8</ele>
        <time>2022-04-03T09:44:33Z</time>
      </trkpt>
      <trkpt lat="44.80647" lon="-0.38224">
        <ele>85.2</ele>
        <time>2022-04-03T09:44:34Z</time>
      </trkpt>
      <trkpt lat="44.8065" lon="-0.38231">
        <ele>85.6</ele>
        <time>2022-04-03T09:44:35Z</time>
      </trkpt>
      <trkpt lat="44.80652" lon="-0.38234">
        <ele>85.8</ele>
        <time>2022-04-03T09:44:36Z</time>
      </trkpt>
      <trkpt lat="44.80653" lon="-0.38238">
        <ele>86.2</ele>
        <time>2022-04-03T09:44:37Z</time>
      </trkpt>
      <trkpt lat="44.80653" lon="-0.38238">
        <ele>86.4</ele>
        <time>2022-04-03T09:44:38Z</time>
      </trkpt>
      <trkpt lat="44.80653" lon="-0.38241">
        <ele>86.6</ele>
        <time>2022-04-03T09:44:39Z</time>
      </trkpt>
      <trkpt lat="44.80654" lon="-0.38245">
        <ele>86.8</ele>
        <time>2022-04-03T09:44:40Z</time>
      </trkpt>
      <trkpt lat="44.80655" lon="-0.38249">
        <ele>87</ele>
        <time>2022-04-03T09:44:41Z</time>
      </trkpt>
      <trkpt lat="44.80656" lon="-0.38253">
        <ele>87.4</ele>
        <time>2022-04-03T09:44:42Z</time>
      </trkpt>
      <trkpt lat="44.80655" lon="-0.38257">
        <ele>87.8</ele>
        <time>2022-04-03T09:44:43Z</time>
      </trkpt>
      <trkpt lat="44.80655" lon="-0.38257">
        <ele>88</ele>
        <time>2022-04-03T09:44:44Z</time>
      </trkpt>
      <trkpt lat="44.80652" lon="-0.38267">
        <ele>88</ele>
        <time>2022-04-03T09:44:45Z</time>
      </trkpt>
      <trkpt lat="44.80652" lon="-0.38272">
        <ele>88</ele>
        <time>2022-04-03T09:44:46Z</time>
      </trkpt>
      <trkpt lat="44.80652" lon="-0.38276">
        <ele>88.2</ele>
        <time>2022-04-03T09:44:47Z</time>
      </trkpt>
      <trkpt lat="44.80652" lon="-0.38281">
        <ele>88.6</ele>
        <time>2022-04-03T09:44:48Z</time>
      </trkpt>
      <trkpt lat="44.80652" lon="-0.38281">
        <ele>88.6</ele>
        <time>2022-04-03T09:44:49Z</time>
      </trkpt>
      <trkpt lat="44.80653" lon="-0.38285">
        <ele>89</ele>
        <time>2022-04-03T09:44:50Z</time>
      </trkpt>
      <trkpt lat="44.80653" lon="-0.38289">
        <ele>88.6</ele>
        <time>2022-04-03T09:44:51Z</time>
      </trkpt>
      <trkpt lat="44.80655" lon="-0.38293">
        <ele>88.8</ele>
        <time>2022-04-03T09:44:52Z</time>
      </trkpt>
      <trkpt lat="44.80656" lon="-0.38296">
        <ele>88.6</ele>
        <time>2022-04-03T09:44:53Z</time>
      </trkpt>
      <trkpt lat="44.80658" lon="-0.38298">
        <ele>89.4</ele>
        <time>2022-04-03T09:44:54Z</time>
      </trkpt>
      <trkpt lat="44.80661" lon="-0.383">
        <ele>89.8</ele>
        <time>2022-04-03T09:44:55Z</time>
      </trkpt>
      <trkpt lat="44.80666" lon="-0.38303">
        <ele>90</ele>
        <time>2022-04-03T09:44:56Z</time>
      </trkpt>
      <trkpt lat="44.80669" lon="-0.38304">
        <ele>90.2</ele>
        <time>2022-04-03T09:44:57Z</time>
      </trkpt>
      <trkpt lat="44.80673" lon="-0.38305">
        <ele>89.8</ele>
        <time>2022-04-03T09:44:58Z</time>
      </trkpt>
      <trkpt lat="44.80673" lon="-0.38305">
        <ele>90</ele>
        <time>2022-04-03T09:44:59Z</time>
      </trkpt>
      <trkpt lat="44.80676" lon="-0.38307">
        <ele>89.6</ele>
        <time>2022-04-03T09:45:00Z</time>
      </trkpt>
      <trkpt lat="44.80679" lon="-0.38308">
        <ele>89.2</ele>
        <time>2022-04-03T09:45:01Z</time>
      </trkpt>
      <trkpt lat="44.80684" lon="-0.38311">
        <ele>89</ele>
        <time>2022-04-03T09:45:02Z</time>
      </trkpt>
      <trkpt lat="44.80688" lon="-0.38314">
        <ele>89.2</ele>
        <time>2022-04-03T09:45:03Z</time>
      </trkpt>
      <trkpt lat="44.80691" lon="-0.38318">
        <ele>89.8</ele>
        <time>2022-04-03T09:45:04Z</time>
      </trkpt>
      <trkpt lat="44.80697" lon="-0.38329">
        <ele>89.6</ele>
        <time>2022-04-03T09:45:05Z</time>
      </trkpt>
      <trkpt lat="44.807" lon="-0.38335">
        <ele>89.8</ele>
        <time>2022-04-03T09:45:06Z</time>
      </trkpt>
      <trkpt lat="44.80703" lon="-0.38341">
        <ele>89.8</ele>
        <time>2022-04-03T09:45:07Z</time>
      </trkpt>
      <trkpt lat="44.80706" lon="-0.38347">
        <ele>90.2</ele>
        <time>2022-04-03T09:45:08Z</time>
      </trkpt>
      <trkpt lat="44.8071" lon="-0.38352">
        <ele>90.6</ele>
        <time>2022-04-03T09:45:09Z</time>
      </trkpt>
      <trkpt lat="44.8071" lon="-0.38352">
        <ele>90.6</ele>
        <time>2022-04-03T09:45:10Z</time>
      </trkpt>
      <trkpt lat="44.80712" lon="-0.38357">
        <ele>90.8</ele>
        <time>2022-04-03T09:45:11Z</time>
      </trkpt>
      <trkpt lat="44.80715" lon="-0.38362">
        <ele>90.8</ele>
        <time>2022-04-03T09:45:12Z</time>
      </trkpt>
      <trkpt lat="44.80719" lon="-0.38365">
        <ele>90.6</ele>
        <time>2022-04-03T09:45:13Z</time>
      </trkpt>
      <trkpt lat="44.80722" lon="-0.38369">
        <ele>90.6</ele>
        <time>2022-04-03T09:45:14Z</time>
      </trkpt>
      <trkpt lat="44.80722" lon="-0.38369">
        <ele>90.6</ele>
        <time>2022-04-03T09:45:15Z</time>
      </trkpt>
      <trkpt lat="44.80732" lon="-0.38379">
        <ele>90.8</ele>
        <time>2022-04-03T09:45:16Z</time>
      </trkpt>
      <trkpt lat="44.80735" lon="-0.38383">
        <ele>90.6</ele>
        <time>2022-04-03T09:45:17Z</time>
      </trkpt>
      <trkpt lat="44.80738" lon="-0.38384">
        <ele>90.8</ele>
        <time>2022-04-03T09:45:18Z</time>
      </trkpt>
      <trkpt lat="44.80741" lon="-0.38384">
        <ele>90.4</ele>
        <time>2022-04-03T09:45:19Z</time>
      </trkpt>
      <trkpt lat="44.80741" lon="-0.38384">
        <ele>90.8</ele>
        <time>2022-04-03T09:45:20Z</time>
      </trkpt>
      <trkpt lat="44.80743" lon="-0.38381">
        <ele>91</ele>
        <time>2022-04-03T09:45:21Z</time>
      </trkpt>
      <trkpt lat="44.80741" lon="-0.38378">
        <ele>91.6</ele>
        <time>2022-04-03T09:45:22Z</time>
      </trkpt>
      <trkpt lat="44.80741" lon="-0.38376">
        <ele>92</ele>
        <time>2022-04-03T09:45:23Z</time>
      </trkpt>
      <trkpt lat="44.8074" lon="-0.38374">
        <ele>92.8</ele>
        <time>2022-04-03T09:45:24Z</time>
      </trkpt>
      <trkpt lat="44.80738" lon="-0.38371">
        <ele>93.4</ele>
        <time>2022-04-03T09:45:25Z</time>
      </trkpt>
      <trkpt lat="44.80737" lon="-0.38367">
        <ele>93.8</ele>
        <time>2022-04-03T09:45:26Z</time>
      </trkpt>
      <trkpt lat="44.80737" lon="-0.38366">
        <ele>94.2</ele>
        <time>2022-04-03T09:45:27Z</time>
      </trkpt>
      <trkpt lat="44.80738" lon="-0.38367">
        <ele>94.6</ele>
        <time>2022-04-03T09:45:28Z</time>
      </trkpt>
      <trkpt lat="44.80739" lon="-0.38367">
        <ele>95</ele>
        <time>2022-04-03T09:45:29Z</time>
      </trkpt>
      <trkpt lat="44.8074" lon="-0.38365">
        <ele>95.6</ele>
        <time>2022-04-03T09:45:30Z</time>
      </trkpt>
      <trkpt lat="44.8074" lon="-0.38365">
        <ele>95.6</ele>
        <time>2022-04-03T09:45:31Z</time>
      </trkpt>
      <trkpt lat="44.8074" lon="-0.38363">
        <ele>96.2</ele>
        <time>2022-04-03T09:45:32Z</time>
      </trkpt>
      <trkpt lat="44.8074" lon="-0.38361">
        <ele>96.6</ele>
        <time>2022-04-03T09:45:33Z</time>
      </trkpt>
      <trkpt lat="44.8074" lon="-0.38359">
        <ele>96.8</ele>
        <time>2022-04-03T09:45:34Z</time>
      </trkpt>
      <trkpt lat="44.8074" lon="-0.38357">
        <ele>97.4</ele>
        <time>2022-04-03T09:45:35Z</time>
      </trkpt>
      <trkpt lat="44.8074" lon="-0.38357">
        <ele>97.6</ele>
        <time>2022-04-03T09:45:36Z</time>
      </trkpt>
      <trkpt lat="44.80745" lon="-0.3835">
        <ele>98.2</ele>
        <time>2022-04-03T09:45:37Z</time>
      </trkpt>
      <trkpt lat="44.80746" lon="-0.38348">
        <ele>98.2</ele>
        <time>2022-04-03T09:45:38Z</time>
      </trkpt>
      <trkpt lat="44.80748" lon="-0.38346">
        <ele>98</ele>
        <time>2022-04-03T09:45:39Z</time>
      </trkpt>
      <trkpt lat="44.8075" lon="-0.38346">
        <ele>97.4</ele>
        <time>2022-04-03T09:45:40Z</time>
      </trkpt>
      <trkpt lat="44.8075" lon="-0.38346">
        <ele>97.2</ele>
        <time>2022-04-03T09:45:41Z</time>
      </trkpt>
      <trkpt lat="44.80753" lon="-0.38346">
        <ele>97</ele>
        <time>2022-04-03T09:45:42Z</time>
      </trkpt>
      <trkpt lat="44.80754" lon="-0.38345">
        <ele>97.2</ele>
        <time>2022-04-03T09:45:43Z</time>
      </trkpt>
      <trkpt lat="44.80756" lon="-0.38341">
        <ele>96.4</ele>
        <time>2022-04-03T09:45:44Z</time>
      </trkpt>
      <trkpt lat="44.80759" lon="-0.38334">
        <ele>95.8</ele>
        <time>2022-04-03T09:45:45Z</time>
      </trkpt>
      <trkpt lat="44.80759" lon="-0.38334">
        <ele>95</ele>
        <time>2022-04-03T09:45:46Z</time>
      </trkpt>
      <trkpt lat="44.80767" lon="-0.38313">
        <ele>94.2</ele>
        <time>2022-04-03T09:45:47Z</time>
      </trkpt>
      <trkpt lat="44.8077" lon="-0.38307">
        <ele>94</ele>
        <time>2022-04-03T09:45:48Z</time>
      </trkpt>
      <trkpt lat="44.80773" lon="-0.383">
        <ele>92.6</ele>
        <time>2022-04-03T09:45:49Z</time>
      </trkpt>
      <trkpt lat="44.80776" lon="-0.38295">
        <ele>92.2</ele>
        <time>2022-04-03T09:45:50Z</time>
      </trkpt>
      <trkpt lat="44.80778" lon="-0.38295">
        <ele>90.4</ele>
        <time>2022-04-03T09:45:51Z</time>
      </trkpt>
      <trkpt lat="44.80778" lon="-0.38295">
        <ele>90.4</ele>
        <time>2022-04-03T09:45:52Z</time>
      </trkpt>
      <trkpt lat="44.80781" lon="-0.38296">
        <ele>90</ele>
        <time>2022-04-03T09:45:53Z</time>
      </trkpt>
      <trkpt lat="44.80785" lon="-0.38296">
        <ele>89.2</ele>
        <time>2022-04-03T09:45:54Z</time>
      </trkpt>
      <trkpt lat="44.80787" lon="-0.38294">
        <ele>88.8</ele>
        <time>2022-04-03T09:45:55Z</time>
      </trkpt>
      <trkpt lat="44.80789" lon="-0.38292">
        <ele>88.6</ele>
        <time>2022-04-03T09:45:56Z</time>
      </trkpt>
      <trkpt lat="44.80792" lon="-0.38292">
        <ele>88.6</ele>
        <time>2022-04-03T09:45:57Z</time>
      </trkpt>
      <trkpt lat="44.80796" lon="-0.38301">
        <ele>88.6</ele>
        <time>2022-04-03T09:45:58Z</time>
      </trkpt>
      <trkpt lat="44.80797" lon="-0.38306">
        <ele>88.8</ele>
        <time>2022-04-03T09:45:59Z</time>
      </trkpt>
      <trkpt lat="44.80798" lon="-0.38312">
        <ele>88.8</ele>
        <time>2022-04-03T09:46:00Z</time>
      </trkpt>
      <trkpt lat="44.80797" lon="-0.38315">
        <ele>89.2</ele>
        <time>2022-04-03T09:46:01Z</time>
      </trkpt>
      <trkpt lat="44.80797" lon="-0.38315">
        <ele>89.4</ele>
        <time>2022-04-03T09:46:02Z</time>
      </trkpt>
      <trkpt lat="44.80795" lon="-0.38315">
        <ele>89.8</ele>
        <time>2022-04-03T09:46:03Z</time>
      </trkpt>
      <trkpt lat="44.8079" lon="-0.38315">
        <ele>89.8</ele>
        <time>2022-04-03T09:46:04Z</time>
      </trkpt>
      <trkpt lat="44.80787" lon="-0.38314">
        <ele>90.6</ele>
        <time>2022-04-03T09:46:05Z</time>
      </trkpt>
      <trkpt lat="44.80785" lon="-0.38314">
        <ele>91.2</ele>
        <time>2022-04-03T09:46:06Z</time>
      </trkpt>
      <trkpt lat="44.80782" lon="-0.38313">
        <ele>92</ele>
        <time>2022-04-03T09:46:07Z</time>
      </trkpt>
      <trkpt lat="44.8078" lon="-0.38312">
        <ele>92.2</ele>
        <time>2022-04-03T09:46:08Z</time>
      </trkpt>
      <trkpt lat="44.80778" lon="-0.38312">
        <ele>92.8</ele>
        <time>2022-04-03T09:46:09Z</time>
      </trkpt>
      <trkpt lat="44.80777" lon="-0.38311">
        <ele>93.2</ele>
        <time>2022-04-03T09:46:10Z</time>
      </trkpt>
      <trkpt lat="44.80776" lon="-0.38311">
        <ele>93.6</ele>
        <time>2022-04-03T09:46:11Z</time>
      </trkpt>
      <trkpt lat="44.80777" lon="-0.38315">
        <ele>93.6</ele>
        <time>2022-04-03T09:46:12Z</time>
      </trkpt>
      <trkpt lat="44.80777" lon="-0.38315">
        <ele>93.6</ele>
        <time>2022-04-03T09:46:13Z</time>
      </trkpt>
      <trkpt lat="44.80777" lon="-0.38317">
        <ele>94</ele>
        <time>2022-04-03T09:46:14Z</time>
      </trkpt>
      <trkpt lat="44.80778" lon="-0.38321">
        <ele>94.2</ele>
        <time>2022-04-03T09:46:15Z</time>
      </trkpt>
      <trkpt lat="44.80778" lon="-0.38325">
        <ele>94.8</ele>
        <time>2022-04-03T09:46:16Z</time>
      </trkpt>
      <trkpt lat="44.80778" lon="-0.38328">
        <ele>95.2</ele>
        <time>2022-04-03T09:46:17Z</time>
      </trkpt>
      <trkpt lat="44.80777" lon="-0.38333">
        <ele>95.8</ele>
        <time>2022-04-03T09:46:18Z</time>
      </trkpt>
      <trkpt lat="44.80778" lon="-0.38336">
        <ele>96.2</ele>
        <time>2022-04-03T09:46:19Z</time>
      </trkpt>
      <trkpt lat="44.80777" lon="-0.38338">
        <ele>96.2</ele>
        <time>2022-04-03T09:46:20Z</time>
      </trkpt>
      <trkpt lat="44.80777" lon="-0.3834">
        <ele>96.6</ele>
        <time>2022-04-03T09:46:21Z</time>
      </trkpt>
      <trkpt lat="44.80776" lon="-0.38341">
        <ele>96.8</ele>
        <time>2022-04-03T09:46:22Z</time>
      </trkpt>
      <trkpt lat="44.80776" lon="-0.38341">
        <ele>97.2</ele>
        <time>2022-04-03T09:46:23Z</time>
      </trkpt>
      <trkpt lat="44.80775" lon="-0.38342">
        <ele>97</ele>
        <time>2022-04-03T09:46:24Z</time>
      </trkpt>
      <trkpt lat="44.80774" lon="-0.38343">
        <ele>97.4</ele>
        <time>2022-04-03T09:46:25Z</time>
      </trkpt>
      <trkpt lat="44.80772" lon="-0.38343">
        <ele>97.4</ele>
        <time>2022-04-03T09:46:26Z</time>
      </trkpt>
      <trkpt lat="44.80772" lon="-0.38343">
        <ele>97.6</ele>
        <time>2022-04-03T09:46:27Z</time>
      </trkpt>
      <trkpt lat="44.80767" lon="-0.38343">
        <ele>97.8</ele>
        <time>2022-04-03T09:46:28Z</time>
      </trkpt>
      <trkpt lat="44.80767" lon="-0.38344">
        <ele>97.8</ele>
        <time>2022-04-03T09:46:29Z</time>
      </trkpt>
      <trkpt lat="44.80765" lon="-0.38346">
        <ele>97.6</ele>
        <time>2022-04-03T09:46:30Z</time>
      </trkpt>
      <trkpt lat="44.80764" lon="-0.38347">
        <ele>97.8</ele>
        <time>2022-04-03T09:46:31Z</time>
      </trkpt>
      <trkpt lat="44.80762" lon="-0.3835">
        <ele>97.4</ele>
        <time>2022-04-03T09:46:32Z</time>
      </trkpt>
      <trkpt lat="44.80761" lon="-0.38355">
        <ele>96.8</ele>
        <time>2022-04-03T09:46:33Z</time>
      </trkpt>
      <trkpt lat="44.80761" lon="-0.38355">
        <ele>96.8</ele>
        <time>2022-04-03T09:46:34Z</time>
      </trkpt>
      <trkpt lat="44.80761" lon="-0.38361">
        <ele>96</ele>
        <time>2022-04-03T09:46:35Z</time>
      </trkpt>
      <trkpt lat="44.80763" lon="-0.38366">
        <ele>94.2</ele>
        <time>2022-04-03T09:46:36Z</time>
      </trkpt>
      <trkpt lat="44.80765" lon="-0.38372">
        <ele>92.6</ele>
        <time>2022-04-03T09:46:37Z</time>
      </trkpt>
      <trkpt lat="44.80772" lon="-0.38387">
        <ele>90.8</ele>
        <time>2022-04-03T09:46:38Z</time>
      </trkpt>
      <trkpt lat="44.80777" lon="-0.38393">
        <ele>89.8</ele>
        <time>2022-04-03T09:46:39Z</time>
      </trkpt>
      <trkpt lat="44.80782" lon="-0.38394">
        <ele>89.6</ele>
        <time>2022-04-03T09:46:40Z</time>
      </trkpt>
      <trkpt lat="44.80788" lon="-0.38391">
        <ele>89.2</ele>
        <time>2022-04-03T09:46:41Z</time>
      </trkpt>
      <trkpt lat="44.80792" lon="-0.38386">
        <ele>89.8</ele>
        <time>2022-04-03T09:46:42Z</time>
      </trkpt>
      <trkpt lat="44.80795" lon="-0.38381">
        <ele>90.2</ele>
        <time>2022-04-03T09:46:43Z</time>
      </trkpt>
      <trkpt lat="44.80795" lon="-0.38381">
        <ele>90.2</ele>
        <time>2022-04-03T09:46:44Z</time>
      </trkpt>
      <trkpt lat="44.80796" lon="-0.38374">
        <ele>90</ele>
        <time>2022-04-03T09:46:45Z</time>
      </trkpt>
      <trkpt lat="44.80798" lon="-0.38366">
        <ele>89.2</ele>
        <time>2022-04-03T09:46:46Z</time>
      </trkpt>
      <trkpt lat="44.80801" lon="-0.38359">
        <ele>89.4</ele>
        <time>2022-04-03T09:46:47Z</time>
      </trkpt>
      <trkpt lat="44.80806" lon="-0.38345">
        <ele>89.2</ele>
        <time>2022-04-03T09:46:48Z</time>
      </trkpt>
      <trkpt lat="44.80809" lon="-0.38338">
        <ele>89.6</ele>
        <time>2022-04-03T09:46:49Z</time>
      </trkpt>
      <trkpt lat="44.80813" lon="-0.3833">
        <ele>90</ele>
        <time>2022-04-03T09:46:50Z</time>
      </trkpt>
      <trkpt lat="44.80817" lon="-0.38324">
        <ele>90.4</ele>
        <time>2022-04-03T09:46:51Z</time>
      </trkpt>
      <trkpt lat="44.80822" lon="-0.38319">
        <ele>90.6</ele>
        <time>2022-04-03T09:46:52Z</time>
      </trkpt>
      <trkpt lat="44.80827" lon="-0.38318">
        <ele>89.8</ele>
        <time>2022-04-03T09:46:53Z</time>
      </trkpt>
      <trkpt lat="44.80833" lon="-0.3832">
        <ele>89.6</ele>
        <time>2022-04-03T09:46:54Z</time>
      </trkpt>
      <trkpt lat="44.80833" lon="-0.3832">
        <ele>89.6</ele>
        <time>2022-04-03T09:46:55Z</time>
      </trkpt>
      <trkpt lat="44.80835" lon="-0.38327">
        <ele>89.6</ele>
        <time>2022-04-03T09:46:56Z</time>
      </trkpt>
      <trkpt lat="44.80835" lon="-0.38335">
        <ele>90.2</ele>
        <time>2022-04-03T09:46:57Z</time>
      </trkpt>
      <trkpt lat="44.80834" lon="-0.38343">
        <ele>90.6</ele>
        <time>2022-04-03T09:46:58Z</time>
      </trkpt>
      <trkpt lat="44.80829" lon="-0.38357">
        <ele>90.8</ele>
        <time>2022-04-03T09:46:59Z</time>
      </trkpt>
      <trkpt lat="44.80826" lon="-0.38364">
        <ele>91</ele>
        <time>2022-04-03T09:47:00Z</time>
      </trkpt>
      <trkpt lat="44.80824" lon="-0.38372">
        <ele>90.8</ele>
        <time>2022-04-03T09:47:01Z</time>
      </trkpt>
      <trkpt lat="44.80821" lon="-0.38379">
        <ele>90.4</ele>
        <time>2022-04-03T09:47:02Z</time>
      </trkpt>
      <trkpt lat="44.80819" lon="-0.38387">
        <ele>90.4</ele>
        <time>2022-04-03T09:47:03Z</time>
      </trkpt>
      <trkpt lat="44.80817" lon="-0.38395">
        <ele>90.4</ele>
        <time>2022-04-03T09:47:04Z</time>
      </trkpt>
      <trkpt lat="44.80817" lon="-0.38395">
        <ele>91</ele>
        <time>2022-04-03T09:47:05Z</time>
      </trkpt>
      <trkpt lat="44.80816" lon="-0.38403">
        <ele>91.4</ele>
        <time>2022-04-03T09:47:06Z</time>
      </trkpt>
      <trkpt lat="44.80814" lon="-0.3841">
        <ele>91.4</ele>
        <time>2022-04-03T09:47:07Z</time>
      </trkpt>
      <trkpt lat="44.80814" lon="-0.3841">
        <ele>91.8</ele>
        <time>2022-04-03T09:47:08Z</time>
      </trkpt>
      <trkpt lat="44.8081" lon="-0.38433">
        <ele>91.4</ele>
        <time>2022-04-03T09:47:09Z</time>
      </trkpt>
      <trkpt lat="44.80807" lon="-0.38439">
        <ele>91.6</ele>
        <time>2022-04-03T09:47:10Z</time>
      </trkpt>
      <trkpt lat="44.80805" lon="-0.38446">
        <ele>91</ele>
        <time>2022-04-03T09:47:11Z</time>
      </trkpt>
      <trkpt lat="44.80801" lon="-0.3845">
        <ele>91</ele>
        <time>2022-04-03T09:47:12Z</time>
      </trkpt>
      <trkpt lat="44.80796" lon="-0.3845">
        <ele>91</ele>
        <time>2022-04-03T09:47:13Z</time>
      </trkpt>
      <trkpt lat="44.8079" lon="-0.38448">
        <ele>91.2</ele>
        <time>2022-04-03T09:47:14Z</time>
      </trkpt>
      <trkpt lat="44.80784" lon="-0.38444">
        <ele>91.4</ele>
        <time>2022-04-03T09:47:15Z</time>
      </trkpt>
      <trkpt lat="44.80784" lon="-0.38444">
        <ele>91.4</ele>
        <time>2022-04-03T09:47:16Z</time>
      </trkpt>
      <trkpt lat="44.80778" lon="-0.3844">
        <ele>91.4</ele>
        <time>2022-04-03T09:47:17Z</time>
      </trkpt>
      <trkpt lat="44.80773" lon="-0.38436">
        <ele>91.4</ele>
        <time>2022-04-03T09:47:18Z</time>
      </trkpt>
      <trkpt lat="44.80773" lon="-0.38436">
        <ele>91.4</ele>
        <time>2022-04-03T09:47:19Z</time>
      </trkpt>
      <trkpt lat="44.80756" lon="-0.38423">
        <ele>91.2</ele>
        <time>2022-04-03T09:47:20Z</time>
      </trkpt>
      <trkpt lat="44.80751" lon="-0.38419">
        <ele>91.2</ele>
        <time>2022-04-03T09:47:21Z</time>
      </trkpt>
      <trkpt lat="44.80744" lon="-0.38416">
        <ele>90.8</ele>
        <time>2022-04-03T09:47:22Z</time>
      </trkpt>
      <trkpt lat="44.80739" lon="-0.38417">
        <ele>90</ele>
        <time>2022-04-03T09:47:23Z</time>
      </trkpt>
      <trkpt lat="44.80733" lon="-0.38421">
        <ele>89.2</ele>
        <time>2022-04-03T09:47:24Z</time>
      </trkpt>
      <trkpt lat="44.80731" lon="-0.38428">
        <ele>88.8</ele>
        <time>2022-04-03T09:47:25Z</time>
      </trkpt>
      <trkpt lat="44.80731" lon="-0.38428">
        <ele>89</ele>
        <time>2022-04-03T09:47:26Z</time>
      </trkpt>
      <trkpt lat="44.80731" lon="-0.38437">
        <ele>88.8</ele>
        <time>2022-04-03T09:47:27Z</time>
      </trkpt>
      <trkpt lat="44.80732" lon="-0.38446">
        <ele>88.8</ele>
        <time>2022-04-03T09:47:28Z</time>
      </trkpt>
      <trkpt lat="44.80736" lon="-0.38464">
        <ele>88.6</ele>
        <time>2022-04-03T09:47:29Z</time>
      </trkpt>
      <trkpt lat="44.8074" lon="-0.38471">
        <ele>88.6</ele>
        <time>2022-04-03T09:47:30Z</time>
      </trkpt>
      <trkpt lat="44.80745" lon="-0.38477">
        <ele>89</ele>
        <time>2022-04-03T09:47:31Z</time>
      </trkpt>
      <trkpt lat="44.80751" lon="-0.38481">
        <ele>89.6</ele>
        <time>2022-04-03T09:47:32Z</time>
      </trkpt>
      <trkpt lat="44.80757" lon="-0.38484">
        <ele>90</ele>
        <time>2022-04-03T09:47:33Z</time>
      </trkpt>
      <trkpt lat="44.80762" lon="-0.38486">
        <ele>90.2</ele>
        <time>2022-04-03T09:47:34Z</time>
      </trkpt>
      <trkpt lat="44.80768" lon="-0.38485">
        <ele>90</ele>
        <time>2022-04-03T09:47:35Z</time>
      </trkpt>
      <trkpt lat="44.80773" lon="-0.38482">
        <ele>90.2</ele>
        <time>2022-04-03T09:47:36Z</time>
      </trkpt>
      <trkpt lat="44.80773" lon="-0.38482">
        <ele>90.2</ele>
        <time>2022-04-03T09:47:37Z</time>
      </trkpt>
      <trkpt lat="44.80778" lon="-0.38479">
        <ele>90.6</ele>
        <time>2022-04-03T09:47:38Z</time>
      </trkpt>
      <trkpt lat="44.80782" lon="-0.38477">
        <ele>90.8</ele>
        <time>2022-04-03T09:47:39Z</time>
      </trkpt>
      <trkpt lat="44.8079" lon="-0.38483">
        <ele>90.8</ele>
        <time>2022-04-03T09:47:40Z</time>
      </trkpt>
      <trkpt lat="44.80795" lon="-0.38486">
        <ele>90.2</ele>
        <time>2022-04-03T09:47:41Z</time>
      </trkpt>
      <trkpt lat="44.80799" lon="-0.38489">
        <ele>90.4</ele>
        <time>2022-04-03T09:47:42Z</time>
      </trkpt>
      <trkpt lat="44.80803" lon="-0.38492">
        <ele>90.4</ele>
        <time>2022-04-03T09:47:43Z</time>
      </trkpt>
      <trkpt lat="44.80808" lon="-0.38495">
        <ele>91</ele>
        <time>2022-04-03T09:47:44Z</time>
      </trkpt>
      <trkpt lat="44.80812" lon="-0.38497">
        <ele>90.6</ele>
        <time>2022-04-03T09:47:45Z</time>
      </trkpt>
      <trkpt lat="44.80817" lon="-0.385">
        <ele>90</ele>
        <time>2022-04-03T09:47:46Z</time>
      </trkpt>
      <trkpt lat="44.80817" lon="-0.385">
        <ele>89.4</ele>
        <time>2022-04-03T09:47:47Z</time>
      </trkpt>
      <trkpt lat="44.80821" lon="-0.38502">
        <ele>89.8</ele>
        <time>2022-04-03T09:47:48Z</time>
      </trkpt>
      <trkpt lat="44.80821" lon="-0.38502">
        <ele>90.4</ele>
        <time>2022-04-03T09:47:49Z</time>
      </trkpt>
      <trkpt lat="44.80835" lon="-0.38508">
        <ele>90.8</ele>
        <time>2022-04-03T09:47:50Z</time>
      </trkpt>
      <trkpt lat="44.80839" lon="-0.3851">
        <ele>91.2</ele>
        <time>2022-04-03T09:47:51Z</time>
      </trkpt>
      <trkpt lat="44.80842" lon="-0.38512">
        <ele>91.6</ele>
        <time>2022-04-03T09:47:52Z</time>
      </trkpt>
      <trkpt lat="44.80843" lon="-0.38517">
        <ele>92.6</ele>
        <time>2022-04-03T09:47:53Z</time>
      </trkpt>
      <trkpt lat="44.80844" lon="-0.38524">
        <ele>92.8</ele>
        <time>2022-04-03T09:47:54Z</time>
      </trkpt>
      <trkpt lat="44.80846" lon="-0.38531">
        <ele>93</ele>
        <time>2022-04-03T09:47:55Z</time>
      </trkpt>
      <trkpt lat="44.80845" lon="-0.38538">
        <ele>92.6</ele>
        <time>2022-04-03T09:47:56Z</time>
      </trkpt>
      <trkpt lat="44.80844" lon="-0.38545">
        <ele>92.6</ele>
        <time>2022-04-03T09:47:57Z</time>
      </trkpt>
      <trkpt lat="44.80844" lon="-0.38545">
        <ele>92.6</ele>
        <time>2022-04-03T09:47:58Z</time>
      </trkpt>
      <trkpt lat="44.80844" lon="-0.38551">
        <ele>92.8</ele>
        <time>2022-04-03T09:47:59Z</time>
      </trkpt>
      <trkpt lat="44.80844" lon="-0.38551">
        <ele>93.2</ele>
        <time>2022-04-03T09:48:00Z</time>
      </trkpt>
      <trkpt lat="44.80849" lon="-0.38564">
        <ele>93</ele>
        <time>2022-04-03T09:48:01Z</time>
      </trkpt>
      <trkpt lat="44.80851" lon="-0.38566">
        <ele>93</ele>
        <time>2022-04-03T09:48:02Z</time>
      </trkpt>
    </trkseg>
  </trk>
</gpx>